<?xml version="1.0" encoding="UTF-8" standalone="no" ?>
<gpx xmlns="http://www.topografix.com/GPX/1/1" xmlns:xsi="http://www.w3.org/2001/XMLSchema-instance" xsi:schemaLocation="http://www.topografix.com/GPX/1/1 http://www.topografix.com/GPX/1/1/gpx.xsd" version="1.1" creator="VisuGPX - https://www.visugpx.com">
  <metadata>
    <name>20200625-104248-183227-etrex-MNT</name>
    <desc><![CDATA[En VTT, une boucle de la Chapelle jusqu'à Vassieux]]></desc>
  </metadata>
  <trk>
    <name><![CDATA[20200625-104248-183227-etrex-MNT]]></name>
    <trkseg>
      <trkpt lat="44.96823" lon="5.42912">
        <ele>872</ele>
        <time>2020-06-25T08:42:48Z</time>
      </trkpt>
      <trkpt lat="44.96825" lon="5.42913">
        <ele>872</ele>
        <time>2020-06-25T08:43:17Z</time>
      </trkpt>
      <trkpt lat="44.96829" lon="5.42924">
        <ele>872</ele>
        <time>2020-06-25T08:43:29Z</time>
      </trkpt>
      <trkpt lat="44.96829" lon="5.42929">
        <ele>872</ele>
        <time>2020-06-25T08:43:31Z</time>
      </trkpt>
      <trkpt lat="44.96829" lon="5.42935">
        <ele>872</ele>
        <time>2020-06-25T08:43:33Z</time>
      </trkpt>
      <trkpt lat="44.96829" lon="5.4298">
        <ele>871</ele>
        <time>2020-06-25T08:43:44Z</time>
      </trkpt>
      <trkpt lat="44.96828" lon="5.43013">
        <ele>871</ele>
        <time>2020-06-25T08:43:51Z</time>
      </trkpt>
      <trkpt lat="44.96825" lon="5.43014">
        <ele>871</ele>
        <time>2020-06-25T08:43:52Z</time>
      </trkpt>
      <trkpt lat="44.96823" lon="5.43014">
        <ele>871</ele>
        <time>2020-06-25T08:43:53Z</time>
      </trkpt>
      <trkpt lat="44.9682" lon="5.43013">
        <ele>871</ele>
        <time>2020-06-25T08:43:54Z</time>
      </trkpt>
      <trkpt lat="44.96819" lon="5.43012">
        <ele>871</ele>
        <time>2020-06-25T08:43:55Z</time>
      </trkpt>
      <trkpt lat="44.96817" lon="5.43011">
        <ele>871</ele>
        <time>2020-06-25T08:43:56Z</time>
      </trkpt>
      <trkpt lat="44.96816" lon="5.4301">
        <ele>871</ele>
        <time>2020-06-25T08:43:57Z</time>
      </trkpt>
      <trkpt lat="44.96815" lon="5.43009">
        <ele>871</ele>
        <time>2020-06-25T08:43:58Z</time>
      </trkpt>
      <trkpt lat="44.96814" lon="5.43007">
        <ele>871</ele>
        <time>2020-06-25T08:43:59Z</time>
      </trkpt>
      <trkpt lat="44.96813" lon="5.43005">
        <ele>871</ele>
        <time>2020-06-25T08:44:00Z</time>
      </trkpt>
      <trkpt lat="44.96812" lon="5.43003">
        <ele>871</ele>
        <time>2020-06-25T08:44:01Z</time>
      </trkpt>
      <trkpt lat="44.96812" lon="5.43001">
        <ele>871</ele>
        <time>2020-06-25T08:44:02Z</time>
      </trkpt>
      <trkpt lat="44.96812" lon="5.42999">
        <ele>871</ele>
        <time>2020-06-25T08:44:03Z</time>
      </trkpt>
      <trkpt lat="44.96812" lon="5.42996">
        <ele>871</ele>
        <time>2020-06-25T08:44:05Z</time>
      </trkpt>
      <trkpt lat="44.9681" lon="5.42989">
        <ele>871</ele>
        <time>2020-06-25T08:44:09Z</time>
      </trkpt>
      <trkpt lat="44.9681" lon="5.42987">
        <ele>871</ele>
        <time>2020-06-25T08:44:10Z</time>
      </trkpt>
      <trkpt lat="44.96809" lon="5.42978">
        <ele>871</ele>
        <time>2020-06-25T08:44:16Z</time>
      </trkpt>
      <trkpt lat="44.96808" lon="5.42976">
        <ele>871</ele>
        <time>2020-06-25T08:44:17Z</time>
      </trkpt>
      <trkpt lat="44.96808" lon="5.42973">
        <ele>871</ele>
        <time>2020-06-25T08:44:18Z</time>
      </trkpt>
      <trkpt lat="44.96808" lon="5.42971">
        <ele>871</ele>
        <time>2020-06-25T08:44:19Z</time>
      </trkpt>
      <trkpt lat="44.96808" lon="5.42969">
        <ele>871</ele>
        <time>2020-06-25T08:44:20Z</time>
      </trkpt>
      <trkpt lat="44.96808" lon="5.42966">
        <ele>871</ele>
        <time>2020-06-25T08:44:21Z</time>
      </trkpt>
      <trkpt lat="44.96808" lon="5.42964">
        <ele>871</ele>
        <time>2020-06-25T08:44:22Z</time>
      </trkpt>
      <trkpt lat="44.96807" lon="5.42958">
        <ele>871</ele>
        <time>2020-06-25T08:44:25Z</time>
      </trkpt>
      <trkpt lat="44.96808" lon="5.42956">
        <ele>871</ele>
        <time>2020-06-25T08:44:26Z</time>
      </trkpt>
      <trkpt lat="44.96808" lon="5.42953">
        <ele>871</ele>
        <time>2020-06-25T08:44:27Z</time>
      </trkpt>
      <trkpt lat="44.96808" lon="5.42951">
        <ele>871</ele>
        <time>2020-06-25T08:44:28Z</time>
      </trkpt>
      <trkpt lat="44.96808" lon="5.42949">
        <ele>871</ele>
        <time>2020-06-25T08:44:29Z</time>
      </trkpt>
      <trkpt lat="44.96807" lon="5.42925">
        <ele>871</ele>
        <time>2020-06-25T08:44:39Z</time>
      </trkpt>
      <trkpt lat="44.96807" lon="5.42923">
        <ele>871</ele>
        <time>2020-06-25T08:44:40Z</time>
      </trkpt>
      <trkpt lat="44.96807" lon="5.42921">
        <ele>871</ele>
        <time>2020-06-25T08:44:41Z</time>
      </trkpt>
      <trkpt lat="44.96807" lon="5.42907">
        <ele>871</ele>
        <time>2020-06-25T08:44:47Z</time>
      </trkpt>
      <trkpt lat="44.96807" lon="5.42905">
        <ele>872</ele>
        <time>2020-06-25T08:44:48Z</time>
      </trkpt>
      <trkpt lat="44.96806" lon="5.42904">
        <ele>872</ele>
        <time>2020-06-25T08:44:49Z</time>
      </trkpt>
      <trkpt lat="44.968" lon="5.42899">
        <ele>871</ele>
        <time>2020-06-25T08:44:54Z</time>
      </trkpt>
      <trkpt lat="44.96799" lon="5.429">
        <ele>871</ele>
        <time>2020-06-25T08:44:55Z</time>
      </trkpt>
      <trkpt lat="44.96798" lon="5.42901">
        <ele>871</ele>
        <time>2020-06-25T08:44:56Z</time>
      </trkpt>
      <trkpt lat="44.96797" lon="5.429">
        <ele>871</ele>
        <time>2020-06-25T08:44:57Z</time>
      </trkpt>
      <trkpt lat="44.96795" lon="5.429">
        <ele>871</ele>
        <time>2020-06-25T08:44:58Z</time>
      </trkpt>
      <trkpt lat="44.96794" lon="5.429">
        <ele>871</ele>
        <time>2020-06-25T08:44:59Z</time>
      </trkpt>
      <trkpt lat="44.96792" lon="5.429">
        <ele>871</ele>
        <time>2020-06-25T08:45:01Z</time>
      </trkpt>
      <trkpt lat="44.96791" lon="5.42901">
        <ele>871</ele>
        <time>2020-06-25T08:45:02Z</time>
      </trkpt>
      <trkpt lat="44.96789" lon="5.42901">
        <ele>871</ele>
        <time>2020-06-25T08:45:03Z</time>
      </trkpt>
      <trkpt lat="44.96788" lon="5.42902">
        <ele>871</ele>
        <time>2020-06-25T08:45:04Z</time>
      </trkpt>
      <trkpt lat="44.96787" lon="5.42902">
        <ele>871</ele>
        <time>2020-06-25T08:45:05Z</time>
      </trkpt>
      <trkpt lat="44.96785" lon="5.42903">
        <ele>871</ele>
        <time>2020-06-25T08:45:06Z</time>
      </trkpt>
      <trkpt lat="44.96784" lon="5.42903">
        <ele>871</ele>
        <time>2020-06-25T08:45:07Z</time>
      </trkpt>
      <trkpt lat="44.96782" lon="5.42903">
        <ele>871</ele>
        <time>2020-06-25T08:45:08Z</time>
      </trkpt>
      <trkpt lat="44.96781" lon="5.42904">
        <ele>871</ele>
        <time>2020-06-25T08:45:09Z</time>
      </trkpt>
      <trkpt lat="44.96779" lon="5.42904">
        <ele>871</ele>
        <time>2020-06-25T08:45:10Z</time>
      </trkpt>
      <trkpt lat="44.96778" lon="5.42905">
        <ele>871</ele>
        <time>2020-06-25T08:45:11Z</time>
      </trkpt>
      <trkpt lat="44.96755" lon="5.42904">
        <ele>870</ele>
        <time>2020-06-25T08:45:26Z</time>
      </trkpt>
      <trkpt lat="44.9673" lon="5.42896">
        <ele>870</ele>
        <time>2020-06-25T08:45:40Z</time>
      </trkpt>
      <trkpt lat="44.96728" lon="5.42895">
        <ele>870</ele>
        <time>2020-06-25T08:45:41Z</time>
      </trkpt>
      <trkpt lat="44.96727" lon="5.42894">
        <ele>870</ele>
        <time>2020-06-25T08:45:42Z</time>
      </trkpt>
      <trkpt lat="44.96725" lon="5.42894">
        <ele>870</ele>
        <time>2020-06-25T08:45:43Z</time>
      </trkpt>
      <trkpt lat="44.96723" lon="5.42892">
        <ele>870</ele>
        <time>2020-06-25T08:45:44Z</time>
      </trkpt>
      <trkpt lat="44.96721" lon="5.4289">
        <ele>870</ele>
        <time>2020-06-25T08:45:45Z</time>
      </trkpt>
      <trkpt lat="44.96719" lon="5.42889">
        <ele>870</ele>
        <time>2020-06-25T08:45:46Z</time>
      </trkpt>
      <trkpt lat="44.96717" lon="5.42887">
        <ele>870</ele>
        <time>2020-06-25T08:45:47Z</time>
      </trkpt>
      <trkpt lat="44.96689" lon="5.42851">
        <ele>870</ele>
        <time>2020-06-25T08:46:02Z</time>
      </trkpt>
      <trkpt lat="44.96686" lon="5.42835">
        <ele>870</ele>
        <time>2020-06-25T08:46:07Z</time>
      </trkpt>
      <trkpt lat="44.9668" lon="5.42823">
        <ele>870</ele>
        <time>2020-06-25T08:46:10Z</time>
      </trkpt>
      <trkpt lat="44.96676" lon="5.4282">
        <ele>870</ele>
        <time>2020-06-25T08:46:11Z</time>
      </trkpt>
      <trkpt lat="44.96623" lon="5.42786">
        <ele>870</ele>
        <time>2020-06-25T08:46:21Z</time>
      </trkpt>
      <trkpt lat="44.96608" lon="5.42776">
        <ele>870</ele>
        <time>2020-06-25T08:46:24Z</time>
      </trkpt>
      <trkpt lat="44.96603" lon="5.42773">
        <ele>870</ele>
        <time>2020-06-25T08:46:25Z</time>
      </trkpt>
      <trkpt lat="44.9654" lon="5.4274">
        <ele>870</ele>
        <time>2020-06-25T08:46:40Z</time>
      </trkpt>
      <trkpt lat="44.96498" lon="5.42714">
        <ele>869</ele>
        <time>2020-06-25T08:46:55Z</time>
      </trkpt>
      <trkpt lat="44.9646" lon="5.42697">
        <ele>869</ele>
        <time>2020-06-25T08:47:09Z</time>
      </trkpt>
      <trkpt lat="44.96437" lon="5.42686">
        <ele>868</ele>
        <time>2020-06-25T08:47:21Z</time>
      </trkpt>
      <trkpt lat="44.96406" lon="5.42666">
        <ele>869</ele>
        <time>2020-06-25T08:47:34Z</time>
      </trkpt>
      <trkpt lat="44.96377" lon="5.42648">
        <ele>869</ele>
        <time>2020-06-25T08:47:46Z</time>
      </trkpt>
      <trkpt lat="44.9635" lon="5.42646">
        <ele>869</ele>
        <time>2020-06-25T08:47:58Z</time>
      </trkpt>
      <trkpt lat="44.96323" lon="5.42654">
        <ele>868</ele>
        <time>2020-06-25T08:48:11Z</time>
      </trkpt>
      <trkpt lat="44.96283" lon="5.4265">
        <ele>868</ele>
        <time>2020-06-25T08:48:27Z</time>
      </trkpt>
      <trkpt lat="44.96276" lon="5.42648">
        <ele>868</ele>
        <time>2020-06-25T08:48:29Z</time>
      </trkpt>
      <trkpt lat="44.96272" lon="5.42646">
        <ele>868</ele>
        <time>2020-06-25T08:48:30Z</time>
      </trkpt>
      <trkpt lat="44.96265" lon="5.42641">
        <ele>869</ele>
        <time>2020-06-25T08:48:32Z</time>
      </trkpt>
      <trkpt lat="44.96226" lon="5.42612">
        <ele>869</ele>
        <time>2020-06-25T08:48:45Z</time>
      </trkpt>
      <trkpt lat="44.96189" lon="5.42576">
        <ele>870</ele>
        <time>2020-06-25T08:49:00Z</time>
      </trkpt>
      <trkpt lat="44.96156" lon="5.42541">
        <ele>871</ele>
        <time>2020-06-25T08:49:14Z</time>
      </trkpt>
      <trkpt lat="44.96116" lon="5.42526">
        <ele>871</ele>
        <time>2020-06-25T08:49:29Z</time>
      </trkpt>
      <trkpt lat="44.96078" lon="5.4252">
        <ele>870</ele>
        <time>2020-06-25T08:49:42Z</time>
      </trkpt>
      <trkpt lat="44.96038" lon="5.42508">
        <ele>870</ele>
        <time>2020-06-25T08:49:55Z</time>
      </trkpt>
      <trkpt lat="44.96004" lon="5.42501">
        <ele>870</ele>
        <time>2020-06-25T08:50:07Z</time>
      </trkpt>
      <trkpt lat="44.95974" lon="5.42467">
        <ele>870</ele>
        <time>2020-06-25T08:50:19Z</time>
      </trkpt>
      <trkpt lat="44.95949" lon="5.42429">
        <ele>871</ele>
        <time>2020-06-25T08:50:31Z</time>
      </trkpt>
      <trkpt lat="44.95942" lon="5.42416">
        <ele>872</ele>
        <time>2020-06-25T08:50:35Z</time>
      </trkpt>
      <trkpt lat="44.95939" lon="5.42373">
        <ele>873</ele>
        <time>2020-06-25T08:50:46Z</time>
      </trkpt>
      <trkpt lat="44.95919" lon="5.42321">
        <ele>873</ele>
        <time>2020-06-25T08:50:59Z</time>
      </trkpt>
      <trkpt lat="44.95886" lon="5.42302">
        <ele>873</ele>
        <time>2020-06-25T08:51:12Z</time>
      </trkpt>
      <trkpt lat="44.95861" lon="5.42285">
        <ele>873</ele>
        <time>2020-06-25T08:51:24Z</time>
      </trkpt>
      <trkpt lat="44.95861" lon="5.42286">
        <ele>873</ele>
        <time>2020-06-25T08:51:25Z</time>
      </trkpt>
      <trkpt lat="44.9586" lon="5.42286">
        <ele>873</ele>
        <time>2020-06-25T08:51:38Z</time>
      </trkpt>
      <trkpt lat="44.9586" lon="5.42288">
        <ele>873</ele>
        <time>2020-06-25T08:52:01Z</time>
      </trkpt>
      <trkpt lat="44.95861" lon="5.4229">
        <ele>873</ele>
        <time>2020-06-25T08:52:29Z</time>
      </trkpt>
      <trkpt lat="44.95861" lon="5.42289">
        <ele>873</ele>
        <time>2020-06-25T08:52:56Z</time>
      </trkpt>
      <trkpt lat="44.95861" lon="5.4229">
        <ele>873</ele>
        <time>2020-06-25T08:53:22Z</time>
      </trkpt>
      <trkpt lat="44.95862" lon="5.4229">
        <ele>873</ele>
        <time>2020-06-25T08:54:01Z</time>
      </trkpt>
      <trkpt lat="44.95861" lon="5.42289">
        <ele>873</ele>
        <time>2020-06-25T08:54:27Z</time>
      </trkpt>
      <trkpt lat="44.95862" lon="5.42294">
        <ele>873</ele>
        <time>2020-06-25T08:54:31Z</time>
      </trkpt>
      <trkpt lat="44.95861" lon="5.42294">
        <ele>873</ele>
        <time>2020-06-25T08:54:32Z</time>
      </trkpt>
      <trkpt lat="44.9586" lon="5.42293">
        <ele>873</ele>
        <time>2020-06-25T08:54:33Z</time>
      </trkpt>
      <trkpt lat="44.95861" lon="5.42287">
        <ele>873</ele>
        <time>2020-06-25T08:54:43Z</time>
      </trkpt>
      <trkpt lat="44.95861" lon="5.42288">
        <ele>873</ele>
        <time>2020-06-25T08:54:59Z</time>
      </trkpt>
      <trkpt lat="44.95861" lon="5.4229">
        <ele>873</ele>
        <time>2020-06-25T08:55:10Z</time>
      </trkpt>
      <trkpt lat="44.9586" lon="5.42292">
        <ele>873</ele>
        <time>2020-06-25T08:55:11Z</time>
      </trkpt>
      <trkpt lat="44.9586" lon="5.42293">
        <ele>873</ele>
        <time>2020-06-25T08:55:12Z</time>
      </trkpt>
      <trkpt lat="44.95859" lon="5.42294">
        <ele>873</ele>
        <time>2020-06-25T08:55:13Z</time>
      </trkpt>
      <trkpt lat="44.95857" lon="5.42294">
        <ele>873</ele>
        <time>2020-06-25T08:55:14Z</time>
      </trkpt>
      <trkpt lat="44.95856" lon="5.42295">
        <ele>873</ele>
        <time>2020-06-25T08:55:15Z</time>
      </trkpt>
      <trkpt lat="44.95854" lon="5.42296">
        <ele>873</ele>
        <time>2020-06-25T08:55:16Z</time>
      </trkpt>
      <trkpt lat="44.95852" lon="5.42297">
        <ele>873</ele>
        <time>2020-06-25T08:55:17Z</time>
      </trkpt>
      <trkpt lat="44.9585" lon="5.42298">
        <ele>873</ele>
        <time>2020-06-25T08:55:18Z</time>
      </trkpt>
      <trkpt lat="44.95847" lon="5.423">
        <ele>873</ele>
        <time>2020-06-25T08:55:19Z</time>
      </trkpt>
      <trkpt lat="44.95804" lon="5.42324">
        <ele>873</ele>
        <time>2020-06-25T08:55:33Z</time>
      </trkpt>
      <trkpt lat="44.95747" lon="5.42354">
        <ele>874</ele>
        <time>2020-06-25T08:55:50Z</time>
      </trkpt>
      <trkpt lat="44.95701" lon="5.42388">
        <ele>874</ele>
        <time>2020-06-25T08:56:07Z</time>
      </trkpt>
      <trkpt lat="44.95672" lon="5.4243">
        <ele>874</ele>
        <time>2020-06-25T08:56:23Z</time>
      </trkpt>
      <trkpt lat="44.95645" lon="5.42471">
        <ele>874</ele>
        <time>2020-06-25T08:56:40Z</time>
      </trkpt>
      <trkpt lat="44.95624" lon="5.42495">
        <ele>874</ele>
        <time>2020-06-25T08:56:53Z</time>
      </trkpt>
      <trkpt lat="44.95594" lon="5.42515">
        <ele>873</ele>
        <time>2020-06-25T08:57:09Z</time>
      </trkpt>
      <trkpt lat="44.95565" lon="5.42532">
        <ele>874</ele>
        <time>2020-06-25T08:57:24Z</time>
      </trkpt>
      <trkpt lat="44.95535" lon="5.42549">
        <ele>876</ele>
        <time>2020-06-25T08:57:38Z</time>
      </trkpt>
      <trkpt lat="44.95502" lon="5.42569">
        <ele>877</ele>
        <time>2020-06-25T08:57:53Z</time>
      </trkpt>
      <trkpt lat="44.9547" lon="5.42585">
        <ele>877</ele>
        <time>2020-06-25T08:58:06Z</time>
      </trkpt>
      <trkpt lat="44.95422" lon="5.42619">
        <ele>876</ele>
        <time>2020-06-25T08:58:19Z</time>
      </trkpt>
      <trkpt lat="44.9537" lon="5.42691">
        <ele>872</ele>
        <time>2020-06-25T08:58:30Z</time>
      </trkpt>
      <trkpt lat="44.95318" lon="5.42774">
        <ele>869</ele>
        <time>2020-06-25T08:58:40Z</time>
      </trkpt>
      <trkpt lat="44.95267" lon="5.42847">
        <ele>863</ele>
        <time>2020-06-25T08:58:49Z</time>
      </trkpt>
      <trkpt lat="44.9526" lon="5.42851">
        <ele>863</ele>
        <time>2020-06-25T08:58:50Z</time>
      </trkpt>
      <trkpt lat="44.95252" lon="5.42856">
        <ele>862</ele>
        <time>2020-06-25T08:58:51Z</time>
      </trkpt>
      <trkpt lat="44.95244" lon="5.42858">
        <ele>862</ele>
        <time>2020-06-25T08:58:52Z</time>
      </trkpt>
      <trkpt lat="44.95237" lon="5.4286">
        <ele>862</ele>
        <time>2020-06-25T08:58:53Z</time>
      </trkpt>
      <trkpt lat="44.95181" lon="5.4288">
        <ele>860</ele>
        <time>2020-06-25T08:59:00Z</time>
      </trkpt>
      <trkpt lat="44.95145" lon="5.42909">
        <ele>857</ele>
        <time>2020-06-25T08:59:05Z</time>
      </trkpt>
      <trkpt lat="44.95119" lon="5.42938">
        <ele>854</ele>
        <time>2020-06-25T08:59:09Z</time>
      </trkpt>
      <trkpt lat="44.95112" lon="5.42944">
        <ele>853</ele>
        <time>2020-06-25T08:59:10Z</time>
      </trkpt>
      <trkpt lat="44.95104" lon="5.4295">
        <ele>852</ele>
        <time>2020-06-25T08:59:11Z</time>
      </trkpt>
      <trkpt lat="44.95097" lon="5.42954">
        <ele>852</ele>
        <time>2020-06-25T08:59:12Z</time>
      </trkpt>
      <trkpt lat="44.95089" lon="5.42958">
        <ele>851</ele>
        <time>2020-06-25T08:59:13Z</time>
      </trkpt>
      <trkpt lat="44.95081" lon="5.42961">
        <ele>851</ele>
        <time>2020-06-25T08:59:14Z</time>
      </trkpt>
      <trkpt lat="44.95073" lon="5.42962">
        <ele>850</ele>
        <time>2020-06-25T08:59:15Z</time>
      </trkpt>
      <trkpt lat="44.95065" lon="5.42963">
        <ele>850</ele>
        <time>2020-06-25T08:59:16Z</time>
      </trkpt>
      <trkpt lat="44.95058" lon="5.42963">
        <ele>849</ele>
        <time>2020-06-25T08:59:17Z</time>
      </trkpt>
      <trkpt lat="44.94993" lon="5.42962">
        <ele>847</ele>
        <time>2020-06-25T08:59:25Z</time>
      </trkpt>
      <trkpt lat="44.94985" lon="5.42961">
        <ele>847</ele>
        <time>2020-06-25T08:59:26Z</time>
      </trkpt>
      <trkpt lat="44.94912" lon="5.42941">
        <ele>847</ele>
        <time>2020-06-25T08:59:35Z</time>
      </trkpt>
      <trkpt lat="44.94878" lon="5.42939">
        <ele>845</ele>
        <time>2020-06-25T08:59:39Z</time>
      </trkpt>
      <trkpt lat="44.94801" lon="5.42933">
        <ele>842</ele>
        <time>2020-06-25T08:59:48Z</time>
      </trkpt>
      <trkpt lat="44.9474" lon="5.42928">
        <ele>839</ele>
        <time>2020-06-25T08:59:55Z</time>
      </trkpt>
      <trkpt lat="44.94659" lon="5.42921">
        <ele>835</ele>
        <time>2020-06-25T09:00:04Z</time>
      </trkpt>
      <trkpt lat="44.94594" lon="5.42918">
        <ele>830</ele>
        <time>2020-06-25T09:00:11Z</time>
      </trkpt>
      <trkpt lat="44.94536" lon="5.42914">
        <ele>828</ele>
        <time>2020-06-25T09:00:17Z</time>
      </trkpt>
      <trkpt lat="44.94438" lon="5.42908">
        <ele>826</ele>
        <time>2020-06-25T09:00:28Z</time>
      </trkpt>
      <trkpt lat="44.94389" lon="5.42914">
        <ele>824</ele>
        <time>2020-06-25T09:00:34Z</time>
      </trkpt>
      <trkpt lat="44.94325" lon="5.42944">
        <ele>819</ele>
        <time>2020-06-25T09:00:42Z</time>
      </trkpt>
      <trkpt lat="44.94233" lon="5.42991">
        <ele>814</ele>
        <time>2020-06-25T09:00:55Z</time>
      </trkpt>
      <trkpt lat="44.94132" lon="5.43025">
        <ele>815</ele>
        <time>2020-06-25T09:01:11Z</time>
      </trkpt>
      <trkpt lat="44.94026" lon="5.43049">
        <ele>815</ele>
        <time>2020-06-25T09:01:30Z</time>
      </trkpt>
      <trkpt lat="44.94016" lon="5.43049">
        <ele>815</ele>
        <time>2020-06-25T09:01:32Z</time>
      </trkpt>
      <trkpt lat="44.9401" lon="5.43048">
        <ele>815</ele>
        <time>2020-06-25T09:01:33Z</time>
      </trkpt>
      <trkpt lat="44.93962" lon="5.43055">
        <ele>815</ele>
        <time>2020-06-25T09:01:42Z</time>
      </trkpt>
      <trkpt lat="44.93948" lon="5.4306">
        <ele>814</ele>
        <time>2020-06-25T09:01:45Z</time>
      </trkpt>
      <trkpt lat="44.93945" lon="5.43066">
        <ele>814</ele>
        <time>2020-06-25T09:01:46Z</time>
      </trkpt>
      <trkpt lat="44.93944" lon="5.4307">
        <ele>814</ele>
        <time>2020-06-25T09:01:47Z</time>
      </trkpt>
      <trkpt lat="44.93943" lon="5.43074">
        <ele>814</ele>
        <time>2020-06-25T09:01:48Z</time>
      </trkpt>
      <trkpt lat="44.93943" lon="5.43079">
        <ele>813</ele>
        <time>2020-06-25T09:01:49Z</time>
      </trkpt>
      <trkpt lat="44.93944" lon="5.43085">
        <ele>813</ele>
        <time>2020-06-25T09:01:50Z</time>
      </trkpt>
      <trkpt lat="44.93944" lon="5.4309">
        <ele>813</ele>
        <time>2020-06-25T09:01:51Z</time>
      </trkpt>
      <trkpt lat="44.93943" lon="5.43095">
        <ele>813</ele>
        <time>2020-06-25T09:01:52Z</time>
      </trkpt>
      <trkpt lat="44.93945" lon="5.43149">
        <ele>813</ele>
        <time>2020-06-25T09:02:05Z</time>
      </trkpt>
      <trkpt lat="44.93945" lon="5.43158">
        <ele>813</ele>
        <time>2020-06-25T09:02:09Z</time>
      </trkpt>
      <trkpt lat="44.93947" lon="5.43191">
        <ele>814</ele>
        <time>2020-06-25T09:02:22Z</time>
      </trkpt>
      <trkpt lat="44.93936" lon="5.43219">
        <ele>817</ele>
        <time>2020-06-25T09:02:37Z</time>
      </trkpt>
      <trkpt lat="44.93916" lon="5.43231">
        <ele>817</ele>
        <time>2020-06-25T09:02:51Z</time>
      </trkpt>
      <trkpt lat="44.93889" lon="5.43242">
        <ele>816</ele>
        <time>2020-06-25T09:03:07Z</time>
      </trkpt>
      <trkpt lat="44.93882" lon="5.43249">
        <ele>816</ele>
        <time>2020-06-25T09:03:13Z</time>
      </trkpt>
      <trkpt lat="44.93876" lon="5.43253">
        <ele>816</ele>
        <time>2020-06-25T09:03:18Z</time>
      </trkpt>
      <trkpt lat="44.93867" lon="5.43254">
        <ele>815</ele>
        <time>2020-06-25T09:03:25Z</time>
      </trkpt>
      <trkpt lat="44.93866" lon="5.43253">
        <ele>815</ele>
        <time>2020-06-25T09:03:26Z</time>
      </trkpt>
      <trkpt lat="44.93864" lon="5.43254">
        <ele>815</ele>
        <time>2020-06-25T09:03:27Z</time>
      </trkpt>
      <trkpt lat="44.93832" lon="5.43246">
        <ele>814</ele>
        <time>2020-06-25T09:03:41Z</time>
      </trkpt>
      <trkpt lat="44.93794" lon="5.43245">
        <ele>811</ele>
        <time>2020-06-25T09:03:54Z</time>
      </trkpt>
      <trkpt lat="44.93764" lon="5.43249">
        <ele>807</ele>
        <time>2020-06-25T09:04:07Z</time>
      </trkpt>
      <trkpt lat="44.93763" lon="5.4325">
        <ele>807</ele>
        <time>2020-06-25T09:04:19Z</time>
      </trkpt>
      <trkpt lat="44.93763" lon="5.43249">
        <ele>807</ele>
        <time>2020-06-25T09:04:35Z</time>
      </trkpt>
      <trkpt lat="44.93765" lon="5.43252">
        <ele>807</ele>
        <time>2020-06-25T09:05:00Z</time>
      </trkpt>
      <trkpt lat="44.93764" lon="5.4325">
        <ele>807</ele>
        <time>2020-06-25T09:05:27Z</time>
      </trkpt>
      <trkpt lat="44.93763" lon="5.43247">
        <ele>808</ele>
        <time>2020-06-25T09:05:49Z</time>
      </trkpt>
      <trkpt lat="44.93763" lon="5.43247">
        <ele>808</ele>
        <time>2020-06-25T09:06:11Z</time>
      </trkpt>
      <trkpt lat="44.93761" lon="5.43247">
        <ele>808</ele>
        <time>2020-06-25T09:06:33Z</time>
      </trkpt>
      <trkpt lat="44.9376" lon="5.43246">
        <ele>808</ele>
        <time>2020-06-25T09:06:34Z</time>
      </trkpt>
      <trkpt lat="44.93727" lon="5.43246">
        <ele>805</ele>
        <time>2020-06-25T09:06:45Z</time>
      </trkpt>
      <trkpt lat="44.93718" lon="5.43247">
        <ele>804</ele>
        <time>2020-06-25T09:06:54Z</time>
      </trkpt>
      <trkpt lat="44.93718" lon="5.43247">
        <ele>804</ele>
        <time>2020-06-25T09:07:17Z</time>
      </trkpt>
      <trkpt lat="44.93717" lon="5.43248">
        <ele>804</ele>
        <time>2020-06-25T09:07:25Z</time>
      </trkpt>
      <trkpt lat="44.93716" lon="5.43247">
        <ele>804</ele>
        <time>2020-06-25T09:07:26Z</time>
      </trkpt>
      <trkpt lat="44.93695" lon="5.43241">
        <ele>803</ele>
        <time>2020-06-25T09:07:33Z</time>
      </trkpt>
      <trkpt lat="44.93681" lon="5.43244">
        <ele>802</ele>
        <time>2020-06-25T09:07:37Z</time>
      </trkpt>
      <trkpt lat="44.93677" lon="5.43246">
        <ele>801</ele>
        <time>2020-06-25T09:07:38Z</time>
      </trkpt>
      <trkpt lat="44.93673" lon="5.43247">
        <ele>801</ele>
        <time>2020-06-25T09:07:39Z</time>
      </trkpt>
      <trkpt lat="44.93669" lon="5.43247">
        <ele>800</ele>
        <time>2020-06-25T09:07:40Z</time>
      </trkpt>
      <trkpt lat="44.93666" lon="5.43245">
        <ele>800</ele>
        <time>2020-06-25T09:07:41Z</time>
      </trkpt>
      <trkpt lat="44.93664" lon="5.43241">
        <ele>801</ele>
        <time>2020-06-25T09:07:42Z</time>
      </trkpt>
      <trkpt lat="44.93662" lon="5.43238">
        <ele>801</ele>
        <time>2020-06-25T09:07:43Z</time>
      </trkpt>
      <trkpt lat="44.93662" lon="5.43234">
        <ele>801</ele>
        <time>2020-06-25T09:07:44Z</time>
      </trkpt>
      <trkpt lat="44.93663" lon="5.4323">
        <ele>801</ele>
        <time>2020-06-25T09:07:45Z</time>
      </trkpt>
      <trkpt lat="44.93665" lon="5.43224">
        <ele>801</ele>
        <time>2020-06-25T09:07:46Z</time>
      </trkpt>
      <trkpt lat="44.93665" lon="5.43219">
        <ele>801</ele>
        <time>2020-06-25T09:07:47Z</time>
      </trkpt>
      <trkpt lat="44.93666" lon="5.43212">
        <ele>801</ele>
        <time>2020-06-25T09:07:48Z</time>
      </trkpt>
      <trkpt lat="44.93666" lon="5.43205">
        <ele>801</ele>
        <time>2020-06-25T09:07:49Z</time>
      </trkpt>
      <trkpt lat="44.93666" lon="5.43199">
        <ele>801</ele>
        <time>2020-06-25T09:07:50Z</time>
      </trkpt>
      <trkpt lat="44.93666" lon="5.43191">
        <ele>801</ele>
        <time>2020-06-25T09:07:51Z</time>
      </trkpt>
      <trkpt lat="44.93669" lon="5.43151">
        <ele>800</ele>
        <time>2020-06-25T09:07:56Z</time>
      </trkpt>
      <trkpt lat="44.93669" lon="5.43144">
        <ele>800</ele>
        <time>2020-06-25T09:07:57Z</time>
      </trkpt>
      <trkpt lat="44.93669" lon="5.43131">
        <ele>799</ele>
        <time>2020-06-25T09:07:59Z</time>
      </trkpt>
      <trkpt lat="44.93667" lon="5.43126">
        <ele>799</ele>
        <time>2020-06-25T09:08:00Z</time>
      </trkpt>
      <trkpt lat="44.93664" lon="5.43123">
        <ele>798</ele>
        <time>2020-06-25T09:08:01Z</time>
      </trkpt>
      <trkpt lat="44.93662" lon="5.43121">
        <ele>798</ele>
        <time>2020-06-25T09:08:02Z</time>
      </trkpt>
      <trkpt lat="44.93659" lon="5.4312">
        <ele>798</ele>
        <time>2020-06-25T09:08:03Z</time>
      </trkpt>
      <trkpt lat="44.9364" lon="5.43108">
        <ele>798</ele>
        <time>2020-06-25T09:08:10Z</time>
      </trkpt>
      <trkpt lat="44.93639" lon="5.43105">
        <ele>798</ele>
        <time>2020-06-25T09:08:11Z</time>
      </trkpt>
      <trkpt lat="44.93638" lon="5.43103">
        <ele>798</ele>
        <time>2020-06-25T09:08:12Z</time>
      </trkpt>
      <trkpt lat="44.93637" lon="5.43101">
        <ele>798</ele>
        <time>2020-06-25T09:08:13Z</time>
      </trkpt>
      <trkpt lat="44.93636" lon="5.431">
        <ele>798</ele>
        <time>2020-06-25T09:08:14Z</time>
      </trkpt>
      <trkpt lat="44.93635" lon="5.43098">
        <ele>798</ele>
        <time>2020-06-25T09:08:16Z</time>
      </trkpt>
      <trkpt lat="44.93634" lon="5.43097">
        <ele>798</ele>
        <time>2020-06-25T09:08:17Z</time>
      </trkpt>
      <trkpt lat="44.93633" lon="5.43089">
        <ele>799</ele>
        <time>2020-06-25T09:08:22Z</time>
      </trkpt>
      <trkpt lat="44.93631" lon="5.43088">
        <ele>799</ele>
        <time>2020-06-25T09:08:23Z</time>
      </trkpt>
      <trkpt lat="44.9363" lon="5.43089">
        <ele>799</ele>
        <time>2020-06-25T09:08:24Z</time>
      </trkpt>
      <trkpt lat="44.93629" lon="5.4309">
        <ele>799</ele>
        <time>2020-06-25T09:08:25Z</time>
      </trkpt>
      <trkpt lat="44.93628" lon="5.43092">
        <ele>799</ele>
        <time>2020-06-25T09:08:38Z</time>
      </trkpt>
      <trkpt lat="44.93627" lon="5.4309">
        <ele>799</ele>
        <time>2020-06-25T09:09:13Z</time>
      </trkpt>
      <trkpt lat="44.93627" lon="5.43092">
        <ele>799</ele>
        <time>2020-06-25T09:09:38Z</time>
      </trkpt>
      <trkpt lat="44.93627" lon="5.43094">
        <ele>798</ele>
        <time>2020-06-25T09:09:39Z</time>
      </trkpt>
      <trkpt lat="44.93627" lon="5.43096">
        <ele>798</ele>
        <time>2020-06-25T09:09:40Z</time>
      </trkpt>
      <trkpt lat="44.93627" lon="5.43098">
        <ele>798</ele>
        <time>2020-06-25T09:09:41Z</time>
      </trkpt>
      <trkpt lat="44.93627" lon="5.431">
        <ele>798</ele>
        <time>2020-06-25T09:09:42Z</time>
      </trkpt>
      <trkpt lat="44.93626" lon="5.43103">
        <ele>798</ele>
        <time>2020-06-25T09:09:43Z</time>
      </trkpt>
      <trkpt lat="44.93626" lon="5.43105">
        <ele>798</ele>
        <time>2020-06-25T09:09:44Z</time>
      </trkpt>
      <trkpt lat="44.93615" lon="5.4313">
        <ele>798</ele>
        <time>2020-06-25T09:09:57Z</time>
      </trkpt>
      <trkpt lat="44.93614" lon="5.43132">
        <ele>798</ele>
        <time>2020-06-25T09:09:58Z</time>
      </trkpt>
      <trkpt lat="44.93613" lon="5.43134">
        <ele>799</ele>
        <time>2020-06-25T09:09:59Z</time>
      </trkpt>
      <trkpt lat="44.93612" lon="5.43136">
        <ele>799</ele>
        <time>2020-06-25T09:10:00Z</time>
      </trkpt>
      <trkpt lat="44.93612" lon="5.43138">
        <ele>799</ele>
        <time>2020-06-25T09:10:01Z</time>
      </trkpt>
      <trkpt lat="44.93611" lon="5.4314">
        <ele>799</ele>
        <time>2020-06-25T09:10:02Z</time>
      </trkpt>
      <trkpt lat="44.93591" lon="5.43161">
        <ele>800</ele>
        <time>2020-06-25T09:10:16Z</time>
      </trkpt>
      <trkpt lat="44.93583" lon="5.43167">
        <ele>801</ele>
        <time>2020-06-25T09:10:22Z</time>
      </trkpt>
      <trkpt lat="44.93581" lon="5.43167">
        <ele>801</ele>
        <time>2020-06-25T09:10:23Z</time>
      </trkpt>
      <trkpt lat="44.9358" lon="5.43168">
        <ele>801</ele>
        <time>2020-06-25T09:10:24Z</time>
      </trkpt>
      <trkpt lat="44.93567" lon="5.43174">
        <ele>801</ele>
        <time>2020-06-25T09:10:39Z</time>
      </trkpt>
      <trkpt lat="44.93556" lon="5.43179">
        <ele>802</ele>
        <time>2020-06-25T09:11:00Z</time>
      </trkpt>
      <trkpt lat="44.93528" lon="5.43186">
        <ele>801</ele>
        <time>2020-06-25T09:11:12Z</time>
      </trkpt>
      <trkpt lat="44.93519" lon="5.43184">
        <ele>799</ele>
        <time>2020-06-25T09:11:18Z</time>
      </trkpt>
      <trkpt lat="44.93516" lon="5.43183">
        <ele>799</ele>
        <time>2020-06-25T09:11:20Z</time>
      </trkpt>
      <trkpt lat="44.93501" lon="5.4317">
        <ele>798</ele>
        <time>2020-06-25T09:11:30Z</time>
      </trkpt>
      <trkpt lat="44.9349" lon="5.43166">
        <ele>798</ele>
        <time>2020-06-25T09:11:35Z</time>
      </trkpt>
      <trkpt lat="44.93488" lon="5.43166">
        <ele>797</ele>
        <time>2020-06-25T09:11:36Z</time>
      </trkpt>
      <trkpt lat="44.93486" lon="5.43166">
        <ele>797</ele>
        <time>2020-06-25T09:11:37Z</time>
      </trkpt>
      <trkpt lat="44.93484" lon="5.43167">
        <ele>796</ele>
        <time>2020-06-25T09:11:46Z</time>
      </trkpt>
      <trkpt lat="44.93496" lon="5.43165">
        <ele>799</ele>
        <time>2020-06-25T09:11:57Z</time>
      </trkpt>
      <trkpt lat="44.93499" lon="5.43167">
        <ele>799</ele>
        <time>2020-06-25T09:11:59Z</time>
      </trkpt>
      <trkpt lat="44.93501" lon="5.43169">
        <ele>799</ele>
        <time>2020-06-25T09:12:00Z</time>
      </trkpt>
      <trkpt lat="44.93514" lon="5.4318">
        <ele>799</ele>
        <time>2020-06-25T09:12:07Z</time>
      </trkpt>
      <trkpt lat="44.93515" lon="5.4318">
        <ele>799</ele>
        <time>2020-06-25T09:12:08Z</time>
      </trkpt>
      <trkpt lat="44.93517" lon="5.43182">
        <ele>799</ele>
        <time>2020-06-25T09:12:10Z</time>
      </trkpt>
      <trkpt lat="44.93519" lon="5.43183">
        <ele>799</ele>
        <time>2020-06-25T09:12:11Z</time>
      </trkpt>
      <trkpt lat="44.93521" lon="5.43184">
        <ele>800</ele>
        <time>2020-06-25T09:12:13Z</time>
      </trkpt>
      <trkpt lat="44.93523" lon="5.43183">
        <ele>800</ele>
        <time>2020-06-25T09:12:14Z</time>
      </trkpt>
      <trkpt lat="44.93524" lon="5.43184">
        <ele>800</ele>
        <time>2020-06-25T09:12:15Z</time>
      </trkpt>
      <trkpt lat="44.93526" lon="5.43184">
        <ele>800</ele>
        <time>2020-06-25T09:12:16Z</time>
      </trkpt>
      <trkpt lat="44.93528" lon="5.43185">
        <ele>801</ele>
        <time>2020-06-25T09:12:17Z</time>
      </trkpt>
      <trkpt lat="44.93549" lon="5.43178">
        <ele>802</ele>
        <time>2020-06-25T09:12:30Z</time>
      </trkpt>
      <trkpt lat="44.93549" lon="5.43175">
        <ele>802</ele>
        <time>2020-06-25T09:12:31Z</time>
      </trkpt>
      <trkpt lat="44.9355" lon="5.43172">
        <ele>802</ele>
        <time>2020-06-25T09:12:32Z</time>
      </trkpt>
      <trkpt lat="44.9355" lon="5.43169">
        <ele>802</ele>
        <time>2020-06-25T09:12:33Z</time>
      </trkpt>
      <trkpt lat="44.93549" lon="5.43165">
        <ele>802</ele>
        <time>2020-06-25T09:12:34Z</time>
      </trkpt>
      <trkpt lat="44.93549" lon="5.43161">
        <ele>802</ele>
        <time>2020-06-25T09:12:35Z</time>
      </trkpt>
      <trkpt lat="44.93533" lon="5.43094">
        <ele>797</ele>
        <time>2020-06-25T09:12:45Z</time>
      </trkpt>
      <trkpt lat="44.93522" lon="5.43046">
        <ele>795</ele>
        <time>2020-06-25T09:12:51Z</time>
      </trkpt>
      <trkpt lat="44.93522" lon="5.4304">
        <ele>795</ele>
        <time>2020-06-25T09:12:52Z</time>
      </trkpt>
      <trkpt lat="44.93524" lon="5.43035">
        <ele>795</ele>
        <time>2020-06-25T09:12:53Z</time>
      </trkpt>
      <trkpt lat="44.93528" lon="5.4303">
        <ele>795</ele>
        <time>2020-06-25T09:12:55Z</time>
      </trkpt>
      <trkpt lat="44.93531" lon="5.43027">
        <ele>796</ele>
        <time>2020-06-25T09:12:56Z</time>
      </trkpt>
      <trkpt lat="44.93533" lon="5.43026">
        <ele>796</ele>
        <time>2020-06-25T09:12:57Z</time>
      </trkpt>
      <trkpt lat="44.93535" lon="5.43026">
        <ele>796</ele>
        <time>2020-06-25T09:12:58Z</time>
      </trkpt>
      <trkpt lat="44.93537" lon="5.43026">
        <ele>796</ele>
        <time>2020-06-25T09:12:59Z</time>
      </trkpt>
      <trkpt lat="44.93539" lon="5.43027">
        <ele>796</ele>
        <time>2020-06-25T09:13:00Z</time>
      </trkpt>
      <trkpt lat="44.93554" lon="5.43028">
        <ele>797</ele>
        <time>2020-06-25T09:13:10Z</time>
      </trkpt>
      <trkpt lat="44.93589" lon="5.43032">
        <ele>799</ele>
        <time>2020-06-25T09:13:28Z</time>
      </trkpt>
      <trkpt lat="44.93636" lon="5.43037">
        <ele>801</ele>
        <time>2020-06-25T09:13:47Z</time>
      </trkpt>
      <trkpt lat="44.93673" lon="5.43042">
        <ele>801</ele>
        <time>2020-06-25T09:14:03Z</time>
      </trkpt>
      <trkpt lat="44.93719" lon="5.43047">
        <ele>804</ele>
        <time>2020-06-25T09:14:20Z</time>
      </trkpt>
      <trkpt lat="44.93765" lon="5.43053">
        <ele>809</ele>
        <time>2020-06-25T09:14:36Z</time>
      </trkpt>
      <trkpt lat="44.93816" lon="5.43057">
        <ele>812</ele>
        <time>2020-06-25T09:14:54Z</time>
      </trkpt>
      <trkpt lat="44.93838" lon="5.4306">
        <ele>813</ele>
        <time>2020-06-25T09:15:03Z</time>
      </trkpt>
      <trkpt lat="44.93841" lon="5.4306">
        <ele>813</ele>
        <time>2020-06-25T09:15:04Z</time>
      </trkpt>
      <trkpt lat="44.93843" lon="5.4306">
        <ele>813</ele>
        <time>2020-06-25T09:15:05Z</time>
      </trkpt>
      <trkpt lat="44.93845" lon="5.43061">
        <ele>814</ele>
        <time>2020-06-25T09:15:06Z</time>
      </trkpt>
      <trkpt lat="44.93847" lon="5.43061">
        <ele>814</ele>
        <time>2020-06-25T09:15:07Z</time>
      </trkpt>
      <trkpt lat="44.93849" lon="5.43061">
        <ele>814</ele>
        <time>2020-06-25T09:15:08Z</time>
      </trkpt>
      <trkpt lat="44.93871" lon="5.4305">
        <ele>815</ele>
        <time>2020-06-25T09:15:20Z</time>
      </trkpt>
      <trkpt lat="44.93873" lon="5.43051">
        <ele>815</ele>
        <time>2020-06-25T09:15:31Z</time>
      </trkpt>
      <trkpt lat="44.93874" lon="5.43048">
        <ele>815</ele>
        <time>2020-06-25T09:15:54Z</time>
      </trkpt>
      <trkpt lat="44.93873" lon="5.43045">
        <ele>815</ele>
        <time>2020-06-25T09:16:18Z</time>
      </trkpt>
      <trkpt lat="44.93874" lon="5.43035">
        <ele>816</ele>
        <time>2020-06-25T09:16:31Z</time>
      </trkpt>
      <trkpt lat="44.93876" lon="5.43026">
        <ele>817</ele>
        <time>2020-06-25T09:16:39Z</time>
      </trkpt>
      <trkpt lat="44.93881" lon="5.43007">
        <ele>818</ele>
        <time>2020-06-25T09:16:55Z</time>
      </trkpt>
      <trkpt lat="44.93885" lon="5.42984">
        <ele>820</ele>
        <time>2020-06-25T09:17:13Z</time>
      </trkpt>
      <trkpt lat="44.93891" lon="5.42963">
        <ele>822</ele>
        <time>2020-06-25T09:17:30Z</time>
      </trkpt>
      <trkpt lat="44.93898" lon="5.42947">
        <ele>824</ele>
        <time>2020-06-25T09:17:45Z</time>
      </trkpt>
      <trkpt lat="44.93904" lon="5.42929">
        <ele>827</ele>
        <time>2020-06-25T09:18:02Z</time>
      </trkpt>
      <trkpt lat="44.93909" lon="5.42908">
        <ele>829</ele>
        <time>2020-06-25T09:18:19Z</time>
      </trkpt>
      <trkpt lat="44.93916" lon="5.42887">
        <ele>831</ele>
        <time>2020-06-25T09:18:39Z</time>
      </trkpt>
      <trkpt lat="44.93913" lon="5.42882">
        <ele>832</ele>
        <time>2020-06-25T09:18:49Z</time>
      </trkpt>
      <trkpt lat="44.9391" lon="5.42874">
        <ele>833</ele>
        <time>2020-06-25T09:19:03Z</time>
      </trkpt>
      <trkpt lat="44.9391" lon="5.42875">
        <ele>833</ele>
        <time>2020-06-25T09:19:06Z</time>
      </trkpt>
      <trkpt lat="44.93913" lon="5.42882">
        <ele>832</ele>
        <time>2020-06-25T09:19:12Z</time>
      </trkpt>
      <trkpt lat="44.93913" lon="5.42883">
        <ele>832</ele>
        <time>2020-06-25T09:19:13Z</time>
      </trkpt>
      <trkpt lat="44.93914" lon="5.42884">
        <ele>832</ele>
        <time>2020-06-25T09:19:14Z</time>
      </trkpt>
      <trkpt lat="44.93915" lon="5.42885">
        <ele>832</ele>
        <time>2020-06-25T09:19:15Z</time>
      </trkpt>
      <trkpt lat="44.93925" lon="5.42882">
        <ele>832</ele>
        <time>2020-06-25T09:19:29Z</time>
      </trkpt>
      <trkpt lat="44.93927" lon="5.42881">
        <ele>832</ele>
        <time>2020-06-25T09:19:32Z</time>
      </trkpt>
      <trkpt lat="44.93934" lon="5.4287">
        <ele>834</ele>
        <time>2020-06-25T09:19:46Z</time>
      </trkpt>
      <trkpt lat="44.9394" lon="5.42865">
        <ele>835</ele>
        <time>2020-06-25T09:20:11Z</time>
      </trkpt>
      <trkpt lat="44.93954" lon="5.42854">
        <ele>837</ele>
        <time>2020-06-25T09:20:29Z</time>
      </trkpt>
      <trkpt lat="44.93957" lon="5.42846">
        <ele>839</ele>
        <time>2020-06-25T09:20:44Z</time>
      </trkpt>
      <trkpt lat="44.93956" lon="5.42845">
        <ele>839</ele>
        <time>2020-06-25T09:21:06Z</time>
      </trkpt>
      <trkpt lat="44.93956" lon="5.42846">
        <ele>839</ele>
        <time>2020-06-25T09:21:26Z</time>
      </trkpt>
      <trkpt lat="44.93955" lon="5.42847">
        <ele>838</ele>
        <time>2020-06-25T09:21:53Z</time>
      </trkpt>
      <trkpt lat="44.93956" lon="5.42847">
        <ele>838</ele>
        <time>2020-06-25T09:22:26Z</time>
      </trkpt>
      <trkpt lat="44.93955" lon="5.42846">
        <ele>839</ele>
        <time>2020-06-25T09:23:02Z</time>
      </trkpt>
      <trkpt lat="44.93955" lon="5.42848">
        <ele>838</ele>
        <time>2020-06-25T09:23:35Z</time>
      </trkpt>
      <trkpt lat="44.93955" lon="5.42849">
        <ele>838</ele>
        <time>2020-06-25T09:24:03Z</time>
      </trkpt>
      <trkpt lat="44.93955" lon="5.42849">
        <ele>838</ele>
        <time>2020-06-25T09:24:32Z</time>
      </trkpt>
      <trkpt lat="44.93954" lon="5.42836">
        <ele>840</ele>
        <time>2020-06-25T09:24:47Z</time>
      </trkpt>
      <trkpt lat="44.93954" lon="5.42819">
        <ele>843</ele>
        <time>2020-06-25T09:25:06Z</time>
      </trkpt>
      <trkpt lat="44.93956" lon="5.42802">
        <ele>846</ele>
        <time>2020-06-25T09:25:24Z</time>
      </trkpt>
      <trkpt lat="44.93959" lon="5.42783">
        <ele>849</ele>
        <time>2020-06-25T09:25:44Z</time>
      </trkpt>
      <trkpt lat="44.93962" lon="5.42769">
        <ele>851</ele>
        <time>2020-06-25T09:25:59Z</time>
      </trkpt>
      <trkpt lat="44.93967" lon="5.42752">
        <ele>854</ele>
        <time>2020-06-25T09:26:18Z</time>
      </trkpt>
      <trkpt lat="44.9397" lon="5.42738">
        <ele>857</ele>
        <time>2020-06-25T09:26:34Z</time>
      </trkpt>
      <trkpt lat="44.93974" lon="5.42724">
        <ele>860</ele>
        <time>2020-06-25T09:26:49Z</time>
      </trkpt>
      <trkpt lat="44.93977" lon="5.42709">
        <ele>863</ele>
        <time>2020-06-25T09:27:06Z</time>
      </trkpt>
      <trkpt lat="44.93981" lon="5.42696">
        <ele>865</ele>
        <time>2020-06-25T09:27:21Z</time>
      </trkpt>
      <trkpt lat="44.9398" lon="5.42683">
        <ele>868</ele>
        <time>2020-06-25T09:27:37Z</time>
      </trkpt>
      <trkpt lat="44.93979" lon="5.42673">
        <ele>870</ele>
        <time>2020-06-25T09:27:53Z</time>
      </trkpt>
      <trkpt lat="44.93976" lon="5.42659">
        <ele>874</ele>
        <time>2020-06-25T09:28:10Z</time>
      </trkpt>
      <trkpt lat="44.93974" lon="5.42644">
        <ele>877</ele>
        <time>2020-06-25T09:28:28Z</time>
      </trkpt>
      <trkpt lat="44.93971" lon="5.42629">
        <ele>881</ele>
        <time>2020-06-25T09:28:44Z</time>
      </trkpt>
      <trkpt lat="44.93964" lon="5.42617">
        <ele>884</ele>
        <time>2020-06-25T09:29:00Z</time>
      </trkpt>
      <trkpt lat="44.93956" lon="5.42609">
        <ele>886</ele>
        <time>2020-06-25T09:29:16Z</time>
      </trkpt>
      <trkpt lat="44.93945" lon="5.42603">
        <ele>887</ele>
        <time>2020-06-25T09:29:34Z</time>
      </trkpt>
      <trkpt lat="44.93934" lon="5.42601">
        <ele>888</ele>
        <time>2020-06-25T09:29:52Z</time>
      </trkpt>
      <trkpt lat="44.93926" lon="5.42598">
        <ele>889</ele>
        <time>2020-06-25T09:30:07Z</time>
      </trkpt>
      <trkpt lat="44.93914" lon="5.42595">
        <ele>889</ele>
        <time>2020-06-25T09:30:27Z</time>
      </trkpt>
      <trkpt lat="44.93905" lon="5.42593">
        <ele>890</ele>
        <time>2020-06-25T09:30:43Z</time>
      </trkpt>
      <trkpt lat="44.93896" lon="5.42589">
        <ele>892</ele>
        <time>2020-06-25T09:31:00Z</time>
      </trkpt>
      <trkpt lat="44.93896" lon="5.42591">
        <ele>891</ele>
        <time>2020-06-25T09:31:16Z</time>
      </trkpt>
      <trkpt lat="44.93898" lon="5.42589">
        <ele>891</ele>
        <time>2020-06-25T09:31:49Z</time>
      </trkpt>
      <trkpt lat="44.93897" lon="5.42591">
        <ele>891</ele>
        <time>2020-06-25T09:32:37Z</time>
      </trkpt>
      <trkpt lat="44.939" lon="5.42586">
        <ele>893</ele>
        <time>2020-06-25T09:33:16Z</time>
      </trkpt>
      <trkpt lat="44.93899" lon="5.42589">
        <ele>892</ele>
        <time>2020-06-25T09:33:52Z</time>
      </trkpt>
      <trkpt lat="44.93899" lon="5.42591">
        <ele>891</ele>
        <time>2020-06-25T09:34:32Z</time>
      </trkpt>
      <trkpt lat="44.93898" lon="5.42588">
        <ele>892</ele>
        <time>2020-06-25T09:35:09Z</time>
      </trkpt>
      <trkpt lat="44.93898" lon="5.42584">
        <ele>894</ele>
        <time>2020-06-25T09:35:47Z</time>
      </trkpt>
      <trkpt lat="44.93896" lon="5.42587">
        <ele>893</ele>
        <time>2020-06-25T09:36:18Z</time>
      </trkpt>
      <trkpt lat="44.93901" lon="5.42587">
        <ele>892</ele>
        <time>2020-06-25T09:36:52Z</time>
      </trkpt>
      <trkpt lat="44.93898" lon="5.42592">
        <ele>891</ele>
        <time>2020-06-25T09:37:24Z</time>
      </trkpt>
      <trkpt lat="44.93897" lon="5.42596">
        <ele>889</ele>
        <time>2020-06-25T09:38:05Z</time>
      </trkpt>
      <trkpt lat="44.93899" lon="5.42595">
        <ele>889</ele>
        <time>2020-06-25T09:38:44Z</time>
      </trkpt>
      <trkpt lat="44.93895" lon="5.42591">
        <ele>891</ele>
        <time>2020-06-25T09:39:22Z</time>
      </trkpt>
      <trkpt lat="44.93896" lon="5.42593">
        <ele>890</ele>
        <time>2020-06-25T09:39:58Z</time>
      </trkpt>
      <trkpt lat="44.93896" lon="5.42594">
        <ele>890</ele>
        <time>2020-06-25T09:40:29Z</time>
      </trkpt>
      <trkpt lat="44.939" lon="5.42592">
        <ele>891</ele>
        <time>2020-06-25T09:41:05Z</time>
      </trkpt>
      <trkpt lat="44.93898" lon="5.42591">
        <ele>891</ele>
        <time>2020-06-25T09:41:38Z</time>
      </trkpt>
      <trkpt lat="44.93898" lon="5.42588">
        <ele>892</ele>
        <time>2020-06-25T09:42:16Z</time>
      </trkpt>
      <trkpt lat="44.93893" lon="5.42591">
        <ele>891</ele>
        <time>2020-06-25T09:42:30Z</time>
      </trkpt>
      <trkpt lat="44.93888" lon="5.42583">
        <ele>894</ele>
        <time>2020-06-25T09:42:47Z</time>
      </trkpt>
      <trkpt lat="44.93882" lon="5.42577">
        <ele>896</ele>
        <time>2020-06-25T09:43:06Z</time>
      </trkpt>
      <trkpt lat="44.93876" lon="5.42571">
        <ele>899</ele>
        <time>2020-06-25T09:43:23Z</time>
      </trkpt>
      <trkpt lat="44.93869" lon="5.42566">
        <ele>901</ele>
        <time>2020-06-25T09:43:39Z</time>
      </trkpt>
      <trkpt lat="44.93865" lon="5.4256">
        <ele>904</ele>
        <time>2020-06-25T09:43:55Z</time>
      </trkpt>
      <trkpt lat="44.93859" lon="5.42548">
        <ele>910</ele>
        <time>2020-06-25T09:44:13Z</time>
      </trkpt>
      <trkpt lat="44.93857" lon="5.42538">
        <ele>914</ele>
        <time>2020-06-25T09:44:29Z</time>
      </trkpt>
      <trkpt lat="44.93857" lon="5.42526">
        <ele>919</ele>
        <time>2020-06-25T09:44:47Z</time>
      </trkpt>
      <trkpt lat="44.93856" lon="5.42524">
        <ele>920</ele>
        <time>2020-06-25T09:45:04Z</time>
      </trkpt>
      <trkpt lat="44.93857" lon="5.42519">
        <ele>922</ele>
        <time>2020-06-25T09:45:31Z</time>
      </trkpt>
      <trkpt lat="44.93854" lon="5.42516">
        <ele>923</ele>
        <time>2020-06-25T09:46:07Z</time>
      </trkpt>
      <trkpt lat="44.93853" lon="5.42511">
        <ele>926</ele>
        <time>2020-06-25T09:46:41Z</time>
      </trkpt>
      <trkpt lat="44.93853" lon="5.42513">
        <ele>925</ele>
        <time>2020-06-25T09:47:21Z</time>
      </trkpt>
      <trkpt lat="44.93853" lon="5.42515">
        <ele>924</ele>
        <time>2020-06-25T09:47:50Z</time>
      </trkpt>
      <trkpt lat="44.93848" lon="5.42508">
        <ele>928</ele>
        <time>2020-06-25T09:48:06Z</time>
      </trkpt>
      <trkpt lat="44.93841" lon="5.42502">
        <ele>931</ele>
        <time>2020-06-25T09:48:21Z</time>
      </trkpt>
      <trkpt lat="44.93835" lon="5.425">
        <ele>933</ele>
        <time>2020-06-25T09:48:35Z</time>
      </trkpt>
      <trkpt lat="44.93829" lon="5.42495">
        <ele>936</ele>
        <time>2020-06-25T09:48:51Z</time>
      </trkpt>
      <trkpt lat="44.93827" lon="5.42486">
        <ele>940</ele>
        <time>2020-06-25T09:49:09Z</time>
      </trkpt>
      <trkpt lat="44.93827" lon="5.42477">
        <ele>943</ele>
        <time>2020-06-25T09:49:24Z</time>
      </trkpt>
      <trkpt lat="44.93828" lon="5.42471">
        <ele>945</ele>
        <time>2020-06-25T09:49:36Z</time>
      </trkpt>
      <trkpt lat="44.93829" lon="5.42467">
        <ele>946</ele>
        <time>2020-06-25T09:49:52Z</time>
      </trkpt>
      <trkpt lat="44.93833" lon="5.42453">
        <ele>949</ele>
        <time>2020-06-25T09:50:09Z</time>
      </trkpt>
      <trkpt lat="44.93836" lon="5.42445">
        <ele>951</ele>
        <time>2020-06-25T09:50:24Z</time>
      </trkpt>
      <trkpt lat="44.93837" lon="5.42438">
        <ele>953</ele>
        <time>2020-06-25T09:50:37Z</time>
      </trkpt>
      <trkpt lat="44.93839" lon="5.42433">
        <ele>954</ele>
        <time>2020-06-25T09:50:53Z</time>
      </trkpt>
      <trkpt lat="44.93843" lon="5.42428">
        <ele>955</ele>
        <time>2020-06-25T09:51:07Z</time>
      </trkpt>
      <trkpt lat="44.93845" lon="5.42416">
        <ele>957</ele>
        <time>2020-06-25T09:51:22Z</time>
      </trkpt>
      <trkpt lat="44.93849" lon="5.42405">
        <ele>959</ele>
        <time>2020-06-25T09:51:38Z</time>
      </trkpt>
      <trkpt lat="44.93848" lon="5.42395">
        <ele>962</ele>
        <time>2020-06-25T09:51:55Z</time>
      </trkpt>
      <trkpt lat="44.93846" lon="5.42382">
        <ele>965</ele>
        <time>2020-06-25T09:52:10Z</time>
      </trkpt>
      <trkpt lat="44.93845" lon="5.42368">
        <ele>968</ele>
        <time>2020-06-25T09:52:26Z</time>
      </trkpt>
      <trkpt lat="44.93844" lon="5.42361">
        <ele>970</ele>
        <time>2020-06-25T09:52:40Z</time>
      </trkpt>
      <trkpt lat="44.93845" lon="5.4235">
        <ele>972</ele>
        <time>2020-06-25T09:52:58Z</time>
      </trkpt>
      <trkpt lat="44.93851" lon="5.42338">
        <ele>974</ele>
        <time>2020-06-25T09:53:14Z</time>
      </trkpt>
      <trkpt lat="44.93853" lon="5.42327">
        <ele>976</ele>
        <time>2020-06-25T09:53:29Z</time>
      </trkpt>
      <trkpt lat="44.93856" lon="5.42316">
        <ele>978</ele>
        <time>2020-06-25T09:53:45Z</time>
      </trkpt>
      <trkpt lat="44.9386" lon="5.42304">
        <ele>981</ele>
        <time>2020-06-25T09:54:03Z</time>
      </trkpt>
      <trkpt lat="44.93868" lon="5.42293">
        <ele>983</ele>
        <time>2020-06-25T09:54:19Z</time>
      </trkpt>
      <trkpt lat="44.93873" lon="5.42284">
        <ele>984</ele>
        <time>2020-06-25T09:54:32Z</time>
      </trkpt>
      <trkpt lat="44.93878" lon="5.42275">
        <ele>986</ele>
        <time>2020-06-25T09:54:48Z</time>
      </trkpt>
      <trkpt lat="44.93882" lon="5.42261">
        <ele>989</ele>
        <time>2020-06-25T09:55:04Z</time>
      </trkpt>
      <trkpt lat="44.93885" lon="5.42247">
        <ele>992</ele>
        <time>2020-06-25T09:55:20Z</time>
      </trkpt>
      <trkpt lat="44.93886" lon="5.42235">
        <ele>995</ele>
        <time>2020-06-25T09:55:36Z</time>
      </trkpt>
      <trkpt lat="44.93891" lon="5.4222">
        <ele>998</ele>
        <time>2020-06-25T09:55:51Z</time>
      </trkpt>
      <trkpt lat="44.93894" lon="5.42207">
        <ele>1000</ele>
        <time>2020-06-25T09:56:07Z</time>
      </trkpt>
      <trkpt lat="44.93895" lon="5.42197">
        <ele>1002</ele>
        <time>2020-06-25T09:56:22Z</time>
      </trkpt>
      <trkpt lat="44.93899" lon="5.4218">
        <ele>1006</ele>
        <time>2020-06-25T09:56:38Z</time>
      </trkpt>
      <trkpt lat="44.939" lon="5.42164">
        <ele>1008</ele>
        <time>2020-06-25T09:56:55Z</time>
      </trkpt>
      <trkpt lat="44.93899" lon="5.42152">
        <ele>1010</ele>
        <time>2020-06-25T09:57:09Z</time>
      </trkpt>
      <trkpt lat="44.93898" lon="5.42129">
        <ele>1014</ele>
        <time>2020-06-25T09:57:26Z</time>
      </trkpt>
      <trkpt lat="44.93898" lon="5.42128">
        <ele>1014</ele>
        <time>2020-06-25T09:57:27Z</time>
      </trkpt>
      <trkpt lat="44.93888" lon="5.42113">
        <ele>1016</ele>
        <time>2020-06-25T09:57:42Z</time>
      </trkpt>
      <trkpt lat="44.9388" lon="5.42102">
        <ele>1018</ele>
        <time>2020-06-25T09:57:54Z</time>
      </trkpt>
      <trkpt lat="44.93874" lon="5.42103">
        <ele>1018</ele>
        <time>2020-06-25T09:58:06Z</time>
      </trkpt>
      <trkpt lat="44.93872" lon="5.42109">
        <ele>1017</ele>
        <time>2020-06-25T09:58:39Z</time>
      </trkpt>
      <trkpt lat="44.9387" lon="5.42107">
        <ele>1018</ele>
        <time>2020-06-25T09:59:11Z</time>
      </trkpt>
      <trkpt lat="44.93869" lon="5.42105">
        <ele>1018</ele>
        <time>2020-06-25T09:59:36Z</time>
      </trkpt>
      <trkpt lat="44.93866" lon="5.42102">
        <ele>1018</ele>
        <time>2020-06-25T10:00:10Z</time>
      </trkpt>
      <trkpt lat="44.93871" lon="5.42096">
        <ele>1019</ele>
        <time>2020-06-25T10:00:45Z</time>
      </trkpt>
      <trkpt lat="44.93875" lon="5.42103">
        <ele>1018</ele>
        <time>2020-06-25T10:01:13Z</time>
      </trkpt>
      <trkpt lat="44.93873" lon="5.421">
        <ele>1018</ele>
        <time>2020-06-25T10:01:49Z</time>
      </trkpt>
      <trkpt lat="44.93873" lon="5.42106">
        <ele>1018</ele>
        <time>2020-06-25T10:02:24Z</time>
      </trkpt>
      <trkpt lat="44.93878" lon="5.421">
        <ele>1018</ele>
        <time>2020-06-25T10:03:07Z</time>
      </trkpt>
      <trkpt lat="44.93873" lon="5.42097">
        <ele>1019</ele>
        <time>2020-06-25T10:03:46Z</time>
      </trkpt>
      <trkpt lat="44.93867" lon="5.42104">
        <ele>1018</ele>
        <time>2020-06-25T10:04:24Z</time>
      </trkpt>
      <trkpt lat="44.93864" lon="5.42114">
        <ele>1017</ele>
        <time>2020-06-25T10:05:05Z</time>
      </trkpt>
      <trkpt lat="44.93867" lon="5.4211">
        <ele>1017</ele>
        <time>2020-06-25T10:05:43Z</time>
      </trkpt>
      <trkpt lat="44.93865" lon="5.42111">
        <ele>1017</ele>
        <time>2020-06-25T10:06:22Z</time>
      </trkpt>
      <trkpt lat="44.93859" lon="5.42127">
        <ele>1015</ele>
        <time>2020-06-25T10:07:07Z</time>
      </trkpt>
      <trkpt lat="44.93864" lon="5.42114">
        <ele>1017</ele>
        <time>2020-06-25T10:07:52Z</time>
      </trkpt>
      <trkpt lat="44.93862" lon="5.421">
        <ele>1019</ele>
        <time>2020-06-25T10:08:21Z</time>
      </trkpt>
      <trkpt lat="44.93871" lon="5.42108">
        <ele>1017</ele>
        <time>2020-06-25T10:08:55Z</time>
      </trkpt>
      <trkpt lat="44.9388" lon="5.42115">
        <ele>1016</ele>
        <time>2020-06-25T10:09:34Z</time>
      </trkpt>
      <trkpt lat="44.93881" lon="5.42106">
        <ele>1017</ele>
        <time>2020-06-25T10:10:05Z</time>
      </trkpt>
      <trkpt lat="44.93876" lon="5.42101">
        <ele>1018</ele>
        <time>2020-06-25T10:10:40Z</time>
      </trkpt>
      <trkpt lat="44.93877" lon="5.42107">
        <ele>1017</ele>
        <time>2020-06-25T10:11:25Z</time>
      </trkpt>
      <trkpt lat="44.93872" lon="5.42095">
        <ele>1019</ele>
        <time>2020-06-25T10:11:56Z</time>
      </trkpt>
      <trkpt lat="44.93873" lon="5.42088">
        <ele>1020</ele>
        <time>2020-06-25T10:12:30Z</time>
      </trkpt>
      <trkpt lat="44.93869" lon="5.42096">
        <ele>1019</ele>
        <time>2020-06-25T10:13:03Z</time>
      </trkpt>
      <trkpt lat="44.93874" lon="5.42104">
        <ele>1018</ele>
        <time>2020-06-25T10:13:39Z</time>
      </trkpt>
      <trkpt lat="44.93873" lon="5.42102">
        <ele>1018</ele>
        <time>2020-06-25T10:14:17Z</time>
      </trkpt>
      <trkpt lat="44.93862" lon="5.42087">
        <ele>1021</ele>
        <time>2020-06-25T10:14:54Z</time>
      </trkpt>
      <trkpt lat="44.93866" lon="5.42088">
        <ele>1020</ele>
        <time>2020-06-25T10:15:30Z</time>
      </trkpt>
      <trkpt lat="44.9387" lon="5.42091">
        <ele>1020</ele>
        <time>2020-06-25T10:16:05Z</time>
      </trkpt>
      <trkpt lat="44.9388" lon="5.42098">
        <ele>1018</ele>
        <time>2020-06-25T10:16:43Z</time>
      </trkpt>
      <trkpt lat="44.93878" lon="5.42101">
        <ele>1018</ele>
        <time>2020-06-25T10:17:16Z</time>
      </trkpt>
      <trkpt lat="44.93877" lon="5.42108">
        <ele>1017</ele>
        <time>2020-06-25T10:17:57Z</time>
      </trkpt>
      <trkpt lat="44.93869" lon="5.4211">
        <ele>1017</ele>
        <time>2020-06-25T10:18:25Z</time>
      </trkpt>
      <trkpt lat="44.93869" lon="5.42108">
        <ele>1018</ele>
        <time>2020-06-25T10:18:51Z</time>
      </trkpt>
      <trkpt lat="44.9387" lon="5.42109">
        <ele>1017</ele>
        <time>2020-06-25T10:19:25Z</time>
      </trkpt>
      <trkpt lat="44.93868" lon="5.42106">
        <ele>1018</ele>
        <time>2020-06-25T10:19:56Z</time>
      </trkpt>
      <trkpt lat="44.93871" lon="5.42101">
        <ele>1018</ele>
        <time>2020-06-25T10:20:31Z</time>
      </trkpt>
      <trkpt lat="44.93869" lon="5.42106">
        <ele>1018</ele>
        <time>2020-06-25T10:21:00Z</time>
      </trkpt>
      <trkpt lat="44.93869" lon="5.42103">
        <ele>1018</ele>
        <time>2020-06-25T10:21:30Z</time>
      </trkpt>
      <trkpt lat="44.93867" lon="5.42107">
        <ele>1018</ele>
        <time>2020-06-25T10:21:59Z</time>
      </trkpt>
      <trkpt lat="44.93873" lon="5.42102">
        <ele>1018</ele>
        <time>2020-06-25T10:22:31Z</time>
      </trkpt>
      <trkpt lat="44.9387" lon="5.42099">
        <ele>1019</ele>
        <time>2020-06-25T10:23:12Z</time>
      </trkpt>
      <trkpt lat="44.93873" lon="5.42106">
        <ele>1018</ele>
        <time>2020-06-25T10:23:48Z</time>
      </trkpt>
      <trkpt lat="44.9387" lon="5.421">
        <ele>1019</ele>
        <time>2020-06-25T10:24:19Z</time>
      </trkpt>
      <trkpt lat="44.93869" lon="5.42098">
        <ele>1019</ele>
        <time>2020-06-25T10:24:53Z</time>
      </trkpt>
      <trkpt lat="44.93868" lon="5.421">
        <ele>1019</ele>
        <time>2020-06-25T10:25:21Z</time>
      </trkpt>
      <trkpt lat="44.93866" lon="5.42102">
        <ele>1018</ele>
        <time>2020-06-25T10:25:49Z</time>
      </trkpt>
      <trkpt lat="44.93874" lon="5.42091">
        <ele>1020</ele>
        <time>2020-06-25T10:26:20Z</time>
      </trkpt>
      <trkpt lat="44.93879" lon="5.42087">
        <ele>1020</ele>
        <time>2020-06-25T10:26:45Z</time>
      </trkpt>
      <trkpt lat="44.93873" lon="5.42086">
        <ele>1020</ele>
        <time>2020-06-25T10:27:10Z</time>
      </trkpt>
      <trkpt lat="44.93873" lon="5.42083">
        <ele>1021</ele>
        <time>2020-06-25T10:27:36Z</time>
      </trkpt>
      <trkpt lat="44.93873" lon="5.42082">
        <ele>1021</ele>
        <time>2020-06-25T10:28:08Z</time>
      </trkpt>
      <trkpt lat="44.93868" lon="5.42084">
        <ele>1021</ele>
        <time>2020-06-25T10:28:40Z</time>
      </trkpt>
      <trkpt lat="44.9387" lon="5.42084">
        <ele>1021</ele>
        <time>2020-06-25T10:29:07Z</time>
      </trkpt>
      <trkpt lat="44.93865" lon="5.42091">
        <ele>1020</ele>
        <time>2020-06-25T10:29:39Z</time>
      </trkpt>
      <trkpt lat="44.93869" lon="5.42093">
        <ele>1020</ele>
        <time>2020-06-25T10:30:13Z</time>
      </trkpt>
      <trkpt lat="44.93868" lon="5.42096">
        <ele>1019</ele>
        <time>2020-06-25T10:30:52Z</time>
      </trkpt>
      <trkpt lat="44.93864" lon="5.42099">
        <ele>1019</ele>
        <time>2020-06-25T10:31:11Z</time>
      </trkpt>
      <trkpt lat="44.93861" lon="5.42099">
        <ele>1019</ele>
        <time>2020-06-25T10:31:17Z</time>
      </trkpt>
      <trkpt lat="44.93853" lon="5.42105">
        <ele>1019</ele>
        <time>2020-06-25T10:31:28Z</time>
      </trkpt>
      <trkpt lat="44.93845" lon="5.42107">
        <ele>1018</ele>
        <time>2020-06-25T10:31:43Z</time>
      </trkpt>
      <trkpt lat="44.93842" lon="5.42104">
        <ele>1019</ele>
        <time>2020-06-25T10:31:48Z</time>
      </trkpt>
      <trkpt lat="44.93836" lon="5.42099">
        <ele>1020</ele>
        <time>2020-06-25T10:31:57Z</time>
      </trkpt>
      <trkpt lat="44.9383" lon="5.42099">
        <ele>1020</ele>
        <time>2020-06-25T10:32:01Z</time>
      </trkpt>
      <trkpt lat="44.93821" lon="5.42098">
        <ele>1021</ele>
        <time>2020-06-25T10:32:08Z</time>
      </trkpt>
      <trkpt lat="44.93813" lon="5.421">
        <ele>1021</ele>
        <time>2020-06-25T10:32:15Z</time>
      </trkpt>
      <trkpt lat="44.938" lon="5.421">
        <ele>1021</ele>
        <time>2020-06-25T10:32:29Z</time>
      </trkpt>
      <trkpt lat="44.93787" lon="5.42098">
        <ele>1022</ele>
        <time>2020-06-25T10:32:44Z</time>
      </trkpt>
      <trkpt lat="44.93772" lon="5.42097">
        <ele>1024</ele>
        <time>2020-06-25T10:32:58Z</time>
      </trkpt>
      <trkpt lat="44.93761" lon="5.42091">
        <ele>1026</ele>
        <time>2020-06-25T10:33:15Z</time>
      </trkpt>
      <trkpt lat="44.93758" lon="5.42099">
        <ele>1025</ele>
        <time>2020-06-25T10:33:34Z</time>
      </trkpt>
      <trkpt lat="44.9376" lon="5.42099">
        <ele>1025</ele>
        <time>2020-06-25T10:34:02Z</time>
      </trkpt>
      <trkpt lat="44.93762" lon="5.42101">
        <ele>1024</ele>
        <time>2020-06-25T10:34:17Z</time>
      </trkpt>
      <trkpt lat="44.93764" lon="5.42103">
        <ele>1024</ele>
        <time>2020-06-25T10:34:43Z</time>
      </trkpt>
      <trkpt lat="44.93754" lon="5.42095">
        <ele>1026</ele>
        <time>2020-06-25T10:34:58Z</time>
      </trkpt>
      <trkpt lat="44.93746" lon="5.42091">
        <ele>1027</ele>
        <time>2020-06-25T10:35:14Z</time>
      </trkpt>
      <trkpt lat="44.93742" lon="5.4209">
        <ele>1028</ele>
        <time>2020-06-25T10:35:31Z</time>
      </trkpt>
      <trkpt lat="44.93739" lon="5.42093">
        <ele>1028</ele>
        <time>2020-06-25T10:35:46Z</time>
      </trkpt>
      <trkpt lat="44.93734" lon="5.4209">
        <ele>1029</ele>
        <time>2020-06-25T10:36:02Z</time>
      </trkpt>
      <trkpt lat="44.93722" lon="5.42087">
        <ele>1031</ele>
        <time>2020-06-25T10:36:23Z</time>
      </trkpt>
      <trkpt lat="44.93716" lon="5.42087">
        <ele>1032</ele>
        <time>2020-06-25T10:36:38Z</time>
      </trkpt>
      <trkpt lat="44.93712" lon="5.42083">
        <ele>1033</ele>
        <time>2020-06-25T10:36:54Z</time>
      </trkpt>
      <trkpt lat="44.93707" lon="5.42085">
        <ele>1033</ele>
        <time>2020-06-25T10:37:10Z</time>
      </trkpt>
      <trkpt lat="44.93704" lon="5.42087">
        <ele>1033</ele>
        <time>2020-06-25T10:37:34Z</time>
      </trkpt>
      <trkpt lat="44.93696" lon="5.42086">
        <ele>1035</ele>
        <time>2020-06-25T10:37:47Z</time>
      </trkpt>
      <trkpt lat="44.93684" lon="5.42091">
        <ele>1036</ele>
        <time>2020-06-25T10:38:03Z</time>
      </trkpt>
      <trkpt lat="44.93677" lon="5.42095">
        <ele>1036</ele>
        <time>2020-06-25T10:38:17Z</time>
      </trkpt>
      <trkpt lat="44.9367" lon="5.42095">
        <ele>1037</ele>
        <time>2020-06-25T10:38:32Z</time>
      </trkpt>
      <trkpt lat="44.93665" lon="5.42093">
        <ele>1038</ele>
        <time>2020-06-25T10:38:49Z</time>
      </trkpt>
      <trkpt lat="44.93655" lon="5.42092">
        <ele>1040</ele>
        <time>2020-06-25T10:39:04Z</time>
      </trkpt>
      <trkpt lat="44.93645" lon="5.42094">
        <ele>1041</ele>
        <time>2020-06-25T10:39:19Z</time>
      </trkpt>
      <trkpt lat="44.93637" lon="5.42094">
        <ele>1043</ele>
        <time>2020-06-25T10:39:36Z</time>
      </trkpt>
      <trkpt lat="44.9363" lon="5.42093">
        <ele>1044</ele>
        <time>2020-06-25T10:39:59Z</time>
      </trkpt>
      <trkpt lat="44.9362" lon="5.42089">
        <ele>1047</ele>
        <time>2020-06-25T10:40:15Z</time>
      </trkpt>
      <trkpt lat="44.93611" lon="5.42088">
        <ele>1049</ele>
        <time>2020-06-25T10:40:29Z</time>
      </trkpt>
      <trkpt lat="44.93605" lon="5.42087">
        <ele>1050</ele>
        <time>2020-06-25T10:40:42Z</time>
      </trkpt>
      <trkpt lat="44.93595" lon="5.42085">
        <ele>1052</ele>
        <time>2020-06-25T10:40:59Z</time>
      </trkpt>
      <trkpt lat="44.93588" lon="5.4208">
        <ele>1054</ele>
        <time>2020-06-25T10:41:13Z</time>
      </trkpt>
      <trkpt lat="44.93582" lon="5.42076">
        <ele>1055</ele>
        <time>2020-06-25T10:41:23Z</time>
      </trkpt>
      <trkpt lat="44.93577" lon="5.42075">
        <ele>1056</ele>
        <time>2020-06-25T10:41:29Z</time>
      </trkpt>
      <trkpt lat="44.93567" lon="5.42072">
        <ele>1058</ele>
        <time>2020-06-25T10:41:48Z</time>
      </trkpt>
      <trkpt lat="44.93561" lon="5.42065">
        <ele>1060</ele>
        <time>2020-06-25T10:42:03Z</time>
      </trkpt>
      <trkpt lat="44.93552" lon="5.4206">
        <ele>1063</ele>
        <time>2020-06-25T10:42:19Z</time>
      </trkpt>
      <trkpt lat="44.93543" lon="5.42056">
        <ele>1065</ele>
        <time>2020-06-25T10:42:35Z</time>
      </trkpt>
      <trkpt lat="44.93534" lon="5.42056">
        <ele>1067</ele>
        <time>2020-06-25T10:42:51Z</time>
      </trkpt>
      <trkpt lat="44.93527" lon="5.4205">
        <ele>1069</ele>
        <time>2020-06-25T10:43:08Z</time>
      </trkpt>
      <trkpt lat="44.93526" lon="5.42039">
        <ele>1070</ele>
        <time>2020-06-25T10:43:23Z</time>
      </trkpt>
      <trkpt lat="44.93529" lon="5.42024">
        <ele>1070</ele>
        <time>2020-06-25T10:43:39Z</time>
      </trkpt>
      <trkpt lat="44.93535" lon="5.42006">
        <ele>1069</ele>
        <time>2020-06-25T10:43:55Z</time>
      </trkpt>
      <trkpt lat="44.93536" lon="5.4199">
        <ele>1069</ele>
        <time>2020-06-25T10:44:08Z</time>
      </trkpt>
      <trkpt lat="44.93529" lon="5.41982">
        <ele>1071</ele>
        <time>2020-06-25T10:44:23Z</time>
      </trkpt>
      <trkpt lat="44.9352" lon="5.41981">
        <ele>1072</ele>
        <time>2020-06-25T10:44:37Z</time>
      </trkpt>
      <trkpt lat="44.93506" lon="5.41973">
        <ele>1075</ele>
        <time>2020-06-25T10:44:52Z</time>
      </trkpt>
      <trkpt lat="44.93504" lon="5.41973">
        <ele>1075</ele>
        <time>2020-06-25T10:44:56Z</time>
      </trkpt>
      <trkpt lat="44.9349" lon="5.41969">
        <ele>1078</ele>
        <time>2020-06-25T10:45:12Z</time>
      </trkpt>
      <trkpt lat="44.93482" lon="5.41967">
        <ele>1080</ele>
        <time>2020-06-25T10:45:27Z</time>
      </trkpt>
      <trkpt lat="44.93481" lon="5.41962">
        <ele>1080</ele>
        <time>2020-06-25T10:45:49Z</time>
      </trkpt>
      <trkpt lat="44.9348" lon="5.41961">
        <ele>1080</ele>
        <time>2020-06-25T10:46:12Z</time>
      </trkpt>
      <trkpt lat="44.93476" lon="5.41964">
        <ele>1081</ele>
        <time>2020-06-25T10:46:41Z</time>
      </trkpt>
      <trkpt lat="44.93479" lon="5.41963">
        <ele>1080</ele>
        <time>2020-06-25T10:47:08Z</time>
      </trkpt>
      <trkpt lat="44.93481" lon="5.41964">
        <ele>1080</ele>
        <time>2020-06-25T10:47:28Z</time>
      </trkpt>
      <trkpt lat="44.93483" lon="5.41965">
        <ele>1079</ele>
        <time>2020-06-25T10:48:03Z</time>
      </trkpt>
      <trkpt lat="44.93477" lon="5.41958">
        <ele>1080</ele>
        <time>2020-06-25T10:48:31Z</time>
      </trkpt>
      <trkpt lat="44.93474" lon="5.41962">
        <ele>1081</ele>
        <time>2020-06-25T10:49:04Z</time>
      </trkpt>
      <trkpt lat="44.93472" lon="5.41957">
        <ele>1081</ele>
        <time>2020-06-25T10:49:17Z</time>
      </trkpt>
      <trkpt lat="44.93453" lon="5.4194">
        <ele>1085</ele>
        <time>2020-06-25T10:49:33Z</time>
      </trkpt>
      <trkpt lat="44.93451" lon="5.41938">
        <ele>1085</ele>
        <time>2020-06-25T10:49:35Z</time>
      </trkpt>
      <trkpt lat="44.93437" lon="5.41925">
        <ele>1088</ele>
        <time>2020-06-25T10:49:49Z</time>
      </trkpt>
      <trkpt lat="44.93429" lon="5.41919">
        <ele>1089</ele>
        <time>2020-06-25T10:50:01Z</time>
      </trkpt>
      <trkpt lat="44.93427" lon="5.41916">
        <ele>1089</ele>
        <time>2020-06-25T10:50:03Z</time>
      </trkpt>
      <trkpt lat="44.93413" lon="5.41904">
        <ele>1092</ele>
        <time>2020-06-25T10:50:20Z</time>
      </trkpt>
      <trkpt lat="44.934" lon="5.41897">
        <ele>1094</ele>
        <time>2020-06-25T10:50:33Z</time>
      </trkpt>
      <trkpt lat="44.93392" lon="5.41894">
        <ele>1096</ele>
        <time>2020-06-25T10:50:47Z</time>
      </trkpt>
      <trkpt lat="44.93388" lon="5.4189">
        <ele>1097</ele>
        <time>2020-06-25T10:51:01Z</time>
      </trkpt>
      <trkpt lat="44.9338" lon="5.4188">
        <ele>1098</ele>
        <time>2020-06-25T10:51:18Z</time>
      </trkpt>
      <trkpt lat="44.93373" lon="5.41872">
        <ele>1100</ele>
        <time>2020-06-25T10:51:33Z</time>
      </trkpt>
      <trkpt lat="44.93367" lon="5.41863">
        <ele>1101</ele>
        <time>2020-06-25T10:51:48Z</time>
      </trkpt>
      <trkpt lat="44.93363" lon="5.41857">
        <ele>1102</ele>
        <time>2020-06-25T10:52:01Z</time>
      </trkpt>
      <trkpt lat="44.93353" lon="5.41844">
        <ele>1104</ele>
        <time>2020-06-25T10:52:16Z</time>
      </trkpt>
      <trkpt lat="44.93347" lon="5.41834">
        <ele>1105</ele>
        <time>2020-06-25T10:52:27Z</time>
      </trkpt>
      <trkpt lat="44.93339" lon="5.41825">
        <ele>1107</ele>
        <time>2020-06-25T10:52:42Z</time>
      </trkpt>
      <trkpt lat="44.93331" lon="5.41817">
        <ele>1109</ele>
        <time>2020-06-25T10:52:59Z</time>
      </trkpt>
      <trkpt lat="44.93323" lon="5.41812">
        <ele>1111</ele>
        <time>2020-06-25T10:53:15Z</time>
      </trkpt>
      <trkpt lat="44.93315" lon="5.41803">
        <ele>1112</ele>
        <time>2020-06-25T10:53:29Z</time>
      </trkpt>
      <trkpt lat="44.93306" lon="5.41789">
        <ele>1114</ele>
        <time>2020-06-25T10:53:47Z</time>
      </trkpt>
      <trkpt lat="44.93298" lon="5.41781">
        <ele>1115</ele>
        <time>2020-06-25T10:54:03Z</time>
      </trkpt>
      <trkpt lat="44.93289" lon="5.41771">
        <ele>1117</ele>
        <time>2020-06-25T10:54:19Z</time>
      </trkpt>
      <trkpt lat="44.93285" lon="5.41756">
        <ele>1117</ele>
        <time>2020-06-25T10:54:34Z</time>
      </trkpt>
      <trkpt lat="44.93282" lon="5.41742">
        <ele>1118</ele>
        <time>2020-06-25T10:54:47Z</time>
      </trkpt>
      <trkpt lat="44.93278" lon="5.41731">
        <ele>1119</ele>
        <time>2020-06-25T10:55:01Z</time>
      </trkpt>
      <trkpt lat="44.93276" lon="5.41719">
        <ele>1120</ele>
        <time>2020-06-25T10:55:16Z</time>
      </trkpt>
      <trkpt lat="44.93269" lon="5.41707">
        <ele>1121</ele>
        <time>2020-06-25T10:55:33Z</time>
      </trkpt>
      <trkpt lat="44.93264" lon="5.41696">
        <ele>1122</ele>
        <time>2020-06-25T10:55:49Z</time>
      </trkpt>
      <trkpt lat="44.9326" lon="5.41685">
        <ele>1123</ele>
        <time>2020-06-25T10:56:05Z</time>
      </trkpt>
      <trkpt lat="44.93254" lon="5.41671">
        <ele>1126</ele>
        <time>2020-06-25T10:56:20Z</time>
      </trkpt>
      <trkpt lat="44.93249" lon="5.41662">
        <ele>1128</ele>
        <time>2020-06-25T10:56:36Z</time>
      </trkpt>
      <trkpt lat="44.93242" lon="5.41656">
        <ele>1130</ele>
        <time>2020-06-25T10:56:51Z</time>
      </trkpt>
      <trkpt lat="44.93234" lon="5.41645">
        <ele>1132</ele>
        <time>2020-06-25T10:57:07Z</time>
      </trkpt>
      <trkpt lat="44.93224" lon="5.41634">
        <ele>1135</ele>
        <time>2020-06-25T10:57:21Z</time>
      </trkpt>
      <trkpt lat="44.93211" lon="5.41626">
        <ele>1136</ele>
        <time>2020-06-25T10:57:39Z</time>
      </trkpt>
      <trkpt lat="44.932" lon="5.41617">
        <ele>1138</ele>
        <time>2020-06-25T10:57:55Z</time>
      </trkpt>
      <trkpt lat="44.93188" lon="5.41609">
        <ele>1138</ele>
        <time>2020-06-25T10:58:11Z</time>
      </trkpt>
      <trkpt lat="44.93177" lon="5.41607">
        <ele>1139</ele>
        <time>2020-06-25T10:58:27Z</time>
      </trkpt>
      <trkpt lat="44.93171" lon="5.416">
        <ele>1139</ele>
        <time>2020-06-25T10:58:39Z</time>
      </trkpt>
      <trkpt lat="44.93171" lon="5.41601">
        <ele>1139</ele>
        <time>2020-06-25T10:58:57Z</time>
      </trkpt>
      <trkpt lat="44.93172" lon="5.416">
        <ele>1139</ele>
        <time>2020-06-25T10:59:21Z</time>
      </trkpt>
      <trkpt lat="44.93173" lon="5.41603">
        <ele>1139</ele>
        <time>2020-06-25T10:59:42Z</time>
      </trkpt>
      <trkpt lat="44.93174" lon="5.41605">
        <ele>1139</ele>
        <time>2020-06-25T10:59:57Z</time>
      </trkpt>
      <trkpt lat="44.93174" lon="5.41598">
        <ele>1139</ele>
        <time>2020-06-25T11:00:18Z</time>
      </trkpt>
      <trkpt lat="44.93171" lon="5.416">
        <ele>1139</ele>
        <time>2020-06-25T11:00:51Z</time>
      </trkpt>
      <trkpt lat="44.93167" lon="5.41598">
        <ele>1139</ele>
        <time>2020-06-25T11:01:17Z</time>
      </trkpt>
      <trkpt lat="44.93171" lon="5.41597">
        <ele>1139</ele>
        <time>2020-06-25T11:01:40Z</time>
      </trkpt>
      <trkpt lat="44.93172" lon="5.41599">
        <ele>1139</ele>
        <time>2020-06-25T11:02:06Z</time>
      </trkpt>
      <trkpt lat="44.93169" lon="5.416">
        <ele>1139</ele>
        <time>2020-06-25T11:02:30Z</time>
      </trkpt>
      <trkpt lat="44.93169" lon="5.41601">
        <ele>1139</ele>
        <time>2020-06-25T11:02:54Z</time>
      </trkpt>
      <trkpt lat="44.93171" lon="5.41603">
        <ele>1139</ele>
        <time>2020-06-25T11:03:16Z</time>
      </trkpt>
      <trkpt lat="44.93173" lon="5.41603">
        <ele>1139</ele>
        <time>2020-06-25T11:03:42Z</time>
      </trkpt>
      <trkpt lat="44.93171" lon="5.41606">
        <ele>1139</ele>
        <time>2020-06-25T11:04:11Z</time>
      </trkpt>
      <trkpt lat="44.93171" lon="5.41605">
        <ele>1139</ele>
        <time>2020-06-25T11:04:35Z</time>
      </trkpt>
      <trkpt lat="44.93166" lon="5.41602">
        <ele>1139</ele>
        <time>2020-06-25T11:05:09Z</time>
      </trkpt>
      <trkpt lat="44.93168" lon="5.41606">
        <ele>1138</ele>
        <time>2020-06-25T11:05:35Z</time>
      </trkpt>
      <trkpt lat="44.93172" lon="5.41601">
        <ele>1139</ele>
        <time>2020-06-25T11:05:58Z</time>
      </trkpt>
      <trkpt lat="44.93172" lon="5.41605">
        <ele>1139</ele>
        <time>2020-06-25T11:06:11Z</time>
      </trkpt>
      <trkpt lat="44.9317" lon="5.41604">
        <ele>1139</ele>
        <time>2020-06-25T11:06:28Z</time>
      </trkpt>
      <trkpt lat="44.93169" lon="5.416">
        <ele>1139</ele>
        <time>2020-06-25T11:06:56Z</time>
      </trkpt>
      <trkpt lat="44.9317" lon="5.41601">
        <ele>1139</ele>
        <time>2020-06-25T11:07:17Z</time>
      </trkpt>
      <trkpt lat="44.93171" lon="5.41604">
        <ele>1139</ele>
        <time>2020-06-25T11:07:34Z</time>
      </trkpt>
      <trkpt lat="44.9317" lon="5.41605">
        <ele>1139</ele>
        <time>2020-06-25T11:07:56Z</time>
      </trkpt>
      <trkpt lat="44.9317" lon="5.41606">
        <ele>1139</ele>
        <time>2020-06-25T11:07:58Z</time>
      </trkpt>
      <trkpt lat="44.93165" lon="5.41606">
        <ele>1138</ele>
        <time>2020-06-25T11:08:02Z</time>
      </trkpt>
      <trkpt lat="44.9314" lon="5.41609">
        <ele>1138</ele>
        <time>2020-06-25T11:08:13Z</time>
      </trkpt>
      <trkpt lat="44.93108" lon="5.41602">
        <ele>1138</ele>
        <time>2020-06-25T11:08:24Z</time>
      </trkpt>
      <trkpt lat="44.931" lon="5.41601">
        <ele>1138</ele>
        <time>2020-06-25T11:08:26Z</time>
      </trkpt>
      <trkpt lat="44.93095" lon="5.41601">
        <ele>1138</ele>
        <time>2020-06-25T11:08:27Z</time>
      </trkpt>
      <trkpt lat="44.9309" lon="5.41599">
        <ele>1138</ele>
        <time>2020-06-25T11:08:28Z</time>
      </trkpt>
      <trkpt lat="44.93084" lon="5.41597">
        <ele>1137</ele>
        <time>2020-06-25T11:08:29Z</time>
      </trkpt>
      <trkpt lat="44.93078" lon="5.41593">
        <ele>1137</ele>
        <time>2020-06-25T11:08:30Z</time>
      </trkpt>
      <trkpt lat="44.93073" lon="5.41589">
        <ele>1137</ele>
        <time>2020-06-25T11:08:31Z</time>
      </trkpt>
      <trkpt lat="44.93049" lon="5.41569">
        <ele>1135</ele>
        <time>2020-06-25T11:08:35Z</time>
      </trkpt>
      <trkpt lat="44.93035" lon="5.41561">
        <ele>1134</ele>
        <time>2020-06-25T11:08:37Z</time>
      </trkpt>
      <trkpt lat="44.93028" lon="5.4156">
        <ele>1134</ele>
        <time>2020-06-25T11:08:38Z</time>
      </trkpt>
      <trkpt lat="44.93022" lon="5.4156">
        <ele>1134</ele>
        <time>2020-06-25T11:08:39Z</time>
      </trkpt>
      <trkpt lat="44.93015" lon="5.41561">
        <ele>1134</ele>
        <time>2020-06-25T11:08:40Z</time>
      </trkpt>
      <trkpt lat="44.93009" lon="5.41559">
        <ele>1133</ele>
        <time>2020-06-25T11:08:41Z</time>
      </trkpt>
      <trkpt lat="44.93002" lon="5.41556">
        <ele>1133</ele>
        <time>2020-06-25T11:08:42Z</time>
      </trkpt>
      <trkpt lat="44.92995" lon="5.41552">
        <ele>1132</ele>
        <time>2020-06-25T11:08:43Z</time>
      </trkpt>
      <trkpt lat="44.92977" lon="5.41538">
        <ele>1129</ele>
        <time>2020-06-25T11:08:46Z</time>
      </trkpt>
      <trkpt lat="44.92966" lon="5.41521">
        <ele>1127</ele>
        <time>2020-06-25T11:08:48Z</time>
      </trkpt>
      <trkpt lat="44.92959" lon="5.41515">
        <ele>1125</ele>
        <time>2020-06-25T11:08:49Z</time>
      </trkpt>
      <trkpt lat="44.9295" lon="5.41509">
        <ele>1124</ele>
        <time>2020-06-25T11:08:50Z</time>
      </trkpt>
      <trkpt lat="44.92941" lon="5.41503">
        <ele>1123</ele>
        <time>2020-06-25T11:08:51Z</time>
      </trkpt>
      <trkpt lat="44.92931" lon="5.41497">
        <ele>1121</ele>
        <time>2020-06-25T11:08:52Z</time>
      </trkpt>
      <trkpt lat="44.9289" lon="5.41478">
        <ele>1115</ele>
        <time>2020-06-25T11:08:57Z</time>
      </trkpt>
      <trkpt lat="44.92885" lon="5.41473">
        <ele>1115</ele>
        <time>2020-06-25T11:08:58Z</time>
      </trkpt>
      <trkpt lat="44.92882" lon="5.41468">
        <ele>1114</ele>
        <time>2020-06-25T11:08:59Z</time>
      </trkpt>
      <trkpt lat="44.92879" lon="5.41461">
        <ele>1113</ele>
        <time>2020-06-25T11:09:00Z</time>
      </trkpt>
      <trkpt lat="44.92876" lon="5.41452">
        <ele>1112</ele>
        <time>2020-06-25T11:09:01Z</time>
      </trkpt>
      <trkpt lat="44.92873" lon="5.41443">
        <ele>1112</ele>
        <time>2020-06-25T11:09:02Z</time>
      </trkpt>
      <trkpt lat="44.92868" lon="5.41436">
        <ele>1111</ele>
        <time>2020-06-25T11:09:03Z</time>
      </trkpt>
      <trkpt lat="44.92862" lon="5.41428">
        <ele>1110</ele>
        <time>2020-06-25T11:09:04Z</time>
      </trkpt>
      <trkpt lat="44.92855" lon="5.41421">
        <ele>1109</ele>
        <time>2020-06-25T11:09:05Z</time>
      </trkpt>
      <trkpt lat="44.92848" lon="5.41414">
        <ele>1109</ele>
        <time>2020-06-25T11:09:06Z</time>
      </trkpt>
      <trkpt lat="44.9284" lon="5.41407">
        <ele>1108</ele>
        <time>2020-06-25T11:09:07Z</time>
      </trkpt>
      <trkpt lat="44.9283" lon="5.41401">
        <ele>1107</ele>
        <time>2020-06-25T11:09:08Z</time>
      </trkpt>
      <trkpt lat="44.9282" lon="5.41396">
        <ele>1106</ele>
        <time>2020-06-25T11:09:09Z</time>
      </trkpt>
      <trkpt lat="44.92781" lon="5.41378">
        <ele>1104</ele>
        <time>2020-06-25T11:09:13Z</time>
      </trkpt>
      <trkpt lat="44.92766" lon="5.41376">
        <ele>1103</ele>
        <time>2020-06-25T11:09:15Z</time>
      </trkpt>
      <trkpt lat="44.92761" lon="5.41374">
        <ele>1102</ele>
        <time>2020-06-25T11:09:16Z</time>
      </trkpt>
      <trkpt lat="44.92761" lon="5.41377">
        <ele>1102</ele>
        <time>2020-06-25T11:09:17Z</time>
      </trkpt>
      <trkpt lat="44.9276" lon="5.41377">
        <ele>1102</ele>
        <time>2020-06-25T11:09:18Z</time>
      </trkpt>
      <trkpt lat="44.9276" lon="5.41376">
        <ele>1102</ele>
        <time>2020-06-25T11:09:19Z</time>
      </trkpt>
      <trkpt lat="44.92759" lon="5.41375">
        <ele>1102</ele>
        <time>2020-06-25T11:09:20Z</time>
      </trkpt>
      <trkpt lat="44.92759" lon="5.41372">
        <ele>1102</ele>
        <time>2020-06-25T11:09:22Z</time>
      </trkpt>
      <trkpt lat="44.92759" lon="5.41373">
        <ele>1102</ele>
        <time>2020-06-25T11:09:34Z</time>
      </trkpt>
      <trkpt lat="44.92759" lon="5.41373">
        <ele>1102</ele>
        <time>2020-06-25T11:09:57Z</time>
      </trkpt>
      <trkpt lat="44.92755" lon="5.41376">
        <ele>1102</ele>
        <time>2020-06-25T11:10:08Z</time>
      </trkpt>
      <trkpt lat="44.92753" lon="5.41375">
        <ele>1102</ele>
        <time>2020-06-25T11:10:42Z</time>
      </trkpt>
      <trkpt lat="44.92755" lon="5.41375">
        <ele>1102</ele>
        <time>2020-06-25T11:11:33Z</time>
      </trkpt>
      <trkpt lat="44.92754" lon="5.41375">
        <ele>1102</ele>
        <time>2020-06-25T11:12:12Z</time>
      </trkpt>
      <trkpt lat="44.92756" lon="5.41376">
        <ele>1102</ele>
        <time>2020-06-25T11:12:34Z</time>
      </trkpt>
      <trkpt lat="44.92757" lon="5.41371">
        <ele>1102</ele>
        <time>2020-06-25T11:12:47Z</time>
      </trkpt>
      <trkpt lat="44.92759" lon="5.41372">
        <ele>1102</ele>
        <time>2020-06-25T11:13:13Z</time>
      </trkpt>
      <trkpt lat="44.92757" lon="5.4137">
        <ele>1102</ele>
        <time>2020-06-25T11:13:34Z</time>
      </trkpt>
      <trkpt lat="44.92757" lon="5.41368">
        <ele>1102</ele>
        <time>2020-06-25T11:13:46Z</time>
      </trkpt>
      <trkpt lat="44.92749" lon="5.41362">
        <ele>1102</ele>
        <time>2020-06-25T11:13:52Z</time>
      </trkpt>
      <trkpt lat="44.92747" lon="5.41361">
        <ele>1102</ele>
        <time>2020-06-25T11:13:53Z</time>
      </trkpt>
      <trkpt lat="44.92745" lon="5.4136">
        <ele>1102</ele>
        <time>2020-06-25T11:13:54Z</time>
      </trkpt>
      <trkpt lat="44.92742" lon="5.41359">
        <ele>1102</ele>
        <time>2020-06-25T11:13:55Z</time>
      </trkpt>
      <trkpt lat="44.92696" lon="5.41346">
        <ele>1100</ele>
        <time>2020-06-25T11:14:07Z</time>
      </trkpt>
      <trkpt lat="44.92692" lon="5.41345">
        <ele>1099</ele>
        <time>2020-06-25T11:14:08Z</time>
      </trkpt>
      <trkpt lat="44.92688" lon="5.41342">
        <ele>1099</ele>
        <time>2020-06-25T11:14:09Z</time>
      </trkpt>
      <trkpt lat="44.92685" lon="5.41339">
        <ele>1099</ele>
        <time>2020-06-25T11:14:10Z</time>
      </trkpt>
      <trkpt lat="44.92682" lon="5.41336">
        <ele>1099</ele>
        <time>2020-06-25T11:14:11Z</time>
      </trkpt>
      <trkpt lat="44.92651" lon="5.41313">
        <ele>1095</ele>
        <time>2020-06-25T11:14:20Z</time>
      </trkpt>
      <trkpt lat="44.92624" lon="5.41312">
        <ele>1094</ele>
        <time>2020-06-25T11:14:30Z</time>
      </trkpt>
      <trkpt lat="44.92607" lon="5.41306">
        <ele>1093</ele>
        <time>2020-06-25T11:14:34Z</time>
      </trkpt>
      <trkpt lat="44.92603" lon="5.41303">
        <ele>1093</ele>
        <time>2020-06-25T11:14:35Z</time>
      </trkpt>
      <trkpt lat="44.92598" lon="5.413">
        <ele>1092</ele>
        <time>2020-06-25T11:14:36Z</time>
      </trkpt>
      <trkpt lat="44.92536" lon="5.41262">
        <ele>1088</ele>
        <time>2020-06-25T11:14:50Z</time>
      </trkpt>
      <trkpt lat="44.92528" lon="5.41259">
        <ele>1087</ele>
        <time>2020-06-25T11:14:52Z</time>
      </trkpt>
      <trkpt lat="44.92522" lon="5.41259">
        <ele>1087</ele>
        <time>2020-06-25T11:14:53Z</time>
      </trkpt>
      <trkpt lat="44.92517" lon="5.4126">
        <ele>1087</ele>
        <time>2020-06-25T11:14:54Z</time>
      </trkpt>
      <trkpt lat="44.9251" lon="5.41262">
        <ele>1087</ele>
        <time>2020-06-25T11:14:55Z</time>
      </trkpt>
      <trkpt lat="44.92504" lon="5.41265">
        <ele>1087</ele>
        <time>2020-06-25T11:14:56Z</time>
      </trkpt>
      <trkpt lat="44.92499" lon="5.41267">
        <ele>1088</ele>
        <time>2020-06-25T11:14:57Z</time>
      </trkpt>
      <trkpt lat="44.92493" lon="5.4127">
        <ele>1088</ele>
        <time>2020-06-25T11:14:58Z</time>
      </trkpt>
      <trkpt lat="44.92482" lon="5.41273">
        <ele>1088</ele>
        <time>2020-06-25T11:15:00Z</time>
      </trkpt>
      <trkpt lat="44.92467" lon="5.41274">
        <ele>1088</ele>
        <time>2020-06-25T11:15:03Z</time>
      </trkpt>
      <trkpt lat="44.92445" lon="5.41279">
        <ele>1088</ele>
        <time>2020-06-25T11:15:13Z</time>
      </trkpt>
      <trkpt lat="44.92444" lon="5.41278">
        <ele>1088</ele>
        <time>2020-06-25T11:15:14Z</time>
      </trkpt>
      <trkpt lat="44.92443" lon="5.41276">
        <ele>1088</ele>
        <time>2020-06-25T11:15:15Z</time>
      </trkpt>
      <trkpt lat="44.92442" lon="5.41275">
        <ele>1088</ele>
        <time>2020-06-25T11:15:16Z</time>
      </trkpt>
      <trkpt lat="44.9244" lon="5.41275">
        <ele>1088</ele>
        <time>2020-06-25T11:15:17Z</time>
      </trkpt>
      <trkpt lat="44.92439" lon="5.41274">
        <ele>1088</ele>
        <time>2020-06-25T11:15:18Z</time>
      </trkpt>
      <trkpt lat="44.92438" lon="5.41273">
        <ele>1088</ele>
        <time>2020-06-25T11:15:19Z</time>
      </trkpt>
      <trkpt lat="44.92436" lon="5.41272">
        <ele>1088</ele>
        <time>2020-06-25T11:15:20Z</time>
      </trkpt>
      <trkpt lat="44.92434" lon="5.41271">
        <ele>1088</ele>
        <time>2020-06-25T11:15:21Z</time>
      </trkpt>
      <trkpt lat="44.92433" lon="5.4127">
        <ele>1087</ele>
        <time>2020-06-25T11:15:22Z</time>
      </trkpt>
      <trkpt lat="44.92431" lon="5.41269">
        <ele>1087</ele>
        <time>2020-06-25T11:15:23Z</time>
      </trkpt>
      <trkpt lat="44.92429" lon="5.41267">
        <ele>1087</ele>
        <time>2020-06-25T11:15:24Z</time>
      </trkpt>
      <trkpt lat="44.92427" lon="5.41264">
        <ele>1087</ele>
        <time>2020-06-25T11:15:25Z</time>
      </trkpt>
      <trkpt lat="44.92425" lon="5.41262">
        <ele>1087</ele>
        <time>2020-06-25T11:15:26Z</time>
      </trkpt>
      <trkpt lat="44.92423" lon="5.41259">
        <ele>1087</ele>
        <time>2020-06-25T11:15:27Z</time>
      </trkpt>
      <trkpt lat="44.9242" lon="5.41257">
        <ele>1087</ele>
        <time>2020-06-25T11:15:28Z</time>
      </trkpt>
      <trkpt lat="44.92417" lon="5.41255">
        <ele>1086</ele>
        <time>2020-06-25T11:15:29Z</time>
      </trkpt>
      <trkpt lat="44.92401" lon="5.41246">
        <ele>1086</ele>
        <time>2020-06-25T11:15:33Z</time>
      </trkpt>
      <trkpt lat="44.92393" lon="5.41241">
        <ele>1085</ele>
        <time>2020-06-25T11:15:35Z</time>
      </trkpt>
      <trkpt lat="44.92379" lon="5.41228">
        <ele>1084</ele>
        <time>2020-06-25T11:15:39Z</time>
      </trkpt>
      <trkpt lat="44.92375" lon="5.41225">
        <ele>1084</ele>
        <time>2020-06-25T11:15:40Z</time>
      </trkpt>
      <trkpt lat="44.92363" lon="5.41215">
        <ele>1084</ele>
        <time>2020-06-25T11:15:43Z</time>
      </trkpt>
      <trkpt lat="44.92332" lon="5.41167">
        <ele>1085</ele>
        <time>2020-06-25T11:15:55Z</time>
      </trkpt>
      <trkpt lat="44.92329" lon="5.41118">
        <ele>1084</ele>
        <time>2020-06-25T11:16:08Z</time>
      </trkpt>
      <trkpt lat="44.92315" lon="5.4107">
        <ele>1086</ele>
        <time>2020-06-25T11:16:24Z</time>
      </trkpt>
      <trkpt lat="44.92308" lon="5.41039">
        <ele>1087</ele>
        <time>2020-06-25T11:16:36Z</time>
      </trkpt>
      <trkpt lat="44.92308" lon="5.41037">
        <ele>1087</ele>
        <time>2020-06-25T11:16:37Z</time>
      </trkpt>
      <trkpt lat="44.92307" lon="5.41035">
        <ele>1087</ele>
        <time>2020-06-25T11:16:38Z</time>
      </trkpt>
      <trkpt lat="44.92306" lon="5.41033">
        <ele>1087</ele>
        <time>2020-06-25T11:16:39Z</time>
      </trkpt>
      <trkpt lat="44.92305" lon="5.41031">
        <ele>1087</ele>
        <time>2020-06-25T11:16:40Z</time>
      </trkpt>
      <trkpt lat="44.92305" lon="5.41029">
        <ele>1087</ele>
        <time>2020-06-25T11:16:41Z</time>
      </trkpt>
      <trkpt lat="44.92304" lon="5.41027">
        <ele>1087</ele>
        <time>2020-06-25T11:16:42Z</time>
      </trkpt>
      <trkpt lat="44.92304" lon="5.41025">
        <ele>1087</ele>
        <time>2020-06-25T11:16:43Z</time>
      </trkpt>
      <trkpt lat="44.92301" lon="5.41012">
        <ele>1088</ele>
        <time>2020-06-25T11:16:49Z</time>
      </trkpt>
      <trkpt lat="44.92301" lon="5.41009">
        <ele>1088</ele>
        <time>2020-06-25T11:16:50Z</time>
      </trkpt>
      <trkpt lat="44.92294" lon="5.40985">
        <ele>1089</ele>
        <time>2020-06-25T11:17:01Z</time>
      </trkpt>
      <trkpt lat="44.92293" lon="5.40982">
        <ele>1089</ele>
        <time>2020-06-25T11:17:02Z</time>
      </trkpt>
      <trkpt lat="44.9228" lon="5.40954">
        <ele>1091</ele>
        <time>2020-06-25T11:17:13Z</time>
      </trkpt>
      <trkpt lat="44.92278" lon="5.40953">
        <ele>1091</ele>
        <time>2020-06-25T11:17:14Z</time>
      </trkpt>
      <trkpt lat="44.9226" lon="5.40932">
        <ele>1094</ele>
        <time>2020-06-25T11:17:28Z</time>
      </trkpt>
      <trkpt lat="44.92257" lon="5.40925">
        <ele>1095</ele>
        <time>2020-06-25T11:17:32Z</time>
      </trkpt>
      <trkpt lat="44.92256" lon="5.40923">
        <ele>1095</ele>
        <time>2020-06-25T11:17:33Z</time>
      </trkpt>
      <trkpt lat="44.92245" lon="5.40896">
        <ele>1097</ele>
        <time>2020-06-25T11:17:49Z</time>
      </trkpt>
      <trkpt lat="44.92238" lon="5.40885">
        <ele>1099</ele>
        <time>2020-06-25T11:17:56Z</time>
      </trkpt>
      <trkpt lat="44.92237" lon="5.40882">
        <ele>1099</ele>
        <time>2020-06-25T11:17:58Z</time>
      </trkpt>
      <trkpt lat="44.92222" lon="5.40862">
        <ele>1101</ele>
        <time>2020-06-25T11:18:14Z</time>
      </trkpt>
      <trkpt lat="44.92204" lon="5.40847">
        <ele>1102</ele>
        <time>2020-06-25T11:18:29Z</time>
      </trkpt>
      <trkpt lat="44.92201" lon="5.40845">
        <ele>1102</ele>
        <time>2020-06-25T11:18:32Z</time>
      </trkpt>
      <trkpt lat="44.92202" lon="5.40848">
        <ele>1102</ele>
        <time>2020-06-25T11:18:39Z</time>
      </trkpt>
      <trkpt lat="44.92203" lon="5.40844">
        <ele>1102</ele>
        <time>2020-06-25T11:18:42Z</time>
      </trkpt>
      <trkpt lat="44.922" lon="5.40844">
        <ele>1102</ele>
        <time>2020-06-25T11:18:52Z</time>
      </trkpt>
      <trkpt lat="44.92199" lon="5.40843">
        <ele>1101</ele>
        <time>2020-06-25T11:19:09Z</time>
      </trkpt>
      <trkpt lat="44.92199" lon="5.40844">
        <ele>1102</ele>
        <time>2020-06-25T11:19:28Z</time>
      </trkpt>
      <trkpt lat="44.92201" lon="5.40845">
        <ele>1102</ele>
        <time>2020-06-25T11:19:54Z</time>
      </trkpt>
      <trkpt lat="44.922" lon="5.40844">
        <ele>1102</ele>
        <time>2020-06-25T11:20:15Z</time>
      </trkpt>
      <trkpt lat="44.92199" lon="5.40843">
        <ele>1101</ele>
        <time>2020-06-25T11:20:39Z</time>
      </trkpt>
      <trkpt lat="44.92194" lon="5.40851">
        <ele>1102</ele>
        <time>2020-06-25T11:20:57Z</time>
      </trkpt>
      <trkpt lat="44.92194" lon="5.40851">
        <ele>1102</ele>
        <time>2020-06-25T11:20:58Z</time>
      </trkpt>
      <trkpt lat="44.92187" lon="5.40854">
        <ele>1102</ele>
        <time>2020-06-25T11:21:10Z</time>
      </trkpt>
      <trkpt lat="44.92176" lon="5.40855">
        <ele>1102</ele>
        <time>2020-06-25T11:21:24Z</time>
      </trkpt>
      <trkpt lat="44.92175" lon="5.40856">
        <ele>1102</ele>
        <time>2020-06-25T11:21:25Z</time>
      </trkpt>
      <trkpt lat="44.92161" lon="5.40861">
        <ele>1102</ele>
        <time>2020-06-25T11:21:41Z</time>
      </trkpt>
      <trkpt lat="44.92147" lon="5.40869">
        <ele>1103</ele>
        <time>2020-06-25T11:21:56Z</time>
      </trkpt>
      <trkpt lat="44.92128" lon="5.40881">
        <ele>1103</ele>
        <time>2020-06-25T11:22:09Z</time>
      </trkpt>
      <trkpt lat="44.92112" lon="5.40904">
        <ele>1103</ele>
        <time>2020-06-25T11:22:23Z</time>
      </trkpt>
      <trkpt lat="44.92095" lon="5.40942">
        <ele>1103</ele>
        <time>2020-06-25T11:22:37Z</time>
      </trkpt>
      <trkpt lat="44.92088" lon="5.40977">
        <ele>1104</ele>
        <time>2020-06-25T11:22:50Z</time>
      </trkpt>
      <trkpt lat="44.92081" lon="5.41011">
        <ele>1104</ele>
        <time>2020-06-25T11:23:05Z</time>
      </trkpt>
      <trkpt lat="44.92082" lon="5.41059">
        <ele>1104</ele>
        <time>2020-06-25T11:23:20Z</time>
      </trkpt>
      <trkpt lat="44.92074" lon="5.41097">
        <ele>1106</ele>
        <time>2020-06-25T11:23:31Z</time>
      </trkpt>
      <trkpt lat="44.92068" lon="5.41103">
        <ele>1106</ele>
        <time>2020-06-25T11:23:35Z</time>
      </trkpt>
      <trkpt lat="44.92067" lon="5.41104">
        <ele>1106</ele>
        <time>2020-06-25T11:23:36Z</time>
      </trkpt>
      <trkpt lat="44.92066" lon="5.41105">
        <ele>1106</ele>
        <time>2020-06-25T11:23:37Z</time>
      </trkpt>
      <trkpt lat="44.92065" lon="5.41106">
        <ele>1106</ele>
        <time>2020-06-25T11:23:38Z</time>
      </trkpt>
      <trkpt lat="44.92062" lon="5.41107">
        <ele>1106</ele>
        <time>2020-06-25T11:23:39Z</time>
      </trkpt>
      <trkpt lat="44.9206" lon="5.41109">
        <ele>1106</ele>
        <time>2020-06-25T11:23:40Z</time>
      </trkpt>
      <trkpt lat="44.92057" lon="5.41111">
        <ele>1106</ele>
        <time>2020-06-25T11:23:41Z</time>
      </trkpt>
      <trkpt lat="44.92053" lon="5.41113">
        <ele>1105</ele>
        <time>2020-06-25T11:23:42Z</time>
      </trkpt>
      <trkpt lat="44.9205" lon="5.41115">
        <ele>1105</ele>
        <time>2020-06-25T11:23:43Z</time>
      </trkpt>
      <trkpt lat="44.92042" lon="5.41121">
        <ele>1104</ele>
        <time>2020-06-25T11:23:45Z</time>
      </trkpt>
      <trkpt lat="44.92025" lon="5.41136">
        <ele>1104</ele>
        <time>2020-06-25T11:23:50Z</time>
      </trkpt>
      <trkpt lat="44.92021" lon="5.41139">
        <ele>1104</ele>
        <time>2020-06-25T11:23:51Z</time>
      </trkpt>
      <trkpt lat="44.92017" lon="5.4114">
        <ele>1103</ele>
        <time>2020-06-25T11:23:52Z</time>
      </trkpt>
      <trkpt lat="44.92012" lon="5.41141">
        <ele>1103</ele>
        <time>2020-06-25T11:23:53Z</time>
      </trkpt>
      <trkpt lat="44.92006" lon="5.41142">
        <ele>1103</ele>
        <time>2020-06-25T11:23:54Z</time>
      </trkpt>
      <trkpt lat="44.92001" lon="5.41143">
        <ele>1103</ele>
        <time>2020-06-25T11:23:55Z</time>
      </trkpt>
      <trkpt lat="44.91997" lon="5.41145">
        <ele>1103</ele>
        <time>2020-06-25T11:23:56Z</time>
      </trkpt>
      <trkpt lat="44.91992" lon="5.41148">
        <ele>1103</ele>
        <time>2020-06-25T11:23:57Z</time>
      </trkpt>
      <trkpt lat="44.91983" lon="5.41153">
        <ele>1103</ele>
        <time>2020-06-25T11:23:59Z</time>
      </trkpt>
      <trkpt lat="44.91955" lon="5.41161">
        <ele>1103</ele>
        <time>2020-06-25T11:24:06Z</time>
      </trkpt>
      <trkpt lat="44.91953" lon="5.4116">
        <ele>1102</ele>
        <time>2020-06-25T11:24:07Z</time>
      </trkpt>
      <trkpt lat="44.91952" lon="5.41157">
        <ele>1102</ele>
        <time>2020-06-25T11:24:08Z</time>
      </trkpt>
      <trkpt lat="44.91946" lon="5.41138">
        <ele>1101</ele>
        <time>2020-06-25T11:24:12Z</time>
      </trkpt>
      <trkpt lat="44.91945" lon="5.41133">
        <ele>1100</ele>
        <time>2020-06-25T11:24:13Z</time>
      </trkpt>
      <trkpt lat="44.91943" lon="5.41129">
        <ele>1100</ele>
        <time>2020-06-25T11:24:20Z</time>
      </trkpt>
      <trkpt lat="44.91943" lon="5.41128">
        <ele>1100</ele>
        <time>2020-06-25T11:24:39Z</time>
      </trkpt>
      <trkpt lat="44.91944" lon="5.4113">
        <ele>1100</ele>
        <time>2020-06-25T11:25:12Z</time>
      </trkpt>
      <trkpt lat="44.91944" lon="5.41128">
        <ele>1100</ele>
        <time>2020-06-25T11:25:14Z</time>
      </trkpt>
      <trkpt lat="44.91944" lon="5.41126">
        <ele>1100</ele>
        <time>2020-06-25T11:25:15Z</time>
      </trkpt>
      <trkpt lat="44.91928" lon="5.41084">
        <ele>1099</ele>
        <time>2020-06-25T11:25:26Z</time>
      </trkpt>
      <trkpt lat="44.9191" lon="5.41049">
        <ele>1100</ele>
        <time>2020-06-25T11:25:39Z</time>
      </trkpt>
      <trkpt lat="44.91904" lon="5.41041">
        <ele>1100</ele>
        <time>2020-06-25T11:25:44Z</time>
      </trkpt>
      <trkpt lat="44.91903" lon="5.4104">
        <ele>1100</ele>
        <time>2020-06-25T11:25:45Z</time>
      </trkpt>
      <trkpt lat="44.9189" lon="5.41038">
        <ele>1100</ele>
        <time>2020-06-25T11:25:52Z</time>
      </trkpt>
      <trkpt lat="44.91887" lon="5.41036">
        <ele>1100</ele>
        <time>2020-06-25T11:25:53Z</time>
      </trkpt>
      <trkpt lat="44.91885" lon="5.41034">
        <ele>1100</ele>
        <time>2020-06-25T11:25:54Z</time>
      </trkpt>
      <trkpt lat="44.91883" lon="5.41032">
        <ele>1100</ele>
        <time>2020-06-25T11:25:55Z</time>
      </trkpt>
      <trkpt lat="44.91881" lon="5.41028">
        <ele>1100</ele>
        <time>2020-06-25T11:25:56Z</time>
      </trkpt>
      <trkpt lat="44.9188" lon="5.41023">
        <ele>1100</ele>
        <time>2020-06-25T11:25:57Z</time>
      </trkpt>
      <trkpt lat="44.91879" lon="5.41017">
        <ele>1100</ele>
        <time>2020-06-25T11:25:58Z</time>
      </trkpt>
      <trkpt lat="44.91878" lon="5.4101">
        <ele>1100</ele>
        <time>2020-06-25T11:25:59Z</time>
      </trkpt>
      <trkpt lat="44.91877" lon="5.41003">
        <ele>1100</ele>
        <time>2020-06-25T11:26:00Z</time>
      </trkpt>
      <trkpt lat="44.91874" lon="5.4099">
        <ele>1100</ele>
        <time>2020-06-25T11:26:02Z</time>
      </trkpt>
      <trkpt lat="44.91868" lon="5.40965">
        <ele>1099</ele>
        <time>2020-06-25T11:26:06Z</time>
      </trkpt>
      <trkpt lat="44.91867" lon="5.40958">
        <ele>1099</ele>
        <time>2020-06-25T11:26:07Z</time>
      </trkpt>
      <trkpt lat="44.91867" lon="5.4095">
        <ele>1099</ele>
        <time>2020-06-25T11:26:08Z</time>
      </trkpt>
      <trkpt lat="44.91867" lon="5.40943">
        <ele>1098</ele>
        <time>2020-06-25T11:26:09Z</time>
      </trkpt>
      <trkpt lat="44.91867" lon="5.40935">
        <ele>1098</ele>
        <time>2020-06-25T11:26:10Z</time>
      </trkpt>
      <trkpt lat="44.91867" lon="5.40928">
        <ele>1097</ele>
        <time>2020-06-25T11:26:11Z</time>
      </trkpt>
      <trkpt lat="44.91866" lon="5.40921">
        <ele>1097</ele>
        <time>2020-06-25T11:26:12Z</time>
      </trkpt>
      <trkpt lat="44.91866" lon="5.40913">
        <ele>1097</ele>
        <time>2020-06-25T11:26:13Z</time>
      </trkpt>
      <trkpt lat="44.91865" lon="5.40905">
        <ele>1096</ele>
        <time>2020-06-25T11:26:14Z</time>
      </trkpt>
      <trkpt lat="44.91865" lon="5.40897">
        <ele>1096</ele>
        <time>2020-06-25T11:26:15Z</time>
      </trkpt>
      <trkpt lat="44.91865" lon="5.40889">
        <ele>1095</ele>
        <time>2020-06-25T11:26:16Z</time>
      </trkpt>
      <trkpt lat="44.91863" lon="5.40871">
        <ele>1094</ele>
        <time>2020-06-25T11:26:18Z</time>
      </trkpt>
      <trkpt lat="44.91861" lon="5.40865">
        <ele>1093</ele>
        <time>2020-06-25T11:26:19Z</time>
      </trkpt>
      <trkpt lat="44.91858" lon="5.40859">
        <ele>1093</ele>
        <time>2020-06-25T11:26:20Z</time>
      </trkpt>
      <trkpt lat="44.91855" lon="5.40855">
        <ele>1092</ele>
        <time>2020-06-25T11:26:21Z</time>
      </trkpt>
      <trkpt lat="44.91851" lon="5.40852">
        <ele>1092</ele>
        <time>2020-06-25T11:26:22Z</time>
      </trkpt>
      <trkpt lat="44.91846" lon="5.40849">
        <ele>1092</ele>
        <time>2020-06-25T11:26:23Z</time>
      </trkpt>
      <trkpt lat="44.91842" lon="5.40847">
        <ele>1091</ele>
        <time>2020-06-25T11:26:24Z</time>
      </trkpt>
      <trkpt lat="44.91837" lon="5.40846">
        <ele>1091</ele>
        <time>2020-06-25T11:26:25Z</time>
      </trkpt>
      <trkpt lat="44.91832" lon="5.40845">
        <ele>1091</ele>
        <time>2020-06-25T11:26:26Z</time>
      </trkpt>
      <trkpt lat="44.9179" lon="5.40834">
        <ele>1087</ele>
        <time>2020-06-25T11:26:32Z</time>
      </trkpt>
      <trkpt lat="44.91774" lon="5.40831">
        <ele>1085</ele>
        <time>2020-06-25T11:26:34Z</time>
      </trkpt>
      <trkpt lat="44.91765" lon="5.40832">
        <ele>1084</ele>
        <time>2020-06-25T11:26:35Z</time>
      </trkpt>
      <trkpt lat="44.91757" lon="5.40836">
        <ele>1083</ele>
        <time>2020-06-25T11:26:36Z</time>
      </trkpt>
      <trkpt lat="44.9174" lon="5.40842">
        <ele>1082</ele>
        <time>2020-06-25T11:26:38Z</time>
      </trkpt>
      <trkpt lat="44.91701" lon="5.40853">
        <ele>1081</ele>
        <time>2020-06-25T11:26:42Z</time>
      </trkpt>
      <trkpt lat="44.91692" lon="5.40855">
        <ele>1081</ele>
        <time>2020-06-25T11:26:43Z</time>
      </trkpt>
      <trkpt lat="44.91645" lon="5.4086">
        <ele>1082</ele>
        <time>2020-06-25T11:26:49Z</time>
      </trkpt>
      <trkpt lat="44.91637" lon="5.40859">
        <ele>1081</ele>
        <time>2020-06-25T11:26:50Z</time>
      </trkpt>
      <trkpt lat="44.91631" lon="5.40856">
        <ele>1081</ele>
        <time>2020-06-25T11:26:51Z</time>
      </trkpt>
      <trkpt lat="44.91625" lon="5.40851">
        <ele>1080</ele>
        <time>2020-06-25T11:26:52Z</time>
      </trkpt>
      <trkpt lat="44.9162" lon="5.40844">
        <ele>1079</ele>
        <time>2020-06-25T11:26:53Z</time>
      </trkpt>
      <trkpt lat="44.91616" lon="5.40838">
        <ele>1079</ele>
        <time>2020-06-25T11:26:54Z</time>
      </trkpt>
      <trkpt lat="44.91614" lon="5.4083">
        <ele>1078</ele>
        <time>2020-06-25T11:26:55Z</time>
      </trkpt>
      <trkpt lat="44.91613" lon="5.40821">
        <ele>1078</ele>
        <time>2020-06-25T11:26:56Z</time>
      </trkpt>
      <trkpt lat="44.91613" lon="5.40812">
        <ele>1077</ele>
        <time>2020-06-25T11:26:57Z</time>
      </trkpt>
      <trkpt lat="44.91614" lon="5.40802">
        <ele>1077</ele>
        <time>2020-06-25T11:26:58Z</time>
      </trkpt>
      <trkpt lat="44.91616" lon="5.40793">
        <ele>1076</ele>
        <time>2020-06-25T11:26:59Z</time>
      </trkpt>
      <trkpt lat="44.91617" lon="5.40776">
        <ele>1076</ele>
        <time>2020-06-25T11:27:01Z</time>
      </trkpt>
      <trkpt lat="44.91617" lon="5.40769">
        <ele>1076</ele>
        <time>2020-06-25T11:27:02Z</time>
      </trkpt>
      <trkpt lat="44.91616" lon="5.40763">
        <ele>1076</ele>
        <time>2020-06-25T11:27:03Z</time>
      </trkpt>
      <trkpt lat="44.91614" lon="5.40753">
        <ele>1076</ele>
        <time>2020-06-25T11:27:06Z</time>
      </trkpt>
      <trkpt lat="44.91614" lon="5.40751">
        <ele>1076</ele>
        <time>2020-06-25T11:27:07Z</time>
      </trkpt>
      <trkpt lat="44.91613" lon="5.40747">
        <ele>1077</ele>
        <time>2020-06-25T11:27:09Z</time>
      </trkpt>
      <trkpt lat="44.91613" lon="5.40744">
        <ele>1077</ele>
        <time>2020-06-25T11:27:10Z</time>
      </trkpt>
      <trkpt lat="44.91613" lon="5.40742">
        <ele>1077</ele>
        <time>2020-06-25T11:27:11Z</time>
      </trkpt>
      <trkpt lat="44.91612" lon="5.4074">
        <ele>1077</ele>
        <time>2020-06-25T11:27:12Z</time>
      </trkpt>
      <trkpt lat="44.91612" lon="5.40737">
        <ele>1077</ele>
        <time>2020-06-25T11:27:13Z</time>
      </trkpt>
      <trkpt lat="44.91612" lon="5.40734">
        <ele>1077</ele>
        <time>2020-06-25T11:27:14Z</time>
      </trkpt>
      <trkpt lat="44.91611" lon="5.40731">
        <ele>1077</ele>
        <time>2020-06-25T11:27:15Z</time>
      </trkpt>
      <trkpt lat="44.91612" lon="5.40729">
        <ele>1077</ele>
        <time>2020-06-25T11:27:16Z</time>
      </trkpt>
      <trkpt lat="44.91612" lon="5.40727">
        <ele>1077</ele>
        <time>2020-06-25T11:27:17Z</time>
      </trkpt>
      <trkpt lat="44.91612" lon="5.40724">
        <ele>1077</ele>
        <time>2020-06-25T11:27:18Z</time>
      </trkpt>
      <trkpt lat="44.91612" lon="5.40721">
        <ele>1077</ele>
        <time>2020-06-25T11:27:19Z</time>
      </trkpt>
      <trkpt lat="44.91612" lon="5.40719">
        <ele>1077</ele>
        <time>2020-06-25T11:27:20Z</time>
      </trkpt>
      <trkpt lat="44.91611" lon="5.40715">
        <ele>1078</ele>
        <time>2020-06-25T11:27:21Z</time>
      </trkpt>
      <trkpt lat="44.9161" lon="5.40712">
        <ele>1078</ele>
        <time>2020-06-25T11:27:22Z</time>
      </trkpt>
      <trkpt lat="44.91589" lon="5.40696">
        <ele>1079</ele>
        <time>2020-06-25T11:27:29Z</time>
      </trkpt>
      <trkpt lat="44.91583" lon="5.40695">
        <ele>1080</ele>
        <time>2020-06-25T11:27:30Z</time>
      </trkpt>
      <trkpt lat="44.91573" lon="5.40695">
        <ele>1080</ele>
        <time>2020-06-25T11:27:32Z</time>
      </trkpt>
      <trkpt lat="44.91568" lon="5.40696">
        <ele>1080</ele>
        <time>2020-06-25T11:27:33Z</time>
      </trkpt>
      <trkpt lat="44.91564" lon="5.40699">
        <ele>1080</ele>
        <time>2020-06-25T11:27:34Z</time>
      </trkpt>
      <trkpt lat="44.91562" lon="5.40702">
        <ele>1080</ele>
        <time>2020-06-25T11:27:35Z</time>
      </trkpt>
      <trkpt lat="44.9156" lon="5.40704">
        <ele>1080</ele>
        <time>2020-06-25T11:27:36Z</time>
      </trkpt>
      <trkpt lat="44.91557" lon="5.40709">
        <ele>1081</ele>
        <time>2020-06-25T11:27:39Z</time>
      </trkpt>
      <trkpt lat="44.91556" lon="5.40711">
        <ele>1081</ele>
        <time>2020-06-25T11:27:40Z</time>
      </trkpt>
      <trkpt lat="44.91555" lon="5.40715">
        <ele>1081</ele>
        <time>2020-06-25T11:27:41Z</time>
      </trkpt>
      <trkpt lat="44.91554" lon="5.40718">
        <ele>1081</ele>
        <time>2020-06-25T11:27:42Z</time>
      </trkpt>
      <trkpt lat="44.91553" lon="5.40721">
        <ele>1081</ele>
        <time>2020-06-25T11:27:43Z</time>
      </trkpt>
      <trkpt lat="44.91528" lon="5.40746">
        <ele>1081</ele>
        <time>2020-06-25T11:27:55Z</time>
      </trkpt>
      <trkpt lat="44.91494" lon="5.4077">
        <ele>1080</ele>
        <time>2020-06-25T11:28:09Z</time>
      </trkpt>
      <trkpt lat="44.91476" lon="5.40776">
        <ele>1080</ele>
        <time>2020-06-25T11:28:13Z</time>
      </trkpt>
      <trkpt lat="44.91471" lon="5.40778">
        <ele>1080</ele>
        <time>2020-06-25T11:28:14Z</time>
      </trkpt>
      <trkpt lat="44.91452" lon="5.4078">
        <ele>1079</ele>
        <time>2020-06-25T11:28:18Z</time>
      </trkpt>
      <trkpt lat="44.91447" lon="5.40778">
        <ele>1079</ele>
        <time>2020-06-25T11:28:19Z</time>
      </trkpt>
      <trkpt lat="44.91442" lon="5.40773">
        <ele>1078</ele>
        <time>2020-06-25T11:28:20Z</time>
      </trkpt>
      <trkpt lat="44.91417" lon="5.40746">
        <ele>1076</ele>
        <time>2020-06-25T11:28:24Z</time>
      </trkpt>
      <trkpt lat="44.91404" lon="5.4073">
        <ele>1075</ele>
        <time>2020-06-25T11:28:26Z</time>
      </trkpt>
      <trkpt lat="44.91376" lon="5.40698">
        <ele>1075</ele>
        <time>2020-06-25T11:28:31Z</time>
      </trkpt>
      <trkpt lat="44.9137" lon="5.40684">
        <ele>1076</ele>
        <time>2020-06-25T11:28:33Z</time>
      </trkpt>
      <trkpt lat="44.91368" lon="5.40677">
        <ele>1076</ele>
        <time>2020-06-25T11:28:34Z</time>
      </trkpt>
      <trkpt lat="44.91367" lon="5.40672">
        <ele>1076</ele>
        <time>2020-06-25T11:28:35Z</time>
      </trkpt>
      <trkpt lat="44.91366" lon="5.40668">
        <ele>1077</ele>
        <time>2020-06-25T11:28:36Z</time>
      </trkpt>
      <trkpt lat="44.91366" lon="5.40665">
        <ele>1077</ele>
        <time>2020-06-25T11:28:37Z</time>
      </trkpt>
      <trkpt lat="44.91366" lon="5.40661">
        <ele>1077</ele>
        <time>2020-06-25T11:28:39Z</time>
      </trkpt>
      <trkpt lat="44.91366" lon="5.40659">
        <ele>1077</ele>
        <time>2020-06-25T11:28:40Z</time>
      </trkpt>
      <trkpt lat="44.91366" lon="5.40656">
        <ele>1077</ele>
        <time>2020-06-25T11:28:41Z</time>
      </trkpt>
      <trkpt lat="44.91366" lon="5.40654">
        <ele>1077</ele>
        <time>2020-06-25T11:28:42Z</time>
      </trkpt>
      <trkpt lat="44.91366" lon="5.40651">
        <ele>1077</ele>
        <time>2020-06-25T11:28:43Z</time>
      </trkpt>
      <trkpt lat="44.91365" lon="5.40649">
        <ele>1077</ele>
        <time>2020-06-25T11:28:44Z</time>
      </trkpt>
      <trkpt lat="44.91364" lon="5.40647">
        <ele>1077</ele>
        <time>2020-06-25T11:28:45Z</time>
      </trkpt>
      <trkpt lat="44.91363" lon="5.40645">
        <ele>1077</ele>
        <time>2020-06-25T11:28:46Z</time>
      </trkpt>
      <trkpt lat="44.91362" lon="5.40643">
        <ele>1078</ele>
        <time>2020-06-25T11:28:47Z</time>
      </trkpt>
      <trkpt lat="44.9136" lon="5.40641">
        <ele>1078</ele>
        <time>2020-06-25T11:28:48Z</time>
      </trkpt>
      <trkpt lat="44.91359" lon="5.4064">
        <ele>1078</ele>
        <time>2020-06-25T11:28:49Z</time>
      </trkpt>
      <trkpt lat="44.91357" lon="5.40638">
        <ele>1078</ele>
        <time>2020-06-25T11:28:50Z</time>
      </trkpt>
      <trkpt lat="44.91355" lon="5.40637">
        <ele>1078</ele>
        <time>2020-06-25T11:28:51Z</time>
      </trkpt>
      <trkpt lat="44.91354" lon="5.40636">
        <ele>1078</ele>
        <time>2020-06-25T11:28:52Z</time>
      </trkpt>
      <trkpt lat="44.91331" lon="5.40624">
        <ele>1082</ele>
        <time>2020-06-25T11:29:05Z</time>
      </trkpt>
      <trkpt lat="44.9131" lon="5.40613">
        <ele>1085</ele>
        <time>2020-06-25T11:29:20Z</time>
      </trkpt>
      <trkpt lat="44.91281" lon="5.40591">
        <ele>1091</ele>
        <time>2020-06-25T11:29:35Z</time>
      </trkpt>
      <trkpt lat="44.91251" lon="5.40583">
        <ele>1094</ele>
        <time>2020-06-25T11:29:50Z</time>
      </trkpt>
      <trkpt lat="44.9122" lon="5.40594">
        <ele>1095</ele>
        <time>2020-06-25T11:30:05Z</time>
      </trkpt>
      <trkpt lat="44.91193" lon="5.4059">
        <ele>1097</ele>
        <time>2020-06-25T11:30:17Z</time>
      </trkpt>
      <trkpt lat="44.9117" lon="5.40573">
        <ele>1100</ele>
        <time>2020-06-25T11:30:29Z</time>
      </trkpt>
      <trkpt lat="44.91146" lon="5.40559">
        <ele>1102</ele>
        <time>2020-06-25T11:30:42Z</time>
      </trkpt>
      <trkpt lat="44.91117" lon="5.40549">
        <ele>1104</ele>
        <time>2020-06-25T11:30:57Z</time>
      </trkpt>
      <trkpt lat="44.91094" lon="5.40527">
        <ele>1105</ele>
        <time>2020-06-25T11:31:11Z</time>
      </trkpt>
      <trkpt lat="44.91067" lon="5.40517">
        <ele>1105</ele>
        <time>2020-06-25T11:31:25Z</time>
      </trkpt>
      <trkpt lat="44.91031" lon="5.40505">
        <ele>1104</ele>
        <time>2020-06-25T11:31:40Z</time>
      </trkpt>
      <trkpt lat="44.90998" lon="5.40508">
        <ele>1102</ele>
        <time>2020-06-25T11:31:50Z</time>
      </trkpt>
      <trkpt lat="44.90995" lon="5.4051">
        <ele>1102</ele>
        <time>2020-06-25T11:31:51Z</time>
      </trkpt>
      <trkpt lat="44.90991" lon="5.40513">
        <ele>1102</ele>
        <time>2020-06-25T11:31:52Z</time>
      </trkpt>
      <trkpt lat="44.90975" lon="5.40526">
        <ele>1103</ele>
        <time>2020-06-25T11:31:55Z</time>
      </trkpt>
      <trkpt lat="44.90968" lon="5.40529">
        <ele>1103</ele>
        <time>2020-06-25T11:31:56Z</time>
      </trkpt>
      <trkpt lat="44.90961" lon="5.40531">
        <ele>1103</ele>
        <time>2020-06-25T11:31:57Z</time>
      </trkpt>
      <trkpt lat="44.90953" lon="5.40532">
        <ele>1103</ele>
        <time>2020-06-25T11:31:58Z</time>
      </trkpt>
      <trkpt lat="44.90947" lon="5.4053">
        <ele>1103</ele>
        <time>2020-06-25T11:31:59Z</time>
      </trkpt>
      <trkpt lat="44.9094" lon="5.40527">
        <ele>1102</ele>
        <time>2020-06-25T11:32:00Z</time>
      </trkpt>
      <trkpt lat="44.90933" lon="5.40522">
        <ele>1102</ele>
        <time>2020-06-25T11:32:01Z</time>
      </trkpt>
      <trkpt lat="44.90927" lon="5.40517">
        <ele>1101</ele>
        <time>2020-06-25T11:32:02Z</time>
      </trkpt>
      <trkpt lat="44.90921" lon="5.4051">
        <ele>1100</ele>
        <time>2020-06-25T11:32:03Z</time>
      </trkpt>
      <trkpt lat="44.90915" lon="5.40501">
        <ele>1098</ele>
        <time>2020-06-25T11:32:04Z</time>
      </trkpt>
      <trkpt lat="44.9091" lon="5.40494">
        <ele>1097</ele>
        <time>2020-06-25T11:32:05Z</time>
      </trkpt>
      <trkpt lat="44.90861" lon="5.40417">
        <ele>1090</ele>
        <time>2020-06-25T11:32:14Z</time>
      </trkpt>
      <trkpt lat="44.90852" lon="5.404">
        <ele>1089</ele>
        <time>2020-06-25T11:32:16Z</time>
      </trkpt>
      <trkpt lat="44.90845" lon="5.40395">
        <ele>1089</ele>
        <time>2020-06-25T11:32:17Z</time>
      </trkpt>
      <trkpt lat="44.90838" lon="5.4039">
        <ele>1090</ele>
        <time>2020-06-25T11:32:18Z</time>
      </trkpt>
      <trkpt lat="44.9083" lon="5.40386">
        <ele>1090</ele>
        <time>2020-06-25T11:32:19Z</time>
      </trkpt>
      <trkpt lat="44.90822" lon="5.40383">
        <ele>1091</ele>
        <time>2020-06-25T11:32:20Z</time>
      </trkpt>
      <trkpt lat="44.90806" lon="5.40379">
        <ele>1091</ele>
        <time>2020-06-25T11:32:22Z</time>
      </trkpt>
      <trkpt lat="44.90797" lon="5.40378">
        <ele>1091</ele>
        <time>2020-06-25T11:32:23Z</time>
      </trkpt>
      <trkpt lat="44.90763" lon="5.40381">
        <ele>1091</ele>
        <time>2020-06-25T11:32:27Z</time>
      </trkpt>
      <trkpt lat="44.90724" lon="5.40378">
        <ele>1089</ele>
        <time>2020-06-25T11:32:32Z</time>
      </trkpt>
      <trkpt lat="44.90698" lon="5.40373">
        <ele>1085</ele>
        <time>2020-06-25T11:32:37Z</time>
      </trkpt>
      <trkpt lat="44.90673" lon="5.40367">
        <ele>1082</ele>
        <time>2020-06-25T11:32:41Z</time>
      </trkpt>
      <trkpt lat="44.90647" lon="5.40361">
        <ele>1079</ele>
        <time>2020-06-25T11:32:45Z</time>
      </trkpt>
      <trkpt lat="44.90607" lon="5.40351">
        <ele>1074</ele>
        <time>2020-06-25T11:32:52Z</time>
      </trkpt>
      <trkpt lat="44.90568" lon="5.40341">
        <ele>1072</ele>
        <time>2020-06-25T11:32:59Z</time>
      </trkpt>
      <trkpt lat="44.90561" lon="5.40338">
        <ele>1072</ele>
        <time>2020-06-25T11:33:00Z</time>
      </trkpt>
      <trkpt lat="44.90555" lon="5.40334">
        <ele>1071</ele>
        <time>2020-06-25T11:33:01Z</time>
      </trkpt>
      <trkpt lat="44.90551" lon="5.40327">
        <ele>1071</ele>
        <time>2020-06-25T11:33:02Z</time>
      </trkpt>
      <trkpt lat="44.90547" lon="5.40316">
        <ele>1070</ele>
        <time>2020-06-25T11:33:03Z</time>
      </trkpt>
      <trkpt lat="44.90545" lon="5.40308">
        <ele>1069</ele>
        <time>2020-06-25T11:33:04Z</time>
      </trkpt>
      <trkpt lat="44.90544" lon="5.40297">
        <ele>1069</ele>
        <time>2020-06-25T11:33:05Z</time>
      </trkpt>
      <trkpt lat="44.90543" lon="5.40286">
        <ele>1068</ele>
        <time>2020-06-25T11:33:06Z</time>
      </trkpt>
      <trkpt lat="44.90535" lon="5.40229">
        <ele>1063</ele>
        <time>2020-06-25T11:33:10Z</time>
      </trkpt>
      <trkpt lat="44.9053" lon="5.40179">
        <ele>1061</ele>
        <time>2020-06-25T11:33:13Z</time>
      </trkpt>
      <trkpt lat="44.90532" lon="5.40111">
        <ele>1059</ele>
        <time>2020-06-25T11:33:17Z</time>
      </trkpt>
      <trkpt lat="44.90539" lon="5.40048">
        <ele>1058</ele>
        <time>2020-06-25T11:33:21Z</time>
      </trkpt>
      <trkpt lat="44.90546" lon="5.40005">
        <ele>1057</ele>
        <time>2020-06-25T11:33:24Z</time>
      </trkpt>
      <trkpt lat="44.90569" lon="5.39892">
        <ele>1055</ele>
        <time>2020-06-25T11:33:35Z</time>
      </trkpt>
      <trkpt lat="44.90566" lon="5.39837">
        <ele>1054</ele>
        <time>2020-06-25T11:33:46Z</time>
      </trkpt>
      <trkpt lat="44.90565" lon="5.39776">
        <ele>1053</ele>
        <time>2020-06-25T11:33:59Z</time>
      </trkpt>
      <trkpt lat="44.90568" lon="5.39766">
        <ele>1053</ele>
        <time>2020-06-25T11:34:01Z</time>
      </trkpt>
      <trkpt lat="44.90584" lon="5.39724">
        <ele>1052</ele>
        <time>2020-06-25T11:34:09Z</time>
      </trkpt>
      <trkpt lat="44.90586" lon="5.39718">
        <ele>1052</ele>
        <time>2020-06-25T11:34:10Z</time>
      </trkpt>
      <trkpt lat="44.90587" lon="5.39712">
        <ele>1052</ele>
        <time>2020-06-25T11:34:11Z</time>
      </trkpt>
      <trkpt lat="44.90589" lon="5.39699">
        <ele>1052</ele>
        <time>2020-06-25T11:34:13Z</time>
      </trkpt>
      <trkpt lat="44.90593" lon="5.39665">
        <ele>1051</ele>
        <time>2020-06-25T11:34:18Z</time>
      </trkpt>
      <trkpt lat="44.90594" lon="5.39625">
        <ele>1050</ele>
        <time>2020-06-25T11:34:25Z</time>
      </trkpt>
      <trkpt lat="44.90611" lon="5.39558">
        <ele>1048</ele>
        <time>2020-06-25T11:34:38Z</time>
      </trkpt>
      <trkpt lat="44.90622" lon="5.39519">
        <ele>1047</ele>
        <time>2020-06-25T11:34:45Z</time>
      </trkpt>
      <trkpt lat="44.90634" lon="5.39449">
        <ele>1046</ele>
        <time>2020-06-25T11:34:57Z</time>
      </trkpt>
      <trkpt lat="44.9063" lon="5.3936">
        <ele>1047</ele>
        <time>2020-06-25T11:35:12Z</time>
      </trkpt>
      <trkpt lat="44.90619" lon="5.39289">
        <ele>1048</ele>
        <time>2020-06-25T11:35:19Z</time>
      </trkpt>
      <trkpt lat="44.90612" lon="5.39267">
        <ele>1048</ele>
        <time>2020-06-25T11:35:21Z</time>
      </trkpt>
      <trkpt lat="44.9061" lon="5.39255">
        <ele>1047</ele>
        <time>2020-06-25T11:35:22Z</time>
      </trkpt>
      <trkpt lat="44.90609" lon="5.39242">
        <ele>1047</ele>
        <time>2020-06-25T11:35:23Z</time>
      </trkpt>
      <trkpt lat="44.90609" lon="5.39231">
        <ele>1047</ele>
        <time>2020-06-25T11:35:24Z</time>
      </trkpt>
      <trkpt lat="44.90609" lon="5.39219">
        <ele>1047</ele>
        <time>2020-06-25T11:35:25Z</time>
      </trkpt>
      <trkpt lat="44.90618" lon="5.39091">
        <ele>1044</ele>
        <time>2020-06-25T11:35:38Z</time>
      </trkpt>
      <trkpt lat="44.90626" lon="5.38973">
        <ele>1045</ele>
        <time>2020-06-25T11:35:52Z</time>
      </trkpt>
      <trkpt lat="44.90632" lon="5.38931">
        <ele>1046</ele>
        <time>2020-06-25T11:35:59Z</time>
      </trkpt>
      <trkpt lat="44.90637" lon="5.38843">
        <ele>1047</ele>
        <time>2020-06-25T11:36:13Z</time>
      </trkpt>
      <trkpt lat="44.90643" lon="5.38823">
        <ele>1047</ele>
        <time>2020-06-25T11:36:16Z</time>
      </trkpt>
      <trkpt lat="44.90648" lon="5.38811">
        <ele>1047</ele>
        <time>2020-06-25T11:36:18Z</time>
      </trkpt>
      <trkpt lat="44.90656" lon="5.38787">
        <ele>1046</ele>
        <time>2020-06-25T11:36:22Z</time>
      </trkpt>
      <trkpt lat="44.90675" lon="5.38721">
        <ele>1044</ele>
        <time>2020-06-25T11:36:35Z</time>
      </trkpt>
      <trkpt lat="44.9068" lon="5.38654">
        <ele>1042</ele>
        <time>2020-06-25T11:36:49Z</time>
      </trkpt>
      <trkpt lat="44.90653" lon="5.386">
        <ele>1042</ele>
        <time>2020-06-25T11:37:04Z</time>
      </trkpt>
      <trkpt lat="44.90652" lon="5.38599">
        <ele>1042</ele>
        <time>2020-06-25T11:37:05Z</time>
      </trkpt>
      <trkpt lat="44.9065" lon="5.38599">
        <ele>1042</ele>
        <time>2020-06-25T11:37:06Z</time>
      </trkpt>
      <trkpt lat="44.90649" lon="5.38599">
        <ele>1042</ele>
        <time>2020-06-25T11:37:07Z</time>
      </trkpt>
      <trkpt lat="44.90647" lon="5.38599">
        <ele>1042</ele>
        <time>2020-06-25T11:37:08Z</time>
      </trkpt>
      <trkpt lat="44.90646" lon="5.386">
        <ele>1042</ele>
        <time>2020-06-25T11:37:09Z</time>
      </trkpt>
      <trkpt lat="44.90645" lon="5.38602">
        <ele>1042</ele>
        <time>2020-06-25T11:37:10Z</time>
      </trkpt>
      <trkpt lat="44.90645" lon="5.38605">
        <ele>1042</ele>
        <time>2020-06-25T11:37:11Z</time>
      </trkpt>
      <trkpt lat="44.90645" lon="5.38608">
        <ele>1042</ele>
        <time>2020-06-25T11:37:12Z</time>
      </trkpt>
      <trkpt lat="44.90645" lon="5.38609">
        <ele>1042</ele>
        <time>2020-06-25T11:37:13Z</time>
      </trkpt>
      <trkpt lat="44.90647" lon="5.38611">
        <ele>1042</ele>
        <time>2020-06-25T11:37:15Z</time>
      </trkpt>
      <trkpt lat="44.90648" lon="5.38611">
        <ele>1042</ele>
        <time>2020-06-25T11:37:16Z</time>
      </trkpt>
      <trkpt lat="44.90649" lon="5.3861">
        <ele>1042</ele>
        <time>2020-06-25T11:37:17Z</time>
      </trkpt>
      <trkpt lat="44.90654" lon="5.38605">
        <ele>1042</ele>
        <time>2020-06-25T11:37:20Z</time>
      </trkpt>
      <trkpt lat="44.90654" lon="5.38602">
        <ele>1042</ele>
        <time>2020-06-25T11:37:21Z</time>
      </trkpt>
      <trkpt lat="44.90653" lon="5.386">
        <ele>1042</ele>
        <time>2020-06-25T11:37:22Z</time>
      </trkpt>
      <trkpt lat="44.90644" lon="5.38552">
        <ele>1042</ele>
        <time>2020-06-25T11:37:36Z</time>
      </trkpt>
      <trkpt lat="44.90637" lon="5.38528">
        <ele>1043</ele>
        <time>2020-06-25T11:37:46Z</time>
      </trkpt>
      <trkpt lat="44.90636" lon="5.38528">
        <ele>1043</ele>
        <time>2020-06-25T11:37:47Z</time>
      </trkpt>
      <trkpt lat="44.90635" lon="5.38529">
        <ele>1043</ele>
        <time>2020-06-25T11:37:48Z</time>
      </trkpt>
      <trkpt lat="44.90635" lon="5.38531">
        <ele>1043</ele>
        <time>2020-06-25T11:37:49Z</time>
      </trkpt>
      <trkpt lat="44.90637" lon="5.38532">
        <ele>1043</ele>
        <time>2020-06-25T11:37:50Z</time>
      </trkpt>
      <trkpt lat="44.90639" lon="5.38533">
        <ele>1043</ele>
        <time>2020-06-25T11:37:51Z</time>
      </trkpt>
      <trkpt lat="44.90641" lon="5.38534">
        <ele>1043</ele>
        <time>2020-06-25T11:37:52Z</time>
      </trkpt>
      <trkpt lat="44.90644" lon="5.38534">
        <ele>1043</ele>
        <time>2020-06-25T11:37:53Z</time>
      </trkpt>
      <trkpt lat="44.90646" lon="5.38534">
        <ele>1043</ele>
        <time>2020-06-25T11:37:54Z</time>
      </trkpt>
      <trkpt lat="44.90648" lon="5.38532">
        <ele>1043</ele>
        <time>2020-06-25T11:37:55Z</time>
      </trkpt>
      <trkpt lat="44.9065" lon="5.38529">
        <ele>1043</ele>
        <time>2020-06-25T11:37:56Z</time>
      </trkpt>
      <trkpt lat="44.90651" lon="5.38526">
        <ele>1043</ele>
        <time>2020-06-25T11:37:57Z</time>
      </trkpt>
      <trkpt lat="44.90652" lon="5.38523">
        <ele>1043</ele>
        <time>2020-06-25T11:37:58Z</time>
      </trkpt>
      <trkpt lat="44.90678" lon="5.38472">
        <ele>1047</ele>
        <time>2020-06-25T11:38:15Z</time>
      </trkpt>
      <trkpt lat="44.90699" lon="5.38425">
        <ele>1049</ele>
        <time>2020-06-25T11:38:30Z</time>
      </trkpt>
      <trkpt lat="44.90724" lon="5.38351">
        <ele>1051</ele>
        <time>2020-06-25T11:38:47Z</time>
      </trkpt>
      <trkpt lat="44.90736" lon="5.38299">
        <ele>1051</ele>
        <time>2020-06-25T11:38:58Z</time>
      </trkpt>
      <trkpt lat="44.90749" lon="5.38214">
        <ele>1049</ele>
        <time>2020-06-25T11:39:14Z</time>
      </trkpt>
      <trkpt lat="44.90754" lon="5.38152">
        <ele>1046</ele>
        <time>2020-06-25T11:39:26Z</time>
      </trkpt>
      <trkpt lat="44.90755" lon="5.38154">
        <ele>1046</ele>
        <time>2020-06-25T11:39:47Z</time>
      </trkpt>
      <trkpt lat="44.90755" lon="5.38154">
        <ele>1046</ele>
        <time>2020-06-25T11:40:17Z</time>
      </trkpt>
      <trkpt lat="44.90755" lon="5.38156">
        <ele>1046</ele>
        <time>2020-06-25T11:40:43Z</time>
      </trkpt>
      <trkpt lat="44.90754" lon="5.38154">
        <ele>1046</ele>
        <time>2020-06-25T11:41:13Z</time>
      </trkpt>
      <trkpt lat="44.90755" lon="5.38155">
        <ele>1046</ele>
        <time>2020-06-25T11:41:42Z</time>
      </trkpt>
      <trkpt lat="44.90756" lon="5.38154">
        <ele>1046</ele>
        <time>2020-06-25T11:42:05Z</time>
      </trkpt>
      <trkpt lat="44.90756" lon="5.38154">
        <ele>1046</ele>
        <time>2020-06-25T11:42:30Z</time>
      </trkpt>
      <trkpt lat="44.90756" lon="5.38154">
        <ele>1046</ele>
        <time>2020-06-25T11:42:51Z</time>
      </trkpt>
      <trkpt lat="44.90755" lon="5.38153">
        <ele>1046</ele>
        <time>2020-06-25T11:42:55Z</time>
      </trkpt>
      <trkpt lat="44.90755" lon="5.38151">
        <ele>1046</ele>
        <time>2020-06-25T11:42:56Z</time>
      </trkpt>
      <trkpt lat="44.90755" lon="5.38148">
        <ele>1046</ele>
        <time>2020-06-25T11:42:57Z</time>
      </trkpt>
      <trkpt lat="44.90755" lon="5.38144">
        <ele>1046</ele>
        <time>2020-06-25T11:42:58Z</time>
      </trkpt>
      <trkpt lat="44.90756" lon="5.3814">
        <ele>1046</ele>
        <time>2020-06-25T11:42:59Z</time>
      </trkpt>
      <trkpt lat="44.90756" lon="5.38136">
        <ele>1045</ele>
        <time>2020-06-25T11:43:00Z</time>
      </trkpt>
      <trkpt lat="44.90761" lon="5.3806">
        <ele>1044</ele>
        <time>2020-06-25T11:43:12Z</time>
      </trkpt>
      <trkpt lat="44.90779" lon="5.3796">
        <ele>1043</ele>
        <time>2020-06-25T11:43:26Z</time>
      </trkpt>
      <trkpt lat="44.90781" lon="5.37952">
        <ele>1043</ele>
        <time>2020-06-25T11:43:27Z</time>
      </trkpt>
      <trkpt lat="44.90794" lon="5.37836">
        <ele>1042</ele>
        <time>2020-06-25T11:43:42Z</time>
      </trkpt>
      <trkpt lat="44.90794" lon="5.37699">
        <ele>1042</ele>
        <time>2020-06-25T11:43:59Z</time>
      </trkpt>
      <trkpt lat="44.90795" lon="5.37622">
        <ele>1041</ele>
        <time>2020-06-25T11:44:09Z</time>
      </trkpt>
      <trkpt lat="44.90797" lon="5.37597">
        <ele>1041</ele>
        <time>2020-06-25T11:44:13Z</time>
      </trkpt>
      <trkpt lat="44.908" lon="5.37565">
        <ele>1040</ele>
        <time>2020-06-25T11:44:19Z</time>
      </trkpt>
      <trkpt lat="44.90782" lon="5.37496">
        <ele>1040</ele>
        <time>2020-06-25T11:44:34Z</time>
      </trkpt>
      <trkpt lat="44.90755" lon="5.37433">
        <ele>1043</ele>
        <time>2020-06-25T11:44:49Z</time>
      </trkpt>
      <trkpt lat="44.90753" lon="5.37428">
        <ele>1043</ele>
        <time>2020-06-25T11:44:50Z</time>
      </trkpt>
      <trkpt lat="44.90749" lon="5.37415">
        <ele>1043</ele>
        <time>2020-06-25T11:44:52Z</time>
      </trkpt>
      <trkpt lat="44.90745" lon="5.374">
        <ele>1044</ele>
        <time>2020-06-25T11:44:54Z</time>
      </trkpt>
      <trkpt lat="44.90741" lon="5.37392">
        <ele>1044</ele>
        <time>2020-06-25T11:44:55Z</time>
      </trkpt>
      <trkpt lat="44.90737" lon="5.37385">
        <ele>1045</ele>
        <time>2020-06-25T11:44:56Z</time>
      </trkpt>
      <trkpt lat="44.90733" lon="5.37381">
        <ele>1045</ele>
        <time>2020-06-25T11:44:57Z</time>
      </trkpt>
      <trkpt lat="44.90727" lon="5.37376">
        <ele>1046</ele>
        <time>2020-06-25T11:44:58Z</time>
      </trkpt>
      <trkpt lat="44.90695" lon="5.37352">
        <ele>1048</ele>
        <time>2020-06-25T11:45:05Z</time>
      </trkpt>
      <trkpt lat="44.90652" lon="5.37328">
        <ele>1050</ele>
        <time>2020-06-25T11:45:15Z</time>
      </trkpt>
      <trkpt lat="44.9062" lon="5.37309">
        <ele>1051</ele>
        <time>2020-06-25T11:45:23Z</time>
      </trkpt>
      <trkpt lat="44.9058" lon="5.37288">
        <ele>1053</ele>
        <time>2020-06-25T11:45:36Z</time>
      </trkpt>
      <trkpt lat="44.90547" lon="5.37267">
        <ele>1055</ele>
        <time>2020-06-25T11:45:49Z</time>
      </trkpt>
      <trkpt lat="44.90518" lon="5.3725">
        <ele>1055</ele>
        <time>2020-06-25T11:46:03Z</time>
      </trkpt>
      <trkpt lat="44.90516" lon="5.37251">
        <ele>1055</ele>
        <time>2020-06-25T11:46:04Z</time>
      </trkpt>
      <trkpt lat="44.90515" lon="5.37251">
        <ele>1055</ele>
        <time>2020-06-25T11:46:05Z</time>
      </trkpt>
      <trkpt lat="44.90515" lon="5.37255">
        <ele>1055</ele>
        <time>2020-06-25T11:46:17Z</time>
      </trkpt>
      <trkpt lat="44.90515" lon="5.37254">
        <ele>1055</ele>
        <time>2020-06-25T11:46:48Z</time>
      </trkpt>
      <trkpt lat="44.90515" lon="5.37255">
        <ele>1055</ele>
        <time>2020-06-25T11:47:13Z</time>
      </trkpt>
      <trkpt lat="44.90515" lon="5.37255">
        <ele>1055</ele>
        <time>2020-06-25T11:47:32Z</time>
      </trkpt>
      <trkpt lat="44.90516" lon="5.37255">
        <ele>1055</ele>
        <time>2020-06-25T11:47:37Z</time>
      </trkpt>
      <trkpt lat="44.90518" lon="5.37255">
        <ele>1055</ele>
        <time>2020-06-25T11:47:38Z</time>
      </trkpt>
      <trkpt lat="44.90542" lon="5.3727">
        <ele>1054</ele>
        <time>2020-06-25T11:47:46Z</time>
      </trkpt>
      <trkpt lat="44.90546" lon="5.37273">
        <ele>1054</ele>
        <time>2020-06-25T11:47:47Z</time>
      </trkpt>
      <trkpt lat="44.90614" lon="5.3731">
        <ele>1051</ele>
        <time>2020-06-25T11:47:59Z</time>
      </trkpt>
      <trkpt lat="44.90708" lon="5.37366">
        <ele>1047</ele>
        <time>2020-06-25T11:48:13Z</time>
      </trkpt>
      <trkpt lat="44.90733" lon="5.37389">
        <ele>1045</ele>
        <time>2020-06-25T11:48:18Z</time>
      </trkpt>
      <trkpt lat="44.90741" lon="5.37401">
        <ele>1044</ele>
        <time>2020-06-25T11:48:20Z</time>
      </trkpt>
      <trkpt lat="44.90743" lon="5.37407">
        <ele>1044</ele>
        <time>2020-06-25T11:48:21Z</time>
      </trkpt>
      <trkpt lat="44.90784" lon="5.37501">
        <ele>1040</ele>
        <time>2020-06-25T11:48:40Z</time>
      </trkpt>
      <trkpt lat="44.90794" lon="5.37526">
        <ele>1040</ele>
        <time>2020-06-25T11:48:45Z</time>
      </trkpt>
      <trkpt lat="44.90796" lon="5.37531">
        <ele>1040</ele>
        <time>2020-06-25T11:48:46Z</time>
      </trkpt>
      <trkpt lat="44.90799" lon="5.37553">
        <ele>1040</ele>
        <time>2020-06-25T11:48:55Z</time>
      </trkpt>
      <trkpt lat="44.90799" lon="5.37552">
        <ele>1040</ele>
        <time>2020-06-25T11:49:22Z</time>
      </trkpt>
      <trkpt lat="44.90799" lon="5.37553">
        <ele>1040</ele>
        <time>2020-06-25T11:49:39Z</time>
      </trkpt>
      <trkpt lat="44.90799" lon="5.37554">
        <ele>1040</ele>
        <time>2020-06-25T11:49:54Z</time>
      </trkpt>
      <trkpt lat="44.90802" lon="5.37557">
        <ele>1040</ele>
        <time>2020-06-25T11:50:17Z</time>
      </trkpt>
      <trkpt lat="44.90801" lon="5.37556">
        <ele>1040</ele>
        <time>2020-06-25T11:50:37Z</time>
      </trkpt>
      <trkpt lat="44.90801" lon="5.37554">
        <ele>1040</ele>
        <time>2020-06-25T11:50:53Z</time>
      </trkpt>
      <trkpt lat="44.90801" lon="5.3755">
        <ele>1040</ele>
        <time>2020-06-25T11:51:04Z</time>
      </trkpt>
      <trkpt lat="44.90802" lon="5.3755">
        <ele>1040</ele>
        <time>2020-06-25T11:51:26Z</time>
      </trkpt>
      <trkpt lat="44.90801" lon="5.37549">
        <ele>1040</ele>
        <time>2020-06-25T11:51:45Z</time>
      </trkpt>
      <trkpt lat="44.908" lon="5.37548">
        <ele>1040</ele>
        <time>2020-06-25T11:51:50Z</time>
      </trkpt>
      <trkpt lat="44.90799" lon="5.37547">
        <ele>1040</ele>
        <time>2020-06-25T11:51:51Z</time>
      </trkpt>
      <trkpt lat="44.90797" lon="5.37542">
        <ele>1040</ele>
        <time>2020-06-25T11:51:55Z</time>
      </trkpt>
      <trkpt lat="44.90796" lon="5.3754">
        <ele>1040</ele>
        <time>2020-06-25T11:51:56Z</time>
      </trkpt>
      <trkpt lat="44.90797" lon="5.37539">
        <ele>1040</ele>
        <time>2020-06-25T11:51:57Z</time>
      </trkpt>
      <trkpt lat="44.90797" lon="5.37538">
        <ele>1040</ele>
        <time>2020-06-25T11:51:58Z</time>
      </trkpt>
      <trkpt lat="44.90799" lon="5.37537">
        <ele>1040</ele>
        <time>2020-06-25T11:51:59Z</time>
      </trkpt>
      <trkpt lat="44.908" lon="5.37536">
        <ele>1040</ele>
        <time>2020-06-25T11:52:00Z</time>
      </trkpt>
      <trkpt lat="44.908" lon="5.37535">
        <ele>1040</ele>
        <time>2020-06-25T11:52:01Z</time>
      </trkpt>
      <trkpt lat="44.908" lon="5.37534">
        <ele>1040</ele>
        <time>2020-06-25T11:52:02Z</time>
      </trkpt>
      <trkpt lat="44.908" lon="5.37532">
        <ele>1040</ele>
        <time>2020-06-25T11:52:03Z</time>
      </trkpt>
      <trkpt lat="44.90799" lon="5.3753">
        <ele>1040</ele>
        <time>2020-06-25T11:52:04Z</time>
      </trkpt>
      <trkpt lat="44.90798" lon="5.3753">
        <ele>1040</ele>
        <time>2020-06-25T11:52:05Z</time>
      </trkpt>
      <trkpt lat="44.90796" lon="5.37529">
        <ele>1040</ele>
        <time>2020-06-25T11:52:06Z</time>
      </trkpt>
      <trkpt lat="44.90795" lon="5.37529">
        <ele>1040</ele>
        <time>2020-06-25T11:52:07Z</time>
      </trkpt>
      <trkpt lat="44.90794" lon="5.37528">
        <ele>1040</ele>
        <time>2020-06-25T11:52:08Z</time>
      </trkpt>
      <trkpt lat="44.90793" lon="5.37527">
        <ele>1040</ele>
        <time>2020-06-25T11:52:09Z</time>
      </trkpt>
      <trkpt lat="44.90793" lon="5.37525">
        <ele>1040</ele>
        <time>2020-06-25T11:52:10Z</time>
      </trkpt>
      <trkpt lat="44.90789" lon="5.37515">
        <ele>1040</ele>
        <time>2020-06-25T11:52:16Z</time>
      </trkpt>
      <trkpt lat="44.90789" lon="5.37513">
        <ele>1040</ele>
        <time>2020-06-25T11:52:18Z</time>
      </trkpt>
      <trkpt lat="44.9079" lon="5.37511">
        <ele>1040</ele>
        <time>2020-06-25T11:52:19Z</time>
      </trkpt>
      <trkpt lat="44.90789" lon="5.3751">
        <ele>1040</ele>
        <time>2020-06-25T11:52:20Z</time>
      </trkpt>
      <trkpt lat="44.90788" lon="5.37508">
        <ele>1040</ele>
        <time>2020-06-25T11:52:21Z</time>
      </trkpt>
      <trkpt lat="44.90787" lon="5.37506">
        <ele>1040</ele>
        <time>2020-06-25T11:52:22Z</time>
      </trkpt>
      <trkpt lat="44.90786" lon="5.37504">
        <ele>1040</ele>
        <time>2020-06-25T11:52:23Z</time>
      </trkpt>
      <trkpt lat="44.90785" lon="5.37502">
        <ele>1040</ele>
        <time>2020-06-25T11:52:24Z</time>
      </trkpt>
      <trkpt lat="44.90784" lon="5.375">
        <ele>1040</ele>
        <time>2020-06-25T11:52:25Z</time>
      </trkpt>
      <trkpt lat="44.90783" lon="5.37498">
        <ele>1040</ele>
        <time>2020-06-25T11:52:26Z</time>
      </trkpt>
      <trkpt lat="44.90782" lon="5.37496">
        <ele>1040</ele>
        <time>2020-06-25T11:52:27Z</time>
      </trkpt>
      <trkpt lat="44.90781" lon="5.37494">
        <ele>1040</ele>
        <time>2020-06-25T11:52:28Z</time>
      </trkpt>
      <trkpt lat="44.90771" lon="5.37468">
        <ele>1041</ele>
        <time>2020-06-25T11:52:41Z</time>
      </trkpt>
      <trkpt lat="44.90779" lon="5.37469">
        <ele>1041</ele>
        <time>2020-06-25T11:52:57Z</time>
      </trkpt>
      <trkpt lat="44.90781" lon="5.37468">
        <ele>1041</ele>
        <time>2020-06-25T11:53:02Z</time>
      </trkpt>
      <trkpt lat="44.90784" lon="5.37466">
        <ele>1041</ele>
        <time>2020-06-25T11:53:15Z</time>
      </trkpt>
      <trkpt lat="44.90784" lon="5.37464">
        <ele>1041</ele>
        <time>2020-06-25T11:53:39Z</time>
      </trkpt>
      <trkpt lat="44.90784" lon="5.37461">
        <ele>1041</ele>
        <time>2020-06-25T11:53:53Z</time>
      </trkpt>
      <trkpt lat="44.90792" lon="5.37459">
        <ele>1041</ele>
        <time>2020-06-25T11:54:08Z</time>
      </trkpt>
      <trkpt lat="44.90802" lon="5.37451">
        <ele>1040</ele>
        <time>2020-06-25T11:54:24Z</time>
      </trkpt>
      <trkpt lat="44.90804" lon="5.37447">
        <ele>1040</ele>
        <time>2020-06-25T11:54:34Z</time>
      </trkpt>
      <trkpt lat="44.90808" lon="5.37453">
        <ele>1040</ele>
        <time>2020-06-25T11:54:48Z</time>
      </trkpt>
      <trkpt lat="44.90808" lon="5.37454">
        <ele>1040</ele>
        <time>2020-06-25T11:55:03Z</time>
      </trkpt>
      <trkpt lat="44.90808" lon="5.37453">
        <ele>1040</ele>
        <time>2020-06-25T11:55:31Z</time>
      </trkpt>
      <trkpt lat="44.90808" lon="5.37454">
        <ele>1040</ele>
        <time>2020-06-25T11:56:01Z</time>
      </trkpt>
      <trkpt lat="44.90808" lon="5.37453">
        <ele>1040</ele>
        <time>2020-06-25T11:56:30Z</time>
      </trkpt>
      <trkpt lat="44.90809" lon="5.37452">
        <ele>1040</ele>
        <time>2020-06-25T11:57:04Z</time>
      </trkpt>
      <trkpt lat="44.90809" lon="5.37456">
        <ele>1040</ele>
        <time>2020-06-25T11:57:35Z</time>
      </trkpt>
      <trkpt lat="44.90807" lon="5.37453">
        <ele>1040</ele>
        <time>2020-06-25T11:58:01Z</time>
      </trkpt>
      <trkpt lat="44.90806" lon="5.37453">
        <ele>1040</ele>
        <time>2020-06-25T11:58:37Z</time>
      </trkpt>
      <trkpt lat="44.90805" lon="5.37451">
        <ele>1040</ele>
        <time>2020-06-25T11:59:10Z</time>
      </trkpt>
      <trkpt lat="44.90808" lon="5.37452">
        <ele>1040</ele>
        <time>2020-06-25T11:59:40Z</time>
      </trkpt>
      <trkpt lat="44.90808" lon="5.37455">
        <ele>1040</ele>
        <time>2020-06-25T12:00:22Z</time>
      </trkpt>
      <trkpt lat="44.90806" lon="5.37453">
        <ele>1040</ele>
        <time>2020-06-25T12:00:59Z</time>
      </trkpt>
      <trkpt lat="44.90806" lon="5.37454">
        <ele>1040</ele>
        <time>2020-06-25T12:01:25Z</time>
      </trkpt>
      <trkpt lat="44.90807" lon="5.37453">
        <ele>1040</ele>
        <time>2020-06-25T12:01:30Z</time>
      </trkpt>
      <trkpt lat="44.90807" lon="5.37453">
        <ele>1040</ele>
        <time>2020-06-25T12:01:57Z</time>
      </trkpt>
      <trkpt lat="44.90807" lon="5.37453">
        <ele>1040</ele>
        <time>2020-06-25T12:02:22Z</time>
      </trkpt>
      <trkpt lat="44.90808" lon="5.37452">
        <ele>1040</ele>
        <time>2020-06-25T12:02:57Z</time>
      </trkpt>
      <trkpt lat="44.90807" lon="5.37452">
        <ele>1040</ele>
        <time>2020-06-25T12:03:39Z</time>
      </trkpt>
      <trkpt lat="44.90808" lon="5.37454">
        <ele>1040</ele>
        <time>2020-06-25T12:04:11Z</time>
      </trkpt>
      <trkpt lat="44.90808" lon="5.37456">
        <ele>1040</ele>
        <time>2020-06-25T12:04:41Z</time>
      </trkpt>
      <trkpt lat="44.90809" lon="5.37456">
        <ele>1040</ele>
        <time>2020-06-25T12:05:07Z</time>
      </trkpt>
      <trkpt lat="44.90808" lon="5.37454">
        <ele>1040</ele>
        <time>2020-06-25T12:05:42Z</time>
      </trkpt>
      <trkpt lat="44.90807" lon="5.37452">
        <ele>1040</ele>
        <time>2020-06-25T12:06:23Z</time>
      </trkpt>
      <trkpt lat="44.90808" lon="5.37454">
        <ele>1040</ele>
        <time>2020-06-25T12:06:51Z</time>
      </trkpt>
      <trkpt lat="44.90807" lon="5.37453">
        <ele>1040</ele>
        <time>2020-06-25T12:07:21Z</time>
      </trkpt>
      <trkpt lat="44.90806" lon="5.37452">
        <ele>1040</ele>
        <time>2020-06-25T12:07:57Z</time>
      </trkpt>
      <trkpt lat="44.90806" lon="5.37452">
        <ele>1040</ele>
        <time>2020-06-25T12:08:32Z</time>
      </trkpt>
      <trkpt lat="44.90807" lon="5.37453">
        <ele>1040</ele>
        <time>2020-06-25T12:08:59Z</time>
      </trkpt>
      <trkpt lat="44.90809" lon="5.37455">
        <ele>1040</ele>
        <time>2020-06-25T12:09:22Z</time>
      </trkpt>
      <trkpt lat="44.90809" lon="5.37455">
        <ele>1040</ele>
        <time>2020-06-25T12:09:55Z</time>
      </trkpt>
      <trkpt lat="44.90809" lon="5.37455">
        <ele>1040</ele>
        <time>2020-06-25T12:10:17Z</time>
      </trkpt>
      <trkpt lat="44.90807" lon="5.37452">
        <ele>1040</ele>
        <time>2020-06-25T12:10:52Z</time>
      </trkpt>
      <trkpt lat="44.90807" lon="5.37453">
        <ele>1040</ele>
        <time>2020-06-25T12:11:20Z</time>
      </trkpt>
      <trkpt lat="44.90808" lon="5.37453">
        <ele>1040</ele>
        <time>2020-06-25T12:11:48Z</time>
      </trkpt>
      <trkpt lat="44.9081" lon="5.37451">
        <ele>1040</ele>
        <time>2020-06-25T12:12:22Z</time>
      </trkpt>
      <trkpt lat="44.90808" lon="5.37452">
        <ele>1040</ele>
        <time>2020-06-25T12:12:50Z</time>
      </trkpt>
      <trkpt lat="44.90808" lon="5.37452">
        <ele>1040</ele>
        <time>2020-06-25T12:13:18Z</time>
      </trkpt>
      <trkpt lat="44.90808" lon="5.37449">
        <ele>1040</ele>
        <time>2020-06-25T12:13:41Z</time>
      </trkpt>
      <trkpt lat="44.90808" lon="5.37451">
        <ele>1040</ele>
        <time>2020-06-25T12:14:12Z</time>
      </trkpt>
      <trkpt lat="44.90807" lon="5.37451">
        <ele>1040</ele>
        <time>2020-06-25T12:14:37Z</time>
      </trkpt>
      <trkpt lat="44.90806" lon="5.3745">
        <ele>1040</ele>
        <time>2020-06-25T12:15:14Z</time>
      </trkpt>
      <trkpt lat="44.90806" lon="5.37448">
        <ele>1040</ele>
        <time>2020-06-25T12:15:46Z</time>
      </trkpt>
      <trkpt lat="44.90807" lon="5.37453">
        <ele>1040</ele>
        <time>2020-06-25T12:16:20Z</time>
      </trkpt>
      <trkpt lat="44.90808" lon="5.37454">
        <ele>1040</ele>
        <time>2020-06-25T12:16:53Z</time>
      </trkpt>
      <trkpt lat="44.90807" lon="5.37455">
        <ele>1040</ele>
        <time>2020-06-25T12:17:30Z</time>
      </trkpt>
      <trkpt lat="44.90808" lon="5.37455">
        <ele>1040</ele>
        <time>2020-06-25T12:18:01Z</time>
      </trkpt>
      <trkpt lat="44.90808" lon="5.37452">
        <ele>1040</ele>
        <time>2020-06-25T12:18:47Z</time>
      </trkpt>
      <trkpt lat="44.90809" lon="5.37452">
        <ele>1040</ele>
        <time>2020-06-25T12:19:20Z</time>
      </trkpt>
      <trkpt lat="44.90807" lon="5.37452">
        <ele>1040</ele>
        <time>2020-06-25T12:19:45Z</time>
      </trkpt>
      <trkpt lat="44.90806" lon="5.37451">
        <ele>1040</ele>
        <time>2020-06-25T12:20:25Z</time>
      </trkpt>
      <trkpt lat="44.90806" lon="5.37453">
        <ele>1040</ele>
        <time>2020-06-25T12:20:52Z</time>
      </trkpt>
      <trkpt lat="44.90807" lon="5.37452">
        <ele>1040</ele>
        <time>2020-06-25T12:21:27Z</time>
      </trkpt>
      <trkpt lat="44.90808" lon="5.37451">
        <ele>1040</ele>
        <time>2020-06-25T12:21:59Z</time>
      </trkpt>
      <trkpt lat="44.90807" lon="5.37452">
        <ele>1040</ele>
        <time>2020-06-25T12:22:32Z</time>
      </trkpt>
      <trkpt lat="44.90806" lon="5.37453">
        <ele>1040</ele>
        <time>2020-06-25T12:23:01Z</time>
      </trkpt>
      <trkpt lat="44.90807" lon="5.37453">
        <ele>1040</ele>
        <time>2020-06-25T12:23:46Z</time>
      </trkpt>
      <trkpt lat="44.90808" lon="5.37453">
        <ele>1040</ele>
        <time>2020-06-25T12:24:20Z</time>
      </trkpt>
      <trkpt lat="44.90807" lon="5.37453">
        <ele>1040</ele>
        <time>2020-06-25T12:24:50Z</time>
      </trkpt>
      <trkpt lat="44.90808" lon="5.37454">
        <ele>1040</ele>
        <time>2020-06-25T12:25:23Z</time>
      </trkpt>
      <trkpt lat="44.90807" lon="5.37451">
        <ele>1040</ele>
        <time>2020-06-25T12:25:54Z</time>
      </trkpt>
      <trkpt lat="44.90808" lon="5.37453">
        <ele>1040</ele>
        <time>2020-06-25T12:26:35Z</time>
      </trkpt>
      <trkpt lat="44.90807" lon="5.37455">
        <ele>1040</ele>
        <time>2020-06-25T12:27:11Z</time>
      </trkpt>
      <trkpt lat="44.90808" lon="5.37453">
        <ele>1040</ele>
        <time>2020-06-25T12:27:48Z</time>
      </trkpt>
      <trkpt lat="44.90808" lon="5.37455">
        <ele>1040</ele>
        <time>2020-06-25T12:28:16Z</time>
      </trkpt>
      <trkpt lat="44.90807" lon="5.37452">
        <ele>1040</ele>
        <time>2020-06-25T12:28:46Z</time>
      </trkpt>
      <trkpt lat="44.90807" lon="5.37452">
        <ele>1040</ele>
        <time>2020-06-25T12:29:25Z</time>
      </trkpt>
      <trkpt lat="44.90807" lon="5.37454">
        <ele>1040</ele>
        <time>2020-06-25T12:30:00Z</time>
      </trkpt>
      <trkpt lat="44.90807" lon="5.37452">
        <ele>1040</ele>
        <time>2020-06-25T12:30:32Z</time>
      </trkpt>
      <trkpt lat="44.90807" lon="5.37453">
        <ele>1040</ele>
        <time>2020-06-25T12:30:59Z</time>
      </trkpt>
      <trkpt lat="44.90806" lon="5.37454">
        <ele>1040</ele>
        <time>2020-06-25T12:31:29Z</time>
      </trkpt>
      <trkpt lat="44.90807" lon="5.37453">
        <ele>1040</ele>
        <time>2020-06-25T12:32:01Z</time>
      </trkpt>
      <trkpt lat="44.90808" lon="5.37454">
        <ele>1040</ele>
        <time>2020-06-25T12:32:39Z</time>
      </trkpt>
      <trkpt lat="44.90807" lon="5.37454">
        <ele>1040</ele>
        <time>2020-06-25T12:33:10Z</time>
      </trkpt>
      <trkpt lat="44.90808" lon="5.37455">
        <ele>1040</ele>
        <time>2020-06-25T12:33:47Z</time>
      </trkpt>
      <trkpt lat="44.90809" lon="5.37455">
        <ele>1040</ele>
        <time>2020-06-25T12:34:27Z</time>
      </trkpt>
      <trkpt lat="44.90808" lon="5.37453">
        <ele>1040</ele>
        <time>2020-06-25T12:35:02Z</time>
      </trkpt>
      <trkpt lat="44.90808" lon="5.37451">
        <ele>1040</ele>
        <time>2020-06-25T12:35:32Z</time>
      </trkpt>
      <trkpt lat="44.90808" lon="5.37453">
        <ele>1040</ele>
        <time>2020-06-25T12:36:06Z</time>
      </trkpt>
      <trkpt lat="44.9081" lon="5.37454">
        <ele>1040</ele>
        <time>2020-06-25T12:36:44Z</time>
      </trkpt>
      <trkpt lat="44.90808" lon="5.37453">
        <ele>1040</ele>
        <time>2020-06-25T12:37:19Z</time>
      </trkpt>
      <trkpt lat="44.90809" lon="5.37453">
        <ele>1040</ele>
        <time>2020-06-25T12:37:46Z</time>
      </trkpt>
      <trkpt lat="44.90809" lon="5.37451">
        <ele>1040</ele>
        <time>2020-06-25T12:38:19Z</time>
      </trkpt>
      <trkpt lat="44.90809" lon="5.37452">
        <ele>1040</ele>
        <time>2020-06-25T12:38:44Z</time>
      </trkpt>
      <trkpt lat="44.9081" lon="5.37452">
        <ele>1040</ele>
        <time>2020-06-25T12:39:08Z</time>
      </trkpt>
      <trkpt lat="44.90809" lon="5.37454">
        <ele>1040</ele>
        <time>2020-06-25T12:39:39Z</time>
      </trkpt>
      <trkpt lat="44.90809" lon="5.37452">
        <ele>1040</ele>
        <time>2020-06-25T12:40:13Z</time>
      </trkpt>
      <trkpt lat="44.90808" lon="5.37452">
        <ele>1040</ele>
        <time>2020-06-25T12:40:32Z</time>
      </trkpt>
      <trkpt lat="44.90809" lon="5.37454">
        <ele>1040</ele>
        <time>2020-06-25T12:40:58Z</time>
      </trkpt>
      <trkpt lat="44.90808" lon="5.37452">
        <ele>1040</ele>
        <time>2020-06-25T12:41:25Z</time>
      </trkpt>
      <trkpt lat="44.90808" lon="5.37455">
        <ele>1040</ele>
        <time>2020-06-25T12:42:04Z</time>
      </trkpt>
      <trkpt lat="44.9081" lon="5.37454">
        <ele>1040</ele>
        <time>2020-06-25T12:42:34Z</time>
      </trkpt>
      <trkpt lat="44.90809" lon="5.37453">
        <ele>1040</ele>
        <time>2020-06-25T12:42:59Z</time>
      </trkpt>
      <trkpt lat="44.90809" lon="5.37454">
        <ele>1040</ele>
        <time>2020-06-25T12:43:27Z</time>
      </trkpt>
      <trkpt lat="44.90809" lon="5.37455">
        <ele>1040</ele>
        <time>2020-06-25T12:44:00Z</time>
      </trkpt>
      <trkpt lat="44.90808" lon="5.37453">
        <ele>1040</ele>
        <time>2020-06-25T12:44:35Z</time>
      </trkpt>
      <trkpt lat="44.90807" lon="5.37455">
        <ele>1040</ele>
        <time>2020-06-25T12:45:15Z</time>
      </trkpt>
      <trkpt lat="44.90807" lon="5.37455">
        <ele>1040</ele>
        <time>2020-06-25T12:45:52Z</time>
      </trkpt>
      <trkpt lat="44.90808" lon="5.37453">
        <ele>1040</ele>
        <time>2020-06-25T12:46:30Z</time>
      </trkpt>
      <trkpt lat="44.90808" lon="5.37452">
        <ele>1040</ele>
        <time>2020-06-25T12:46:56Z</time>
      </trkpt>
      <trkpt lat="44.90809" lon="5.37451">
        <ele>1040</ele>
        <time>2020-06-25T12:47:15Z</time>
      </trkpt>
      <trkpt lat="44.90809" lon="5.37451">
        <ele>1040</ele>
        <time>2020-06-25T12:47:40Z</time>
      </trkpt>
      <trkpt lat="44.90807" lon="5.37455">
        <ele>1040</ele>
        <time>2020-06-25T12:48:20Z</time>
      </trkpt>
      <trkpt lat="44.90806" lon="5.37454">
        <ele>1040</ele>
        <time>2020-06-25T12:49:04Z</time>
      </trkpt>
      <trkpt lat="44.90807" lon="5.3745">
        <ele>1040</ele>
        <time>2020-06-25T12:49:40Z</time>
      </trkpt>
      <trkpt lat="44.90808" lon="5.3745">
        <ele>1040</ele>
        <time>2020-06-25T12:50:08Z</time>
      </trkpt>
      <trkpt lat="44.90808" lon="5.37454">
        <ele>1040</ele>
        <time>2020-06-25T12:50:45Z</time>
      </trkpt>
      <trkpt lat="44.90809" lon="5.37454">
        <ele>1040</ele>
        <time>2020-06-25T12:51:18Z</time>
      </trkpt>
      <trkpt lat="44.90808" lon="5.37451">
        <ele>1040</ele>
        <time>2020-06-25T12:51:57Z</time>
      </trkpt>
      <trkpt lat="44.90808" lon="5.3745">
        <ele>1040</ele>
        <time>2020-06-25T12:52:35Z</time>
      </trkpt>
      <trkpt lat="44.90808" lon="5.37453">
        <ele>1040</ele>
        <time>2020-06-25T12:53:12Z</time>
      </trkpt>
      <trkpt lat="44.90808" lon="5.37454">
        <ele>1040</ele>
        <time>2020-06-25T12:53:52Z</time>
      </trkpt>
      <trkpt lat="44.90807" lon="5.37457">
        <ele>1040</ele>
        <time>2020-06-25T12:54:31Z</time>
      </trkpt>
      <trkpt lat="44.90808" lon="5.37457">
        <ele>1040</ele>
        <time>2020-06-25T12:55:14Z</time>
      </trkpt>
      <trkpt lat="44.90809" lon="5.37456">
        <ele>1040</ele>
        <time>2020-06-25T12:55:58Z</time>
      </trkpt>
      <trkpt lat="44.90807" lon="5.37456">
        <ele>1040</ele>
        <time>2020-06-25T12:56:39Z</time>
      </trkpt>
      <trkpt lat="44.90807" lon="5.37455">
        <ele>1040</ele>
        <time>2020-06-25T12:57:20Z</time>
      </trkpt>
      <trkpt lat="44.90808" lon="5.37457">
        <ele>1040</ele>
        <time>2020-06-25T12:57:53Z</time>
      </trkpt>
      <trkpt lat="44.90809" lon="5.37453">
        <ele>1040</ele>
        <time>2020-06-25T12:58:19Z</time>
      </trkpt>
      <trkpt lat="44.90808" lon="5.37455">
        <ele>1040</ele>
        <time>2020-06-25T12:58:50Z</time>
      </trkpt>
      <trkpt lat="44.90809" lon="5.37454">
        <ele>1040</ele>
        <time>2020-06-25T12:58:58Z</time>
      </trkpt>
      <trkpt lat="44.90805" lon="5.37447">
        <ele>1040</ele>
        <time>2020-06-25T12:59:09Z</time>
      </trkpt>
      <trkpt lat="44.90802" lon="5.3745">
        <ele>1040</ele>
        <time>2020-06-25T12:59:24Z</time>
      </trkpt>
      <trkpt lat="44.90797" lon="5.37452">
        <ele>1041</ele>
        <time>2020-06-25T12:59:42Z</time>
      </trkpt>
      <trkpt lat="44.90793" lon="5.37461">
        <ele>1041</ele>
        <time>2020-06-25T12:59:56Z</time>
      </trkpt>
      <trkpt lat="44.90792" lon="5.37467">
        <ele>1041</ele>
        <time>2020-06-25T13:00:09Z</time>
      </trkpt>
      <trkpt lat="44.90788" lon="5.37476">
        <ele>1040</ele>
        <time>2020-06-25T13:00:22Z</time>
      </trkpt>
      <trkpt lat="44.90782" lon="5.37485">
        <ele>1040</ele>
        <time>2020-06-25T13:00:40Z</time>
      </trkpt>
      <trkpt lat="44.90781" lon="5.37489">
        <ele>1040</ele>
        <time>2020-06-25T13:00:55Z</time>
      </trkpt>
      <trkpt lat="44.90777" lon="5.37487">
        <ele>1040</ele>
        <time>2020-06-25T13:01:16Z</time>
      </trkpt>
      <trkpt lat="44.90777" lon="5.37484">
        <ele>1040</ele>
        <time>2020-06-25T13:01:25Z</time>
      </trkpt>
      <trkpt lat="44.90775" lon="5.37481">
        <ele>1041</ele>
        <time>2020-06-25T13:01:28Z</time>
      </trkpt>
      <trkpt lat="44.90775" lon="5.3748">
        <ele>1041</ele>
        <time>2020-06-25T13:01:29Z</time>
      </trkpt>
      <trkpt lat="44.90774" lon="5.37478">
        <ele>1041</ele>
        <time>2020-06-25T13:01:30Z</time>
      </trkpt>
      <trkpt lat="44.90773" lon="5.37475">
        <ele>1041</ele>
        <time>2020-06-25T13:01:32Z</time>
      </trkpt>
      <trkpt lat="44.90772" lon="5.37474">
        <ele>1041</ele>
        <time>2020-06-25T13:01:33Z</time>
      </trkpt>
      <trkpt lat="44.90771" lon="5.37473">
        <ele>1041</ele>
        <time>2020-06-25T13:01:34Z</time>
      </trkpt>
      <trkpt lat="44.90771" lon="5.37472">
        <ele>1041</ele>
        <time>2020-06-25T13:01:35Z</time>
      </trkpt>
      <trkpt lat="44.9077" lon="5.37471">
        <ele>1041</ele>
        <time>2020-06-25T13:01:36Z</time>
      </trkpt>
      <trkpt lat="44.90756" lon="5.37434">
        <ele>1043</ele>
        <time>2020-06-25T13:01:49Z</time>
      </trkpt>
      <trkpt lat="44.90752" lon="5.37422">
        <ele>1043</ele>
        <time>2020-06-25T13:01:52Z</time>
      </trkpt>
      <trkpt lat="44.90738" lon="5.37388">
        <ele>1045</ele>
        <time>2020-06-25T13:02:04Z</time>
      </trkpt>
      <trkpt lat="44.90704" lon="5.37358">
        <ele>1047</ele>
        <time>2020-06-25T13:02:17Z</time>
      </trkpt>
      <trkpt lat="44.90661" lon="5.37332">
        <ele>1049</ele>
        <time>2020-06-25T13:02:31Z</time>
      </trkpt>
      <trkpt lat="44.90628" lon="5.37313">
        <ele>1051</ele>
        <time>2020-06-25T13:02:42Z</time>
      </trkpt>
      <trkpt lat="44.90594" lon="5.37294">
        <ele>1052</ele>
        <time>2020-06-25T13:02:56Z</time>
      </trkpt>
      <trkpt lat="44.9056" lon="5.37275">
        <ele>1054</ele>
        <time>2020-06-25T13:03:12Z</time>
      </trkpt>
      <trkpt lat="44.90537" lon="5.37263">
        <ele>1055</ele>
        <time>2020-06-25T13:03:26Z</time>
      </trkpt>
      <trkpt lat="44.90513" lon="5.37246">
        <ele>1056</ele>
        <time>2020-06-25T13:03:38Z</time>
      </trkpt>
      <trkpt lat="44.90484" lon="5.37227">
        <ele>1056</ele>
        <time>2020-06-25T13:03:52Z</time>
      </trkpt>
      <trkpt lat="44.90447" lon="5.37202">
        <ele>1057</ele>
        <time>2020-06-25T13:04:11Z</time>
      </trkpt>
      <trkpt lat="44.9042" lon="5.37186">
        <ele>1058</ele>
        <time>2020-06-25T13:04:25Z</time>
      </trkpt>
      <trkpt lat="44.90386" lon="5.37172">
        <ele>1060</ele>
        <time>2020-06-25T13:04:42Z</time>
      </trkpt>
      <trkpt lat="44.90367" lon="5.37153">
        <ele>1062</ele>
        <time>2020-06-25T13:04:55Z</time>
      </trkpt>
      <trkpt lat="44.90366" lon="5.37152">
        <ele>1062</ele>
        <time>2020-06-25T13:04:56Z</time>
      </trkpt>
      <trkpt lat="44.90365" lon="5.37152">
        <ele>1062</ele>
        <time>2020-06-25T13:04:57Z</time>
      </trkpt>
      <trkpt lat="44.90363" lon="5.37152">
        <ele>1062</ele>
        <time>2020-06-25T13:04:58Z</time>
      </trkpt>
      <trkpt lat="44.90362" lon="5.37152">
        <ele>1062</ele>
        <time>2020-06-25T13:04:59Z</time>
      </trkpt>
      <trkpt lat="44.9036" lon="5.37152">
        <ele>1062</ele>
        <time>2020-06-25T13:05:00Z</time>
      </trkpt>
      <trkpt lat="44.90359" lon="5.37153">
        <ele>1062</ele>
        <time>2020-06-25T13:05:01Z</time>
      </trkpt>
      <trkpt lat="44.90358" lon="5.37153">
        <ele>1062</ele>
        <time>2020-06-25T13:05:02Z</time>
      </trkpt>
      <trkpt lat="44.90356" lon="5.37153">
        <ele>1062</ele>
        <time>2020-06-25T13:05:16Z</time>
      </trkpt>
      <trkpt lat="44.90355" lon="5.37154">
        <ele>1062</ele>
        <time>2020-06-25T13:05:41Z</time>
      </trkpt>
      <trkpt lat="44.90355" lon="5.37155">
        <ele>1061</ele>
        <time>2020-06-25T13:05:56Z</time>
      </trkpt>
      <trkpt lat="44.90354" lon="5.37155">
        <ele>1061</ele>
        <time>2020-06-25T13:06:12Z</time>
      </trkpt>
      <trkpt lat="44.90354" lon="5.37156">
        <ele>1061</ele>
        <time>2020-06-25T13:06:27Z</time>
      </trkpt>
      <trkpt lat="44.90351" lon="5.37154">
        <ele>1062</ele>
        <time>2020-06-25T13:06:45Z</time>
      </trkpt>
      <trkpt lat="44.9035" lon="5.37153">
        <ele>1062</ele>
        <time>2020-06-25T13:07:17Z</time>
      </trkpt>
      <trkpt lat="44.9035" lon="5.37153">
        <ele>1062</ele>
        <time>2020-06-25T13:07:47Z</time>
      </trkpt>
      <trkpt lat="44.90351" lon="5.37154">
        <ele>1062</ele>
        <time>2020-06-25T13:08:22Z</time>
      </trkpt>
      <trkpt lat="44.90351" lon="5.37154">
        <ele>1061</ele>
        <time>2020-06-25T13:08:50Z</time>
      </trkpt>
      <trkpt lat="44.90351" lon="5.37153">
        <ele>1062</ele>
        <time>2020-06-25T13:09:25Z</time>
      </trkpt>
      <trkpt lat="44.90351" lon="5.37153">
        <ele>1062</ele>
        <time>2020-06-25T13:10:02Z</time>
      </trkpt>
      <trkpt lat="44.90352" lon="5.37154">
        <ele>1062</ele>
        <time>2020-06-25T13:10:46Z</time>
      </trkpt>
      <trkpt lat="44.9035" lon="5.37155">
        <ele>1061</ele>
        <time>2020-06-25T13:11:33Z</time>
      </trkpt>
      <trkpt lat="44.90352" lon="5.37153">
        <ele>1062</ele>
        <time>2020-06-25T13:12:14Z</time>
      </trkpt>
      <trkpt lat="44.90352" lon="5.37153">
        <ele>1062</ele>
        <time>2020-06-25T13:12:55Z</time>
      </trkpt>
      <trkpt lat="44.90351" lon="5.37154">
        <ele>1062</ele>
        <time>2020-06-25T13:13:32Z</time>
      </trkpt>
      <trkpt lat="44.90351" lon="5.37154">
        <ele>1062</ele>
        <time>2020-06-25T13:14:15Z</time>
      </trkpt>
      <trkpt lat="44.90351" lon="5.37153">
        <ele>1062</ele>
        <time>2020-06-25T13:14:56Z</time>
      </trkpt>
      <trkpt lat="44.90351" lon="5.37154">
        <ele>1062</ele>
        <time>2020-06-25T13:15:39Z</time>
      </trkpt>
      <trkpt lat="44.90349" lon="5.37154">
        <ele>1061</ele>
        <time>2020-06-25T13:16:22Z</time>
      </trkpt>
      <trkpt lat="44.90351" lon="5.37154">
        <ele>1061</ele>
        <time>2020-06-25T13:17:01Z</time>
      </trkpt>
      <trkpt lat="44.90351" lon="5.37153">
        <ele>1062</ele>
        <time>2020-06-25T13:17:37Z</time>
      </trkpt>
      <trkpt lat="44.90351" lon="5.37154">
        <ele>1061</ele>
        <time>2020-06-25T13:18:16Z</time>
      </trkpt>
      <trkpt lat="44.90351" lon="5.37152">
        <ele>1062</ele>
        <time>2020-06-25T13:18:52Z</time>
      </trkpt>
      <trkpt lat="44.90353" lon="5.37152">
        <ele>1062</ele>
        <time>2020-06-25T13:19:33Z</time>
      </trkpt>
      <trkpt lat="44.90351" lon="5.37154">
        <ele>1061</ele>
        <time>2020-06-25T13:20:06Z</time>
      </trkpt>
      <trkpt lat="44.90351" lon="5.37152">
        <ele>1062</ele>
        <time>2020-06-25T13:20:38Z</time>
      </trkpt>
      <trkpt lat="44.90351" lon="5.37155">
        <ele>1061</ele>
        <time>2020-06-25T13:21:10Z</time>
      </trkpt>
      <trkpt lat="44.9035" lon="5.37156">
        <ele>1061</ele>
        <time>2020-06-25T13:21:36Z</time>
      </trkpt>
      <trkpt lat="44.9035" lon="5.37156">
        <ele>1061</ele>
        <time>2020-06-25T13:21:42Z</time>
      </trkpt>
      <trkpt lat="44.90349" lon="5.37158">
        <ele>1061</ele>
        <time>2020-06-25T13:21:43Z</time>
      </trkpt>
      <trkpt lat="44.90349" lon="5.37159">
        <ele>1061</ele>
        <time>2020-06-25T13:21:44Z</time>
      </trkpt>
      <trkpt lat="44.90348" lon="5.3716">
        <ele>1061</ele>
        <time>2020-06-25T13:21:45Z</time>
      </trkpt>
      <trkpt lat="44.90347" lon="5.3716">
        <ele>1061</ele>
        <time>2020-06-25T13:21:46Z</time>
      </trkpt>
      <trkpt lat="44.90345" lon="5.3716">
        <ele>1061</ele>
        <time>2020-06-25T13:21:47Z</time>
      </trkpt>
      <trkpt lat="44.90345" lon="5.37159">
        <ele>1061</ele>
        <time>2020-06-25T13:21:48Z</time>
      </trkpt>
      <trkpt lat="44.90344" lon="5.37159">
        <ele>1061</ele>
        <time>2020-06-25T13:21:49Z</time>
      </trkpt>
      <trkpt lat="44.90342" lon="5.37159">
        <ele>1061</ele>
        <time>2020-06-25T13:21:50Z</time>
      </trkpt>
      <trkpt lat="44.90311" lon="5.37151">
        <ele>1061</ele>
        <time>2020-06-25T13:22:04Z</time>
      </trkpt>
      <trkpt lat="44.90308" lon="5.37149">
        <ele>1061</ele>
        <time>2020-06-25T13:22:16Z</time>
      </trkpt>
      <trkpt lat="44.90307" lon="5.37147">
        <ele>1061</ele>
        <time>2020-06-25T13:22:21Z</time>
      </trkpt>
      <trkpt lat="44.90307" lon="5.37138">
        <ele>1061</ele>
        <time>2020-06-25T13:22:24Z</time>
      </trkpt>
      <trkpt lat="44.90309" lon="5.37129">
        <ele>1061</ele>
        <time>2020-06-25T13:22:27Z</time>
      </trkpt>
      <trkpt lat="44.90308" lon="5.37126">
        <ele>1061</ele>
        <time>2020-06-25T13:22:43Z</time>
      </trkpt>
      <trkpt lat="44.90307" lon="5.37126">
        <ele>1061</ele>
        <time>2020-06-25T13:23:01Z</time>
      </trkpt>
      <trkpt lat="44.90305" lon="5.37142">
        <ele>1061</ele>
        <time>2020-06-25T13:23:09Z</time>
      </trkpt>
      <trkpt lat="44.90303" lon="5.3715">
        <ele>1060</ele>
        <time>2020-06-25T13:23:12Z</time>
      </trkpt>
      <trkpt lat="44.90301" lon="5.37151">
        <ele>1060</ele>
        <time>2020-06-25T13:23:13Z</time>
      </trkpt>
      <trkpt lat="44.90299" lon="5.37151">
        <ele>1060</ele>
        <time>2020-06-25T13:23:14Z</time>
      </trkpt>
      <trkpt lat="44.90255" lon="5.37152">
        <ele>1058</ele>
        <time>2020-06-25T13:23:26Z</time>
      </trkpt>
      <trkpt lat="44.90179" lon="5.37148">
        <ele>1054</ele>
        <time>2020-06-25T13:23:39Z</time>
      </trkpt>
      <trkpt lat="44.90132" lon="5.37145">
        <ele>1052</ele>
        <time>2020-06-25T13:23:46Z</time>
      </trkpt>
      <trkpt lat="44.90077" lon="5.37113">
        <ele>1050</ele>
        <time>2020-06-25T13:23:56Z</time>
      </trkpt>
      <trkpt lat="44.90009" lon="5.37029">
        <ele>1049</ele>
        <time>2020-06-25T13:24:13Z</time>
      </trkpt>
      <trkpt lat="44.89951" lon="5.36979">
        <ele>1046</ele>
        <time>2020-06-25T13:24:25Z</time>
      </trkpt>
      <trkpt lat="44.89845" lon="5.36906">
        <ele>1041</ele>
        <time>2020-06-25T13:24:43Z</time>
      </trkpt>
      <trkpt lat="44.89794" lon="5.36894">
        <ele>1039</ele>
        <time>2020-06-25T13:24:51Z</time>
      </trkpt>
      <trkpt lat="44.89788" lon="5.36894">
        <ele>1039</ele>
        <time>2020-06-25T13:24:52Z</time>
      </trkpt>
      <trkpt lat="44.89753" lon="5.36899">
        <ele>1039</ele>
        <time>2020-06-25T13:24:58Z</time>
      </trkpt>
      <trkpt lat="44.89747" lon="5.369">
        <ele>1039</ele>
        <time>2020-06-25T13:24:59Z</time>
      </trkpt>
      <trkpt lat="44.89685" lon="5.36912">
        <ele>1039</ele>
        <time>2020-06-25T13:25:13Z</time>
      </trkpt>
      <trkpt lat="44.89683" lon="5.36909">
        <ele>1039</ele>
        <time>2020-06-25T13:25:14Z</time>
      </trkpt>
      <trkpt lat="44.89682" lon="5.36907">
        <ele>1039</ele>
        <time>2020-06-25T13:25:15Z</time>
      </trkpt>
      <trkpt lat="44.8968" lon="5.36905">
        <ele>1040</ele>
        <time>2020-06-25T13:25:16Z</time>
      </trkpt>
      <trkpt lat="44.89678" lon="5.36905">
        <ele>1040</ele>
        <time>2020-06-25T13:25:17Z</time>
      </trkpt>
      <trkpt lat="44.89676" lon="5.36905">
        <ele>1040</ele>
        <time>2020-06-25T13:25:18Z</time>
      </trkpt>
      <trkpt lat="44.89674" lon="5.36906">
        <ele>1040</ele>
        <time>2020-06-25T13:25:28Z</time>
      </trkpt>
      <trkpt lat="44.89673" lon="5.36906">
        <ele>1040</ele>
        <time>2020-06-25T13:25:32Z</time>
      </trkpt>
      <trkpt lat="44.89672" lon="5.36907">
        <ele>1040</ele>
        <time>2020-06-25T13:25:33Z</time>
      </trkpt>
      <trkpt lat="44.8967" lon="5.36907">
        <ele>1040</ele>
        <time>2020-06-25T13:25:34Z</time>
      </trkpt>
      <trkpt lat="44.89668" lon="5.36907">
        <ele>1040</ele>
        <time>2020-06-25T13:25:35Z</time>
      </trkpt>
      <trkpt lat="44.89667" lon="5.36907">
        <ele>1040</ele>
        <time>2020-06-25T13:25:36Z</time>
      </trkpt>
      <trkpt lat="44.89664" lon="5.36907">
        <ele>1040</ele>
        <time>2020-06-25T13:25:37Z</time>
      </trkpt>
      <trkpt lat="44.89662" lon="5.36907">
        <ele>1040</ele>
        <time>2020-06-25T13:25:38Z</time>
      </trkpt>
      <trkpt lat="44.89659" lon="5.36907">
        <ele>1040</ele>
        <time>2020-06-25T13:25:39Z</time>
      </trkpt>
      <trkpt lat="44.89656" lon="5.36906">
        <ele>1040</ele>
        <time>2020-06-25T13:25:40Z</time>
      </trkpt>
      <trkpt lat="44.89661" lon="5.36887">
        <ele>1040</ele>
        <time>2020-06-25T13:25:48Z</time>
      </trkpt>
      <trkpt lat="44.89672" lon="5.36886">
        <ele>1040</ele>
        <time>2020-06-25T13:25:52Z</time>
      </trkpt>
      <trkpt lat="44.89685" lon="5.36895">
        <ele>1039</ele>
        <time>2020-06-25T13:25:58Z</time>
      </trkpt>
      <trkpt lat="44.89685" lon="5.36898">
        <ele>1039</ele>
        <time>2020-06-25T13:25:59Z</time>
      </trkpt>
      <trkpt lat="44.89685" lon="5.369">
        <ele>1039</ele>
        <time>2020-06-25T13:26:00Z</time>
      </trkpt>
      <trkpt lat="44.89684" lon="5.36901">
        <ele>1039</ele>
        <time>2020-06-25T13:26:01Z</time>
      </trkpt>
      <trkpt lat="44.89683" lon="5.36902">
        <ele>1039</ele>
        <time>2020-06-25T13:26:02Z</time>
      </trkpt>
      <trkpt lat="44.89681" lon="5.36903">
        <ele>1039</ele>
        <time>2020-06-25T13:26:03Z</time>
      </trkpt>
      <trkpt lat="44.89673" lon="5.36905">
        <ele>1040</ele>
        <time>2020-06-25T13:26:11Z</time>
      </trkpt>
      <trkpt lat="44.89673" lon="5.36905">
        <ele>1040</ele>
        <time>2020-06-25T13:26:14Z</time>
      </trkpt>
      <trkpt lat="44.89672" lon="5.36905">
        <ele>1040</ele>
        <time>2020-06-25T13:26:15Z</time>
      </trkpt>
      <trkpt lat="44.8967" lon="5.36905">
        <ele>1040</ele>
        <time>2020-06-25T13:26:16Z</time>
      </trkpt>
      <trkpt lat="44.89668" lon="5.36905">
        <ele>1040</ele>
        <time>2020-06-25T13:26:17Z</time>
      </trkpt>
      <trkpt lat="44.89666" lon="5.36906">
        <ele>1040</ele>
        <time>2020-06-25T13:26:18Z</time>
      </trkpt>
      <trkpt lat="44.89657" lon="5.36908">
        <ele>1040</ele>
        <time>2020-06-25T13:26:23Z</time>
      </trkpt>
      <trkpt lat="44.89657" lon="5.36911">
        <ele>1040</ele>
        <time>2020-06-25T13:26:24Z</time>
      </trkpt>
      <trkpt lat="44.89657" lon="5.36914">
        <ele>1040</ele>
        <time>2020-06-25T13:26:25Z</time>
      </trkpt>
      <trkpt lat="44.89658" lon="5.36917">
        <ele>1040</ele>
        <time>2020-06-25T13:26:27Z</time>
      </trkpt>
      <trkpt lat="44.89653" lon="5.36929">
        <ele>1040</ele>
        <time>2020-06-25T13:26:37Z</time>
      </trkpt>
      <trkpt lat="44.89651" lon="5.3693">
        <ele>1040</ele>
        <time>2020-06-25T13:26:38Z</time>
      </trkpt>
      <trkpt lat="44.89649" lon="5.36931">
        <ele>1040</ele>
        <time>2020-06-25T13:26:39Z</time>
      </trkpt>
      <trkpt lat="44.89647" lon="5.36933">
        <ele>1040</ele>
        <time>2020-06-25T13:26:40Z</time>
      </trkpt>
      <trkpt lat="44.89646" lon="5.36934">
        <ele>1040</ele>
        <time>2020-06-25T13:26:41Z</time>
      </trkpt>
      <trkpt lat="44.89644" lon="5.36936">
        <ele>1040</ele>
        <time>2020-06-25T13:26:42Z</time>
      </trkpt>
      <trkpt lat="44.89642" lon="5.36938">
        <ele>1040</ele>
        <time>2020-06-25T13:26:43Z</time>
      </trkpt>
      <trkpt lat="44.8964" lon="5.3694">
        <ele>1040</ele>
        <time>2020-06-25T13:26:44Z</time>
      </trkpt>
      <trkpt lat="44.89636" lon="5.36951">
        <ele>1040</ele>
        <time>2020-06-25T13:26:49Z</time>
      </trkpt>
      <trkpt lat="44.89625" lon="5.36976">
        <ele>1040</ele>
        <time>2020-06-25T13:27:02Z</time>
      </trkpt>
      <trkpt lat="44.89623" lon="5.36982">
        <ele>1041</ele>
        <time>2020-06-25T13:27:05Z</time>
      </trkpt>
      <trkpt lat="44.89622" lon="5.36985">
        <ele>1041</ele>
        <time>2020-06-25T13:27:06Z</time>
      </trkpt>
      <trkpt lat="44.89622" lon="5.36987">
        <ele>1041</ele>
        <time>2020-06-25T13:27:07Z</time>
      </trkpt>
      <trkpt lat="44.89621" lon="5.3699">
        <ele>1041</ele>
        <time>2020-06-25T13:27:08Z</time>
      </trkpt>
      <trkpt lat="44.8962" lon="5.36992">
        <ele>1041</ele>
        <time>2020-06-25T13:27:09Z</time>
      </trkpt>
      <trkpt lat="44.8962" lon="5.36994">
        <ele>1041</ele>
        <time>2020-06-25T13:27:10Z</time>
      </trkpt>
      <trkpt lat="44.89619" lon="5.36996">
        <ele>1041</ele>
        <time>2020-06-25T13:27:11Z</time>
      </trkpt>
      <trkpt lat="44.89611" lon="5.37032">
        <ele>1041</ele>
        <time>2020-06-25T13:27:26Z</time>
      </trkpt>
      <trkpt lat="44.89604" lon="5.37051">
        <ele>1041</ele>
        <time>2020-06-25T13:27:35Z</time>
      </trkpt>
      <trkpt lat="44.89593" lon="5.37064">
        <ele>1041</ele>
        <time>2020-06-25T13:27:45Z</time>
      </trkpt>
      <trkpt lat="44.89592" lon="5.37064">
        <ele>1041</ele>
        <time>2020-06-25T13:27:46Z</time>
      </trkpt>
      <trkpt lat="44.8959" lon="5.37065">
        <ele>1041</ele>
        <time>2020-06-25T13:27:47Z</time>
      </trkpt>
      <trkpt lat="44.89589" lon="5.37066">
        <ele>1041</ele>
        <time>2020-06-25T13:27:48Z</time>
      </trkpt>
      <trkpt lat="44.89587" lon="5.37066">
        <ele>1042</ele>
        <time>2020-06-25T13:27:49Z</time>
      </trkpt>
      <trkpt lat="44.89585" lon="5.37067">
        <ele>1042</ele>
        <time>2020-06-25T13:27:50Z</time>
      </trkpt>
      <trkpt lat="44.89583" lon="5.37067">
        <ele>1042</ele>
        <time>2020-06-25T13:27:51Z</time>
      </trkpt>
      <trkpt lat="44.89556" lon="5.37072">
        <ele>1043</ele>
        <time>2020-06-25T13:28:06Z</time>
      </trkpt>
      <trkpt lat="44.89548" lon="5.37064">
        <ele>1043</ele>
        <time>2020-06-25T13:28:19Z</time>
      </trkpt>
      <trkpt lat="44.89548" lon="5.3706">
        <ele>1043</ele>
        <time>2020-06-25T13:28:35Z</time>
      </trkpt>
      <trkpt lat="44.89548" lon="5.37062">
        <ele>1043</ele>
        <time>2020-06-25T13:28:55Z</time>
      </trkpt>
      <trkpt lat="44.89547" lon="5.37059">
        <ele>1043</ele>
        <time>2020-06-25T13:29:18Z</time>
      </trkpt>
      <trkpt lat="44.89546" lon="5.3706">
        <ele>1043</ele>
        <time>2020-06-25T13:29:35Z</time>
      </trkpt>
      <trkpt lat="44.89545" lon="5.3706">
        <ele>1043</ele>
        <time>2020-06-25T13:29:39Z</time>
      </trkpt>
      <trkpt lat="44.89544" lon="5.37058">
        <ele>1043</ele>
        <time>2020-06-25T13:29:40Z</time>
      </trkpt>
      <trkpt lat="44.89543" lon="5.37056">
        <ele>1043</ele>
        <time>2020-06-25T13:29:41Z</time>
      </trkpt>
      <trkpt lat="44.89543" lon="5.37055">
        <ele>1043</ele>
        <time>2020-06-25T13:29:42Z</time>
      </trkpt>
      <trkpt lat="44.89542" lon="5.37054">
        <ele>1043</ele>
        <time>2020-06-25T13:29:43Z</time>
      </trkpt>
      <trkpt lat="44.89542" lon="5.37052">
        <ele>1043</ele>
        <time>2020-06-25T13:29:44Z</time>
      </trkpt>
      <trkpt lat="44.89542" lon="5.37051">
        <ele>1043</ele>
        <time>2020-06-25T13:29:45Z</time>
      </trkpt>
      <trkpt lat="44.89542" lon="5.37049">
        <ele>1043</ele>
        <time>2020-06-25T13:29:46Z</time>
      </trkpt>
      <trkpt lat="44.89541" lon="5.37023">
        <ele>1043</ele>
        <time>2020-06-25T13:29:57Z</time>
      </trkpt>
      <trkpt lat="44.89542" lon="5.36992">
        <ele>1043</ele>
        <time>2020-06-25T13:30:11Z</time>
      </trkpt>
      <trkpt lat="44.89543" lon="5.36985">
        <ele>1043</ele>
        <time>2020-06-25T13:30:14Z</time>
      </trkpt>
      <trkpt lat="44.89544" lon="5.36983">
        <ele>1043</ele>
        <time>2020-06-25T13:30:15Z</time>
      </trkpt>
      <trkpt lat="44.89545" lon="5.36982">
        <ele>1043</ele>
        <time>2020-06-25T13:30:16Z</time>
      </trkpt>
      <trkpt lat="44.89546" lon="5.36982">
        <ele>1043</ele>
        <time>2020-06-25T13:30:17Z</time>
      </trkpt>
      <trkpt lat="44.89548" lon="5.36982">
        <ele>1043</ele>
        <time>2020-06-25T13:30:18Z</time>
      </trkpt>
      <trkpt lat="44.89549" lon="5.36982">
        <ele>1043</ele>
        <time>2020-06-25T13:30:19Z</time>
      </trkpt>
      <trkpt lat="44.89551" lon="5.36982">
        <ele>1043</ele>
        <time>2020-06-25T13:30:20Z</time>
      </trkpt>
      <trkpt lat="44.89552" lon="5.3698">
        <ele>1043</ele>
        <time>2020-06-25T13:30:21Z</time>
      </trkpt>
      <trkpt lat="44.89552" lon="5.36978">
        <ele>1043</ele>
        <time>2020-06-25T13:30:22Z</time>
      </trkpt>
      <trkpt lat="44.89552" lon="5.36975">
        <ele>1043</ele>
        <time>2020-06-25T13:30:23Z</time>
      </trkpt>
      <trkpt lat="44.89551" lon="5.36974">
        <ele>1043</ele>
        <time>2020-06-25T13:30:24Z</time>
      </trkpt>
      <trkpt lat="44.8955" lon="5.36974">
        <ele>1043</ele>
        <time>2020-06-25T13:30:25Z</time>
      </trkpt>
      <trkpt lat="44.89548" lon="5.36973">
        <ele>1043</ele>
        <time>2020-06-25T13:30:26Z</time>
      </trkpt>
      <trkpt lat="44.89548" lon="5.36972">
        <ele>1043</ele>
        <time>2020-06-25T13:30:27Z</time>
      </trkpt>
      <trkpt lat="44.89548" lon="5.3697">
        <ele>1043</ele>
        <time>2020-06-25T13:30:28Z</time>
      </trkpt>
      <trkpt lat="44.89548" lon="5.36969">
        <ele>1043</ele>
        <time>2020-06-25T13:30:29Z</time>
      </trkpt>
      <trkpt lat="44.89549" lon="5.36968">
        <ele>1043</ele>
        <time>2020-06-25T13:30:30Z</time>
      </trkpt>
      <trkpt lat="44.89551" lon="5.36969">
        <ele>1043</ele>
        <time>2020-06-25T13:30:32Z</time>
      </trkpt>
      <trkpt lat="44.89551" lon="5.3697">
        <ele>1043</ele>
        <time>2020-06-25T13:30:33Z</time>
      </trkpt>
      <trkpt lat="44.89552" lon="5.36972">
        <ele>1043</ele>
        <time>2020-06-25T13:30:34Z</time>
      </trkpt>
      <trkpt lat="44.89553" lon="5.36973">
        <ele>1043</ele>
        <time>2020-06-25T13:30:35Z</time>
      </trkpt>
      <trkpt lat="44.89554" lon="5.36975">
        <ele>1043</ele>
        <time>2020-06-25T13:30:36Z</time>
      </trkpt>
      <trkpt lat="44.89555" lon="5.36976">
        <ele>1042</ele>
        <time>2020-06-25T13:30:37Z</time>
      </trkpt>
      <trkpt lat="44.89557" lon="5.36976">
        <ele>1042</ele>
        <time>2020-06-25T13:30:38Z</time>
      </trkpt>
      <trkpt lat="44.89557" lon="5.36975">
        <ele>1042</ele>
        <time>2020-06-25T13:30:39Z</time>
      </trkpt>
      <trkpt lat="44.89556" lon="5.36972">
        <ele>1042</ele>
        <time>2020-06-25T13:30:42Z</time>
      </trkpt>
      <trkpt lat="44.89555" lon="5.36972">
        <ele>1043</ele>
        <time>2020-06-25T13:30:43Z</time>
      </trkpt>
      <trkpt lat="44.89551" lon="5.36972">
        <ele>1043</ele>
        <time>2020-06-25T13:30:47Z</time>
      </trkpt>
      <trkpt lat="44.8955" lon="5.36964">
        <ele>1043</ele>
        <time>2020-06-25T13:30:55Z</time>
      </trkpt>
      <trkpt lat="44.89551" lon="5.36964">
        <ele>1043</ele>
        <time>2020-06-25T13:30:57Z</time>
      </trkpt>
      <trkpt lat="44.89551" lon="5.36966">
        <ele>1043</ele>
        <time>2020-06-25T13:30:58Z</time>
      </trkpt>
      <trkpt lat="44.89551" lon="5.36967">
        <ele>1043</ele>
        <time>2020-06-25T13:30:59Z</time>
      </trkpt>
      <trkpt lat="44.89551" lon="5.3697">
        <ele>1043</ele>
        <time>2020-06-25T13:31:12Z</time>
      </trkpt>
      <trkpt lat="44.89553" lon="5.3697">
        <ele>1043</ele>
        <time>2020-06-25T13:31:33Z</time>
      </trkpt>
      <trkpt lat="44.89552" lon="5.36973">
        <ele>1043</ele>
        <time>2020-06-25T13:31:35Z</time>
      </trkpt>
      <trkpt lat="44.8955" lon="5.36974">
        <ele>1043</ele>
        <time>2020-06-25T13:31:36Z</time>
      </trkpt>
      <trkpt lat="44.89548" lon="5.36973">
        <ele>1043</ele>
        <time>2020-06-25T13:31:37Z</time>
      </trkpt>
      <trkpt lat="44.89547" lon="5.36972">
        <ele>1043</ele>
        <time>2020-06-25T13:31:38Z</time>
      </trkpt>
      <trkpt lat="44.89546" lon="5.3697">
        <ele>1043</ele>
        <time>2020-06-25T13:31:39Z</time>
      </trkpt>
      <trkpt lat="44.89545" lon="5.36968">
        <ele>1043</ele>
        <time>2020-06-25T13:31:40Z</time>
      </trkpt>
      <trkpt lat="44.89544" lon="5.36967">
        <ele>1043</ele>
        <time>2020-06-25T13:31:41Z</time>
      </trkpt>
      <trkpt lat="44.89543" lon="5.36966">
        <ele>1043</ele>
        <time>2020-06-25T13:31:42Z</time>
      </trkpt>
      <trkpt lat="44.89536" lon="5.36974">
        <ele>1043</ele>
        <time>2020-06-25T13:31:52Z</time>
      </trkpt>
      <trkpt lat="44.89536" lon="5.36974">
        <ele>1043</ele>
        <time>2020-06-25T13:32:03Z</time>
      </trkpt>
      <trkpt lat="44.89536" lon="5.36976">
        <ele>1043</ele>
        <time>2020-06-25T13:32:13Z</time>
      </trkpt>
      <trkpt lat="44.89537" lon="5.36976">
        <ele>1043</ele>
        <time>2020-06-25T13:32:14Z</time>
      </trkpt>
      <trkpt lat="44.89536" lon="5.36975">
        <ele>1043</ele>
        <time>2020-06-25T13:32:15Z</time>
      </trkpt>
      <trkpt lat="44.89535" lon="5.36972">
        <ele>1043</ele>
        <time>2020-06-25T13:32:29Z</time>
      </trkpt>
      <trkpt lat="44.89536" lon="5.36975">
        <ele>1043</ele>
        <time>2020-06-25T13:32:45Z</time>
      </trkpt>
      <trkpt lat="44.89536" lon="5.36982">
        <ele>1043</ele>
        <time>2020-06-25T13:33:03Z</time>
      </trkpt>
      <trkpt lat="44.89536" lon="5.36983">
        <ele>1043</ele>
        <time>2020-06-25T13:33:04Z</time>
      </trkpt>
      <trkpt lat="44.89535" lon="5.36997">
        <ele>1043</ele>
        <time>2020-06-25T13:33:21Z</time>
      </trkpt>
      <trkpt lat="44.89535" lon="5.36993">
        <ele>1043</ele>
        <time>2020-06-25T13:33:34Z</time>
      </trkpt>
      <trkpt lat="44.8954" lon="5.3699">
        <ele>1043</ele>
        <time>2020-06-25T13:33:57Z</time>
      </trkpt>
      <trkpt lat="44.89543" lon="5.36988">
        <ele>1043</ele>
        <time>2020-06-25T13:34:28Z</time>
      </trkpt>
      <trkpt lat="44.89543" lon="5.36988">
        <ele>1043</ele>
        <time>2020-06-25T13:34:52Z</time>
      </trkpt>
      <trkpt lat="44.89542" lon="5.36987">
        <ele>1043</ele>
        <time>2020-06-25T13:35:26Z</time>
      </trkpt>
      <trkpt lat="44.89547" lon="5.36988">
        <ele>1043</ele>
        <time>2020-06-25T13:35:54Z</time>
      </trkpt>
      <trkpt lat="44.89553" lon="5.36985">
        <ele>1043</ele>
        <time>2020-06-25T13:36:26Z</time>
      </trkpt>
      <trkpt lat="44.89542" lon="5.36986">
        <ele>1043</ele>
        <time>2020-06-25T13:36:59Z</time>
      </trkpt>
      <trkpt lat="44.89541" lon="5.36988">
        <ele>1043</ele>
        <time>2020-06-25T13:37:35Z</time>
      </trkpt>
      <trkpt lat="44.89541" lon="5.36987">
        <ele>1043</ele>
        <time>2020-06-25T13:37:51Z</time>
      </trkpt>
      <trkpt lat="44.89543" lon="5.36989">
        <ele>1043</ele>
        <time>2020-06-25T13:38:17Z</time>
      </trkpt>
      <trkpt lat="44.8955" lon="5.36987">
        <ele>1043</ele>
        <time>2020-06-25T13:38:49Z</time>
      </trkpt>
      <trkpt lat="44.89548" lon="5.36986">
        <ele>1043</ele>
        <time>2020-06-25T13:39:18Z</time>
      </trkpt>
      <trkpt lat="44.89544" lon="5.36987">
        <ele>1043</ele>
        <time>2020-06-25T13:39:38Z</time>
      </trkpt>
      <trkpt lat="44.8954" lon="5.36987">
        <ele>1043</ele>
        <time>2020-06-25T13:40:07Z</time>
      </trkpt>
      <trkpt lat="44.89538" lon="5.36987">
        <ele>1043</ele>
        <time>2020-06-25T13:40:30Z</time>
      </trkpt>
      <trkpt lat="44.89538" lon="5.3699">
        <ele>1043</ele>
        <time>2020-06-25T13:40:50Z</time>
      </trkpt>
      <trkpt lat="44.89545" lon="5.36988">
        <ele>1043</ele>
        <time>2020-06-25T13:41:25Z</time>
      </trkpt>
      <trkpt lat="44.89543" lon="5.36989">
        <ele>1043</ele>
        <time>2020-06-25T13:41:53Z</time>
      </trkpt>
      <trkpt lat="44.89547" lon="5.36988">
        <ele>1043</ele>
        <time>2020-06-25T13:42:18Z</time>
      </trkpt>
      <trkpt lat="44.89547" lon="5.36988">
        <ele>1043</ele>
        <time>2020-06-25T13:42:52Z</time>
      </trkpt>
      <trkpt lat="44.89548" lon="5.36989">
        <ele>1043</ele>
        <time>2020-06-25T13:43:18Z</time>
      </trkpt>
      <trkpt lat="44.89537" lon="5.3699">
        <ele>1043</ele>
        <time>2020-06-25T13:43:47Z</time>
      </trkpt>
      <trkpt lat="44.89537" lon="5.36987">
        <ele>1043</ele>
        <time>2020-06-25T13:44:12Z</time>
      </trkpt>
      <trkpt lat="44.89537" lon="5.36986">
        <ele>1043</ele>
        <time>2020-06-25T13:44:42Z</time>
      </trkpt>
      <trkpt lat="44.89535" lon="5.36988">
        <ele>1043</ele>
        <time>2020-06-25T13:45:06Z</time>
      </trkpt>
      <trkpt lat="44.89539" lon="5.3699">
        <ele>1043</ele>
        <time>2020-06-25T13:45:38Z</time>
      </trkpt>
      <trkpt lat="44.89544" lon="5.36985">
        <ele>1043</ele>
        <time>2020-06-25T13:46:03Z</time>
      </trkpt>
      <trkpt lat="44.89547" lon="5.36985">
        <ele>1043</ele>
        <time>2020-06-25T13:46:19Z</time>
      </trkpt>
      <trkpt lat="44.89547" lon="5.36988">
        <ele>1043</ele>
        <time>2020-06-25T13:46:42Z</time>
      </trkpt>
      <trkpt lat="44.89553" lon="5.36985">
        <ele>1043</ele>
        <time>2020-06-25T13:47:07Z</time>
      </trkpt>
      <trkpt lat="44.89559" lon="5.36987">
        <ele>1042</ele>
        <time>2020-06-25T13:47:26Z</time>
      </trkpt>
      <trkpt lat="44.89547" lon="5.36988">
        <ele>1043</ele>
        <time>2020-06-25T13:47:46Z</time>
      </trkpt>
      <trkpt lat="44.8954" lon="5.36987">
        <ele>1043</ele>
        <time>2020-06-25T13:48:09Z</time>
      </trkpt>
      <trkpt lat="44.89537" lon="5.36987">
        <ele>1043</ele>
        <time>2020-06-25T13:48:36Z</time>
      </trkpt>
      <trkpt lat="44.89538" lon="5.36989">
        <ele>1043</ele>
        <time>2020-06-25T13:49:00Z</time>
      </trkpt>
      <trkpt lat="44.89544" lon="5.36991">
        <ele>1043</ele>
        <time>2020-06-25T13:49:30Z</time>
      </trkpt>
      <trkpt lat="44.89546" lon="5.36991">
        <ele>1043</ele>
        <time>2020-06-25T13:49:54Z</time>
      </trkpt>
      <trkpt lat="44.89544" lon="5.3699">
        <ele>1043</ele>
        <time>2020-06-25T13:50:15Z</time>
      </trkpt>
      <trkpt lat="44.89549" lon="5.36987">
        <ele>1043</ele>
        <time>2020-06-25T13:50:34Z</time>
      </trkpt>
      <trkpt lat="44.89549" lon="5.36987">
        <ele>1043</ele>
        <time>2020-06-25T13:50:49Z</time>
      </trkpt>
      <trkpt lat="44.89551" lon="5.36989">
        <ele>1043</ele>
        <time>2020-06-25T13:51:05Z</time>
      </trkpt>
      <trkpt lat="44.89543" lon="5.3699">
        <ele>1043</ele>
        <time>2020-06-25T13:51:25Z</time>
      </trkpt>
      <trkpt lat="44.89548" lon="5.36991">
        <ele>1043</ele>
        <time>2020-06-25T13:51:49Z</time>
      </trkpt>
      <trkpt lat="44.89548" lon="5.36987">
        <ele>1043</ele>
        <time>2020-06-25T13:52:24Z</time>
      </trkpt>
      <trkpt lat="44.8955" lon="5.3699">
        <ele>1043</ele>
        <time>2020-06-25T13:52:57Z</time>
      </trkpt>
      <trkpt lat="44.89556" lon="5.36988">
        <ele>1042</ele>
        <time>2020-06-25T13:53:21Z</time>
      </trkpt>
      <trkpt lat="44.89549" lon="5.36988">
        <ele>1043</ele>
        <time>2020-06-25T13:53:48Z</time>
      </trkpt>
      <trkpt lat="44.89542" lon="5.36989">
        <ele>1043</ele>
        <time>2020-06-25T13:54:12Z</time>
      </trkpt>
      <trkpt lat="44.89547" lon="5.36985">
        <ele>1043</ele>
        <time>2020-06-25T13:54:34Z</time>
      </trkpt>
      <trkpt lat="44.89547" lon="5.36988">
        <ele>1043</ele>
        <time>2020-06-25T13:55:04Z</time>
      </trkpt>
      <trkpt lat="44.89545" lon="5.36989">
        <ele>1043</ele>
        <time>2020-06-25T13:55:27Z</time>
      </trkpt>
      <trkpt lat="44.89537" lon="5.3699">
        <ele>1043</ele>
        <time>2020-06-25T13:55:57Z</time>
      </trkpt>
      <trkpt lat="44.89531" lon="5.3699">
        <ele>1044</ele>
        <time>2020-06-25T13:56:37Z</time>
      </trkpt>
      <trkpt lat="44.89529" lon="5.36989">
        <ele>1044</ele>
        <time>2020-06-25T13:57:03Z</time>
      </trkpt>
      <trkpt lat="44.89528" lon="5.36991">
        <ele>1044</ele>
        <time>2020-06-25T13:57:24Z</time>
      </trkpt>
      <trkpt lat="44.89529" lon="5.36991">
        <ele>1044</ele>
        <time>2020-06-25T13:57:58Z</time>
      </trkpt>
      <trkpt lat="44.89528" lon="5.36992">
        <ele>1044</ele>
        <time>2020-06-25T13:58:21Z</time>
      </trkpt>
      <trkpt lat="44.8953" lon="5.36993">
        <ele>1044</ele>
        <time>2020-06-25T13:58:43Z</time>
      </trkpt>
      <trkpt lat="44.89531" lon="5.36987">
        <ele>1044</ele>
        <time>2020-06-25T13:59:17Z</time>
      </trkpt>
      <trkpt lat="44.89531" lon="5.36988">
        <ele>1044</ele>
        <time>2020-06-25T13:59:46Z</time>
      </trkpt>
      <trkpt lat="44.89534" lon="5.36993">
        <ele>1043</ele>
        <time>2020-06-25T14:00:27Z</time>
      </trkpt>
      <trkpt lat="44.89537" lon="5.36993">
        <ele>1043</ele>
        <time>2020-06-25T14:01:09Z</time>
      </trkpt>
      <trkpt lat="44.89537" lon="5.3699">
        <ele>1043</ele>
        <time>2020-06-25T14:01:53Z</time>
      </trkpt>
      <trkpt lat="44.8953" lon="5.36988">
        <ele>1044</ele>
        <time>2020-06-25T14:02:30Z</time>
      </trkpt>
      <trkpt lat="44.89532" lon="5.3699">
        <ele>1043</ele>
        <time>2020-06-25T14:02:59Z</time>
      </trkpt>
      <trkpt lat="44.89533" lon="5.36991">
        <ele>1043</ele>
        <time>2020-06-25T14:03:00Z</time>
      </trkpt>
      <trkpt lat="44.89539" lon="5.36999">
        <ele>1043</ele>
        <time>2020-06-25T14:03:13Z</time>
      </trkpt>
      <trkpt lat="44.89541" lon="5.37012">
        <ele>1043</ele>
        <time>2020-06-25T14:03:25Z</time>
      </trkpt>
      <trkpt lat="44.89543" lon="5.37038">
        <ele>1043</ele>
        <time>2020-06-25T14:03:38Z</time>
      </trkpt>
      <trkpt lat="44.89543" lon="5.37045">
        <ele>1043</ele>
        <time>2020-06-25T14:03:51Z</time>
      </trkpt>
      <trkpt lat="44.89543" lon="5.37046">
        <ele>1043</ele>
        <time>2020-06-25T14:03:52Z</time>
      </trkpt>
      <trkpt lat="44.89543" lon="5.37047">
        <ele>1043</ele>
        <time>2020-06-25T14:03:53Z</time>
      </trkpt>
      <trkpt lat="44.89543" lon="5.37049">
        <ele>1043</ele>
        <time>2020-06-25T14:03:54Z</time>
      </trkpt>
      <trkpt lat="44.89543" lon="5.3705">
        <ele>1043</ele>
        <time>2020-06-25T14:03:55Z</time>
      </trkpt>
      <trkpt lat="44.89545" lon="5.37055">
        <ele>1043</ele>
        <time>2020-06-25T14:04:08Z</time>
      </trkpt>
      <trkpt lat="44.89546" lon="5.37057">
        <ele>1043</ele>
        <time>2020-06-25T14:04:56Z</time>
      </trkpt>
      <trkpt lat="44.89546" lon="5.37058">
        <ele>1043</ele>
        <time>2020-06-25T14:05:30Z</time>
      </trkpt>
      <trkpt lat="44.89545" lon="5.37056">
        <ele>1043</ele>
        <time>2020-06-25T14:05:42Z</time>
      </trkpt>
      <trkpt lat="44.89544" lon="5.37056">
        <ele>1043</ele>
        <time>2020-06-25T14:05:44Z</time>
      </trkpt>
      <trkpt lat="44.89539" lon="5.37059">
        <ele>1043</ele>
        <time>2020-06-25T14:05:48Z</time>
      </trkpt>
      <trkpt lat="44.89535" lon="5.37069">
        <ele>1043</ele>
        <time>2020-06-25T14:05:52Z</time>
      </trkpt>
      <trkpt lat="44.89536" lon="5.37073">
        <ele>1043</ele>
        <time>2020-06-25T14:05:53Z</time>
      </trkpt>
      <trkpt lat="44.89536" lon="5.37075">
        <ele>1043</ele>
        <time>2020-06-25T14:05:54Z</time>
      </trkpt>
      <trkpt lat="44.89537" lon="5.37078">
        <ele>1043</ele>
        <time>2020-06-25T14:05:55Z</time>
      </trkpt>
      <trkpt lat="44.89539" lon="5.37081">
        <ele>1043</ele>
        <time>2020-06-25T14:05:56Z</time>
      </trkpt>
      <trkpt lat="44.8954" lon="5.37083">
        <ele>1043</ele>
        <time>2020-06-25T14:05:57Z</time>
      </trkpt>
      <trkpt lat="44.89542" lon="5.37085">
        <ele>1043</ele>
        <time>2020-06-25T14:05:58Z</time>
      </trkpt>
      <trkpt lat="44.89544" lon="5.37086">
        <ele>1043</ele>
        <time>2020-06-25T14:05:59Z</time>
      </trkpt>
      <trkpt lat="44.89546" lon="5.37086">
        <ele>1043</ele>
        <time>2020-06-25T14:06:00Z</time>
      </trkpt>
      <trkpt lat="44.89548" lon="5.37086">
        <ele>1043</ele>
        <time>2020-06-25T14:06:01Z</time>
      </trkpt>
      <trkpt lat="44.8955" lon="5.37086">
        <ele>1043</ele>
        <time>2020-06-25T14:06:02Z</time>
      </trkpt>
      <trkpt lat="44.89552" lon="5.37086">
        <ele>1043</ele>
        <time>2020-06-25T14:06:03Z</time>
      </trkpt>
      <trkpt lat="44.89553" lon="5.37085">
        <ele>1043</ele>
        <time>2020-06-25T14:06:04Z</time>
      </trkpt>
      <trkpt lat="44.89555" lon="5.37083">
        <ele>1043</ele>
        <time>2020-06-25T14:06:05Z</time>
      </trkpt>
      <trkpt lat="44.89556" lon="5.37081">
        <ele>1043</ele>
        <time>2020-06-25T14:06:06Z</time>
      </trkpt>
      <trkpt lat="44.89557" lon="5.37079">
        <ele>1043</ele>
        <time>2020-06-25T14:06:07Z</time>
      </trkpt>
      <trkpt lat="44.89557" lon="5.37077">
        <ele>1043</ele>
        <time>2020-06-25T14:06:08Z</time>
      </trkpt>
      <trkpt lat="44.89558" lon="5.37074">
        <ele>1042</ele>
        <time>2020-06-25T14:06:09Z</time>
      </trkpt>
      <trkpt lat="44.89557" lon="5.37072">
        <ele>1042</ele>
        <time>2020-06-25T14:06:10Z</time>
      </trkpt>
      <trkpt lat="44.89555" lon="5.37071">
        <ele>1043</ele>
        <time>2020-06-25T14:06:11Z</time>
      </trkpt>
      <trkpt lat="44.89553" lon="5.37072">
        <ele>1043</ele>
        <time>2020-06-25T14:06:12Z</time>
      </trkpt>
      <trkpt lat="44.89552" lon="5.37072">
        <ele>1043</ele>
        <time>2020-06-25T14:06:13Z</time>
      </trkpt>
      <trkpt lat="44.89551" lon="5.37074">
        <ele>1043</ele>
        <time>2020-06-25T14:06:14Z</time>
      </trkpt>
      <trkpt lat="44.89551" lon="5.37075">
        <ele>1043</ele>
        <time>2020-06-25T14:06:15Z</time>
      </trkpt>
      <trkpt lat="44.89552" lon="5.37078">
        <ele>1043</ele>
        <time>2020-06-25T14:06:16Z</time>
      </trkpt>
      <trkpt lat="44.89553" lon="5.37079">
        <ele>1043</ele>
        <time>2020-06-25T14:06:17Z</time>
      </trkpt>
      <trkpt lat="44.89556" lon="5.3708">
        <ele>1043</ele>
        <time>2020-06-25T14:06:18Z</time>
      </trkpt>
      <trkpt lat="44.89557" lon="5.3708">
        <ele>1043</ele>
        <time>2020-06-25T14:06:19Z</time>
      </trkpt>
      <trkpt lat="44.89566" lon="5.37077">
        <ele>1042</ele>
        <time>2020-06-25T14:06:24Z</time>
      </trkpt>
      <trkpt lat="44.896" lon="5.3707">
        <ele>1041</ele>
        <time>2020-06-25T14:06:38Z</time>
      </trkpt>
      <trkpt lat="44.89606" lon="5.37062">
        <ele>1041</ele>
        <time>2020-06-25T14:06:40Z</time>
      </trkpt>
      <trkpt lat="44.89609" lon="5.37057">
        <ele>1041</ele>
        <time>2020-06-25T14:06:41Z</time>
      </trkpt>
      <trkpt lat="44.89611" lon="5.3705">
        <ele>1041</ele>
        <time>2020-06-25T14:06:42Z</time>
      </trkpt>
      <trkpt lat="44.89615" lon="5.37034">
        <ele>1041</ele>
        <time>2020-06-25T14:06:44Z</time>
      </trkpt>
      <trkpt lat="44.8962" lon="5.37016">
        <ele>1041</ele>
        <time>2020-06-25T14:06:46Z</time>
      </trkpt>
      <trkpt lat="44.89628" lon="5.36984">
        <ele>1040</ele>
        <time>2020-06-25T14:06:49Z</time>
      </trkpt>
      <trkpt lat="44.89632" lon="5.36974">
        <ele>1040</ele>
        <time>2020-06-25T14:06:50Z</time>
      </trkpt>
      <trkpt lat="44.89637" lon="5.36965">
        <ele>1040</ele>
        <time>2020-06-25T14:06:51Z</time>
      </trkpt>
      <trkpt lat="44.89642" lon="5.36957">
        <ele>1040</ele>
        <time>2020-06-25T14:06:52Z</time>
      </trkpt>
      <trkpt lat="44.89649" lon="5.36949">
        <ele>1040</ele>
        <time>2020-06-25T14:06:53Z</time>
      </trkpt>
      <trkpt lat="44.89657" lon="5.36942">
        <ele>1040</ele>
        <time>2020-06-25T14:06:54Z</time>
      </trkpt>
      <trkpt lat="44.89664" lon="5.36936">
        <ele>1040</ele>
        <time>2020-06-25T14:06:55Z</time>
      </trkpt>
      <trkpt lat="44.89671" lon="5.36932">
        <ele>1040</ele>
        <time>2020-06-25T14:06:56Z</time>
      </trkpt>
      <trkpt lat="44.89752" lon="5.36906">
        <ele>1039</ele>
        <time>2020-06-25T14:07:08Z</time>
      </trkpt>
      <trkpt lat="44.89802" lon="5.36903">
        <ele>1039</ele>
        <time>2020-06-25T14:07:20Z</time>
      </trkpt>
      <trkpt lat="44.89847" lon="5.36916">
        <ele>1041</ele>
        <time>2020-06-25T14:07:35Z</time>
      </trkpt>
      <trkpt lat="44.89862" lon="5.36922">
        <ele>1042</ele>
        <time>2020-06-25T14:07:40Z</time>
      </trkpt>
      <trkpt lat="44.89897" lon="5.36944">
        <ele>1044</ele>
        <time>2020-06-25T14:07:53Z</time>
      </trkpt>
      <trkpt lat="44.89931" lon="5.36969">
        <ele>1045</ele>
        <time>2020-06-25T14:08:07Z</time>
      </trkpt>
      <trkpt lat="44.89967" lon="5.36997">
        <ele>1047</ele>
        <time>2020-06-25T14:08:23Z</time>
      </trkpt>
      <trkpt lat="44.90003" lon="5.37031">
        <ele>1048</ele>
        <time>2020-06-25T14:08:40Z</time>
      </trkpt>
      <trkpt lat="44.90039" lon="5.37073">
        <ele>1049</ele>
        <time>2020-06-25T14:08:57Z</time>
      </trkpt>
      <trkpt lat="44.90071" lon="5.37113">
        <ele>1050</ele>
        <time>2020-06-25T14:09:12Z</time>
      </trkpt>
      <trkpt lat="44.90108" lon="5.37143">
        <ele>1051</ele>
        <time>2020-06-25T14:09:28Z</time>
      </trkpt>
      <trkpt lat="44.90151" lon="5.37153">
        <ele>1053</ele>
        <time>2020-06-25T14:09:46Z</time>
      </trkpt>
      <trkpt lat="44.90192" lon="5.37155">
        <ele>1055</ele>
        <time>2020-06-25T14:10:04Z</time>
      </trkpt>
      <trkpt lat="44.90223" lon="5.37158">
        <ele>1056</ele>
        <time>2020-06-25T14:10:18Z</time>
      </trkpt>
      <trkpt lat="44.90258" lon="5.3716">
        <ele>1058</ele>
        <time>2020-06-25T14:10:33Z</time>
      </trkpt>
      <trkpt lat="44.90283" lon="5.37161">
        <ele>1059</ele>
        <time>2020-06-25T14:10:44Z</time>
      </trkpt>
      <trkpt lat="44.90315" lon="5.37165">
        <ele>1060</ele>
        <time>2020-06-25T14:11:00Z</time>
      </trkpt>
      <trkpt lat="44.90353" lon="5.37171">
        <ele>1061</ele>
        <time>2020-06-25T14:11:18Z</time>
      </trkpt>
      <trkpt lat="44.90354" lon="5.37171">
        <ele>1061</ele>
        <time>2020-06-25T14:11:19Z</time>
      </trkpt>
      <trkpt lat="44.90356" lon="5.3717">
        <ele>1061</ele>
        <time>2020-06-25T14:11:20Z</time>
      </trkpt>
      <trkpt lat="44.90357" lon="5.37169">
        <ele>1061</ele>
        <time>2020-06-25T14:11:21Z</time>
      </trkpt>
      <trkpt lat="44.90358" lon="5.37168">
        <ele>1061</ele>
        <time>2020-06-25T14:11:22Z</time>
      </trkpt>
      <trkpt lat="44.90359" lon="5.37167">
        <ele>1061</ele>
        <time>2020-06-25T14:11:23Z</time>
      </trkpt>
      <trkpt lat="44.9036" lon="5.37166">
        <ele>1061</ele>
        <time>2020-06-25T14:11:24Z</time>
      </trkpt>
      <trkpt lat="44.90361" lon="5.37164">
        <ele>1061</ele>
        <time>2020-06-25T14:11:25Z</time>
      </trkpt>
      <trkpt lat="44.9036" lon="5.37163">
        <ele>1061</ele>
        <time>2020-06-25T14:11:26Z</time>
      </trkpt>
      <trkpt lat="44.90358" lon="5.37164">
        <ele>1061</ele>
        <time>2020-06-25T14:11:27Z</time>
      </trkpt>
      <trkpt lat="44.90357" lon="5.37167">
        <ele>1061</ele>
        <time>2020-06-25T14:11:28Z</time>
      </trkpt>
      <trkpt lat="44.90358" lon="5.37169">
        <ele>1061</ele>
        <time>2020-06-25T14:11:29Z</time>
      </trkpt>
      <trkpt lat="44.90361" lon="5.37172">
        <ele>1061</ele>
        <time>2020-06-25T14:11:30Z</time>
      </trkpt>
      <trkpt lat="44.90363" lon="5.37173">
        <ele>1060</ele>
        <time>2020-06-25T14:11:31Z</time>
      </trkpt>
      <trkpt lat="44.90365" lon="5.37174">
        <ele>1060</ele>
        <time>2020-06-25T14:11:32Z</time>
      </trkpt>
      <trkpt lat="44.90367" lon="5.37175">
        <ele>1060</ele>
        <time>2020-06-25T14:11:33Z</time>
      </trkpt>
      <trkpt lat="44.90369" lon="5.37175">
        <ele>1060</ele>
        <time>2020-06-25T14:11:34Z</time>
      </trkpt>
      <trkpt lat="44.90372" lon="5.37175">
        <ele>1060</ele>
        <time>2020-06-25T14:11:35Z</time>
      </trkpt>
      <trkpt lat="44.90374" lon="5.37175">
        <ele>1060</ele>
        <time>2020-06-25T14:11:36Z</time>
      </trkpt>
      <trkpt lat="44.90376" lon="5.37173">
        <ele>1060</ele>
        <time>2020-06-25T14:11:37Z</time>
      </trkpt>
      <trkpt lat="44.90376" lon="5.3717">
        <ele>1060</ele>
        <time>2020-06-25T14:11:38Z</time>
      </trkpt>
      <trkpt lat="44.90374" lon="5.37169">
        <ele>1061</ele>
        <time>2020-06-25T14:11:39Z</time>
      </trkpt>
      <trkpt lat="44.90373" lon="5.3717">
        <ele>1061</ele>
        <time>2020-06-25T14:11:40Z</time>
      </trkpt>
      <trkpt lat="44.90373" lon="5.37171">
        <ele>1061</ele>
        <time>2020-06-25T14:11:41Z</time>
      </trkpt>
      <trkpt lat="44.90371" lon="5.37172">
        <ele>1061</ele>
        <time>2020-06-25T14:11:42Z</time>
      </trkpt>
      <trkpt lat="44.9037" lon="5.37172">
        <ele>1061</ele>
        <time>2020-06-25T14:11:43Z</time>
      </trkpt>
      <trkpt lat="44.90365" lon="5.37172">
        <ele>1061</ele>
        <time>2020-06-25T14:11:47Z</time>
      </trkpt>
      <trkpt lat="44.90364" lon="5.37169">
        <ele>1061</ele>
        <time>2020-06-25T14:11:48Z</time>
      </trkpt>
      <trkpt lat="44.90365" lon="5.37167">
        <ele>1061</ele>
        <time>2020-06-25T14:11:49Z</time>
      </trkpt>
      <trkpt lat="44.90366" lon="5.37167">
        <ele>1061</ele>
        <time>2020-06-25T14:11:50Z</time>
      </trkpt>
      <trkpt lat="44.90368" lon="5.37167">
        <ele>1061</ele>
        <time>2020-06-25T14:11:51Z</time>
      </trkpt>
      <trkpt lat="44.9037" lon="5.37168">
        <ele>1061</ele>
        <time>2020-06-25T14:11:52Z</time>
      </trkpt>
      <trkpt lat="44.90371" lon="5.37168">
        <ele>1061</ele>
        <time>2020-06-25T14:11:53Z</time>
      </trkpt>
      <trkpt lat="44.90372" lon="5.37169">
        <ele>1061</ele>
        <time>2020-06-25T14:11:54Z</time>
      </trkpt>
      <trkpt lat="44.90373" lon="5.3717">
        <ele>1061</ele>
        <time>2020-06-25T14:11:55Z</time>
      </trkpt>
      <trkpt lat="44.90374" lon="5.37172">
        <ele>1060</ele>
        <time>2020-06-25T14:11:56Z</time>
      </trkpt>
      <trkpt lat="44.90376" lon="5.37176">
        <ele>1060</ele>
        <time>2020-06-25T14:11:59Z</time>
      </trkpt>
      <trkpt lat="44.90378" lon="5.37176">
        <ele>1060</ele>
        <time>2020-06-25T14:12:00Z</time>
      </trkpt>
      <trkpt lat="44.90379" lon="5.37177">
        <ele>1060</ele>
        <time>2020-06-25T14:12:01Z</time>
      </trkpt>
      <trkpt lat="44.9038" lon="5.37177">
        <ele>1060</ele>
        <time>2020-06-25T14:12:02Z</time>
      </trkpt>
      <trkpt lat="44.90382" lon="5.37177">
        <ele>1060</ele>
        <time>2020-06-25T14:12:03Z</time>
      </trkpt>
      <trkpt lat="44.90389" lon="5.37179">
        <ele>1059</ele>
        <time>2020-06-25T14:12:09Z</time>
      </trkpt>
      <trkpt lat="44.9039" lon="5.37176">
        <ele>1060</ele>
        <time>2020-06-25T14:12:10Z</time>
      </trkpt>
      <trkpt lat="44.90389" lon="5.37174">
        <ele>1060</ele>
        <time>2020-06-25T14:12:11Z</time>
      </trkpt>
      <trkpt lat="44.90388" lon="5.37173">
        <ele>1060</ele>
        <time>2020-06-25T14:12:12Z</time>
      </trkpt>
      <trkpt lat="44.90386" lon="5.37173">
        <ele>1060</ele>
        <time>2020-06-25T14:12:13Z</time>
      </trkpt>
      <trkpt lat="44.90384" lon="5.37173">
        <ele>1060</ele>
        <time>2020-06-25T14:12:14Z</time>
      </trkpt>
      <trkpt lat="44.90381" lon="5.37174">
        <ele>1060</ele>
        <time>2020-06-25T14:12:15Z</time>
      </trkpt>
      <trkpt lat="44.90379" lon="5.37174">
        <ele>1060</ele>
        <time>2020-06-25T14:12:16Z</time>
      </trkpt>
      <trkpt lat="44.90376" lon="5.37174">
        <ele>1060</ele>
        <time>2020-06-25T14:12:17Z</time>
      </trkpt>
      <trkpt lat="44.9037" lon="5.37175">
        <ele>1060</ele>
        <time>2020-06-25T14:12:20Z</time>
      </trkpt>
      <trkpt lat="44.90368" lon="5.37174">
        <ele>1060</ele>
        <time>2020-06-25T14:12:21Z</time>
      </trkpt>
      <trkpt lat="44.90367" lon="5.37173">
        <ele>1060</ele>
        <time>2020-06-25T14:12:22Z</time>
      </trkpt>
      <trkpt lat="44.90366" lon="5.37173">
        <ele>1060</ele>
        <time>2020-06-25T14:12:23Z</time>
      </trkpt>
      <trkpt lat="44.90363" lon="5.37174">
        <ele>1060</ele>
        <time>2020-06-25T14:12:33Z</time>
      </trkpt>
      <trkpt lat="44.90364" lon="5.37174">
        <ele>1060</ele>
        <time>2020-06-25T14:12:44Z</time>
      </trkpt>
      <trkpt lat="44.90362" lon="5.37173">
        <ele>1061</ele>
        <time>2020-06-25T14:12:58Z</time>
      </trkpt>
      <trkpt lat="44.90362" lon="5.37174">
        <ele>1060</ele>
        <time>2020-06-25T14:13:17Z</time>
      </trkpt>
      <trkpt lat="44.90361" lon="5.37173">
        <ele>1060</ele>
        <time>2020-06-25T14:13:35Z</time>
      </trkpt>
      <trkpt lat="44.9036" lon="5.37172">
        <ele>1061</ele>
        <time>2020-06-25T14:13:36Z</time>
      </trkpt>
      <trkpt lat="44.90361" lon="5.37172">
        <ele>1061</ele>
        <time>2020-06-25T14:13:45Z</time>
      </trkpt>
      <trkpt lat="44.90361" lon="5.37173">
        <ele>1060</ele>
        <time>2020-06-25T14:14:06Z</time>
      </trkpt>
      <trkpt lat="44.90363" lon="5.37174">
        <ele>1060</ele>
        <time>2020-06-25T14:14:12Z</time>
      </trkpt>
      <trkpt lat="44.90365" lon="5.37174">
        <ele>1060</ele>
        <time>2020-06-25T14:14:13Z</time>
      </trkpt>
      <trkpt lat="44.90367" lon="5.37175">
        <ele>1060</ele>
        <time>2020-06-25T14:14:14Z</time>
      </trkpt>
      <trkpt lat="44.90369" lon="5.37176">
        <ele>1060</ele>
        <time>2020-06-25T14:14:15Z</time>
      </trkpt>
      <trkpt lat="44.90372" lon="5.37177">
        <ele>1060</ele>
        <time>2020-06-25T14:14:16Z</time>
      </trkpt>
      <trkpt lat="44.90375" lon="5.37178">
        <ele>1060</ele>
        <time>2020-06-25T14:14:17Z</time>
      </trkpt>
      <trkpt lat="44.90426" lon="5.37196">
        <ele>1058</ele>
        <time>2020-06-25T14:14:29Z</time>
      </trkpt>
      <trkpt lat="44.90491" lon="5.37239">
        <ele>1056</ele>
        <time>2020-06-25T14:14:39Z</time>
      </trkpt>
      <trkpt lat="44.90555" lon="5.37279">
        <ele>1054</ele>
        <time>2020-06-25T14:14:47Z</time>
      </trkpt>
      <trkpt lat="44.90618" lon="5.37314">
        <ele>1051</ele>
        <time>2020-06-25T14:14:54Z</time>
      </trkpt>
      <trkpt lat="44.90627" lon="5.37319">
        <ele>1051</ele>
        <time>2020-06-25T14:14:55Z</time>
      </trkpt>
      <trkpt lat="44.90725" lon="5.37382">
        <ele>1046</ele>
        <time>2020-06-25T14:15:07Z</time>
      </trkpt>
      <trkpt lat="44.90731" lon="5.37388">
        <ele>1045</ele>
        <time>2020-06-25T14:15:08Z</time>
      </trkpt>
      <trkpt lat="44.90736" lon="5.37395">
        <ele>1045</ele>
        <time>2020-06-25T14:15:09Z</time>
      </trkpt>
      <trkpt lat="44.90741" lon="5.37403">
        <ele>1044</ele>
        <time>2020-06-25T14:15:10Z</time>
      </trkpt>
      <trkpt lat="44.90745" lon="5.37411">
        <ele>1044</ele>
        <time>2020-06-25T14:15:11Z</time>
      </trkpt>
      <trkpt lat="44.90747" lon="5.37416">
        <ele>1044</ele>
        <time>2020-06-25T14:15:12Z</time>
      </trkpt>
      <trkpt lat="44.90754" lon="5.37433">
        <ele>1043</ele>
        <time>2020-06-25T14:15:15Z</time>
      </trkpt>
      <trkpt lat="44.90778" lon="5.37493">
        <ele>1040</ele>
        <time>2020-06-25T14:15:29Z</time>
      </trkpt>
      <trkpt lat="44.90798" lon="5.37551">
        <ele>1040</ele>
        <time>2020-06-25T14:15:38Z</time>
      </trkpt>
      <trkpt lat="44.90799" lon="5.37562">
        <ele>1040</ele>
        <time>2020-06-25T14:15:39Z</time>
      </trkpt>
      <trkpt lat="44.90799" lon="5.37571">
        <ele>1040</ele>
        <time>2020-06-25T14:15:40Z</time>
      </trkpt>
      <trkpt lat="44.90799" lon="5.37581">
        <ele>1040</ele>
        <time>2020-06-25T14:15:41Z</time>
      </trkpt>
      <trkpt lat="44.90798" lon="5.37591">
        <ele>1041</ele>
        <time>2020-06-25T14:15:42Z</time>
      </trkpt>
      <trkpt lat="44.90792" lon="5.37729">
        <ele>1042</ele>
        <time>2020-06-25T14:15:56Z</time>
      </trkpt>
      <trkpt lat="44.90795" lon="5.37816">
        <ele>1042</ele>
        <time>2020-06-25T14:16:08Z</time>
      </trkpt>
      <trkpt lat="44.90794" lon="5.37822">
        <ele>1042</ele>
        <time>2020-06-25T14:16:09Z</time>
      </trkpt>
      <trkpt lat="44.90792" lon="5.3784">
        <ele>1042</ele>
        <time>2020-06-25T14:16:12Z</time>
      </trkpt>
      <trkpt lat="44.90788" lon="5.37902">
        <ele>1042</ele>
        <time>2020-06-25T14:16:26Z</time>
      </trkpt>
      <trkpt lat="44.90789" lon="5.37906">
        <ele>1042</ele>
        <time>2020-06-25T14:16:27Z</time>
      </trkpt>
      <trkpt lat="44.90791" lon="5.37909">
        <ele>1042</ele>
        <time>2020-06-25T14:16:28Z</time>
      </trkpt>
      <trkpt lat="44.90793" lon="5.37912">
        <ele>1042</ele>
        <time>2020-06-25T14:16:29Z</time>
      </trkpt>
      <trkpt lat="44.90795" lon="5.37915">
        <ele>1042</ele>
        <time>2020-06-25T14:16:30Z</time>
      </trkpt>
      <trkpt lat="44.90796" lon="5.37918">
        <ele>1042</ele>
        <time>2020-06-25T14:16:31Z</time>
      </trkpt>
      <trkpt lat="44.90797" lon="5.37921">
        <ele>1042</ele>
        <time>2020-06-25T14:16:32Z</time>
      </trkpt>
      <trkpt lat="44.90798" lon="5.37922">
        <ele>1042</ele>
        <time>2020-06-25T14:16:33Z</time>
      </trkpt>
      <trkpt lat="44.90797" lon="5.37925">
        <ele>1042</ele>
        <time>2020-06-25T14:16:46Z</time>
      </trkpt>
      <trkpt lat="44.90798" lon="5.3792">
        <ele>1042</ele>
        <time>2020-06-25T14:16:55Z</time>
      </trkpt>
      <trkpt lat="44.90788" lon="5.3791">
        <ele>1042</ele>
        <time>2020-06-25T14:17:01Z</time>
      </trkpt>
      <trkpt lat="44.90786" lon="5.37912">
        <ele>1042</ele>
        <time>2020-06-25T14:17:02Z</time>
      </trkpt>
      <trkpt lat="44.90785" lon="5.37914">
        <ele>1042</ele>
        <time>2020-06-25T14:17:03Z</time>
      </trkpt>
      <trkpt lat="44.90784" lon="5.37917">
        <ele>1043</ele>
        <time>2020-06-25T14:17:04Z</time>
      </trkpt>
      <trkpt lat="44.90784" lon="5.3792">
        <ele>1043</ele>
        <time>2020-06-25T14:17:05Z</time>
      </trkpt>
      <trkpt lat="44.90784" lon="5.37923">
        <ele>1043</ele>
        <time>2020-06-25T14:17:06Z</time>
      </trkpt>
      <trkpt lat="44.90776" lon="5.37966">
        <ele>1043</ele>
        <time>2020-06-25T14:17:18Z</time>
      </trkpt>
      <trkpt lat="44.90766" lon="5.3802">
        <ele>1043</ele>
        <time>2020-06-25T14:17:34Z</time>
      </trkpt>
      <trkpt lat="44.9076" lon="5.38064">
        <ele>1044</ele>
        <time>2020-06-25T14:17:50Z</time>
      </trkpt>
      <trkpt lat="44.9076" lon="5.38093">
        <ele>1044</ele>
        <time>2020-06-25T14:18:05Z</time>
      </trkpt>
      <trkpt lat="44.9076" lon="5.38092">
        <ele>1044</ele>
        <time>2020-06-25T14:18:29Z</time>
      </trkpt>
      <trkpt lat="44.90761" lon="5.38093">
        <ele>1044</ele>
        <time>2020-06-25T14:18:46Z</time>
      </trkpt>
      <trkpt lat="44.90763" lon="5.38094">
        <ele>1044</ele>
        <time>2020-06-25T14:18:47Z</time>
      </trkpt>
      <trkpt lat="44.90765" lon="5.38095">
        <ele>1044</ele>
        <time>2020-06-25T14:18:48Z</time>
      </trkpt>
      <trkpt lat="44.90772" lon="5.38095">
        <ele>1043</ele>
        <time>2020-06-25T14:18:50Z</time>
      </trkpt>
      <trkpt lat="44.90778" lon="5.38098">
        <ele>1043</ele>
        <time>2020-06-25T14:18:51Z</time>
      </trkpt>
      <trkpt lat="44.90782" lon="5.38103">
        <ele>1043</ele>
        <time>2020-06-25T14:18:52Z</time>
      </trkpt>
      <trkpt lat="44.90787" lon="5.3811">
        <ele>1042</ele>
        <time>2020-06-25T14:18:53Z</time>
      </trkpt>
      <trkpt lat="44.90792" lon="5.38116">
        <ele>1042</ele>
        <time>2020-06-25T14:18:54Z</time>
      </trkpt>
      <trkpt lat="44.90821" lon="5.38165">
        <ele>1042</ele>
        <time>2020-06-25T14:19:00Z</time>
      </trkpt>
      <trkpt lat="44.90827" lon="5.3817">
        <ele>1042</ele>
        <time>2020-06-25T14:19:01Z</time>
      </trkpt>
      <trkpt lat="44.90835" lon="5.38173">
        <ele>1042</ele>
        <time>2020-06-25T14:19:02Z</time>
      </trkpt>
      <trkpt lat="44.90863" lon="5.3818">
        <ele>1042</ele>
        <time>2020-06-25T14:19:06Z</time>
      </trkpt>
      <trkpt lat="44.90867" lon="5.38181">
        <ele>1042</ele>
        <time>2020-06-25T14:19:07Z</time>
      </trkpt>
      <trkpt lat="44.90871" lon="5.38181">
        <ele>1042</ele>
        <time>2020-06-25T14:19:08Z</time>
      </trkpt>
      <trkpt lat="44.90873" lon="5.38181">
        <ele>1042</ele>
        <time>2020-06-25T14:19:09Z</time>
      </trkpt>
      <trkpt lat="44.90875" lon="5.38181">
        <ele>1042</ele>
        <time>2020-06-25T14:19:10Z</time>
      </trkpt>
      <trkpt lat="44.90878" lon="5.38181">
        <ele>1042</ele>
        <time>2020-06-25T14:19:11Z</time>
      </trkpt>
      <trkpt lat="44.9088" lon="5.38181">
        <ele>1042</ele>
        <time>2020-06-25T14:19:12Z</time>
      </trkpt>
      <trkpt lat="44.90916" lon="5.3817">
        <ele>1043</ele>
        <time>2020-06-25T14:19:26Z</time>
      </trkpt>
      <trkpt lat="44.90947" lon="5.38171">
        <ele>1044</ele>
        <time>2020-06-25T14:19:41Z</time>
      </trkpt>
      <trkpt lat="44.9097" lon="5.38171">
        <ele>1046</ele>
        <time>2020-06-25T14:19:55Z</time>
      </trkpt>
      <trkpt lat="44.91005" lon="5.38166">
        <ele>1047</ele>
        <time>2020-06-25T14:20:11Z</time>
      </trkpt>
      <trkpt lat="44.91011" lon="5.38162">
        <ele>1047</ele>
        <time>2020-06-25T14:20:14Z</time>
      </trkpt>
      <trkpt lat="44.91013" lon="5.38159">
        <ele>1047</ele>
        <time>2020-06-25T14:20:15Z</time>
      </trkpt>
      <trkpt lat="44.91043" lon="5.38125">
        <ele>1048</ele>
        <time>2020-06-25T14:20:31Z</time>
      </trkpt>
      <trkpt lat="44.91066" lon="5.38108">
        <ele>1049</ele>
        <time>2020-06-25T14:20:43Z</time>
      </trkpt>
      <trkpt lat="44.91094" lon="5.38079">
        <ele>1050</ele>
        <time>2020-06-25T14:20:54Z</time>
      </trkpt>
      <trkpt lat="44.91102" lon="5.38069">
        <ele>1051</ele>
        <time>2020-06-25T14:20:57Z</time>
      </trkpt>
      <trkpt lat="44.91132" lon="5.3803">
        <ele>1052</ele>
        <time>2020-06-25T14:21:10Z</time>
      </trkpt>
      <trkpt lat="44.91146" lon="5.37997">
        <ele>1052</ele>
        <time>2020-06-25T14:21:27Z</time>
      </trkpt>
      <trkpt lat="44.91166" lon="5.37965">
        <ele>1053</ele>
        <time>2020-06-25T14:21:43Z</time>
      </trkpt>
      <trkpt lat="44.9117" lon="5.37961">
        <ele>1053</ele>
        <time>2020-06-25T14:21:53Z</time>
      </trkpt>
      <trkpt lat="44.9118" lon="5.37958">
        <ele>1054</ele>
        <time>2020-06-25T14:22:06Z</time>
      </trkpt>
      <trkpt lat="44.91201" lon="5.37954">
        <ele>1054</ele>
        <time>2020-06-25T14:22:19Z</time>
      </trkpt>
      <trkpt lat="44.91228" lon="5.37953">
        <ele>1055</ele>
        <time>2020-06-25T14:22:32Z</time>
      </trkpt>
      <trkpt lat="44.91258" lon="5.37975">
        <ele>1058</ele>
        <time>2020-06-25T14:22:48Z</time>
      </trkpt>
      <trkpt lat="44.91284" lon="5.37992">
        <ele>1061</ele>
        <time>2020-06-25T14:23:03Z</time>
      </trkpt>
      <trkpt lat="44.91289" lon="5.37994">
        <ele>1061</ele>
        <time>2020-06-25T14:23:06Z</time>
      </trkpt>
      <trkpt lat="44.9129" lon="5.37995">
        <ele>1061</ele>
        <time>2020-06-25T14:23:07Z</time>
      </trkpt>
      <trkpt lat="44.91291" lon="5.37996">
        <ele>1061</ele>
        <time>2020-06-25T14:23:08Z</time>
      </trkpt>
      <trkpt lat="44.91312" lon="5.38003">
        <ele>1064</ele>
        <time>2020-06-25T14:23:21Z</time>
      </trkpt>
      <trkpt lat="44.91315" lon="5.38002">
        <ele>1064</ele>
        <time>2020-06-25T14:23:23Z</time>
      </trkpt>
      <trkpt lat="44.91316" lon="5.38001">
        <ele>1064</ele>
        <time>2020-06-25T14:23:24Z</time>
      </trkpt>
      <trkpt lat="44.9133" lon="5.37984">
        <ele>1065</ele>
        <time>2020-06-25T14:23:39Z</time>
      </trkpt>
      <trkpt lat="44.91342" lon="5.37971">
        <ele>1066</ele>
        <time>2020-06-25T14:23:53Z</time>
      </trkpt>
      <trkpt lat="44.91343" lon="5.37971">
        <ele>1066</ele>
        <time>2020-06-25T14:23:54Z</time>
      </trkpt>
      <trkpt lat="44.91345" lon="5.37972">
        <ele>1067</ele>
        <time>2020-06-25T14:23:56Z</time>
      </trkpt>
      <trkpt lat="44.91346" lon="5.37973">
        <ele>1067</ele>
        <time>2020-06-25T14:23:57Z</time>
      </trkpt>
      <trkpt lat="44.91347" lon="5.37973">
        <ele>1067</ele>
        <time>2020-06-25T14:23:58Z</time>
      </trkpt>
      <trkpt lat="44.91349" lon="5.37973">
        <ele>1067</ele>
        <time>2020-06-25T14:23:59Z</time>
      </trkpt>
      <trkpt lat="44.9135" lon="5.37973">
        <ele>1067</ele>
        <time>2020-06-25T14:24:00Z</time>
      </trkpt>
      <trkpt lat="44.91351" lon="5.37972">
        <ele>1068</ele>
        <time>2020-06-25T14:24:01Z</time>
      </trkpt>
      <trkpt lat="44.91353" lon="5.37972">
        <ele>1068</ele>
        <time>2020-06-25T14:24:02Z</time>
      </trkpt>
      <trkpt lat="44.91354" lon="5.37972">
        <ele>1068</ele>
        <time>2020-06-25T14:24:03Z</time>
      </trkpt>
      <trkpt lat="44.91355" lon="5.37972">
        <ele>1068</ele>
        <time>2020-06-25T14:24:04Z</time>
      </trkpt>
      <trkpt lat="44.91356" lon="5.37973">
        <ele>1068</ele>
        <time>2020-06-25T14:24:05Z</time>
      </trkpt>
      <trkpt lat="44.91357" lon="5.37973">
        <ele>1068</ele>
        <time>2020-06-25T14:24:06Z</time>
      </trkpt>
      <trkpt lat="44.91358" lon="5.37973">
        <ele>1069</ele>
        <time>2020-06-25T14:24:07Z</time>
      </trkpt>
      <trkpt lat="44.91376" lon="5.37971">
        <ele>1071</ele>
        <time>2020-06-25T14:24:25Z</time>
      </trkpt>
      <trkpt lat="44.91383" lon="5.37969">
        <ele>1072</ele>
        <time>2020-06-25T14:24:32Z</time>
      </trkpt>
      <trkpt lat="44.91394" lon="5.37972">
        <ele>1074</ele>
        <time>2020-06-25T14:24:42Z</time>
      </trkpt>
      <trkpt lat="44.91411" lon="5.37977">
        <ele>1077</ele>
        <time>2020-06-25T14:24:55Z</time>
      </trkpt>
      <trkpt lat="44.91442" lon="5.37979">
        <ele>1080</ele>
        <time>2020-06-25T14:25:10Z</time>
      </trkpt>
      <trkpt lat="44.91443" lon="5.37981">
        <ele>1080</ele>
        <time>2020-06-25T14:25:21Z</time>
      </trkpt>
      <trkpt lat="44.91445" lon="5.3798">
        <ele>1080</ele>
        <time>2020-06-25T14:25:56Z</time>
      </trkpt>
      <trkpt lat="44.91443" lon="5.37978">
        <ele>1080</ele>
        <time>2020-06-25T14:26:28Z</time>
      </trkpt>
      <trkpt lat="44.91446" lon="5.3798">
        <ele>1080</ele>
        <time>2020-06-25T14:27:21Z</time>
      </trkpt>
      <trkpt lat="44.91444" lon="5.37982">
        <ele>1080</ele>
        <time>2020-06-25T14:28:02Z</time>
      </trkpt>
      <trkpt lat="44.91444" lon="5.37982">
        <ele>1080</ele>
        <time>2020-06-25T14:28:53Z</time>
      </trkpt>
      <trkpt lat="44.91444" lon="5.37982">
        <ele>1080</ele>
        <time>2020-06-25T14:29:49Z</time>
      </trkpt>
      <trkpt lat="44.91443" lon="5.37982">
        <ele>1080</ele>
        <time>2020-06-25T14:30:38Z</time>
      </trkpt>
      <trkpt lat="44.91441" lon="5.37985">
        <ele>1080</ele>
        <time>2020-06-25T14:31:21Z</time>
      </trkpt>
      <trkpt lat="44.91448" lon="5.3798">
        <ele>1080</ele>
        <time>2020-06-25T14:31:36Z</time>
      </trkpt>
      <trkpt lat="44.91449" lon="5.3798">
        <ele>1080</ele>
        <time>2020-06-25T14:31:37Z</time>
      </trkpt>
      <trkpt lat="44.91451" lon="5.37981">
        <ele>1080</ele>
        <time>2020-06-25T14:31:38Z</time>
      </trkpt>
      <trkpt lat="44.91452" lon="5.37982">
        <ele>1080</ele>
        <time>2020-06-25T14:31:39Z</time>
      </trkpt>
      <trkpt lat="44.91452" lon="5.37985">
        <ele>1081</ele>
        <time>2020-06-25T14:31:40Z</time>
      </trkpt>
      <trkpt lat="44.91453" lon="5.37986">
        <ele>1080</ele>
        <time>2020-06-25T14:31:41Z</time>
      </trkpt>
      <trkpt lat="44.91453" lon="5.37988">
        <ele>1080</ele>
        <time>2020-06-25T14:31:42Z</time>
      </trkpt>
      <trkpt lat="44.91453" lon="5.3799">
        <ele>1080</ele>
        <time>2020-06-25T14:31:43Z</time>
      </trkpt>
      <trkpt lat="44.91453" lon="5.37992">
        <ele>1080</ele>
        <time>2020-06-25T14:31:44Z</time>
      </trkpt>
      <trkpt lat="44.91453" lon="5.37994">
        <ele>1080</ele>
        <time>2020-06-25T14:31:45Z</time>
      </trkpt>
      <trkpt lat="44.91454" lon="5.37998">
        <ele>1080</ele>
        <time>2020-06-25T14:31:46Z</time>
      </trkpt>
      <trkpt lat="44.91454" lon="5.38001">
        <ele>1080</ele>
        <time>2020-06-25T14:31:47Z</time>
      </trkpt>
      <trkpt lat="44.91455" lon="5.38005">
        <ele>1080</ele>
        <time>2020-06-25T14:31:48Z</time>
      </trkpt>
      <trkpt lat="44.91456" lon="5.3801">
        <ele>1080</ele>
        <time>2020-06-25T14:31:49Z</time>
      </trkpt>
      <trkpt lat="44.91469" lon="5.38067">
        <ele>1080</ele>
        <time>2020-06-25T14:32:02Z</time>
      </trkpt>
      <trkpt lat="44.91468" lon="5.38124">
        <ele>1080</ele>
        <time>2020-06-25T14:32:18Z</time>
      </trkpt>
      <trkpt lat="44.91468" lon="5.38127">
        <ele>1080</ele>
        <time>2020-06-25T14:32:19Z</time>
      </trkpt>
      <trkpt lat="44.91474" lon="5.38168">
        <ele>1082</ele>
        <time>2020-06-25T14:32:36Z</time>
      </trkpt>
      <trkpt lat="44.91489" lon="5.38196">
        <ele>1082</ele>
        <time>2020-06-25T14:32:50Z</time>
      </trkpt>
      <trkpt lat="44.91509" lon="5.38221">
        <ele>1082</ele>
        <time>2020-06-25T14:33:04Z</time>
      </trkpt>
      <trkpt lat="44.9151" lon="5.38222">
        <ele>1082</ele>
        <time>2020-06-25T14:33:18Z</time>
      </trkpt>
      <trkpt lat="44.91508" lon="5.38219">
        <ele>1082</ele>
        <time>2020-06-25T14:33:32Z</time>
      </trkpt>
      <trkpt lat="44.91481" lon="5.38181">
        <ele>1082</ele>
        <time>2020-06-25T14:33:45Z</time>
      </trkpt>
      <trkpt lat="44.91478" lon="5.38176">
        <ele>1082</ele>
        <time>2020-06-25T14:33:46Z</time>
      </trkpt>
      <trkpt lat="44.91476" lon="5.38171">
        <ele>1082</ele>
        <time>2020-06-25T14:33:47Z</time>
      </trkpt>
      <trkpt lat="44.91469" lon="5.38161">
        <ele>1082</ele>
        <time>2020-06-25T14:33:50Z</time>
      </trkpt>
      <trkpt lat="44.91466" lon="5.3816">
        <ele>1081</ele>
        <time>2020-06-25T14:33:51Z</time>
      </trkpt>
      <trkpt lat="44.91462" lon="5.38161">
        <ele>1081</ele>
        <time>2020-06-25T14:33:52Z</time>
      </trkpt>
      <trkpt lat="44.91461" lon="5.38162">
        <ele>1081</ele>
        <time>2020-06-25T14:33:53Z</time>
      </trkpt>
      <trkpt lat="44.9146" lon="5.38165">
        <ele>1081</ele>
        <time>2020-06-25T14:33:54Z</time>
      </trkpt>
      <trkpt lat="44.91459" lon="5.38166">
        <ele>1081</ele>
        <time>2020-06-25T14:34:06Z</time>
      </trkpt>
      <trkpt lat="44.91459" lon="5.38167">
        <ele>1082</ele>
        <time>2020-06-25T14:34:34Z</time>
      </trkpt>
      <trkpt lat="44.91453" lon="5.38186">
        <ele>1082</ele>
        <time>2020-06-25T14:34:45Z</time>
      </trkpt>
      <trkpt lat="44.91452" lon="5.38189">
        <ele>1082</ele>
        <time>2020-06-25T14:34:46Z</time>
      </trkpt>
      <trkpt lat="44.91434" lon="5.38232">
        <ele>1083</ele>
        <time>2020-06-25T14:35:02Z</time>
      </trkpt>
      <trkpt lat="44.91434" lon="5.38234">
        <ele>1083</ele>
        <time>2020-06-25T14:35:03Z</time>
      </trkpt>
      <trkpt lat="44.91434" lon="5.38235">
        <ele>1083</ele>
        <time>2020-06-25T14:35:04Z</time>
      </trkpt>
      <trkpt lat="44.91435" lon="5.38238">
        <ele>1083</ele>
        <time>2020-06-25T14:35:17Z</time>
      </trkpt>
      <trkpt lat="44.91435" lon="5.38248">
        <ele>1083</ele>
        <time>2020-06-25T14:35:31Z</time>
      </trkpt>
      <trkpt lat="44.91436" lon="5.38249">
        <ele>1083</ele>
        <time>2020-06-25T14:35:43Z</time>
      </trkpt>
      <trkpt lat="44.91437" lon="5.38249">
        <ele>1083</ele>
        <time>2020-06-25T14:36:32Z</time>
      </trkpt>
      <trkpt lat="44.91438" lon="5.38249">
        <ele>1083</ele>
        <time>2020-06-25T14:37:31Z</time>
      </trkpt>
      <trkpt lat="44.91436" lon="5.38251">
        <ele>1083</ele>
        <time>2020-06-25T14:37:46Z</time>
      </trkpt>
      <trkpt lat="44.91436" lon="5.38248">
        <ele>1083</ele>
        <time>2020-06-25T14:37:53Z</time>
      </trkpt>
      <trkpt lat="44.91436" lon="5.38246">
        <ele>1083</ele>
        <time>2020-06-25T14:37:54Z</time>
      </trkpt>
      <trkpt lat="44.91437" lon="5.38241">
        <ele>1083</ele>
        <time>2020-06-25T14:37:57Z</time>
      </trkpt>
      <trkpt lat="44.91437" lon="5.3824">
        <ele>1083</ele>
        <time>2020-06-25T14:37:58Z</time>
      </trkpt>
      <trkpt lat="44.91438" lon="5.38238">
        <ele>1083</ele>
        <time>2020-06-25T14:37:59Z</time>
      </trkpt>
      <trkpt lat="44.91438" lon="5.38236">
        <ele>1083</ele>
        <time>2020-06-25T14:38:00Z</time>
      </trkpt>
      <trkpt lat="44.91439" lon="5.38235">
        <ele>1083</ele>
        <time>2020-06-25T14:38:01Z</time>
      </trkpt>
      <trkpt lat="44.91439" lon="5.38233">
        <ele>1083</ele>
        <time>2020-06-25T14:38:02Z</time>
      </trkpt>
      <trkpt lat="44.91439" lon="5.38231">
        <ele>1083</ele>
        <time>2020-06-25T14:38:03Z</time>
      </trkpt>
      <trkpt lat="44.9144" lon="5.38229">
        <ele>1082</ele>
        <time>2020-06-25T14:38:04Z</time>
      </trkpt>
      <trkpt lat="44.91442" lon="5.3822">
        <ele>1082</ele>
        <time>2020-06-25T14:38:07Z</time>
      </trkpt>
      <trkpt lat="44.91458" lon="5.38174">
        <ele>1082</ele>
        <time>2020-06-25T14:38:22Z</time>
      </trkpt>
      <trkpt lat="44.91463" lon="5.38158">
        <ele>1081</ele>
        <time>2020-06-25T14:38:26Z</time>
      </trkpt>
      <trkpt lat="44.91469" lon="5.38155">
        <ele>1081</ele>
        <time>2020-06-25T14:38:28Z</time>
      </trkpt>
      <trkpt lat="44.91471" lon="5.38157">
        <ele>1081</ele>
        <time>2020-06-25T14:38:29Z</time>
      </trkpt>
      <trkpt lat="44.91472" lon="5.38159">
        <ele>1081</ele>
        <time>2020-06-25T14:38:30Z</time>
      </trkpt>
      <trkpt lat="44.91473" lon="5.38162">
        <ele>1082</ele>
        <time>2020-06-25T14:38:31Z</time>
      </trkpt>
      <trkpt lat="44.91492" lon="5.38196">
        <ele>1082</ele>
        <time>2020-06-25T14:38:46Z</time>
      </trkpt>
      <trkpt lat="44.91511" lon="5.38224">
        <ele>1082</ele>
        <time>2020-06-25T14:39:02Z</time>
      </trkpt>
      <trkpt lat="44.91512" lon="5.38224">
        <ele>1082</ele>
        <time>2020-06-25T14:39:18Z</time>
      </trkpt>
      <trkpt lat="44.91513" lon="5.38225">
        <ele>1082</ele>
        <time>2020-06-25T14:39:19Z</time>
      </trkpt>
      <trkpt lat="44.91514" lon="5.38227">
        <ele>1082</ele>
        <time>2020-06-25T14:39:21Z</time>
      </trkpt>
      <trkpt lat="44.91515" lon="5.38228">
        <ele>1082</ele>
        <time>2020-06-25T14:39:22Z</time>
      </trkpt>
      <trkpt lat="44.91515" lon="5.3823">
        <ele>1082</ele>
        <time>2020-06-25T14:39:23Z</time>
      </trkpt>
      <trkpt lat="44.91516" lon="5.38232">
        <ele>1082</ele>
        <time>2020-06-25T14:39:24Z</time>
      </trkpt>
      <trkpt lat="44.91517" lon="5.38233">
        <ele>1082</ele>
        <time>2020-06-25T14:39:25Z</time>
      </trkpt>
      <trkpt lat="44.91519" lon="5.38235">
        <ele>1082</ele>
        <time>2020-06-25T14:39:26Z</time>
      </trkpt>
      <trkpt lat="44.91534" lon="5.38274">
        <ele>1081</ele>
        <time>2020-06-25T14:39:42Z</time>
      </trkpt>
      <trkpt lat="44.91536" lon="5.38281">
        <ele>1081</ele>
        <time>2020-06-25T14:39:44Z</time>
      </trkpt>
      <trkpt lat="44.91546" lon="5.38316">
        <ele>1080</ele>
        <time>2020-06-25T14:39:51Z</time>
      </trkpt>
      <trkpt lat="44.91558" lon="5.38358">
        <ele>1078</ele>
        <time>2020-06-25T14:39:57Z</time>
      </trkpt>
      <trkpt lat="44.91568" lon="5.38408">
        <ele>1073</ele>
        <time>2020-06-25T14:40:02Z</time>
      </trkpt>
      <trkpt lat="44.9157" lon="5.38429">
        <ele>1072</ele>
        <time>2020-06-25T14:40:04Z</time>
      </trkpt>
      <trkpt lat="44.91577" lon="5.38466">
        <ele>1069</ele>
        <time>2020-06-25T14:40:07Z</time>
      </trkpt>
      <trkpt lat="44.91581" lon="5.3849">
        <ele>1067</ele>
        <time>2020-06-25T14:40:09Z</time>
      </trkpt>
      <trkpt lat="44.91582" lon="5.38504">
        <ele>1066</ele>
        <time>2020-06-25T14:40:10Z</time>
      </trkpt>
      <trkpt lat="44.91581" lon="5.38517">
        <ele>1066</ele>
        <time>2020-06-25T14:40:11Z</time>
      </trkpt>
      <trkpt lat="44.91579" lon="5.3853">
        <ele>1065</ele>
        <time>2020-06-25T14:40:12Z</time>
      </trkpt>
      <trkpt lat="44.91577" lon="5.38544">
        <ele>1065</ele>
        <time>2020-06-25T14:40:13Z</time>
      </trkpt>
      <trkpt lat="44.91575" lon="5.38557">
        <ele>1064</ele>
        <time>2020-06-25T14:40:14Z</time>
      </trkpt>
      <trkpt lat="44.91575" lon="5.38569">
        <ele>1063</ele>
        <time>2020-06-25T14:40:15Z</time>
      </trkpt>
      <trkpt lat="44.91577" lon="5.38581">
        <ele>1063</ele>
        <time>2020-06-25T14:40:16Z</time>
      </trkpt>
      <trkpt lat="44.91586" lon="5.38632">
        <ele>1061</ele>
        <time>2020-06-25T14:40:20Z</time>
      </trkpt>
      <trkpt lat="44.91591" lon="5.38644">
        <ele>1060</ele>
        <time>2020-06-25T14:40:21Z</time>
      </trkpt>
      <trkpt lat="44.91596" lon="5.38655">
        <ele>1059</ele>
        <time>2020-06-25T14:40:22Z</time>
      </trkpt>
      <trkpt lat="44.91603" lon="5.38664">
        <ele>1058</ele>
        <time>2020-06-25T14:40:23Z</time>
      </trkpt>
      <trkpt lat="44.9161" lon="5.38673">
        <ele>1058</ele>
        <time>2020-06-25T14:40:24Z</time>
      </trkpt>
      <trkpt lat="44.91639" lon="5.38708">
        <ele>1055</ele>
        <time>2020-06-25T14:40:28Z</time>
      </trkpt>
      <trkpt lat="44.91644" lon="5.38719">
        <ele>1054</ele>
        <time>2020-06-25T14:40:29Z</time>
      </trkpt>
      <trkpt lat="44.91655" lon="5.38741">
        <ele>1053</ele>
        <time>2020-06-25T14:40:31Z</time>
      </trkpt>
      <trkpt lat="44.91662" lon="5.38751">
        <ele>1052</ele>
        <time>2020-06-25T14:40:32Z</time>
      </trkpt>
      <trkpt lat="44.91675" lon="5.3877">
        <ele>1050</ele>
        <time>2020-06-25T14:40:34Z</time>
      </trkpt>
      <trkpt lat="44.91679" lon="5.3878">
        <ele>1050</ele>
        <time>2020-06-25T14:40:35Z</time>
      </trkpt>
      <trkpt lat="44.91681" lon="5.3879">
        <ele>1050</ele>
        <time>2020-06-25T14:40:36Z</time>
      </trkpt>
      <trkpt lat="44.91682" lon="5.388">
        <ele>1050</ele>
        <time>2020-06-25T14:40:37Z</time>
      </trkpt>
      <trkpt lat="44.91682" lon="5.38809">
        <ele>1050</ele>
        <time>2020-06-25T14:40:38Z</time>
      </trkpt>
      <trkpt lat="44.91685" lon="5.3884">
        <ele>1051</ele>
        <time>2020-06-25T14:40:42Z</time>
      </trkpt>
      <trkpt lat="44.9169" lon="5.38868">
        <ele>1052</ele>
        <time>2020-06-25T14:40:51Z</time>
      </trkpt>
      <trkpt lat="44.9169" lon="5.38872">
        <ele>1052</ele>
        <time>2020-06-25T14:40:53Z</time>
      </trkpt>
      <trkpt lat="44.9169" lon="5.38874">
        <ele>1052</ele>
        <time>2020-06-25T14:40:54Z</time>
      </trkpt>
      <trkpt lat="44.9169" lon="5.38876">
        <ele>1053</ele>
        <time>2020-06-25T14:40:55Z</time>
      </trkpt>
      <trkpt lat="44.9169" lon="5.38878">
        <ele>1053</ele>
        <time>2020-06-25T14:40:56Z</time>
      </trkpt>
      <trkpt lat="44.9169" lon="5.3888">
        <ele>1053</ele>
        <time>2020-06-25T14:40:57Z</time>
      </trkpt>
      <trkpt lat="44.9169" lon="5.38883">
        <ele>1053</ele>
        <time>2020-06-25T14:40:58Z</time>
      </trkpt>
      <trkpt lat="44.9169" lon="5.38885">
        <ele>1053</ele>
        <time>2020-06-25T14:40:59Z</time>
      </trkpt>
      <trkpt lat="44.91689" lon="5.38888">
        <ele>1053</ele>
        <time>2020-06-25T14:41:00Z</time>
      </trkpt>
      <trkpt lat="44.91689" lon="5.3889">
        <ele>1054</ele>
        <time>2020-06-25T14:41:01Z</time>
      </trkpt>
      <trkpt lat="44.91688" lon="5.38892">
        <ele>1054</ele>
        <time>2020-06-25T14:41:02Z</time>
      </trkpt>
      <trkpt lat="44.91688" lon="5.38894">
        <ele>1054</ele>
        <time>2020-06-25T14:41:03Z</time>
      </trkpt>
      <trkpt lat="44.91687" lon="5.38896">
        <ele>1054</ele>
        <time>2020-06-25T14:41:04Z</time>
      </trkpt>
      <trkpt lat="44.91686" lon="5.38939">
        <ele>1059</ele>
        <time>2020-06-25T14:41:22Z</time>
      </trkpt>
      <trkpt lat="44.9169" lon="5.38973">
        <ele>1062</ele>
        <time>2020-06-25T14:41:37Z</time>
      </trkpt>
      <trkpt lat="44.91699" lon="5.38998">
        <ele>1064</ele>
        <time>2020-06-25T14:41:53Z</time>
      </trkpt>
      <trkpt lat="44.91706" lon="5.39019">
        <ele>1066</ele>
        <time>2020-06-25T14:42:10Z</time>
      </trkpt>
      <trkpt lat="44.91706" lon="5.39036">
        <ele>1068</ele>
        <time>2020-06-25T14:42:24Z</time>
      </trkpt>
      <trkpt lat="44.91708" lon="5.39055">
        <ele>1069</ele>
        <time>2020-06-25T14:42:38Z</time>
      </trkpt>
      <trkpt lat="44.91708" lon="5.39056">
        <ele>1070</ele>
        <time>2020-06-25T14:42:39Z</time>
      </trkpt>
      <trkpt lat="44.91707" lon="5.39061">
        <ele>1070</ele>
        <time>2020-06-25T14:42:43Z</time>
      </trkpt>
      <trkpt lat="44.91707" lon="5.39063">
        <ele>1070</ele>
        <time>2020-06-25T14:42:44Z</time>
      </trkpt>
      <trkpt lat="44.91705" lon="5.39075">
        <ele>1071</ele>
        <time>2020-06-25T14:42:52Z</time>
      </trkpt>
      <trkpt lat="44.91707" lon="5.39088">
        <ele>1073</ele>
        <time>2020-06-25T14:43:01Z</time>
      </trkpt>
      <trkpt lat="44.91707" lon="5.39089">
        <ele>1073</ele>
        <time>2020-06-25T14:43:02Z</time>
      </trkpt>
      <trkpt lat="44.91708" lon="5.39091">
        <ele>1073</ele>
        <time>2020-06-25T14:43:03Z</time>
      </trkpt>
      <trkpt lat="44.91711" lon="5.39107">
        <ele>1074</ele>
        <time>2020-06-25T14:43:14Z</time>
      </trkpt>
      <trkpt lat="44.91711" lon="5.39109">
        <ele>1074</ele>
        <time>2020-06-25T14:43:15Z</time>
      </trkpt>
      <trkpt lat="44.91712" lon="5.3911">
        <ele>1074</ele>
        <time>2020-06-25T14:43:16Z</time>
      </trkpt>
      <trkpt lat="44.91712" lon="5.39112">
        <ele>1075</ele>
        <time>2020-06-25T14:43:17Z</time>
      </trkpt>
      <trkpt lat="44.91713" lon="5.39113">
        <ele>1075</ele>
        <time>2020-06-25T14:43:18Z</time>
      </trkpt>
      <trkpt lat="44.91713" lon="5.39115">
        <ele>1075</ele>
        <time>2020-06-25T14:43:19Z</time>
      </trkpt>
      <trkpt lat="44.91713" lon="5.39117">
        <ele>1075</ele>
        <time>2020-06-25T14:43:20Z</time>
      </trkpt>
      <trkpt lat="44.91714" lon="5.39118">
        <ele>1075</ele>
        <time>2020-06-25T14:43:21Z</time>
      </trkpt>
      <trkpt lat="44.91715" lon="5.3912">
        <ele>1075</ele>
        <time>2020-06-25T14:43:22Z</time>
      </trkpt>
      <trkpt lat="44.91716" lon="5.39122">
        <ele>1075</ele>
        <time>2020-06-25T14:43:23Z</time>
      </trkpt>
      <trkpt lat="44.91717" lon="5.39123">
        <ele>1075</ele>
        <time>2020-06-25T14:43:24Z</time>
      </trkpt>
      <trkpt lat="44.91717" lon="5.39124">
        <ele>1075</ele>
        <time>2020-06-25T14:43:25Z</time>
      </trkpt>
      <trkpt lat="44.91718" lon="5.39125">
        <ele>1076</ele>
        <time>2020-06-25T14:43:26Z</time>
      </trkpt>
      <trkpt lat="44.91719" lon="5.39126">
        <ele>1076</ele>
        <time>2020-06-25T14:43:27Z</time>
      </trkpt>
      <trkpt lat="44.91721" lon="5.39127">
        <ele>1076</ele>
        <time>2020-06-25T14:43:28Z</time>
      </trkpt>
      <trkpt lat="44.91736" lon="5.39148">
        <ele>1077</ele>
        <time>2020-06-25T14:43:45Z</time>
      </trkpt>
      <trkpt lat="44.91748" lon="5.39156">
        <ele>1078</ele>
        <time>2020-06-25T14:44:00Z</time>
      </trkpt>
      <trkpt lat="44.91763" lon="5.39173">
        <ele>1079</ele>
        <time>2020-06-25T14:44:16Z</time>
      </trkpt>
      <trkpt lat="44.91774" lon="5.39193">
        <ele>1081</ele>
        <time>2020-06-25T14:44:31Z</time>
      </trkpt>
      <trkpt lat="44.91776" lon="5.39196">
        <ele>1082</ele>
        <time>2020-06-25T14:44:33Z</time>
      </trkpt>
      <trkpt lat="44.91777" lon="5.39198">
        <ele>1082</ele>
        <time>2020-06-25T14:44:34Z</time>
      </trkpt>
      <trkpt lat="44.91778" lon="5.39202">
        <ele>1082</ele>
        <time>2020-06-25T14:44:37Z</time>
      </trkpt>
      <trkpt lat="44.91779" lon="5.39203">
        <ele>1082</ele>
        <time>2020-06-25T14:44:38Z</time>
      </trkpt>
      <trkpt lat="44.91787" lon="5.39223">
        <ele>1083</ele>
        <time>2020-06-25T14:44:53Z</time>
      </trkpt>
      <trkpt lat="44.91797" lon="5.39247">
        <ele>1085</ele>
        <time>2020-06-25T14:45:07Z</time>
      </trkpt>
      <trkpt lat="44.91806" lon="5.39263">
        <ele>1085</ele>
        <time>2020-06-25T14:45:19Z</time>
      </trkpt>
      <trkpt lat="44.91808" lon="5.39268">
        <ele>1086</ele>
        <time>2020-06-25T14:45:32Z</time>
      </trkpt>
      <trkpt lat="44.91809" lon="5.39268">
        <ele>1086</ele>
        <time>2020-06-25T14:45:59Z</time>
      </trkpt>
      <trkpt lat="44.91811" lon="5.39264">
        <ele>1085</ele>
        <time>2020-06-25T14:46:26Z</time>
      </trkpt>
      <trkpt lat="44.91808" lon="5.39264">
        <ele>1085</ele>
        <time>2020-06-25T14:46:55Z</time>
      </trkpt>
      <trkpt lat="44.9181" lon="5.39269">
        <ele>1086</ele>
        <time>2020-06-25T14:47:18Z</time>
      </trkpt>
      <trkpt lat="44.91811" lon="5.39267">
        <ele>1086</ele>
        <time>2020-06-25T14:47:44Z</time>
      </trkpt>
      <trkpt lat="44.91813" lon="5.39268">
        <ele>1086</ele>
        <time>2020-06-25T14:48:03Z</time>
      </trkpt>
      <trkpt lat="44.91814" lon="5.39269">
        <ele>1086</ele>
        <time>2020-06-25T14:48:26Z</time>
      </trkpt>
      <trkpt lat="44.91812" lon="5.3927">
        <ele>1086</ele>
        <time>2020-06-25T14:48:44Z</time>
      </trkpt>
      <trkpt lat="44.91812" lon="5.39269">
        <ele>1086</ele>
        <time>2020-06-25T14:49:03Z</time>
      </trkpt>
      <trkpt lat="44.91812" lon="5.39269">
        <ele>1086</ele>
        <time>2020-06-25T14:49:20Z</time>
      </trkpt>
      <trkpt lat="44.9181" lon="5.3927">
        <ele>1086</ele>
        <time>2020-06-25T14:49:50Z</time>
      </trkpt>
      <trkpt lat="44.9181" lon="5.3927">
        <ele>1086</ele>
        <time>2020-06-25T14:50:10Z</time>
      </trkpt>
      <trkpt lat="44.91806" lon="5.39273">
        <ele>1086</ele>
        <time>2020-06-25T14:50:32Z</time>
      </trkpt>
      <trkpt lat="44.91809" lon="5.39268">
        <ele>1086</ele>
        <time>2020-06-25T14:51:04Z</time>
      </trkpt>
      <trkpt lat="44.91811" lon="5.3927">
        <ele>1086</ele>
        <time>2020-06-25T14:51:33Z</time>
      </trkpt>
      <trkpt lat="44.91809" lon="5.39269">
        <ele>1086</ele>
        <time>2020-06-25T14:51:58Z</time>
      </trkpt>
      <trkpt lat="44.9181" lon="5.39268">
        <ele>1086</ele>
        <time>2020-06-25T14:52:27Z</time>
      </trkpt>
      <trkpt lat="44.91808" lon="5.39266">
        <ele>1086</ele>
        <time>2020-06-25T14:52:51Z</time>
      </trkpt>
      <trkpt lat="44.91807" lon="5.39268">
        <ele>1086</ele>
        <time>2020-06-25T14:53:18Z</time>
      </trkpt>
      <trkpt lat="44.9181" lon="5.39267">
        <ele>1086</ele>
        <time>2020-06-25T14:53:46Z</time>
      </trkpt>
      <trkpt lat="44.91811" lon="5.39268">
        <ele>1086</ele>
        <time>2020-06-25T14:54:14Z</time>
      </trkpt>
      <trkpt lat="44.91809" lon="5.39267">
        <ele>1086</ele>
        <time>2020-06-25T14:54:37Z</time>
      </trkpt>
      <trkpt lat="44.9181" lon="5.3927">
        <ele>1086</ele>
        <time>2020-06-25T14:54:56Z</time>
      </trkpt>
      <trkpt lat="44.9181" lon="5.39269">
        <ele>1086</ele>
        <time>2020-06-25T14:55:11Z</time>
      </trkpt>
      <trkpt lat="44.9181" lon="5.3927">
        <ele>1086</ele>
        <time>2020-06-25T14:55:25Z</time>
      </trkpt>
      <trkpt lat="44.91812" lon="5.3927">
        <ele>1086</ele>
        <time>2020-06-25T14:55:48Z</time>
      </trkpt>
      <trkpt lat="44.9181" lon="5.39269">
        <ele>1086</ele>
        <time>2020-06-25T14:56:14Z</time>
      </trkpt>
      <trkpt lat="44.91812" lon="5.39268">
        <ele>1086</ele>
        <time>2020-06-25T14:56:37Z</time>
      </trkpt>
      <trkpt lat="44.91812" lon="5.39268">
        <ele>1086</ele>
        <time>2020-06-25T14:57:00Z</time>
      </trkpt>
      <trkpt lat="44.9181" lon="5.39268">
        <ele>1086</ele>
        <time>2020-06-25T14:57:26Z</time>
      </trkpt>
      <trkpt lat="44.91811" lon="5.39268">
        <ele>1086</ele>
        <time>2020-06-25T14:57:54Z</time>
      </trkpt>
      <trkpt lat="44.91812" lon="5.39272">
        <ele>1086</ele>
        <time>2020-06-25T14:58:03Z</time>
      </trkpt>
      <trkpt lat="44.91814" lon="5.39303">
        <ele>1086</ele>
        <time>2020-06-25T14:58:11Z</time>
      </trkpt>
      <trkpt lat="44.91828" lon="5.39347">
        <ele>1084</ele>
        <time>2020-06-25T14:58:23Z</time>
      </trkpt>
      <trkpt lat="44.91844" lon="5.39374">
        <ele>1083</ele>
        <time>2020-06-25T14:58:31Z</time>
      </trkpt>
      <trkpt lat="44.91856" lon="5.39387">
        <ele>1082</ele>
        <time>2020-06-25T14:58:34Z</time>
      </trkpt>
      <trkpt lat="44.91868" lon="5.39402">
        <ele>1080</ele>
        <time>2020-06-25T14:58:37Z</time>
      </trkpt>
      <trkpt lat="44.91892" lon="5.39429">
        <ele>1079</ele>
        <time>2020-06-25T14:58:44Z</time>
      </trkpt>
      <trkpt lat="44.91894" lon="5.39434">
        <ele>1079</ele>
        <time>2020-06-25T14:58:45Z</time>
      </trkpt>
      <trkpt lat="44.91897" lon="5.39467">
        <ele>1081</ele>
        <time>2020-06-25T14:58:52Z</time>
      </trkpt>
      <trkpt lat="44.91898" lon="5.3947">
        <ele>1081</ele>
        <time>2020-06-25T14:58:53Z</time>
      </trkpt>
      <trkpt lat="44.91898" lon="5.39472">
        <ele>1081</ele>
        <time>2020-06-25T14:58:54Z</time>
      </trkpt>
      <trkpt lat="44.91899" lon="5.39475">
        <ele>1081</ele>
        <time>2020-06-25T14:58:55Z</time>
      </trkpt>
      <trkpt lat="44.91898" lon="5.39477">
        <ele>1081</ele>
        <time>2020-06-25T14:58:56Z</time>
      </trkpt>
      <trkpt lat="44.91897" lon="5.39484">
        <ele>1081</ele>
        <time>2020-06-25T14:58:59Z</time>
      </trkpt>
      <trkpt lat="44.91898" lon="5.39488">
        <ele>1081</ele>
        <time>2020-06-25T14:59:01Z</time>
      </trkpt>
      <trkpt lat="44.91899" lon="5.39495">
        <ele>1080</ele>
        <time>2020-06-25T14:59:04Z</time>
      </trkpt>
      <trkpt lat="44.91899" lon="5.39498">
        <ele>1080</ele>
        <time>2020-06-25T14:59:05Z</time>
      </trkpt>
      <trkpt lat="44.919" lon="5.39507">
        <ele>1080</ele>
        <time>2020-06-25T14:59:09Z</time>
      </trkpt>
      <trkpt lat="44.91901" lon="5.39509">
        <ele>1080</ele>
        <time>2020-06-25T14:59:10Z</time>
      </trkpt>
      <trkpt lat="44.91901" lon="5.39512">
        <ele>1080</ele>
        <time>2020-06-25T14:59:11Z</time>
      </trkpt>
      <trkpt lat="44.91902" lon="5.39514">
        <ele>1080</ele>
        <time>2020-06-25T14:59:12Z</time>
      </trkpt>
      <trkpt lat="44.91903" lon="5.39515">
        <ele>1080</ele>
        <time>2020-06-25T14:59:13Z</time>
      </trkpt>
      <trkpt lat="44.91903" lon="5.39517">
        <ele>1080</ele>
        <time>2020-06-25T14:59:14Z</time>
      </trkpt>
      <trkpt lat="44.91903" lon="5.39519">
        <ele>1080</ele>
        <time>2020-06-25T14:59:15Z</time>
      </trkpt>
      <trkpt lat="44.91903" lon="5.39522">
        <ele>1080</ele>
        <time>2020-06-25T14:59:17Z</time>
      </trkpt>
      <trkpt lat="44.91903" lon="5.39525">
        <ele>1080</ele>
        <time>2020-06-25T14:59:18Z</time>
      </trkpt>
      <trkpt lat="44.91903" lon="5.39529">
        <ele>1080</ele>
        <time>2020-06-25T14:59:19Z</time>
      </trkpt>
      <trkpt lat="44.91904" lon="5.39533">
        <ele>1080</ele>
        <time>2020-06-25T14:59:20Z</time>
      </trkpt>
      <trkpt lat="44.91903" lon="5.39538">
        <ele>1080</ele>
        <time>2020-06-25T14:59:21Z</time>
      </trkpt>
      <trkpt lat="44.91901" lon="5.39554">
        <ele>1079</ele>
        <time>2020-06-25T14:59:24Z</time>
      </trkpt>
      <trkpt lat="44.91896" lon="5.39591">
        <ele>1077</ele>
        <time>2020-06-25T14:59:30Z</time>
      </trkpt>
      <trkpt lat="44.91896" lon="5.39599">
        <ele>1077</ele>
        <time>2020-06-25T14:59:31Z</time>
      </trkpt>
      <trkpt lat="44.91904" lon="5.3966">
        <ele>1073</ele>
        <time>2020-06-25T14:59:39Z</time>
      </trkpt>
      <trkpt lat="44.91904" lon="5.39685">
        <ele>1071</ele>
        <time>2020-06-25T14:59:42Z</time>
      </trkpt>
      <trkpt lat="44.91902" lon="5.39694">
        <ele>1071</ele>
        <time>2020-06-25T14:59:43Z</time>
      </trkpt>
      <trkpt lat="44.91899" lon="5.39703">
        <ele>1070</ele>
        <time>2020-06-25T14:59:44Z</time>
      </trkpt>
      <trkpt lat="44.91897" lon="5.39709">
        <ele>1069</ele>
        <time>2020-06-25T14:59:45Z</time>
      </trkpt>
      <trkpt lat="44.91894" lon="5.39715">
        <ele>1068</ele>
        <time>2020-06-25T14:59:46Z</time>
      </trkpt>
      <trkpt lat="44.91885" lon="5.39733">
        <ele>1066</ele>
        <time>2020-06-25T14:59:49Z</time>
      </trkpt>
      <trkpt lat="44.91884" lon="5.39738">
        <ele>1066</ele>
        <time>2020-06-25T14:59:50Z</time>
      </trkpt>
      <trkpt lat="44.91877" lon="5.3977">
        <ele>1064</ele>
        <time>2020-06-25T14:59:56Z</time>
      </trkpt>
      <trkpt lat="44.91876" lon="5.39776">
        <ele>1063</ele>
        <time>2020-06-25T14:59:57Z</time>
      </trkpt>
      <trkpt lat="44.91875" lon="5.39781">
        <ele>1063</ele>
        <time>2020-06-25T14:59:58Z</time>
      </trkpt>
      <trkpt lat="44.91873" lon="5.39798">
        <ele>1063</ele>
        <time>2020-06-25T15:00:01Z</time>
      </trkpt>
      <trkpt lat="44.91872" lon="5.39805">
        <ele>1062</ele>
        <time>2020-06-25T15:00:02Z</time>
      </trkpt>
      <trkpt lat="44.91871" lon="5.39811">
        <ele>1062</ele>
        <time>2020-06-25T15:00:03Z</time>
      </trkpt>
      <trkpt lat="44.91871" lon="5.39817">
        <ele>1062</ele>
        <time>2020-06-25T15:00:04Z</time>
      </trkpt>
      <trkpt lat="44.9187" lon="5.39824">
        <ele>1062</ele>
        <time>2020-06-25T15:00:05Z</time>
      </trkpt>
      <trkpt lat="44.91869" lon="5.39829">
        <ele>1062</ele>
        <time>2020-06-25T15:00:06Z</time>
      </trkpt>
      <trkpt lat="44.91867" lon="5.39835">
        <ele>1062</ele>
        <time>2020-06-25T15:00:07Z</time>
      </trkpt>
      <trkpt lat="44.91855" lon="5.39859">
        <ele>1059</ele>
        <time>2020-06-25T15:00:12Z</time>
      </trkpt>
      <trkpt lat="44.91852" lon="5.39864">
        <ele>1059</ele>
        <time>2020-06-25T15:00:13Z</time>
      </trkpt>
      <trkpt lat="44.91849" lon="5.39868">
        <ele>1058</ele>
        <time>2020-06-25T15:00:14Z</time>
      </trkpt>
      <trkpt lat="44.91846" lon="5.39873">
        <ele>1057</ele>
        <time>2020-06-25T15:00:15Z</time>
      </trkpt>
      <trkpt lat="44.91843" lon="5.39878">
        <ele>1057</ele>
        <time>2020-06-25T15:00:16Z</time>
      </trkpt>
      <trkpt lat="44.91841" lon="5.39883">
        <ele>1056</ele>
        <time>2020-06-25T15:00:17Z</time>
      </trkpt>
      <trkpt lat="44.91839" lon="5.39889">
        <ele>1056</ele>
        <time>2020-06-25T15:00:18Z</time>
      </trkpt>
      <trkpt lat="44.91837" lon="5.39895">
        <ele>1055</ele>
        <time>2020-06-25T15:00:19Z</time>
      </trkpt>
      <trkpt lat="44.91836" lon="5.39902">
        <ele>1055</ele>
        <time>2020-06-25T15:00:20Z</time>
      </trkpt>
      <trkpt lat="44.91836" lon="5.39908">
        <ele>1054</ele>
        <time>2020-06-25T15:00:21Z</time>
      </trkpt>
      <trkpt lat="44.91836" lon="5.39914">
        <ele>1053</ele>
        <time>2020-06-25T15:00:22Z</time>
      </trkpt>
      <trkpt lat="44.91838" lon="5.39924">
        <ele>1052</ele>
        <time>2020-06-25T15:00:26Z</time>
      </trkpt>
      <trkpt lat="44.9184" lon="5.39924">
        <ele>1052</ele>
        <time>2020-06-25T15:00:40Z</time>
      </trkpt>
      <trkpt lat="44.9184" lon="5.39926">
        <ele>1052</ele>
        <time>2020-06-25T15:01:15Z</time>
      </trkpt>
      <trkpt lat="44.91842" lon="5.39924">
        <ele>1052</ele>
        <time>2020-06-25T15:01:38Z</time>
      </trkpt>
      <trkpt lat="44.91843" lon="5.39926">
        <ele>1052</ele>
        <time>2020-06-25T15:02:01Z</time>
      </trkpt>
      <trkpt lat="44.91844" lon="5.39925">
        <ele>1052</ele>
        <time>2020-06-25T15:02:28Z</time>
      </trkpt>
      <trkpt lat="44.91843" lon="5.39923">
        <ele>1053</ele>
        <time>2020-06-25T15:02:46Z</time>
      </trkpt>
      <trkpt lat="44.91844" lon="5.39922">
        <ele>1053</ele>
        <time>2020-06-25T15:03:17Z</time>
      </trkpt>
      <trkpt lat="44.91843" lon="5.39924">
        <ele>1052</ele>
        <time>2020-06-25T15:03:48Z</time>
      </trkpt>
      <trkpt lat="44.91844" lon="5.39926">
        <ele>1052</ele>
        <time>2020-06-25T15:03:52Z</time>
      </trkpt>
      <trkpt lat="44.91845" lon="5.39927">
        <ele>1052</ele>
        <time>2020-06-25T15:03:53Z</time>
      </trkpt>
      <trkpt lat="44.91846" lon="5.39928">
        <ele>1052</ele>
        <time>2020-06-25T15:03:54Z</time>
      </trkpt>
      <trkpt lat="44.91848" lon="5.39928">
        <ele>1052</ele>
        <time>2020-06-25T15:03:55Z</time>
      </trkpt>
      <trkpt lat="44.91849" lon="5.39929">
        <ele>1052</ele>
        <time>2020-06-25T15:03:56Z</time>
      </trkpt>
      <trkpt lat="44.9185" lon="5.39929">
        <ele>1052</ele>
        <time>2020-06-25T15:03:57Z</time>
      </trkpt>
      <trkpt lat="44.91852" lon="5.3993">
        <ele>1052</ele>
        <time>2020-06-25T15:03:58Z</time>
      </trkpt>
      <trkpt lat="44.91853" lon="5.3993">
        <ele>1052</ele>
        <time>2020-06-25T15:03:59Z</time>
      </trkpt>
      <trkpt lat="44.91855" lon="5.3993">
        <ele>1052</ele>
        <time>2020-06-25T15:04:00Z</time>
      </trkpt>
      <trkpt lat="44.91857" lon="5.3993">
        <ele>1052</ele>
        <time>2020-06-25T15:04:01Z</time>
      </trkpt>
      <trkpt lat="44.91868" lon="5.39927">
        <ele>1053</ele>
        <time>2020-06-25T15:04:08Z</time>
      </trkpt>
      <trkpt lat="44.91869" lon="5.39927">
        <ele>1053</ele>
        <time>2020-06-25T15:04:09Z</time>
      </trkpt>
      <trkpt lat="44.91903" lon="5.39921">
        <ele>1056</ele>
        <time>2020-06-25T15:04:24Z</time>
      </trkpt>
      <trkpt lat="44.9193" lon="5.3993">
        <ele>1057</ele>
        <time>2020-06-25T15:04:35Z</time>
      </trkpt>
      <trkpt lat="44.91957" lon="5.39933">
        <ele>1058</ele>
        <time>2020-06-25T15:04:48Z</time>
      </trkpt>
      <trkpt lat="44.91988" lon="5.39941">
        <ele>1058</ele>
        <time>2020-06-25T15:05:02Z</time>
      </trkpt>
      <trkpt lat="44.91999" lon="5.39945">
        <ele>1057</ele>
        <time>2020-06-25T15:05:06Z</time>
      </trkpt>
      <trkpt lat="44.92029" lon="5.39956">
        <ele>1057</ele>
        <time>2020-06-25T15:05:16Z</time>
      </trkpt>
      <trkpt lat="44.92036" lon="5.39965">
        <ele>1056</ele>
        <time>2020-06-25T15:05:28Z</time>
      </trkpt>
      <trkpt lat="44.92038" lon="5.39967">
        <ele>1056</ele>
        <time>2020-06-25T15:05:38Z</time>
      </trkpt>
      <trkpt lat="44.92039" lon="5.39968">
        <ele>1055</ele>
        <time>2020-06-25T15:05:53Z</time>
      </trkpt>
      <trkpt lat="44.92041" lon="5.39968">
        <ele>1055</ele>
        <time>2020-06-25T15:06:11Z</time>
      </trkpt>
      <trkpt lat="44.92045" lon="5.39971">
        <ele>1055</ele>
        <time>2020-06-25T15:06:26Z</time>
      </trkpt>
      <trkpt lat="44.92046" lon="5.39971">
        <ele>1055</ele>
        <time>2020-06-25T15:06:41Z</time>
      </trkpt>
      <trkpt lat="44.92047" lon="5.39973">
        <ele>1055</ele>
        <time>2020-06-25T15:06:58Z</time>
      </trkpt>
      <trkpt lat="44.92049" lon="5.39973">
        <ele>1055</ele>
        <time>2020-06-25T15:07:00Z</time>
      </trkpt>
      <trkpt lat="44.92072" lon="5.39981">
        <ele>1054</ele>
        <time>2020-06-25T15:07:15Z</time>
      </trkpt>
      <trkpt lat="44.92099" lon="5.39995">
        <ele>1051</ele>
        <time>2020-06-25T15:07:26Z</time>
      </trkpt>
      <trkpt lat="44.92127" lon="5.40016">
        <ele>1046</ele>
        <time>2020-06-25T15:07:36Z</time>
      </trkpt>
      <trkpt lat="44.92131" lon="5.40018">
        <ele>1046</ele>
        <time>2020-06-25T15:07:37Z</time>
      </trkpt>
      <trkpt lat="44.92135" lon="5.4002">
        <ele>1045</ele>
        <time>2020-06-25T15:07:38Z</time>
      </trkpt>
      <trkpt lat="44.9214" lon="5.40021">
        <ele>1045</ele>
        <time>2020-06-25T15:07:39Z</time>
      </trkpt>
      <trkpt lat="44.92144" lon="5.40022">
        <ele>1045</ele>
        <time>2020-06-25T15:07:40Z</time>
      </trkpt>
      <trkpt lat="44.92147" lon="5.40021">
        <ele>1044</ele>
        <time>2020-06-25T15:07:41Z</time>
      </trkpt>
      <trkpt lat="44.9215" lon="5.40021">
        <ele>1044</ele>
        <time>2020-06-25T15:07:42Z</time>
      </trkpt>
      <trkpt lat="44.92152" lon="5.40021">
        <ele>1044</ele>
        <time>2020-06-25T15:07:43Z</time>
      </trkpt>
      <trkpt lat="44.92173" lon="5.4004">
        <ele>1042</ele>
        <time>2020-06-25T15:07:53Z</time>
      </trkpt>
      <trkpt lat="44.92183" lon="5.40069">
        <ele>1043</ele>
        <time>2020-06-25T15:08:04Z</time>
      </trkpt>
      <trkpt lat="44.92187" lon="5.40075">
        <ele>1044</ele>
        <time>2020-06-25T15:08:06Z</time>
      </trkpt>
      <trkpt lat="44.9219" lon="5.40077">
        <ele>1044</ele>
        <time>2020-06-25T15:08:07Z</time>
      </trkpt>
      <trkpt lat="44.92193" lon="5.4008">
        <ele>1044</ele>
        <time>2020-06-25T15:08:08Z</time>
      </trkpt>
      <trkpt lat="44.92197" lon="5.40082">
        <ele>1044</ele>
        <time>2020-06-25T15:08:09Z</time>
      </trkpt>
      <trkpt lat="44.92201" lon="5.40084">
        <ele>1044</ele>
        <time>2020-06-25T15:08:10Z</time>
      </trkpt>
      <trkpt lat="44.92218" lon="5.40092">
        <ele>1044</ele>
        <time>2020-06-25T15:08:14Z</time>
      </trkpt>
      <trkpt lat="44.92222" lon="5.40093">
        <ele>1044</ele>
        <time>2020-06-25T15:08:15Z</time>
      </trkpt>
      <trkpt lat="44.92227" lon="5.40094">
        <ele>1044</ele>
        <time>2020-06-25T15:08:16Z</time>
      </trkpt>
      <trkpt lat="44.92232" lon="5.40094">
        <ele>1043</ele>
        <time>2020-06-25T15:08:17Z</time>
      </trkpt>
      <trkpt lat="44.92236" lon="5.40094">
        <ele>1043</ele>
        <time>2020-06-25T15:08:18Z</time>
      </trkpt>
      <trkpt lat="44.9224" lon="5.40093">
        <ele>1043</ele>
        <time>2020-06-25T15:08:19Z</time>
      </trkpt>
      <trkpt lat="44.92277" lon="5.40082">
        <ele>1042</ele>
        <time>2020-06-25T15:08:29Z</time>
      </trkpt>
      <trkpt lat="44.92291" lon="5.40052">
        <ele>1044</ele>
        <time>2020-06-25T15:08:40Z</time>
      </trkpt>
      <trkpt lat="44.92295" lon="5.4001">
        <ele>1044</ele>
        <time>2020-06-25T15:08:53Z</time>
      </trkpt>
      <trkpt lat="44.92316" lon="5.39962">
        <ele>1044</ele>
        <time>2020-06-25T15:09:08Z</time>
      </trkpt>
      <trkpt lat="44.92325" lon="5.39945">
        <ele>1044</ele>
        <time>2020-06-25T15:09:15Z</time>
      </trkpt>
      <trkpt lat="44.92349" lon="5.39915">
        <ele>1046</ele>
        <time>2020-06-25T15:09:25Z</time>
      </trkpt>
      <trkpt lat="44.92364" lon="5.39893">
        <ele>1046</ele>
        <time>2020-06-25T15:09:32Z</time>
      </trkpt>
      <trkpt lat="44.92366" lon="5.39888">
        <ele>1046</ele>
        <time>2020-06-25T15:09:33Z</time>
      </trkpt>
      <trkpt lat="44.9237" lon="5.39875">
        <ele>1045</ele>
        <time>2020-06-25T15:09:35Z</time>
      </trkpt>
      <trkpt lat="44.92371" lon="5.39869">
        <ele>1044</ele>
        <time>2020-06-25T15:09:36Z</time>
      </trkpt>
      <trkpt lat="44.92397" lon="5.3983">
        <ele>1043</ele>
        <time>2020-06-25T15:09:47Z</time>
      </trkpt>
      <trkpt lat="44.92403" lon="5.39833">
        <ele>1043</ele>
        <time>2020-06-25T15:09:51Z</time>
      </trkpt>
      <trkpt lat="44.9244" lon="5.39843">
        <ele>1043</ele>
        <time>2020-06-25T15:10:07Z</time>
      </trkpt>
      <trkpt lat="44.92472" lon="5.39867">
        <ele>1045</ele>
        <time>2020-06-25T15:10:19Z</time>
      </trkpt>
      <trkpt lat="44.92496" lon="5.39877">
        <ele>1045</ele>
        <time>2020-06-25T15:10:31Z</time>
      </trkpt>
      <trkpt lat="44.92505" lon="5.3988">
        <ele>1045</ele>
        <time>2020-06-25T15:10:35Z</time>
      </trkpt>
      <trkpt lat="44.92507" lon="5.39879">
        <ele>1045</ele>
        <time>2020-06-25T15:10:36Z</time>
      </trkpt>
      <trkpt lat="44.92508" lon="5.39878">
        <ele>1045</ele>
        <time>2020-06-25T15:10:37Z</time>
      </trkpt>
      <trkpt lat="44.9251" lon="5.39878">
        <ele>1045</ele>
        <time>2020-06-25T15:10:38Z</time>
      </trkpt>
      <trkpt lat="44.92511" lon="5.39878">
        <ele>1045</ele>
        <time>2020-06-25T15:10:39Z</time>
      </trkpt>
      <trkpt lat="44.92516" lon="5.3988">
        <ele>1045</ele>
        <time>2020-06-25T15:10:49Z</time>
      </trkpt>
      <trkpt lat="44.92518" lon="5.3988">
        <ele>1045</ele>
        <time>2020-06-25T15:11:14Z</time>
      </trkpt>
      <trkpt lat="44.92515" lon="5.39874">
        <ele>1045</ele>
        <time>2020-06-25T15:11:47Z</time>
      </trkpt>
      <trkpt lat="44.92515" lon="5.39879">
        <ele>1045</ele>
        <time>2020-06-25T15:12:14Z</time>
      </trkpt>
      <trkpt lat="44.92518" lon="5.39878">
        <ele>1045</ele>
        <time>2020-06-25T15:12:42Z</time>
      </trkpt>
      <trkpt lat="44.92515" lon="5.39877">
        <ele>1045</ele>
        <time>2020-06-25T15:13:10Z</time>
      </trkpt>
      <trkpt lat="44.92514" lon="5.39876">
        <ele>1045</ele>
        <time>2020-06-25T15:13:44Z</time>
      </trkpt>
      <trkpt lat="44.92516" lon="5.39878">
        <ele>1045</ele>
        <time>2020-06-25T15:14:14Z</time>
      </trkpt>
      <trkpt lat="44.92517" lon="5.39877">
        <ele>1045</ele>
        <time>2020-06-25T15:14:52Z</time>
      </trkpt>
      <trkpt lat="44.92516" lon="5.39876">
        <ele>1045</ele>
        <time>2020-06-25T15:15:29Z</time>
      </trkpt>
      <trkpt lat="44.92516" lon="5.39876">
        <ele>1045</ele>
        <time>2020-06-25T15:15:58Z</time>
      </trkpt>
      <trkpt lat="44.92515" lon="5.39878">
        <ele>1045</ele>
        <time>2020-06-25T15:16:42Z</time>
      </trkpt>
      <trkpt lat="44.92515" lon="5.39882">
        <ele>1045</ele>
        <time>2020-06-25T15:17:18Z</time>
      </trkpt>
      <trkpt lat="44.92517" lon="5.39883">
        <ele>1045</ele>
        <time>2020-06-25T15:17:35Z</time>
      </trkpt>
      <trkpt lat="44.92518" lon="5.39885">
        <ele>1046</ele>
        <time>2020-06-25T15:17:36Z</time>
      </trkpt>
      <trkpt lat="44.92517" lon="5.39887">
        <ele>1046</ele>
        <time>2020-06-25T15:17:37Z</time>
      </trkpt>
      <trkpt lat="44.92517" lon="5.39893">
        <ele>1046</ele>
        <time>2020-06-25T15:17:40Z</time>
      </trkpt>
      <trkpt lat="44.92518" lon="5.39895">
        <ele>1047</ele>
        <time>2020-06-25T15:17:41Z</time>
      </trkpt>
      <trkpt lat="44.9252" lon="5.39898">
        <ele>1047</ele>
        <time>2020-06-25T15:17:42Z</time>
      </trkpt>
      <trkpt lat="44.92522" lon="5.399">
        <ele>1047</ele>
        <time>2020-06-25T15:17:43Z</time>
      </trkpt>
      <trkpt lat="44.92524" lon="5.39904">
        <ele>1047</ele>
        <time>2020-06-25T15:17:44Z</time>
      </trkpt>
      <trkpt lat="44.92526" lon="5.39907">
        <ele>1047</ele>
        <time>2020-06-25T15:17:45Z</time>
      </trkpt>
      <trkpt lat="44.92529" lon="5.39909">
        <ele>1047</ele>
        <time>2020-06-25T15:17:46Z</time>
      </trkpt>
      <trkpt lat="44.92531" lon="5.39912">
        <ele>1047</ele>
        <time>2020-06-25T15:17:47Z</time>
      </trkpt>
      <trkpt lat="44.92556" lon="5.39928">
        <ele>1045</ele>
        <time>2020-06-25T15:17:58Z</time>
      </trkpt>
      <trkpt lat="44.92557" lon="5.39931">
        <ele>1045</ele>
        <time>2020-06-25T15:17:59Z</time>
      </trkpt>
      <trkpt lat="44.92558" lon="5.39933">
        <ele>1045</ele>
        <time>2020-06-25T15:18:00Z</time>
      </trkpt>
      <trkpt lat="44.92559" lon="5.39935">
        <ele>1045</ele>
        <time>2020-06-25T15:18:01Z</time>
      </trkpt>
      <trkpt lat="44.92577" lon="5.39973">
        <ele>1043</ele>
        <time>2020-06-25T15:18:13Z</time>
      </trkpt>
      <trkpt lat="44.92596" lon="5.40011">
        <ele>1041</ele>
        <time>2020-06-25T15:18:23Z</time>
      </trkpt>
      <trkpt lat="44.926" lon="5.40017">
        <ele>1041</ele>
        <time>2020-06-25T15:18:27Z</time>
      </trkpt>
      <trkpt lat="44.92601" lon="5.40019">
        <ele>1041</ele>
        <time>2020-06-25T15:18:28Z</time>
      </trkpt>
      <trkpt lat="44.9263" lon="5.40046">
        <ele>1038</ele>
        <time>2020-06-25T15:18:40Z</time>
      </trkpt>
      <trkpt lat="44.92637" lon="5.40065">
        <ele>1037</ele>
        <time>2020-06-25T15:18:47Z</time>
      </trkpt>
      <trkpt lat="44.92638" lon="5.40065">
        <ele>1037</ele>
        <time>2020-06-25T15:19:11Z</time>
      </trkpt>
      <trkpt lat="44.92641" lon="5.40062">
        <ele>1038</ele>
        <time>2020-06-25T15:19:18Z</time>
      </trkpt>
      <trkpt lat="44.92642" lon="5.40061">
        <ele>1038</ele>
        <time>2020-06-25T15:19:19Z</time>
      </trkpt>
      <trkpt lat="44.92642" lon="5.40061">
        <ele>1038</ele>
        <time>2020-06-25T15:19:20Z</time>
      </trkpt>
      <trkpt lat="44.92652" lon="5.40057">
        <ele>1038</ele>
        <time>2020-06-25T15:19:34Z</time>
      </trkpt>
      <trkpt lat="44.92656" lon="5.40054">
        <ele>1038</ele>
        <time>2020-06-25T15:19:46Z</time>
      </trkpt>
      <trkpt lat="44.92655" lon="5.40052">
        <ele>1038</ele>
        <time>2020-06-25T15:20:14Z</time>
      </trkpt>
      <trkpt lat="44.92654" lon="5.40051">
        <ele>1038</ele>
        <time>2020-06-25T15:20:50Z</time>
      </trkpt>
      <trkpt lat="44.9266" lon="5.40047">
        <ele>1038</ele>
        <time>2020-06-25T15:21:12Z</time>
      </trkpt>
      <trkpt lat="44.92664" lon="5.40043">
        <ele>1038</ele>
        <time>2020-06-25T15:21:19Z</time>
      </trkpt>
      <trkpt lat="44.92668" lon="5.4004">
        <ele>1039</ele>
        <time>2020-06-25T15:21:23Z</time>
      </trkpt>
      <trkpt lat="44.92679" lon="5.40041">
        <ele>1039</ele>
        <time>2020-06-25T15:21:37Z</time>
      </trkpt>
      <trkpt lat="44.92681" lon="5.40045">
        <ele>1039</ele>
        <time>2020-06-25T15:21:44Z</time>
      </trkpt>
      <trkpt lat="44.92682" lon="5.40047">
        <ele>1039</ele>
        <time>2020-06-25T15:21:45Z</time>
      </trkpt>
      <trkpt lat="44.9269" lon="5.40057">
        <ele>1040</ele>
        <time>2020-06-25T15:21:51Z</time>
      </trkpt>
      <trkpt lat="44.92695" lon="5.40058">
        <ele>1041</ele>
        <time>2020-06-25T15:21:56Z</time>
      </trkpt>
      <trkpt lat="44.92697" lon="5.40057">
        <ele>1041</ele>
        <time>2020-06-25T15:21:57Z</time>
      </trkpt>
      <trkpt lat="44.92699" lon="5.40056">
        <ele>1041</ele>
        <time>2020-06-25T15:21:59Z</time>
      </trkpt>
      <trkpt lat="44.92701" lon="5.40055">
        <ele>1042</ele>
        <time>2020-06-25T15:22:00Z</time>
      </trkpt>
      <trkpt lat="44.92715" lon="5.40026">
        <ele>1042</ele>
        <time>2020-06-25T15:22:12Z</time>
      </trkpt>
      <trkpt lat="44.92725" lon="5.40003">
        <ele>1042</ele>
        <time>2020-06-25T15:22:24Z</time>
      </trkpt>
      <trkpt lat="44.92734" lon="5.40003">
        <ele>1043</ele>
        <time>2020-06-25T15:22:33Z</time>
      </trkpt>
      <trkpt lat="44.92741" lon="5.39994">
        <ele>1044</ele>
        <time>2020-06-25T15:22:48Z</time>
      </trkpt>
      <trkpt lat="44.92747" lon="5.39986">
        <ele>1045</ele>
        <time>2020-06-25T15:23:01Z</time>
      </trkpt>
      <trkpt lat="44.92752" lon="5.39976">
        <ele>1045</ele>
        <time>2020-06-25T15:23:15Z</time>
      </trkpt>
      <trkpt lat="44.92754" lon="5.39976">
        <ele>1045</ele>
        <time>2020-06-25T15:23:31Z</time>
      </trkpt>
      <trkpt lat="44.92759" lon="5.39973">
        <ele>1046</ele>
        <time>2020-06-25T15:23:44Z</time>
      </trkpt>
      <trkpt lat="44.92764" lon="5.39967">
        <ele>1046</ele>
        <time>2020-06-25T15:23:56Z</time>
      </trkpt>
      <trkpt lat="44.92766" lon="5.39963">
        <ele>1046</ele>
        <time>2020-06-25T15:23:59Z</time>
      </trkpt>
      <trkpt lat="44.92768" lon="5.39962">
        <ele>1046</ele>
        <time>2020-06-25T15:24:00Z</time>
      </trkpt>
      <trkpt lat="44.92769" lon="5.39962">
        <ele>1046</ele>
        <time>2020-06-25T15:24:01Z</time>
      </trkpt>
      <trkpt lat="44.92771" lon="5.39961">
        <ele>1047</ele>
        <time>2020-06-25T15:24:02Z</time>
      </trkpt>
      <trkpt lat="44.92772" lon="5.39961">
        <ele>1047</ele>
        <time>2020-06-25T15:24:03Z</time>
      </trkpt>
      <trkpt lat="44.92773" lon="5.3996">
        <ele>1047</ele>
        <time>2020-06-25T15:24:04Z</time>
      </trkpt>
      <trkpt lat="44.92774" lon="5.39958">
        <ele>1047</ele>
        <time>2020-06-25T15:24:05Z</time>
      </trkpt>
      <trkpt lat="44.92774" lon="5.39956">
        <ele>1046</ele>
        <time>2020-06-25T15:24:06Z</time>
      </trkpt>
      <trkpt lat="44.92775" lon="5.39953">
        <ele>1046</ele>
        <time>2020-06-25T15:24:07Z</time>
      </trkpt>
      <trkpt lat="44.92776" lon="5.39951">
        <ele>1046</ele>
        <time>2020-06-25T15:24:08Z</time>
      </trkpt>
      <trkpt lat="44.92777" lon="5.39948">
        <ele>1046</ele>
        <time>2020-06-25T15:24:09Z</time>
      </trkpt>
      <trkpt lat="44.9278" lon="5.39947">
        <ele>1046</ele>
        <time>2020-06-25T15:24:10Z</time>
      </trkpt>
      <trkpt lat="44.92782" lon="5.39945">
        <ele>1046</ele>
        <time>2020-06-25T15:24:11Z</time>
      </trkpt>
      <trkpt lat="44.92786" lon="5.39941">
        <ele>1046</ele>
        <time>2020-06-25T15:24:13Z</time>
      </trkpt>
      <trkpt lat="44.92787" lon="5.39938">
        <ele>1046</ele>
        <time>2020-06-25T15:24:14Z</time>
      </trkpt>
      <trkpt lat="44.92787" lon="5.39936">
        <ele>1045</ele>
        <time>2020-06-25T15:24:15Z</time>
      </trkpt>
      <trkpt lat="44.92788" lon="5.39932">
        <ele>1045</ele>
        <time>2020-06-25T15:24:17Z</time>
      </trkpt>
      <trkpt lat="44.92787" lon="5.39925">
        <ele>1044</ele>
        <time>2020-06-25T15:24:19Z</time>
      </trkpt>
      <trkpt lat="44.92788" lon="5.3992">
        <ele>1044</ele>
        <time>2020-06-25T15:24:20Z</time>
      </trkpt>
      <trkpt lat="44.92789" lon="5.39907">
        <ele>1042</ele>
        <time>2020-06-25T15:24:22Z</time>
      </trkpt>
      <trkpt lat="44.92791" lon="5.399">
        <ele>1042</ele>
        <time>2020-06-25T15:24:23Z</time>
      </trkpt>
      <trkpt lat="44.92794" lon="5.39895">
        <ele>1041</ele>
        <time>2020-06-25T15:24:24Z</time>
      </trkpt>
      <trkpt lat="44.92797" lon="5.39891">
        <ele>1041</ele>
        <time>2020-06-25T15:24:25Z</time>
      </trkpt>
      <trkpt lat="44.928" lon="5.39889">
        <ele>1041</ele>
        <time>2020-06-25T15:24:26Z</time>
      </trkpt>
      <trkpt lat="44.92803" lon="5.39887">
        <ele>1040</ele>
        <time>2020-06-25T15:24:27Z</time>
      </trkpt>
      <trkpt lat="44.92806" lon="5.39886">
        <ele>1040</ele>
        <time>2020-06-25T15:24:29Z</time>
      </trkpt>
      <trkpt lat="44.92807" lon="5.39886">
        <ele>1040</ele>
        <time>2020-06-25T15:24:30Z</time>
      </trkpt>
      <trkpt lat="44.92808" lon="5.39888">
        <ele>1040</ele>
        <time>2020-06-25T15:24:31Z</time>
      </trkpt>
      <trkpt lat="44.9281" lon="5.39888">
        <ele>1040</ele>
        <time>2020-06-25T15:24:32Z</time>
      </trkpt>
      <trkpt lat="44.92811" lon="5.39888">
        <ele>1040</ele>
        <time>2020-06-25T15:24:33Z</time>
      </trkpt>
      <trkpt lat="44.92813" lon="5.39888">
        <ele>1040</ele>
        <time>2020-06-25T15:24:34Z</time>
      </trkpt>
      <trkpt lat="44.92814" lon="5.39888">
        <ele>1040</ele>
        <time>2020-06-25T15:24:35Z</time>
      </trkpt>
      <trkpt lat="44.92816" lon="5.39888">
        <ele>1040</ele>
        <time>2020-06-25T15:24:36Z</time>
      </trkpt>
      <trkpt lat="44.92818" lon="5.39888">
        <ele>1040</ele>
        <time>2020-06-25T15:24:37Z</time>
      </trkpt>
      <trkpt lat="44.9282" lon="5.39888">
        <ele>1040</ele>
        <time>2020-06-25T15:24:38Z</time>
      </trkpt>
      <trkpt lat="44.92822" lon="5.39889">
        <ele>1040</ele>
        <time>2020-06-25T15:24:39Z</time>
      </trkpt>
      <trkpt lat="44.92824" lon="5.39888">
        <ele>1040</ele>
        <time>2020-06-25T15:24:40Z</time>
      </trkpt>
      <trkpt lat="44.92826" lon="5.39889">
        <ele>1040</ele>
        <time>2020-06-25T15:24:41Z</time>
      </trkpt>
      <trkpt lat="44.92828" lon="5.39889">
        <ele>1040</ele>
        <time>2020-06-25T15:24:42Z</time>
      </trkpt>
      <trkpt lat="44.9283" lon="5.39889">
        <ele>1040</ele>
        <time>2020-06-25T15:24:43Z</time>
      </trkpt>
      <trkpt lat="44.92832" lon="5.39888">
        <ele>1040</ele>
        <time>2020-06-25T15:24:44Z</time>
      </trkpt>
      <trkpt lat="44.92834" lon="5.39886">
        <ele>1040</ele>
        <time>2020-06-25T15:24:45Z</time>
      </trkpt>
      <trkpt lat="44.92836" lon="5.39883">
        <ele>1041</ele>
        <time>2020-06-25T15:24:46Z</time>
      </trkpt>
      <trkpt lat="44.92837" lon="5.39881">
        <ele>1041</ele>
        <time>2020-06-25T15:24:47Z</time>
      </trkpt>
      <trkpt lat="44.92838" lon="5.3988">
        <ele>1041</ele>
        <time>2020-06-25T15:24:48Z</time>
      </trkpt>
      <trkpt lat="44.92838" lon="5.39879">
        <ele>1041</ele>
        <time>2020-06-25T15:24:59Z</time>
      </trkpt>
      <trkpt lat="44.9284" lon="5.39879">
        <ele>1041</ele>
        <time>2020-06-25T15:25:06Z</time>
      </trkpt>
      <trkpt lat="44.92841" lon="5.39879">
        <ele>1041</ele>
        <time>2020-06-25T15:25:07Z</time>
      </trkpt>
      <trkpt lat="44.92853" lon="5.39876">
        <ele>1042</ele>
        <time>2020-06-25T15:25:18Z</time>
      </trkpt>
      <trkpt lat="44.92864" lon="5.39877">
        <ele>1042</ele>
        <time>2020-06-25T15:25:32Z</time>
      </trkpt>
      <trkpt lat="44.92868" lon="5.39878">
        <ele>1043</ele>
        <time>2020-06-25T15:25:48Z</time>
      </trkpt>
      <trkpt lat="44.92867" lon="5.39875">
        <ele>1043</ele>
        <time>2020-06-25T15:26:31Z</time>
      </trkpt>
      <trkpt lat="44.92868" lon="5.39873">
        <ele>1043</ele>
        <time>2020-06-25T15:27:14Z</time>
      </trkpt>
      <trkpt lat="44.92868" lon="5.39875">
        <ele>1044</ele>
        <time>2020-06-25T15:27:59Z</time>
      </trkpt>
      <trkpt lat="44.92866" lon="5.39875">
        <ele>1043</ele>
        <time>2020-06-25T15:28:37Z</time>
      </trkpt>
      <trkpt lat="44.92868" lon="5.39877">
        <ele>1043</ele>
        <time>2020-06-25T15:29:06Z</time>
      </trkpt>
      <trkpt lat="44.92871" lon="5.39881">
        <ele>1043</ele>
        <time>2020-06-25T15:29:19Z</time>
      </trkpt>
      <trkpt lat="44.92872" lon="5.39882">
        <ele>1043</ele>
        <time>2020-06-25T15:29:20Z</time>
      </trkpt>
      <trkpt lat="44.92873" lon="5.39882">
        <ele>1044</ele>
        <time>2020-06-25T15:29:21Z</time>
      </trkpt>
      <trkpt lat="44.92874" lon="5.39882">
        <ele>1044</ele>
        <time>2020-06-25T15:29:22Z</time>
      </trkpt>
      <trkpt lat="44.92879" lon="5.39883">
        <ele>1045</ele>
        <time>2020-06-25T15:29:28Z</time>
      </trkpt>
      <trkpt lat="44.9288" lon="5.39884">
        <ele>1045</ele>
        <time>2020-06-25T15:29:29Z</time>
      </trkpt>
      <trkpt lat="44.92881" lon="5.39885">
        <ele>1045</ele>
        <time>2020-06-25T15:29:30Z</time>
      </trkpt>
      <trkpt lat="44.92887" lon="5.39901">
        <ele>1044</ele>
        <time>2020-06-25T15:29:39Z</time>
      </trkpt>
      <trkpt lat="44.92888" lon="5.39902">
        <ele>1044</ele>
        <time>2020-06-25T15:29:40Z</time>
      </trkpt>
      <trkpt lat="44.92906" lon="5.39913">
        <ele>1047</ele>
        <time>2020-06-25T15:29:54Z</time>
      </trkpt>
      <trkpt lat="44.92907" lon="5.39914">
        <ele>1047</ele>
        <time>2020-06-25T15:29:55Z</time>
      </trkpt>
      <trkpt lat="44.92911" lon="5.3992">
        <ele>1047</ele>
        <time>2020-06-25T15:30:07Z</time>
      </trkpt>
      <trkpt lat="44.92911" lon="5.39922">
        <ele>1047</ele>
        <time>2020-06-25T15:30:08Z</time>
      </trkpt>
      <trkpt lat="44.92921" lon="5.39951">
        <ele>1048</ele>
        <time>2020-06-25T15:30:25Z</time>
      </trkpt>
      <trkpt lat="44.92925" lon="5.39961">
        <ele>1048</ele>
        <time>2020-06-25T15:30:36Z</time>
      </trkpt>
      <trkpt lat="44.92927" lon="5.39971">
        <ele>1050</ele>
        <time>2020-06-25T15:30:47Z</time>
      </trkpt>
      <trkpt lat="44.92929" lon="5.39971">
        <ele>1050</ele>
        <time>2020-06-25T15:30:50Z</time>
      </trkpt>
      <trkpt lat="44.92937" lon="5.39962">
        <ele>1050</ele>
        <time>2020-06-25T15:31:04Z</time>
      </trkpt>
      <trkpt lat="44.92949" lon="5.39952">
        <ele>1051</ele>
        <time>2020-06-25T15:31:20Z</time>
      </trkpt>
      <trkpt lat="44.92955" lon="5.39948">
        <ele>1051</ele>
        <time>2020-06-25T15:31:30Z</time>
      </trkpt>
      <trkpt lat="44.92956" lon="5.39948">
        <ele>1051</ele>
        <time>2020-06-25T15:31:31Z</time>
      </trkpt>
      <trkpt lat="44.92958" lon="5.39947">
        <ele>1051</ele>
        <time>2020-06-25T15:31:32Z</time>
      </trkpt>
      <trkpt lat="44.9296" lon="5.39947">
        <ele>1051</ele>
        <time>2020-06-25T15:31:34Z</time>
      </trkpt>
      <trkpt lat="44.92962" lon="5.39946">
        <ele>1051</ele>
        <time>2020-06-25T15:31:35Z</time>
      </trkpt>
      <trkpt lat="44.9297" lon="5.39939">
        <ele>1051</ele>
        <time>2020-06-25T15:31:48Z</time>
      </trkpt>
      <trkpt lat="44.92979" lon="5.39935">
        <ele>1051</ele>
        <time>2020-06-25T15:32:02Z</time>
      </trkpt>
      <trkpt lat="44.92984" lon="5.3993">
        <ele>1051</ele>
        <time>2020-06-25T15:32:12Z</time>
      </trkpt>
      <trkpt lat="44.92985" lon="5.39929">
        <ele>1051</ele>
        <time>2020-06-25T15:32:13Z</time>
      </trkpt>
      <trkpt lat="44.92987" lon="5.39928">
        <ele>1051</ele>
        <time>2020-06-25T15:32:14Z</time>
      </trkpt>
      <trkpt lat="44.92988" lon="5.39926">
        <ele>1051</ele>
        <time>2020-06-25T15:32:15Z</time>
      </trkpt>
      <trkpt lat="44.9299" lon="5.39925">
        <ele>1051</ele>
        <time>2020-06-25T15:32:16Z</time>
      </trkpt>
      <trkpt lat="44.92992" lon="5.39925">
        <ele>1050</ele>
        <time>2020-06-25T15:32:17Z</time>
      </trkpt>
      <trkpt lat="44.92994" lon="5.39925">
        <ele>1051</ele>
        <time>2020-06-25T15:32:18Z</time>
      </trkpt>
      <trkpt lat="44.92997" lon="5.39926">
        <ele>1051</ele>
        <time>2020-06-25T15:32:19Z</time>
      </trkpt>
      <trkpt lat="44.92999" lon="5.39925">
        <ele>1051</ele>
        <time>2020-06-25T15:32:20Z</time>
      </trkpt>
      <trkpt lat="44.93001" lon="5.39924">
        <ele>1051</ele>
        <time>2020-06-25T15:32:21Z</time>
      </trkpt>
      <trkpt lat="44.93003" lon="5.39922">
        <ele>1051</ele>
        <time>2020-06-25T15:32:22Z</time>
      </trkpt>
      <trkpt lat="44.93005" lon="5.39921">
        <ele>1050</ele>
        <time>2020-06-25T15:32:23Z</time>
      </trkpt>
      <trkpt lat="44.93009" lon="5.39917">
        <ele>1050</ele>
        <time>2020-06-25T15:32:26Z</time>
      </trkpt>
      <trkpt lat="44.9301" lon="5.39914">
        <ele>1050</ele>
        <time>2020-06-25T15:32:27Z</time>
      </trkpt>
      <trkpt lat="44.93011" lon="5.39896">
        <ele>1047</ele>
        <time>2020-06-25T15:32:33Z</time>
      </trkpt>
      <trkpt lat="44.93015" lon="5.39891">
        <ele>1047</ele>
        <time>2020-06-25T15:32:36Z</time>
      </trkpt>
      <trkpt lat="44.93017" lon="5.39891">
        <ele>1047</ele>
        <time>2020-06-25T15:32:37Z</time>
      </trkpt>
      <trkpt lat="44.93018" lon="5.39891">
        <ele>1047</ele>
        <time>2020-06-25T15:32:38Z</time>
      </trkpt>
      <trkpt lat="44.93019" lon="5.39891">
        <ele>1047</ele>
        <time>2020-06-25T15:32:39Z</time>
      </trkpt>
      <trkpt lat="44.93021" lon="5.3989">
        <ele>1047</ele>
        <time>2020-06-25T15:32:40Z</time>
      </trkpt>
      <trkpt lat="44.93023" lon="5.39889">
        <ele>1047</ele>
        <time>2020-06-25T15:32:41Z</time>
      </trkpt>
      <trkpt lat="44.93026" lon="5.39887">
        <ele>1046</ele>
        <time>2020-06-25T15:32:42Z</time>
      </trkpt>
      <trkpt lat="44.93028" lon="5.39885">
        <ele>1046</ele>
        <time>2020-06-25T15:32:43Z</time>
      </trkpt>
      <trkpt lat="44.9306" lon="5.39864">
        <ele>1043</ele>
        <time>2020-06-25T15:32:53Z</time>
      </trkpt>
      <trkpt lat="44.93073" lon="5.39855">
        <ele>1042</ele>
        <time>2020-06-25T15:32:56Z</time>
      </trkpt>
      <trkpt lat="44.93094" lon="5.39844">
        <ele>1042</ele>
        <time>2020-06-25T15:33:05Z</time>
      </trkpt>
      <trkpt lat="44.93095" lon="5.39844">
        <ele>1042</ele>
        <time>2020-06-25T15:33:07Z</time>
      </trkpt>
      <trkpt lat="44.93103" lon="5.39842">
        <ele>1043</ele>
        <time>2020-06-25T15:33:17Z</time>
      </trkpt>
      <trkpt lat="44.93103" lon="5.39841">
        <ele>1043</ele>
        <time>2020-06-25T15:33:18Z</time>
      </trkpt>
      <trkpt lat="44.9312" lon="5.3983">
        <ele>1044</ele>
        <time>2020-06-25T15:33:30Z</time>
      </trkpt>
      <trkpt lat="44.9313" lon="5.39828">
        <ele>1046</ele>
        <time>2020-06-25T15:33:42Z</time>
      </trkpt>
      <trkpt lat="44.93135" lon="5.39828">
        <ele>1046</ele>
        <time>2020-06-25T15:33:49Z</time>
      </trkpt>
      <trkpt lat="44.93147" lon="5.39829">
        <ele>1047</ele>
        <time>2020-06-25T15:34:06Z</time>
      </trkpt>
      <trkpt lat="44.93154" lon="5.39828">
        <ele>1048</ele>
        <time>2020-06-25T15:34:19Z</time>
      </trkpt>
      <trkpt lat="44.93164" lon="5.3983">
        <ele>1049</ele>
        <time>2020-06-25T15:34:35Z</time>
      </trkpt>
      <trkpt lat="44.93162" lon="5.39835">
        <ele>1049</ele>
        <time>2020-06-25T15:35:07Z</time>
      </trkpt>
      <trkpt lat="44.93161" lon="5.39834">
        <ele>1049</ele>
        <time>2020-06-25T15:35:38Z</time>
      </trkpt>
      <trkpt lat="44.93164" lon="5.39832">
        <ele>1049</ele>
        <time>2020-06-25T15:36:21Z</time>
      </trkpt>
      <trkpt lat="44.93162" lon="5.39829">
        <ele>1049</ele>
        <time>2020-06-25T15:37:00Z</time>
      </trkpt>
      <trkpt lat="44.93164" lon="5.39829">
        <ele>1049</ele>
        <time>2020-06-25T15:37:36Z</time>
      </trkpt>
      <trkpt lat="44.93166" lon="5.39826">
        <ele>1049</ele>
        <time>2020-06-25T15:38:00Z</time>
      </trkpt>
      <trkpt lat="44.93163" lon="5.39833">
        <ele>1049</ele>
        <time>2020-06-25T15:38:26Z</time>
      </trkpt>
      <trkpt lat="44.93162" lon="5.39829">
        <ele>1049</ele>
        <time>2020-06-25T15:39:03Z</time>
      </trkpt>
      <trkpt lat="44.93163" lon="5.39831">
        <ele>1049</ele>
        <time>2020-06-25T15:39:30Z</time>
      </trkpt>
      <trkpt lat="44.93163" lon="5.39832">
        <ele>1049</ele>
        <time>2020-06-25T15:40:03Z</time>
      </trkpt>
      <trkpt lat="44.93161" lon="5.3983">
        <ele>1049</ele>
        <time>2020-06-25T15:40:33Z</time>
      </trkpt>
      <trkpt lat="44.93164" lon="5.39829">
        <ele>1049</ele>
        <time>2020-06-25T15:40:58Z</time>
      </trkpt>
      <trkpt lat="44.93173" lon="5.3983">
        <ele>1050</ele>
        <time>2020-06-25T15:41:10Z</time>
      </trkpt>
      <trkpt lat="44.93174" lon="5.3983">
        <ele>1050</ele>
        <time>2020-06-25T15:41:11Z</time>
      </trkpt>
      <trkpt lat="44.93176" lon="5.3983">
        <ele>1050</ele>
        <time>2020-06-25T15:41:12Z</time>
      </trkpt>
      <trkpt lat="44.93177" lon="5.39831">
        <ele>1050</ele>
        <time>2020-06-25T15:41:13Z</time>
      </trkpt>
      <trkpt lat="44.93178" lon="5.39831">
        <ele>1050</ele>
        <time>2020-06-25T15:41:14Z</time>
      </trkpt>
      <trkpt lat="44.9318" lon="5.39831">
        <ele>1050</ele>
        <time>2020-06-25T15:41:15Z</time>
      </trkpt>
      <trkpt lat="44.93183" lon="5.39832">
        <ele>1050</ele>
        <time>2020-06-25T15:41:16Z</time>
      </trkpt>
      <trkpt lat="44.93185" lon="5.39833">
        <ele>1050</ele>
        <time>2020-06-25T15:41:17Z</time>
      </trkpt>
      <trkpt lat="44.93188" lon="5.39833">
        <ele>1050</ele>
        <time>2020-06-25T15:41:18Z</time>
      </trkpt>
      <trkpt lat="44.93191" lon="5.39833">
        <ele>1050</ele>
        <time>2020-06-25T15:41:19Z</time>
      </trkpt>
      <trkpt lat="44.93193" lon="5.39833">
        <ele>1049</ele>
        <time>2020-06-25T15:41:20Z</time>
      </trkpt>
      <trkpt lat="44.93217" lon="5.39827">
        <ele>1049</ele>
        <time>2020-06-25T15:41:29Z</time>
      </trkpt>
      <trkpt lat="44.93242" lon="5.3984">
        <ele>1046</ele>
        <time>2020-06-25T15:41:40Z</time>
      </trkpt>
      <trkpt lat="44.93262" lon="5.39845">
        <ele>1043</ele>
        <time>2020-06-25T15:41:48Z</time>
      </trkpt>
      <trkpt lat="44.93279" lon="5.39845">
        <ele>1041</ele>
        <time>2020-06-25T15:41:53Z</time>
      </trkpt>
      <trkpt lat="44.93282" lon="5.39843">
        <ele>1041</ele>
        <time>2020-06-25T15:41:54Z</time>
      </trkpt>
      <trkpt lat="44.9331" lon="5.39845">
        <ele>1039</ele>
        <time>2020-06-25T15:42:02Z</time>
      </trkpt>
      <trkpt lat="44.93313" lon="5.39843">
        <ele>1039</ele>
        <time>2020-06-25T15:42:03Z</time>
      </trkpt>
      <trkpt lat="44.93316" lon="5.39839">
        <ele>1039</ele>
        <time>2020-06-25T15:42:04Z</time>
      </trkpt>
      <trkpt lat="44.93317" lon="5.39836">
        <ele>1039</ele>
        <time>2020-06-25T15:42:05Z</time>
      </trkpt>
      <trkpt lat="44.93319" lon="5.39831">
        <ele>1039</ele>
        <time>2020-06-25T15:42:06Z</time>
      </trkpt>
      <trkpt lat="44.93331" lon="5.39802">
        <ele>1039</ele>
        <time>2020-06-25T15:42:18Z</time>
      </trkpt>
      <trkpt lat="44.93335" lon="5.39794">
        <ele>1040</ele>
        <time>2020-06-25T15:42:24Z</time>
      </trkpt>
      <trkpt lat="44.93354" lon="5.3978">
        <ele>1044</ele>
        <time>2020-06-25T15:42:39Z</time>
      </trkpt>
      <trkpt lat="44.93375" lon="5.39781">
        <ele>1045</ele>
        <time>2020-06-25T15:42:53Z</time>
      </trkpt>
      <trkpt lat="44.93391" lon="5.39784">
        <ele>1046</ele>
        <time>2020-06-25T15:43:06Z</time>
      </trkpt>
      <trkpt lat="44.93396" lon="5.39786">
        <ele>1046</ele>
        <time>2020-06-25T15:43:18Z</time>
      </trkpt>
      <trkpt lat="44.93406" lon="5.39794">
        <ele>1044</ele>
        <time>2020-06-25T15:43:33Z</time>
      </trkpt>
      <trkpt lat="44.93415" lon="5.39804">
        <ele>1044</ele>
        <time>2020-06-25T15:43:47Z</time>
      </trkpt>
      <trkpt lat="44.93424" lon="5.39814">
        <ele>1047</ele>
        <time>2020-06-25T15:44:02Z</time>
      </trkpt>
      <trkpt lat="44.93437" lon="5.39826">
        <ele>1050</ele>
        <time>2020-06-25T15:44:18Z</time>
      </trkpt>
      <trkpt lat="44.93444" lon="5.39826">
        <ele>1051</ele>
        <time>2020-06-25T15:44:25Z</time>
      </trkpt>
      <trkpt lat="44.93455" lon="5.39822">
        <ele>1053</ele>
        <time>2020-06-25T15:44:41Z</time>
      </trkpt>
      <trkpt lat="44.9346" lon="5.39821">
        <ele>1053</ele>
        <time>2020-06-25T15:44:57Z</time>
      </trkpt>
      <trkpt lat="44.93465" lon="5.39823">
        <ele>1054</ele>
        <time>2020-06-25T15:45:18Z</time>
      </trkpt>
      <trkpt lat="44.93466" lon="5.39824">
        <ele>1054</ele>
        <time>2020-06-25T15:45:19Z</time>
      </trkpt>
      <trkpt lat="44.93467" lon="5.39824">
        <ele>1054</ele>
        <time>2020-06-25T15:45:20Z</time>
      </trkpt>
      <trkpt lat="44.93498" lon="5.39822">
        <ele>1056</ele>
        <time>2020-06-25T15:45:35Z</time>
      </trkpt>
      <trkpt lat="44.93538" lon="5.39817">
        <ele>1053</ele>
        <time>2020-06-25T15:45:48Z</time>
      </trkpt>
      <trkpt lat="44.93588" lon="5.39799">
        <ele>1047</ele>
        <time>2020-06-25T15:46:01Z</time>
      </trkpt>
      <trkpt lat="44.93594" lon="5.39798">
        <ele>1046</ele>
        <time>2020-06-25T15:46:03Z</time>
      </trkpt>
      <trkpt lat="44.9361" lon="5.39796">
        <ele>1044</ele>
        <time>2020-06-25T15:46:09Z</time>
      </trkpt>
      <trkpt lat="44.93614" lon="5.39789">
        <ele>1044</ele>
        <time>2020-06-25T15:46:13Z</time>
      </trkpt>
      <trkpt lat="44.9361" lon="5.39778">
        <ele>1046</ele>
        <time>2020-06-25T15:46:18Z</time>
      </trkpt>
      <trkpt lat="44.93603" lon="5.39776">
        <ele>1047</ele>
        <time>2020-06-25T15:46:30Z</time>
      </trkpt>
      <trkpt lat="44.93602" lon="5.39779">
        <ele>1047</ele>
        <time>2020-06-25T15:46:51Z</time>
      </trkpt>
      <trkpt lat="44.93603" lon="5.39776">
        <ele>1047</ele>
        <time>2020-06-25T15:47:21Z</time>
      </trkpt>
      <trkpt lat="44.93603" lon="5.39776">
        <ele>1047</ele>
        <time>2020-06-25T15:47:52Z</time>
      </trkpt>
      <trkpt lat="44.93603" lon="5.39775">
        <ele>1047</ele>
        <time>2020-06-25T15:48:14Z</time>
      </trkpt>
      <trkpt lat="44.93602" lon="5.39781">
        <ele>1047</ele>
        <time>2020-06-25T15:48:44Z</time>
      </trkpt>
      <trkpt lat="44.93604" lon="5.39777">
        <ele>1047</ele>
        <time>2020-06-25T15:49:15Z</time>
      </trkpt>
      <trkpt lat="44.93601" lon="5.39778">
        <ele>1047</ele>
        <time>2020-06-25T15:49:36Z</time>
      </trkpt>
      <trkpt lat="44.93605" lon="5.39777">
        <ele>1047</ele>
        <time>2020-06-25T15:50:11Z</time>
      </trkpt>
      <trkpt lat="44.93605" lon="5.39778">
        <ele>1047</ele>
        <time>2020-06-25T15:50:45Z</time>
      </trkpt>
      <trkpt lat="44.93604" lon="5.39775">
        <ele>1047</ele>
        <time>2020-06-25T15:51:03Z</time>
      </trkpt>
      <trkpt lat="44.93604" lon="5.39769">
        <ele>1048</ele>
        <time>2020-06-25T15:51:29Z</time>
      </trkpt>
      <trkpt lat="44.93601" lon="5.39772">
        <ele>1048</ele>
        <time>2020-06-25T15:51:45Z</time>
      </trkpt>
      <trkpt lat="44.93603" lon="5.39776">
        <ele>1047</ele>
        <time>2020-06-25T15:51:54Z</time>
      </trkpt>
      <trkpt lat="44.93607" lon="5.39783">
        <ele>1046</ele>
        <time>2020-06-25T15:51:58Z</time>
      </trkpt>
      <trkpt lat="44.93609" lon="5.39793">
        <ele>1045</ele>
        <time>2020-06-25T15:52:01Z</time>
      </trkpt>
      <trkpt lat="44.93613" lon="5.398">
        <ele>1043</ele>
        <time>2020-06-25T15:52:05Z</time>
      </trkpt>
      <trkpt lat="44.93616" lon="5.39799">
        <ele>1043</ele>
        <time>2020-06-25T15:52:06Z</time>
      </trkpt>
      <trkpt lat="44.93618" lon="5.39798">
        <ele>1042</ele>
        <time>2020-06-25T15:52:07Z</time>
      </trkpt>
      <trkpt lat="44.9362" lon="5.39798">
        <ele>1042</ele>
        <time>2020-06-25T15:52:08Z</time>
      </trkpt>
      <trkpt lat="44.93623" lon="5.39798">
        <ele>1042</ele>
        <time>2020-06-25T15:52:09Z</time>
      </trkpt>
      <trkpt lat="44.93626" lon="5.39798">
        <ele>1041</ele>
        <time>2020-06-25T15:52:10Z</time>
      </trkpt>
      <trkpt lat="44.93629" lon="5.39798">
        <ele>1041</ele>
        <time>2020-06-25T15:52:11Z</time>
      </trkpt>
      <trkpt lat="44.93652" lon="5.39799">
        <ele>1038</ele>
        <time>2020-06-25T15:52:18Z</time>
      </trkpt>
      <trkpt lat="44.93669" lon="5.39794">
        <ele>1036</ele>
        <time>2020-06-25T15:52:24Z</time>
      </trkpt>
      <trkpt lat="44.93673" lon="5.39789">
        <ele>1035</ele>
        <time>2020-06-25T15:52:26Z</time>
      </trkpt>
      <trkpt lat="44.93676" lon="5.39787">
        <ele>1035</ele>
        <time>2020-06-25T15:52:27Z</time>
      </trkpt>
      <trkpt lat="44.93679" lon="5.39786">
        <ele>1035</ele>
        <time>2020-06-25T15:52:28Z</time>
      </trkpt>
      <trkpt lat="44.93682" lon="5.39786">
        <ele>1034</ele>
        <time>2020-06-25T15:52:29Z</time>
      </trkpt>
      <trkpt lat="44.93686" lon="5.39786">
        <ele>1034</ele>
        <time>2020-06-25T15:52:30Z</time>
      </trkpt>
      <trkpt lat="44.93691" lon="5.39786">
        <ele>1033</ele>
        <time>2020-06-25T15:52:31Z</time>
      </trkpt>
      <trkpt lat="44.93696" lon="5.39785">
        <ele>1032</ele>
        <time>2020-06-25T15:52:32Z</time>
      </trkpt>
      <trkpt lat="44.93702" lon="5.39786">
        <ele>1032</ele>
        <time>2020-06-25T15:52:33Z</time>
      </trkpt>
      <trkpt lat="44.93708" lon="5.39786">
        <ele>1031</ele>
        <time>2020-06-25T15:52:34Z</time>
      </trkpt>
      <trkpt lat="44.93713" lon="5.39786">
        <ele>1030</ele>
        <time>2020-06-25T15:52:35Z</time>
      </trkpt>
      <trkpt lat="44.93741" lon="5.39782">
        <ele>1026</ele>
        <time>2020-06-25T15:52:41Z</time>
      </trkpt>
      <trkpt lat="44.93753" lon="5.39782">
        <ele>1025</ele>
        <time>2020-06-25T15:52:44Z</time>
      </trkpt>
      <trkpt lat="44.93784" lon="5.39776">
        <ele>1022</ele>
        <time>2020-06-25T15:52:50Z</time>
      </trkpt>
      <trkpt lat="44.93789" lon="5.39775">
        <ele>1021</ele>
        <time>2020-06-25T15:52:51Z</time>
      </trkpt>
      <trkpt lat="44.93815" lon="5.39771">
        <ele>1018</ele>
        <time>2020-06-25T15:52:58Z</time>
      </trkpt>
      <trkpt lat="44.93819" lon="5.39772">
        <ele>1017</ele>
        <time>2020-06-25T15:52:59Z</time>
      </trkpt>
      <trkpt lat="44.93824" lon="5.39774">
        <ele>1017</ele>
        <time>2020-06-25T15:53:00Z</time>
      </trkpt>
      <trkpt lat="44.93827" lon="5.39777">
        <ele>1016</ele>
        <time>2020-06-25T15:53:01Z</time>
      </trkpt>
      <trkpt lat="44.93829" lon="5.39783">
        <ele>1016</ele>
        <time>2020-06-25T15:53:02Z</time>
      </trkpt>
      <trkpt lat="44.93831" lon="5.39788">
        <ele>1015</ele>
        <time>2020-06-25T15:53:03Z</time>
      </trkpt>
      <trkpt lat="44.93836" lon="5.39798">
        <ele>1015</ele>
        <time>2020-06-25T15:53:05Z</time>
      </trkpt>
      <trkpt lat="44.93839" lon="5.39803">
        <ele>1015</ele>
        <time>2020-06-25T15:53:06Z</time>
      </trkpt>
      <trkpt lat="44.93843" lon="5.39806">
        <ele>1015</ele>
        <time>2020-06-25T15:53:07Z</time>
      </trkpt>
      <trkpt lat="44.93848" lon="5.39808">
        <ele>1015</ele>
        <time>2020-06-25T15:53:08Z</time>
      </trkpt>
      <trkpt lat="44.93853" lon="5.39809">
        <ele>1014</ele>
        <time>2020-06-25T15:53:09Z</time>
      </trkpt>
      <trkpt lat="44.93867" lon="5.39806">
        <ele>1014</ele>
        <time>2020-06-25T15:53:14Z</time>
      </trkpt>
      <trkpt lat="44.93869" lon="5.39803">
        <ele>1013</ele>
        <time>2020-06-25T15:53:15Z</time>
      </trkpt>
      <trkpt lat="44.93876" lon="5.39796">
        <ele>1011</ele>
        <time>2020-06-25T15:53:17Z</time>
      </trkpt>
      <trkpt lat="44.9388" lon="5.39792">
        <ele>1010</ele>
        <time>2020-06-25T15:53:18Z</time>
      </trkpt>
      <trkpt lat="44.93885" lon="5.3979">
        <ele>1009</ele>
        <time>2020-06-25T15:53:19Z</time>
      </trkpt>
      <trkpt lat="44.93899" lon="5.39781">
        <ele>1005</ele>
        <time>2020-06-25T15:53:22Z</time>
      </trkpt>
      <trkpt lat="44.93903" lon="5.39777">
        <ele>1004</ele>
        <time>2020-06-25T15:53:23Z</time>
      </trkpt>
      <trkpt lat="44.93906" lon="5.39773">
        <ele>1004</ele>
        <time>2020-06-25T15:53:24Z</time>
      </trkpt>
      <trkpt lat="44.93909" lon="5.39771">
        <ele>1003</ele>
        <time>2020-06-25T15:53:25Z</time>
      </trkpt>
      <trkpt lat="44.93913" lon="5.39769">
        <ele>1002</ele>
        <time>2020-06-25T15:53:26Z</time>
      </trkpt>
      <trkpt lat="44.93916" lon="5.39765">
        <ele>1002</ele>
        <time>2020-06-25T15:53:27Z</time>
      </trkpt>
      <trkpt lat="44.93918" lon="5.39762">
        <ele>1002</ele>
        <time>2020-06-25T15:53:28Z</time>
      </trkpt>
      <trkpt lat="44.9392" lon="5.39757">
        <ele>1001</ele>
        <time>2020-06-25T15:53:29Z</time>
      </trkpt>
      <trkpt lat="44.93923" lon="5.39753">
        <ele>1001</ele>
        <time>2020-06-25T15:53:30Z</time>
      </trkpt>
      <trkpt lat="44.93932" lon="5.39741">
        <ele>1000</ele>
        <time>2020-06-25T15:53:33Z</time>
      </trkpt>
      <trkpt lat="44.93936" lon="5.39737">
        <ele>999</ele>
        <time>2020-06-25T15:53:34Z</time>
      </trkpt>
      <trkpt lat="44.9394" lon="5.39735">
        <ele>999</ele>
        <time>2020-06-25T15:53:35Z</time>
      </trkpt>
      <trkpt lat="44.93943" lon="5.39731">
        <ele>998</ele>
        <time>2020-06-25T15:53:36Z</time>
      </trkpt>
      <trkpt lat="44.93947" lon="5.39727">
        <ele>997</ele>
        <time>2020-06-25T15:53:37Z</time>
      </trkpt>
      <trkpt lat="44.9395" lon="5.39721">
        <ele>997</ele>
        <time>2020-06-25T15:53:38Z</time>
      </trkpt>
      <trkpt lat="44.93954" lon="5.39716">
        <ele>997</ele>
        <time>2020-06-25T15:53:39Z</time>
      </trkpt>
      <trkpt lat="44.93957" lon="5.39711">
        <ele>996</ele>
        <time>2020-06-25T15:53:40Z</time>
      </trkpt>
      <trkpt lat="44.93978" lon="5.39675">
        <ele>994</ele>
        <time>2020-06-25T15:53:46Z</time>
      </trkpt>
      <trkpt lat="44.93999" lon="5.39631">
        <ele>990</ele>
        <time>2020-06-25T15:53:55Z</time>
      </trkpt>
      <trkpt lat="44.94004" lon="5.39613">
        <ele>989</ele>
        <time>2020-06-25T15:53:58Z</time>
      </trkpt>
      <trkpt lat="44.94031" lon="5.39571">
        <ele>985</ele>
        <time>2020-06-25T15:54:09Z</time>
      </trkpt>
      <trkpt lat="44.94058" lon="5.39565">
        <ele>986</ele>
        <time>2020-06-25T15:54:19Z</time>
      </trkpt>
      <trkpt lat="44.94059" lon="5.39564">
        <ele>986</ele>
        <time>2020-06-25T15:54:20Z</time>
      </trkpt>
      <trkpt lat="44.94062" lon="5.39563">
        <ele>986</ele>
        <time>2020-06-25T15:54:21Z</time>
      </trkpt>
      <trkpt lat="44.94096" lon="5.39551">
        <ele>988</ele>
        <time>2020-06-25T15:54:35Z</time>
      </trkpt>
      <trkpt lat="44.94116" lon="5.39541">
        <ele>989</ele>
        <time>2020-06-25T15:54:47Z</time>
      </trkpt>
      <trkpt lat="44.94116" lon="5.39541">
        <ele>989</ele>
        <time>2020-06-25T15:55:06Z</time>
      </trkpt>
      <trkpt lat="44.94119" lon="5.39538">
        <ele>988</ele>
        <time>2020-06-25T15:55:32Z</time>
      </trkpt>
      <trkpt lat="44.94119" lon="5.39539">
        <ele>988</ele>
        <time>2020-06-25T15:56:03Z</time>
      </trkpt>
      <trkpt lat="44.94118" lon="5.39541">
        <ele>989</ele>
        <time>2020-06-25T15:56:30Z</time>
      </trkpt>
      <trkpt lat="44.94116" lon="5.39539">
        <ele>988</ele>
        <time>2020-06-25T15:56:55Z</time>
      </trkpt>
      <trkpt lat="44.94116" lon="5.39542">
        <ele>989</ele>
        <time>2020-06-25T15:57:22Z</time>
      </trkpt>
      <trkpt lat="44.94116" lon="5.39542">
        <ele>989</ele>
        <time>2020-06-25T15:57:54Z</time>
      </trkpt>
      <trkpt lat="44.94114" lon="5.3954">
        <ele>988</ele>
        <time>2020-06-25T15:58:21Z</time>
      </trkpt>
      <trkpt lat="44.94114" lon="5.3954">
        <ele>988</ele>
        <time>2020-06-25T15:58:52Z</time>
      </trkpt>
      <trkpt lat="44.94115" lon="5.39542">
        <ele>989</ele>
        <time>2020-06-25T15:59:17Z</time>
      </trkpt>
      <trkpt lat="44.94117" lon="5.3954">
        <ele>988</ele>
        <time>2020-06-25T15:59:37Z</time>
      </trkpt>
      <trkpt lat="44.94117" lon="5.39537">
        <ele>988</ele>
        <time>2020-06-25T15:59:50Z</time>
      </trkpt>
      <trkpt lat="44.94117" lon="5.39535">
        <ele>988</ele>
        <time>2020-06-25T15:59:51Z</time>
      </trkpt>
      <trkpt lat="44.94117" lon="5.39534">
        <ele>987</ele>
        <time>2020-06-25T15:59:52Z</time>
      </trkpt>
      <trkpt lat="44.94116" lon="5.39532">
        <ele>987</ele>
        <time>2020-06-25T15:59:53Z</time>
      </trkpt>
      <trkpt lat="44.94115" lon="5.3953">
        <ele>987</ele>
        <time>2020-06-25T15:59:54Z</time>
      </trkpt>
      <trkpt lat="44.94115" lon="5.39529">
        <ele>986</ele>
        <time>2020-06-25T15:59:55Z</time>
      </trkpt>
      <trkpt lat="44.94116" lon="5.39526">
        <ele>986</ele>
        <time>2020-06-25T15:59:56Z</time>
      </trkpt>
      <trkpt lat="44.94117" lon="5.39525">
        <ele>986</ele>
        <time>2020-06-25T15:59:57Z</time>
      </trkpt>
      <trkpt lat="44.94119" lon="5.39523">
        <ele>986</ele>
        <time>2020-06-25T15:59:58Z</time>
      </trkpt>
      <trkpt lat="44.94135" lon="5.3951">
        <ele>986</ele>
        <time>2020-06-25T16:00:08Z</time>
      </trkpt>
      <trkpt lat="44.94164" lon="5.39499">
        <ele>984</ele>
        <time>2020-06-25T16:00:17Z</time>
      </trkpt>
      <trkpt lat="44.94168" lon="5.39499">
        <ele>984</ele>
        <time>2020-06-25T16:00:18Z</time>
      </trkpt>
      <trkpt lat="44.94171" lon="5.39498">
        <ele>983</ele>
        <time>2020-06-25T16:00:19Z</time>
      </trkpt>
      <trkpt lat="44.94174" lon="5.39497">
        <ele>983</ele>
        <time>2020-06-25T16:00:20Z</time>
      </trkpt>
      <trkpt lat="44.94178" lon="5.39496">
        <ele>982</ele>
        <time>2020-06-25T16:00:21Z</time>
      </trkpt>
      <trkpt lat="44.94182" lon="5.39495">
        <ele>982</ele>
        <time>2020-06-25T16:00:22Z</time>
      </trkpt>
      <trkpt lat="44.94185" lon="5.39495">
        <ele>982</ele>
        <time>2020-06-25T16:00:23Z</time>
      </trkpt>
      <trkpt lat="44.94196" lon="5.39485">
        <ele>980</ele>
        <time>2020-06-25T16:00:29Z</time>
      </trkpt>
      <trkpt lat="44.94195" lon="5.39482">
        <ele>980</ele>
        <time>2020-06-25T16:00:30Z</time>
      </trkpt>
      <trkpt lat="44.94194" lon="5.3948">
        <ele>979</ele>
        <time>2020-06-25T16:00:31Z</time>
      </trkpt>
      <trkpt lat="44.94193" lon="5.39478">
        <ele>979</ele>
        <time>2020-06-25T16:00:32Z</time>
      </trkpt>
      <trkpt lat="44.94191" lon="5.39476">
        <ele>978</ele>
        <time>2020-06-25T16:00:33Z</time>
      </trkpt>
      <trkpt lat="44.94189" lon="5.39474">
        <ele>978</ele>
        <time>2020-06-25T16:00:34Z</time>
      </trkpt>
      <trkpt lat="44.94187" lon="5.39471">
        <ele>977</ele>
        <time>2020-06-25T16:00:35Z</time>
      </trkpt>
      <trkpt lat="44.94185" lon="5.39469">
        <ele>977</ele>
        <time>2020-06-25T16:00:36Z</time>
      </trkpt>
      <trkpt lat="44.94184" lon="5.39464">
        <ele>976</ele>
        <time>2020-06-25T16:00:39Z</time>
      </trkpt>
      <trkpt lat="44.94184" lon="5.39462">
        <ele>976</ele>
        <time>2020-06-25T16:00:40Z</time>
      </trkpt>
      <trkpt lat="44.94185" lon="5.3946">
        <ele>975</ele>
        <time>2020-06-25T16:00:41Z</time>
      </trkpt>
      <trkpt lat="44.94187" lon="5.39446">
        <ele>973</ele>
        <time>2020-06-25T16:00:51Z</time>
      </trkpt>
      <trkpt lat="44.94186" lon="5.39443">
        <ele>973</ele>
        <time>2020-06-25T16:01:11Z</time>
      </trkpt>
      <trkpt lat="44.94182" lon="5.39434">
        <ele>972</ele>
        <time>2020-06-25T16:01:24Z</time>
      </trkpt>
      <trkpt lat="44.94179" lon="5.39428">
        <ele>971</ele>
        <time>2020-06-25T16:01:40Z</time>
      </trkpt>
      <trkpt lat="44.94174" lon="5.39421">
        <ele>973</ele>
        <time>2020-06-25T16:01:59Z</time>
      </trkpt>
      <trkpt lat="44.9417" lon="5.39421">
        <ele>974</ele>
        <time>2020-06-25T16:02:15Z</time>
      </trkpt>
      <trkpt lat="44.94175" lon="5.39417">
        <ele>972</ele>
        <time>2020-06-25T16:02:35Z</time>
      </trkpt>
      <trkpt lat="44.94175" lon="5.39414">
        <ele>972</ele>
        <time>2020-06-25T16:02:39Z</time>
      </trkpt>
      <trkpt lat="44.94175" lon="5.39412">
        <ele>972</ele>
        <time>2020-06-25T16:02:40Z</time>
      </trkpt>
      <trkpt lat="44.94175" lon="5.3941">
        <ele>971</ele>
        <time>2020-06-25T16:02:41Z</time>
      </trkpt>
      <trkpt lat="44.94174" lon="5.39407">
        <ele>971</ele>
        <time>2020-06-25T16:02:42Z</time>
      </trkpt>
      <trkpt lat="44.94175" lon="5.39404">
        <ele>971</ele>
        <time>2020-06-25T16:02:43Z</time>
      </trkpt>
      <trkpt lat="44.94175" lon="5.39402">
        <ele>970</ele>
        <time>2020-06-25T16:02:44Z</time>
      </trkpt>
      <trkpt lat="44.94176" lon="5.39399">
        <ele>970</ele>
        <time>2020-06-25T16:02:45Z</time>
      </trkpt>
      <trkpt lat="44.94177" lon="5.39396">
        <ele>969</ele>
        <time>2020-06-25T16:02:46Z</time>
      </trkpt>
      <trkpt lat="44.94182" lon="5.39363">
        <ele>965</ele>
        <time>2020-06-25T16:02:58Z</time>
      </trkpt>
      <trkpt lat="44.94183" lon="5.3936">
        <ele>965</ele>
        <time>2020-06-25T16:03:14Z</time>
      </trkpt>
      <trkpt lat="44.94185" lon="5.39375">
        <ele>966</ele>
        <time>2020-06-25T16:03:20Z</time>
      </trkpt>
      <trkpt lat="44.94186" lon="5.39378">
        <ele>966</ele>
        <time>2020-06-25T16:03:21Z</time>
      </trkpt>
      <trkpt lat="44.94186" lon="5.39381">
        <ele>966</ele>
        <time>2020-06-25T16:03:22Z</time>
      </trkpt>
      <trkpt lat="44.94187" lon="5.39383">
        <ele>966</ele>
        <time>2020-06-25T16:03:23Z</time>
      </trkpt>
      <trkpt lat="44.9419" lon="5.39393">
        <ele>966</ele>
        <time>2020-06-25T16:03:27Z</time>
      </trkpt>
      <trkpt lat="44.94196" lon="5.39398">
        <ele>965</ele>
        <time>2020-06-25T16:03:31Z</time>
      </trkpt>
      <trkpt lat="44.94213" lon="5.39403">
        <ele>962</ele>
        <time>2020-06-25T16:03:42Z</time>
      </trkpt>
      <trkpt lat="44.94241" lon="5.39384">
        <ele>959</ele>
        <time>2020-06-25T16:03:54Z</time>
      </trkpt>
      <trkpt lat="44.94257" lon="5.3937">
        <ele>957</ele>
        <time>2020-06-25T16:04:03Z</time>
      </trkpt>
      <trkpt lat="44.94259" lon="5.39369">
        <ele>957</ele>
        <time>2020-06-25T16:04:04Z</time>
      </trkpt>
      <trkpt lat="44.9426" lon="5.39367">
        <ele>957</ele>
        <time>2020-06-25T16:04:05Z</time>
      </trkpt>
      <trkpt lat="44.94276" lon="5.39348">
        <ele>953</ele>
        <time>2020-06-25T16:04:16Z</time>
      </trkpt>
      <trkpt lat="44.94291" lon="5.39334">
        <ele>951</ele>
        <time>2020-06-25T16:04:25Z</time>
      </trkpt>
      <trkpt lat="44.94293" lon="5.39333">
        <ele>951</ele>
        <time>2020-06-25T16:04:26Z</time>
      </trkpt>
      <trkpt lat="44.94295" lon="5.39331">
        <ele>950</ele>
        <time>2020-06-25T16:04:27Z</time>
      </trkpt>
      <trkpt lat="44.94297" lon="5.39331">
        <ele>950</ele>
        <time>2020-06-25T16:04:28Z</time>
      </trkpt>
      <trkpt lat="44.94299" lon="5.39331">
        <ele>950</ele>
        <time>2020-06-25T16:04:29Z</time>
      </trkpt>
      <trkpt lat="44.94301" lon="5.3933">
        <ele>950</ele>
        <time>2020-06-25T16:04:30Z</time>
      </trkpt>
      <trkpt lat="44.94304" lon="5.39331">
        <ele>950</ele>
        <time>2020-06-25T16:04:31Z</time>
      </trkpt>
      <trkpt lat="44.94306" lon="5.39332">
        <ele>950</ele>
        <time>2020-06-25T16:04:32Z</time>
      </trkpt>
      <trkpt lat="44.94335" lon="5.39319">
        <ele>947</ele>
        <time>2020-06-25T16:04:45Z</time>
      </trkpt>
      <trkpt lat="44.94363" lon="5.39311">
        <ele>945</ele>
        <time>2020-06-25T16:04:58Z</time>
      </trkpt>
      <trkpt lat="44.94374" lon="5.39308">
        <ele>944</ele>
        <time>2020-06-25T16:05:05Z</time>
      </trkpt>
      <trkpt lat="44.94376" lon="5.39308">
        <ele>944</ele>
        <time>2020-06-25T16:05:06Z</time>
      </trkpt>
      <trkpt lat="44.94378" lon="5.39309">
        <ele>944</ele>
        <time>2020-06-25T16:05:07Z</time>
      </trkpt>
      <trkpt lat="44.94412" lon="5.39313">
        <ele>942</ele>
        <time>2020-06-25T16:05:19Z</time>
      </trkpt>
      <trkpt lat="44.9442" lon="5.39314">
        <ele>942</ele>
        <time>2020-06-25T16:05:30Z</time>
      </trkpt>
      <trkpt lat="44.94418" lon="5.39313">
        <ele>942</ele>
        <time>2020-06-25T16:06:02Z</time>
      </trkpt>
      <trkpt lat="44.94419" lon="5.39313">
        <ele>942</ele>
        <time>2020-06-25T16:06:26Z</time>
      </trkpt>
      <trkpt lat="44.94417" lon="5.39316">
        <ele>942</ele>
        <time>2020-06-25T16:06:55Z</time>
      </trkpt>
      <trkpt lat="44.94418" lon="5.39316">
        <ele>942</ele>
        <time>2020-06-25T16:07:23Z</time>
      </trkpt>
      <trkpt lat="44.94421" lon="5.39313">
        <ele>941</ele>
        <time>2020-06-25T16:07:32Z</time>
      </trkpt>
      <trkpt lat="44.94423" lon="5.39313">
        <ele>941</ele>
        <time>2020-06-25T16:07:33Z</time>
      </trkpt>
      <trkpt lat="44.94425" lon="5.39314">
        <ele>941</ele>
        <time>2020-06-25T16:07:34Z</time>
      </trkpt>
      <trkpt lat="44.94427" lon="5.39316">
        <ele>941</ele>
        <time>2020-06-25T16:07:35Z</time>
      </trkpt>
      <trkpt lat="44.94429" lon="5.39318">
        <ele>941</ele>
        <time>2020-06-25T16:07:36Z</time>
      </trkpt>
      <trkpt lat="44.94431" lon="5.39319">
        <ele>941</ele>
        <time>2020-06-25T16:07:37Z</time>
      </trkpt>
      <trkpt lat="44.94434" lon="5.39319">
        <ele>941</ele>
        <time>2020-06-25T16:07:38Z</time>
      </trkpt>
      <trkpt lat="44.94437" lon="5.39321">
        <ele>941</ele>
        <time>2020-06-25T16:07:39Z</time>
      </trkpt>
      <trkpt lat="44.9444" lon="5.39323">
        <ele>941</ele>
        <time>2020-06-25T16:07:40Z</time>
      </trkpt>
      <trkpt lat="44.94442" lon="5.39326">
        <ele>941</ele>
        <time>2020-06-25T16:07:41Z</time>
      </trkpt>
      <trkpt lat="44.94463" lon="5.39343">
        <ele>940</ele>
        <time>2020-06-25T16:07:52Z</time>
      </trkpt>
      <trkpt lat="44.94464" lon="5.39344">
        <ele>940</ele>
        <time>2020-06-25T16:07:53Z</time>
      </trkpt>
      <trkpt lat="44.94466" lon="5.39345">
        <ele>940</ele>
        <time>2020-06-25T16:07:54Z</time>
      </trkpt>
      <trkpt lat="44.94468" lon="5.39347">
        <ele>940</ele>
        <time>2020-06-25T16:07:55Z</time>
      </trkpt>
      <trkpt lat="44.94471" lon="5.3935">
        <ele>940</ele>
        <time>2020-06-25T16:07:56Z</time>
      </trkpt>
      <trkpt lat="44.94473" lon="5.39353">
        <ele>940</ele>
        <time>2020-06-25T16:07:57Z</time>
      </trkpt>
      <trkpt lat="44.94504" lon="5.39367">
        <ele>938</ele>
        <time>2020-06-25T16:08:07Z</time>
      </trkpt>
      <trkpt lat="44.94509" lon="5.39366">
        <ele>937</ele>
        <time>2020-06-25T16:08:08Z</time>
      </trkpt>
      <trkpt lat="44.94512" lon="5.39365">
        <ele>937</ele>
        <time>2020-06-25T16:08:09Z</time>
      </trkpt>
      <trkpt lat="44.94516" lon="5.39364">
        <ele>936</ele>
        <time>2020-06-25T16:08:10Z</time>
      </trkpt>
      <trkpt lat="44.9452" lon="5.39361">
        <ele>935</ele>
        <time>2020-06-25T16:08:11Z</time>
      </trkpt>
      <trkpt lat="44.94524" lon="5.39357">
        <ele>935</ele>
        <time>2020-06-25T16:08:12Z</time>
      </trkpt>
      <trkpt lat="44.94527" lon="5.39351">
        <ele>934</ele>
        <time>2020-06-25T16:08:13Z</time>
      </trkpt>
      <trkpt lat="44.9453" lon="5.39346">
        <ele>934</ele>
        <time>2020-06-25T16:08:14Z</time>
      </trkpt>
      <trkpt lat="44.94548" lon="5.39324">
        <ele>934</ele>
        <time>2020-06-25T16:08:20Z</time>
      </trkpt>
      <trkpt lat="44.9455" lon="5.39325">
        <ele>934</ele>
        <time>2020-06-25T16:08:21Z</time>
      </trkpt>
      <trkpt lat="44.94552" lon="5.39328">
        <ele>934</ele>
        <time>2020-06-25T16:08:22Z</time>
      </trkpt>
      <trkpt lat="44.94553" lon="5.39331">
        <ele>934</ele>
        <time>2020-06-25T16:08:23Z</time>
      </trkpt>
      <trkpt lat="44.94553" lon="5.39334">
        <ele>934</ele>
        <time>2020-06-25T16:08:24Z</time>
      </trkpt>
      <trkpt lat="44.94553" lon="5.39336">
        <ele>934</ele>
        <time>2020-06-25T16:08:25Z</time>
      </trkpt>
      <trkpt lat="44.94553" lon="5.39339">
        <ele>934</ele>
        <time>2020-06-25T16:08:26Z</time>
      </trkpt>
      <trkpt lat="44.94554" lon="5.39342">
        <ele>933</ele>
        <time>2020-06-25T16:08:27Z</time>
      </trkpt>
      <trkpt lat="44.94554" lon="5.39344">
        <ele>933</ele>
        <time>2020-06-25T16:08:28Z</time>
      </trkpt>
      <trkpt lat="44.94554" lon="5.39346">
        <ele>933</ele>
        <time>2020-06-25T16:08:29Z</time>
      </trkpt>
      <trkpt lat="44.94556" lon="5.39347">
        <ele>933</ele>
        <time>2020-06-25T16:08:38Z</time>
      </trkpt>
      <trkpt lat="44.94556" lon="5.39346">
        <ele>933</ele>
        <time>2020-06-25T16:08:56Z</time>
      </trkpt>
      <trkpt lat="44.94559" lon="5.39346">
        <ele>933</ele>
        <time>2020-06-25T16:09:03Z</time>
      </trkpt>
      <trkpt lat="44.94561" lon="5.39347">
        <ele>933</ele>
        <time>2020-06-25T16:09:04Z</time>
      </trkpt>
      <trkpt lat="44.94561" lon="5.39349">
        <ele>933</ele>
        <time>2020-06-25T16:09:05Z</time>
      </trkpt>
      <trkpt lat="44.94562" lon="5.39351">
        <ele>933</ele>
        <time>2020-06-25T16:09:06Z</time>
      </trkpt>
      <trkpt lat="44.94563" lon="5.39353">
        <ele>933</ele>
        <time>2020-06-25T16:09:07Z</time>
      </trkpt>
      <trkpt lat="44.94565" lon="5.39356">
        <ele>933</ele>
        <time>2020-06-25T16:09:08Z</time>
      </trkpt>
      <trkpt lat="44.94586" lon="5.39388">
        <ele>932</ele>
        <time>2020-06-25T16:09:19Z</time>
      </trkpt>
      <trkpt lat="44.94601" lon="5.39466">
        <ele>934</ele>
        <time>2020-06-25T16:09:33Z</time>
      </trkpt>
      <trkpt lat="44.94631" lon="5.39512">
        <ele>935</ele>
        <time>2020-06-25T16:09:44Z</time>
      </trkpt>
      <trkpt lat="44.94658" lon="5.39534">
        <ele>935</ele>
        <time>2020-06-25T16:09:52Z</time>
      </trkpt>
      <trkpt lat="44.94681" lon="5.39546">
        <ele>935</ele>
        <time>2020-06-25T16:10:00Z</time>
      </trkpt>
      <trkpt lat="44.94683" lon="5.39548">
        <ele>934</ele>
        <time>2020-06-25T16:10:01Z</time>
      </trkpt>
      <trkpt lat="44.94685" lon="5.39551">
        <ele>934</ele>
        <time>2020-06-25T16:10:02Z</time>
      </trkpt>
      <trkpt lat="44.94712" lon="5.39584">
        <ele>934</ele>
        <time>2020-06-25T16:10:12Z</time>
      </trkpt>
      <trkpt lat="44.9475" lon="5.39611">
        <ele>932</ele>
        <time>2020-06-25T16:10:23Z</time>
      </trkpt>
      <trkpt lat="44.94773" lon="5.3963">
        <ele>930</ele>
        <time>2020-06-25T16:10:34Z</time>
      </trkpt>
      <trkpt lat="44.94799" lon="5.39657">
        <ele>928</ele>
        <time>2020-06-25T16:10:46Z</time>
      </trkpt>
      <trkpt lat="44.9482" lon="5.39682">
        <ele>925</ele>
        <time>2020-06-25T16:10:58Z</time>
      </trkpt>
      <trkpt lat="44.94842" lon="5.39708">
        <ele>922</ele>
        <time>2020-06-25T16:11:10Z</time>
      </trkpt>
      <trkpt lat="44.94878" lon="5.39746">
        <ele>917</ele>
        <time>2020-06-25T16:11:22Z</time>
      </trkpt>
      <trkpt lat="44.94904" lon="5.39776">
        <ele>913</ele>
        <time>2020-06-25T16:11:34Z</time>
      </trkpt>
      <trkpt lat="44.94932" lon="5.39799">
        <ele>908</ele>
        <time>2020-06-25T16:11:48Z</time>
      </trkpt>
      <trkpt lat="44.94954" lon="5.39823">
        <ele>905</ele>
        <time>2020-06-25T16:11:59Z</time>
      </trkpt>
      <trkpt lat="44.94965" lon="5.39834">
        <ele>903</ele>
        <time>2020-06-25T16:12:07Z</time>
      </trkpt>
      <trkpt lat="44.94966" lon="5.39837">
        <ele>903</ele>
        <time>2020-06-25T16:12:21Z</time>
      </trkpt>
      <trkpt lat="44.9496" lon="5.39845">
        <ele>904</ele>
        <time>2020-06-25T16:12:35Z</time>
      </trkpt>
      <trkpt lat="44.94957" lon="5.39853">
        <ele>905</ele>
        <time>2020-06-25T16:12:49Z</time>
      </trkpt>
      <trkpt lat="44.94956" lon="5.39855">
        <ele>905</ele>
        <time>2020-06-25T16:12:55Z</time>
      </trkpt>
      <trkpt lat="44.94969" lon="5.39869">
        <ele>902</ele>
        <time>2020-06-25T16:13:06Z</time>
      </trkpt>
      <trkpt lat="44.94989" lon="5.39868">
        <ele>896</ele>
        <time>2020-06-25T16:13:20Z</time>
      </trkpt>
      <trkpt lat="44.94996" lon="5.39866">
        <ele>895</ele>
        <time>2020-06-25T16:13:24Z</time>
      </trkpt>
      <trkpt lat="44.94999" lon="5.39871">
        <ele>894</ele>
        <time>2020-06-25T16:13:28Z</time>
      </trkpt>
      <trkpt lat="44.94994" lon="5.39871">
        <ele>895</ele>
        <time>2020-06-25T16:13:41Z</time>
      </trkpt>
      <trkpt lat="44.94994" lon="5.39869">
        <ele>895</ele>
        <time>2020-06-25T16:13:47Z</time>
      </trkpt>
      <trkpt lat="44.95003" lon="5.39865">
        <ele>893</ele>
        <time>2020-06-25T16:13:52Z</time>
      </trkpt>
      <trkpt lat="44.95004" lon="5.39864">
        <ele>893</ele>
        <time>2020-06-25T16:13:53Z</time>
      </trkpt>
      <trkpt lat="44.95031" lon="5.39831">
        <ele>891</ele>
        <time>2020-06-25T16:14:06Z</time>
      </trkpt>
      <trkpt lat="44.9503" lon="5.39828">
        <ele>891</ele>
        <time>2020-06-25T16:14:07Z</time>
      </trkpt>
      <trkpt lat="44.9503" lon="5.39826">
        <ele>891</ele>
        <time>2020-06-25T16:14:08Z</time>
      </trkpt>
      <trkpt lat="44.9503" lon="5.39824">
        <ele>891</ele>
        <time>2020-06-25T16:14:09Z</time>
      </trkpt>
      <trkpt lat="44.95029" lon="5.39821">
        <ele>892</ele>
        <time>2020-06-25T16:14:10Z</time>
      </trkpt>
      <trkpt lat="44.9503" lon="5.39819">
        <ele>892</ele>
        <time>2020-06-25T16:14:11Z</time>
      </trkpt>
      <trkpt lat="44.9503" lon="5.39817">
        <ele>892</ele>
        <time>2020-06-25T16:14:12Z</time>
      </trkpt>
      <trkpt lat="44.95029" lon="5.39808">
        <ele>892</ele>
        <time>2020-06-25T16:14:24Z</time>
      </trkpt>
      <trkpt lat="44.95033" lon="5.39798">
        <ele>892</ele>
        <time>2020-06-25T16:14:30Z</time>
      </trkpt>
      <trkpt lat="44.95035" lon="5.39796">
        <ele>892</ele>
        <time>2020-06-25T16:14:32Z</time>
      </trkpt>
      <trkpt lat="44.95036" lon="5.39793">
        <ele>892</ele>
        <time>2020-06-25T16:14:33Z</time>
      </trkpt>
      <trkpt lat="44.95034" lon="5.3979">
        <ele>893</ele>
        <time>2020-06-25T16:14:34Z</time>
      </trkpt>
      <trkpt lat="44.95032" lon="5.3979">
        <ele>893</ele>
        <time>2020-06-25T16:14:35Z</time>
      </trkpt>
      <trkpt lat="44.9503" lon="5.39791">
        <ele>893</ele>
        <time>2020-06-25T16:14:37Z</time>
      </trkpt>
      <trkpt lat="44.9503" lon="5.39793">
        <ele>893</ele>
        <time>2020-06-25T16:14:38Z</time>
      </trkpt>
      <trkpt lat="44.95029" lon="5.39795">
        <ele>893</ele>
        <time>2020-06-25T16:14:39Z</time>
      </trkpt>
      <trkpt lat="44.9503" lon="5.39798">
        <ele>893</ele>
        <time>2020-06-25T16:14:40Z</time>
      </trkpt>
      <trkpt lat="44.95032" lon="5.398">
        <ele>892</ele>
        <time>2020-06-25T16:14:41Z</time>
      </trkpt>
      <trkpt lat="44.95034" lon="5.398">
        <ele>892</ele>
        <time>2020-06-25T16:14:42Z</time>
      </trkpt>
      <trkpt lat="44.95036" lon="5.39801">
        <ele>892</ele>
        <time>2020-06-25T16:14:43Z</time>
      </trkpt>
      <trkpt lat="44.95039" lon="5.39803">
        <ele>891</ele>
        <time>2020-06-25T16:14:44Z</time>
      </trkpt>
      <trkpt lat="44.95043" lon="5.39805">
        <ele>891</ele>
        <time>2020-06-25T16:14:45Z</time>
      </trkpt>
      <trkpt lat="44.95046" lon="5.39808">
        <ele>890</ele>
        <time>2020-06-25T16:14:46Z</time>
      </trkpt>
      <trkpt lat="44.9505" lon="5.39813">
        <ele>889</ele>
        <time>2020-06-25T16:14:47Z</time>
      </trkpt>
      <trkpt lat="44.95053" lon="5.39821">
        <ele>889</ele>
        <time>2020-06-25T16:14:48Z</time>
      </trkpt>
      <trkpt lat="44.95053" lon="5.3983">
        <ele>888</ele>
        <time>2020-06-25T16:14:49Z</time>
      </trkpt>
      <trkpt lat="44.95052" lon="5.39841">
        <ele>887</ele>
        <time>2020-06-25T16:14:50Z</time>
      </trkpt>
      <trkpt lat="44.95048" lon="5.39849">
        <ele>887</ele>
        <time>2020-06-25T16:14:51Z</time>
      </trkpt>
      <trkpt lat="44.95043" lon="5.39856">
        <ele>887</ele>
        <time>2020-06-25T16:14:52Z</time>
      </trkpt>
      <trkpt lat="44.95036" lon="5.39863">
        <ele>887</ele>
        <time>2020-06-25T16:14:53Z</time>
      </trkpt>
      <trkpt lat="44.95004" lon="5.39902">
        <ele>892</ele>
        <time>2020-06-25T16:14:58Z</time>
      </trkpt>
      <trkpt lat="44.95" lon="5.39912">
        <ele>892</ele>
        <time>2020-06-25T16:14:59Z</time>
      </trkpt>
      <trkpt lat="44.94998" lon="5.39922">
        <ele>893</ele>
        <time>2020-06-25T16:15:00Z</time>
      </trkpt>
      <trkpt lat="44.94999" lon="5.39932">
        <ele>892</ele>
        <time>2020-06-25T16:15:01Z</time>
      </trkpt>
      <trkpt lat="44.95002" lon="5.39942">
        <ele>891</ele>
        <time>2020-06-25T16:15:02Z</time>
      </trkpt>
      <trkpt lat="44.95007" lon="5.39951">
        <ele>890</ele>
        <time>2020-06-25T16:15:03Z</time>
      </trkpt>
      <trkpt lat="44.95011" lon="5.3996">
        <ele>889</ele>
        <time>2020-06-25T16:15:04Z</time>
      </trkpt>
      <trkpt lat="44.95017" lon="5.39968">
        <ele>888</ele>
        <time>2020-06-25T16:15:05Z</time>
      </trkpt>
      <trkpt lat="44.95023" lon="5.39977">
        <ele>888</ele>
        <time>2020-06-25T16:15:06Z</time>
      </trkpt>
      <trkpt lat="44.95035" lon="5.39995">
        <ele>888</ele>
        <time>2020-06-25T16:15:08Z</time>
      </trkpt>
      <trkpt lat="44.95042" lon="5.40002">
        <ele>888</ele>
        <time>2020-06-25T16:15:09Z</time>
      </trkpt>
      <trkpt lat="44.95051" lon="5.40008">
        <ele>887</ele>
        <time>2020-06-25T16:15:10Z</time>
      </trkpt>
      <trkpt lat="44.9506" lon="5.40012">
        <ele>886</ele>
        <time>2020-06-25T16:15:11Z</time>
      </trkpt>
      <trkpt lat="44.95069" lon="5.40015">
        <ele>885</ele>
        <time>2020-06-25T16:15:12Z</time>
      </trkpt>
      <trkpt lat="44.95088" lon="5.40021">
        <ele>882</ele>
        <time>2020-06-25T16:15:14Z</time>
      </trkpt>
      <trkpt lat="44.95107" lon="5.40029">
        <ele>880</ele>
        <time>2020-06-25T16:15:16Z</time>
      </trkpt>
      <trkpt lat="44.95117" lon="5.40036">
        <ele>880</ele>
        <time>2020-06-25T16:15:17Z</time>
      </trkpt>
      <trkpt lat="44.95125" lon="5.40044">
        <ele>880</ele>
        <time>2020-06-25T16:15:18Z</time>
      </trkpt>
      <trkpt lat="44.95132" lon="5.40053">
        <ele>880</ele>
        <time>2020-06-25T16:15:19Z</time>
      </trkpt>
      <trkpt lat="44.95139" lon="5.40062">
        <ele>880</ele>
        <time>2020-06-25T16:15:20Z</time>
      </trkpt>
      <trkpt lat="44.95177" lon="5.4012">
        <ele>883</ele>
        <time>2020-06-25T16:15:26Z</time>
      </trkpt>
      <trkpt lat="44.95185" lon="5.40127">
        <ele>883</ele>
        <time>2020-06-25T16:15:27Z</time>
      </trkpt>
      <trkpt lat="44.95194" lon="5.40133">
        <ele>882</ele>
        <time>2020-06-25T16:15:28Z</time>
      </trkpt>
      <trkpt lat="44.95203" lon="5.40138">
        <ele>882</ele>
        <time>2020-06-25T16:15:29Z</time>
      </trkpt>
      <trkpt lat="44.95211" lon="5.4014">
        <ele>881</ele>
        <time>2020-06-25T16:15:30Z</time>
      </trkpt>
      <trkpt lat="44.95239" lon="5.40153">
        <ele>879</ele>
        <time>2020-06-25T16:15:33Z</time>
      </trkpt>
      <trkpt lat="44.95247" lon="5.40159">
        <ele>878</ele>
        <time>2020-06-25T16:15:34Z</time>
      </trkpt>
      <trkpt lat="44.95255" lon="5.40166">
        <ele>878</ele>
        <time>2020-06-25T16:15:35Z</time>
      </trkpt>
      <trkpt lat="44.95262" lon="5.40174">
        <ele>878</ele>
        <time>2020-06-25T16:15:36Z</time>
      </trkpt>
      <trkpt lat="44.95269" lon="5.40184">
        <ele>879</ele>
        <time>2020-06-25T16:15:37Z</time>
      </trkpt>
      <trkpt lat="44.95328" lon="5.40264">
        <ele>878</ele>
        <time>2020-06-25T16:15:46Z</time>
      </trkpt>
      <trkpt lat="44.95351" lon="5.40286">
        <ele>876</ele>
        <time>2020-06-25T16:15:49Z</time>
      </trkpt>
      <trkpt lat="44.95358" lon="5.40295">
        <ele>876</ele>
        <time>2020-06-25T16:15:50Z</time>
      </trkpt>
      <trkpt lat="44.95364" lon="5.40304">
        <ele>875</ele>
        <time>2020-06-25T16:15:51Z</time>
      </trkpt>
      <trkpt lat="44.95388" lon="5.40346">
        <ele>875</ele>
        <time>2020-06-25T16:15:55Z</time>
      </trkpt>
      <trkpt lat="44.95414" lon="5.40388">
        <ele>874</ele>
        <time>2020-06-25T16:15:59Z</time>
      </trkpt>
      <trkpt lat="44.95421" lon="5.40395">
        <ele>874</ele>
        <time>2020-06-25T16:16:00Z</time>
      </trkpt>
      <trkpt lat="44.95429" lon="5.40403">
        <ele>873</ele>
        <time>2020-06-25T16:16:01Z</time>
      </trkpt>
      <trkpt lat="44.95438" lon="5.40409">
        <ele>873</ele>
        <time>2020-06-25T16:16:02Z</time>
      </trkpt>
      <trkpt lat="44.95447" lon="5.40415">
        <ele>872</ele>
        <time>2020-06-25T16:16:03Z</time>
      </trkpt>
      <trkpt lat="44.95539" lon="5.40488">
        <ele>871</ele>
        <time>2020-06-25T16:16:16Z</time>
      </trkpt>
      <trkpt lat="44.95585" lon="5.40538">
        <ele>871</ele>
        <time>2020-06-25T16:16:24Z</time>
      </trkpt>
      <trkpt lat="44.95611" lon="5.40575">
        <ele>873</ele>
        <time>2020-06-25T16:16:29Z</time>
      </trkpt>
      <trkpt lat="44.95618" lon="5.4058">
        <ele>873</ele>
        <time>2020-06-25T16:16:30Z</time>
      </trkpt>
      <trkpt lat="44.95624" lon="5.40585">
        <ele>873</ele>
        <time>2020-06-25T16:16:31Z</time>
      </trkpt>
      <trkpt lat="44.95632" lon="5.4059">
        <ele>873</ele>
        <time>2020-06-25T16:16:32Z</time>
      </trkpt>
      <trkpt lat="44.95638" lon="5.40592">
        <ele>872</ele>
        <time>2020-06-25T16:16:33Z</time>
      </trkpt>
      <trkpt lat="44.95748" lon="5.40642">
        <ele>869</ele>
        <time>2020-06-25T16:16:47Z</time>
      </trkpt>
      <trkpt lat="44.95813" lon="5.407">
        <ele>865</ele>
        <time>2020-06-25T16:16:56Z</time>
      </trkpt>
      <trkpt lat="44.95819" lon="5.40709">
        <ele>865</ele>
        <time>2020-06-25T16:16:57Z</time>
      </trkpt>
      <trkpt lat="44.95847" lon="5.40756">
        <ele>863</ele>
        <time>2020-06-25T16:17:02Z</time>
      </trkpt>
      <trkpt lat="44.95899" lon="5.40816">
        <ele>860</ele>
        <time>2020-06-25T16:17:09Z</time>
      </trkpt>
      <trkpt lat="44.95959" lon="5.4088">
        <ele>859</ele>
        <time>2020-06-25T16:17:17Z</time>
      </trkpt>
      <trkpt lat="44.95967" lon="5.40886">
        <ele>859</ele>
        <time>2020-06-25T16:17:18Z</time>
      </trkpt>
      <trkpt lat="44.95991" lon="5.409">
        <ele>858</ele>
        <time>2020-06-25T16:17:21Z</time>
      </trkpt>
      <trkpt lat="44.96052" lon="5.40914">
        <ele>856</ele>
        <time>2020-06-25T16:17:29Z</time>
      </trkpt>
      <trkpt lat="44.96056" lon="5.40916">
        <ele>856</ele>
        <time>2020-06-25T16:17:30Z</time>
      </trkpt>
      <trkpt lat="44.96057" lon="5.4092">
        <ele>856</ele>
        <time>2020-06-25T16:17:31Z</time>
      </trkpt>
      <trkpt lat="44.96058" lon="5.40925">
        <ele>857</ele>
        <time>2020-06-25T16:17:33Z</time>
      </trkpt>
      <trkpt lat="44.96057" lon="5.40927">
        <ele>857</ele>
        <time>2020-06-25T16:17:34Z</time>
      </trkpt>
      <trkpt lat="44.96055" lon="5.40928">
        <ele>857</ele>
        <time>2020-06-25T16:17:35Z</time>
      </trkpt>
      <trkpt lat="44.96054" lon="5.4093">
        <ele>857</ele>
        <time>2020-06-25T16:17:36Z</time>
      </trkpt>
      <trkpt lat="44.96053" lon="5.40932">
        <ele>857</ele>
        <time>2020-06-25T16:17:37Z</time>
      </trkpt>
      <trkpt lat="44.96051" lon="5.40934">
        <ele>857</ele>
        <time>2020-06-25T16:17:38Z</time>
      </trkpt>
      <trkpt lat="44.96042" lon="5.4097">
        <ele>858</ele>
        <time>2020-06-25T16:17:49Z</time>
      </trkpt>
      <trkpt lat="44.9603" lon="5.41021">
        <ele>859</ele>
        <time>2020-06-25T16:18:02Z</time>
      </trkpt>
      <trkpt lat="44.96018" lon="5.41056">
        <ele>860</ele>
        <time>2020-06-25T16:18:13Z</time>
      </trkpt>
      <trkpt lat="44.95985" lon="5.41092">
        <ele>860</ele>
        <time>2020-06-25T16:18:27Z</time>
      </trkpt>
      <trkpt lat="44.95951" lon="5.41113">
        <ele>859</ele>
        <time>2020-06-25T16:18:39Z</time>
      </trkpt>
      <trkpt lat="44.95922" lon="5.41149">
        <ele>859</ele>
        <time>2020-06-25T16:18:50Z</time>
      </trkpt>
      <trkpt lat="44.95921" lon="5.41157">
        <ele>859</ele>
        <time>2020-06-25T16:18:51Z</time>
      </trkpt>
      <trkpt lat="44.9592" lon="5.41161">
        <ele>859</ele>
        <time>2020-06-25T16:18:52Z</time>
      </trkpt>
      <trkpt lat="44.9592" lon="5.41167">
        <ele>859</ele>
        <time>2020-06-25T16:18:53Z</time>
      </trkpt>
      <trkpt lat="44.9592" lon="5.41173">
        <ele>859</ele>
        <time>2020-06-25T16:18:54Z</time>
      </trkpt>
      <trkpt lat="44.9592" lon="5.41179">
        <ele>859</ele>
        <time>2020-06-25T16:18:55Z</time>
      </trkpt>
      <trkpt lat="44.95919" lon="5.41215">
        <ele>860</ele>
        <time>2020-06-25T16:19:01Z</time>
      </trkpt>
      <trkpt lat="44.95918" lon="5.41221">
        <ele>860</ele>
        <time>2020-06-25T16:19:02Z</time>
      </trkpt>
      <trkpt lat="44.95918" lon="5.41228">
        <ele>860</ele>
        <time>2020-06-25T16:19:03Z</time>
      </trkpt>
      <trkpt lat="44.95927" lon="5.41277">
        <ele>860</ele>
        <time>2020-06-25T16:19:14Z</time>
      </trkpt>
      <trkpt lat="44.95949" lon="5.41316">
        <ele>861</ele>
        <time>2020-06-25T16:19:28Z</time>
      </trkpt>
      <trkpt lat="44.95954" lon="5.41319">
        <ele>861</ele>
        <time>2020-06-25T16:19:31Z</time>
      </trkpt>
      <trkpt lat="44.95956" lon="5.4132">
        <ele>861</ele>
        <time>2020-06-25T16:19:32Z</time>
      </trkpt>
      <trkpt lat="44.95957" lon="5.4132">
        <ele>861</ele>
        <time>2020-06-25T16:19:33Z</time>
      </trkpt>
      <trkpt lat="44.95958" lon="5.41319">
        <ele>861</ele>
        <time>2020-06-25T16:19:34Z</time>
      </trkpt>
      <trkpt lat="44.9596" lon="5.41318">
        <ele>861</ele>
        <time>2020-06-25T16:19:35Z</time>
      </trkpt>
      <trkpt lat="44.95961" lon="5.41317">
        <ele>861</ele>
        <time>2020-06-25T16:19:36Z</time>
      </trkpt>
      <trkpt lat="44.95962" lon="5.41315">
        <ele>861</ele>
        <time>2020-06-25T16:19:37Z</time>
      </trkpt>
      <trkpt lat="44.95963" lon="5.41315">
        <ele>861</ele>
        <time>2020-06-25T16:19:38Z</time>
      </trkpt>
      <trkpt lat="44.95965" lon="5.41312">
        <ele>861</ele>
        <time>2020-06-25T16:19:40Z</time>
      </trkpt>
      <trkpt lat="44.95966" lon="5.4131">
        <ele>861</ele>
        <time>2020-06-25T16:19:41Z</time>
      </trkpt>
      <trkpt lat="44.95966" lon="5.41308">
        <ele>861</ele>
        <time>2020-06-25T16:19:42Z</time>
      </trkpt>
      <trkpt lat="44.95966" lon="5.41306">
        <ele>861</ele>
        <time>2020-06-25T16:19:43Z</time>
      </trkpt>
      <trkpt lat="44.95967" lon="5.41303">
        <ele>861</ele>
        <time>2020-06-25T16:19:44Z</time>
      </trkpt>
      <trkpt lat="44.95966" lon="5.41301">
        <ele>861</ele>
        <time>2020-06-25T16:19:45Z</time>
      </trkpt>
      <trkpt lat="44.95966" lon="5.41298">
        <ele>861</ele>
        <time>2020-06-25T16:19:46Z</time>
      </trkpt>
      <trkpt lat="44.95965" lon="5.41295">
        <ele>861</ele>
        <time>2020-06-25T16:19:47Z</time>
      </trkpt>
      <trkpt lat="44.95964" lon="5.41292">
        <ele>861</ele>
        <time>2020-06-25T16:19:48Z</time>
      </trkpt>
      <trkpt lat="44.95953" lon="5.41256">
        <ele>861</ele>
        <time>2020-06-25T16:20:02Z</time>
      </trkpt>
      <trkpt lat="44.95949" lon="5.41214">
        <ele>862</ele>
        <time>2020-06-25T16:20:17Z</time>
      </trkpt>
      <trkpt lat="44.9596" lon="5.41184">
        <ele>862</ele>
        <time>2020-06-25T16:20:29Z</time>
      </trkpt>
      <trkpt lat="44.9596" lon="5.41181">
        <ele>862</ele>
        <time>2020-06-25T16:20:30Z</time>
      </trkpt>
      <trkpt lat="44.9596" lon="5.41178">
        <ele>862</ele>
        <time>2020-06-25T16:20:31Z</time>
      </trkpt>
      <trkpt lat="44.95961" lon="5.41176">
        <ele>862</ele>
        <time>2020-06-25T16:20:32Z</time>
      </trkpt>
      <trkpt lat="44.95962" lon="5.41174">
        <ele>862</ele>
        <time>2020-06-25T16:20:33Z</time>
      </trkpt>
      <trkpt lat="44.95964" lon="5.41173">
        <ele>862</ele>
        <time>2020-06-25T16:20:34Z</time>
      </trkpt>
      <trkpt lat="44.95965" lon="5.41171">
        <ele>862</ele>
        <time>2020-06-25T16:20:35Z</time>
      </trkpt>
      <trkpt lat="44.95966" lon="5.4117">
        <ele>862</ele>
        <time>2020-06-25T16:20:36Z</time>
      </trkpt>
      <trkpt lat="44.95968" lon="5.41168">
        <ele>862</ele>
        <time>2020-06-25T16:20:37Z</time>
      </trkpt>
      <trkpt lat="44.95989" lon="5.41152">
        <ele>863</ele>
        <time>2020-06-25T16:20:50Z</time>
      </trkpt>
      <trkpt lat="44.9599" lon="5.41151">
        <ele>864</ele>
        <time>2020-06-25T16:20:51Z</time>
      </trkpt>
      <trkpt lat="44.95992" lon="5.4115">
        <ele>864</ele>
        <time>2020-06-25T16:20:52Z</time>
      </trkpt>
      <trkpt lat="44.95993" lon="5.41149">
        <ele>864</ele>
        <time>2020-06-25T16:20:53Z</time>
      </trkpt>
      <trkpt lat="44.95995" lon="5.41148">
        <ele>864</ele>
        <time>2020-06-25T16:20:54Z</time>
      </trkpt>
      <trkpt lat="44.95997" lon="5.41147">
        <ele>864</ele>
        <time>2020-06-25T16:20:55Z</time>
      </trkpt>
      <trkpt lat="44.95999" lon="5.41147">
        <ele>864</ele>
        <time>2020-06-25T16:20:56Z</time>
      </trkpt>
      <trkpt lat="44.96001" lon="5.41147">
        <ele>865</ele>
        <time>2020-06-25T16:20:57Z</time>
      </trkpt>
      <trkpt lat="44.96003" lon="5.41147">
        <ele>865</ele>
        <time>2020-06-25T16:20:58Z</time>
      </trkpt>
      <trkpt lat="44.96005" lon="5.41146">
        <ele>865</ele>
        <time>2020-06-25T16:20:59Z</time>
      </trkpt>
      <trkpt lat="44.96007" lon="5.41146">
        <ele>865</ele>
        <time>2020-06-25T16:21:00Z</time>
      </trkpt>
      <trkpt lat="44.96034" lon="5.41149">
        <ele>869</ele>
        <time>2020-06-25T16:21:15Z</time>
      </trkpt>
      <trkpt lat="44.96041" lon="5.4117">
        <ele>871</ele>
        <time>2020-06-25T16:21:27Z</time>
      </trkpt>
      <trkpt lat="44.96047" lon="5.41217">
        <ele>874</ele>
        <time>2020-06-25T16:21:43Z</time>
      </trkpt>
      <trkpt lat="44.96063" lon="5.41264">
        <ele>876</ele>
        <time>2020-06-25T16:22:00Z</time>
      </trkpt>
      <trkpt lat="44.96092" lon="5.41274">
        <ele>879</ele>
        <time>2020-06-25T16:22:13Z</time>
      </trkpt>
      <trkpt lat="44.96094" lon="5.41274">
        <ele>879</ele>
        <time>2020-06-25T16:22:14Z</time>
      </trkpt>
      <trkpt lat="44.96096" lon="5.41273">
        <ele>880</ele>
        <time>2020-06-25T16:22:15Z</time>
      </trkpt>
      <trkpt lat="44.96098" lon="5.41272">
        <ele>880</ele>
        <time>2020-06-25T16:22:16Z</time>
      </trkpt>
      <trkpt lat="44.961" lon="5.41272">
        <ele>880</ele>
        <time>2020-06-25T16:22:17Z</time>
      </trkpt>
      <trkpt lat="44.96103" lon="5.41272">
        <ele>880</ele>
        <time>2020-06-25T16:22:18Z</time>
      </trkpt>
      <trkpt lat="44.96105" lon="5.41273">
        <ele>881</ele>
        <time>2020-06-25T16:22:19Z</time>
      </trkpt>
      <trkpt lat="44.96107" lon="5.41273">
        <ele>881</ele>
        <time>2020-06-25T16:22:20Z</time>
      </trkpt>
      <trkpt lat="44.96109" lon="5.41273">
        <ele>881</ele>
        <time>2020-06-25T16:22:21Z</time>
      </trkpt>
      <trkpt lat="44.96147" lon="5.41284">
        <ele>883</ele>
        <time>2020-06-25T16:22:37Z</time>
      </trkpt>
      <trkpt lat="44.96186" lon="5.41301">
        <ele>883</ele>
        <time>2020-06-25T16:22:54Z</time>
      </trkpt>
      <trkpt lat="44.96229" lon="5.41325">
        <ele>883</ele>
        <time>2020-06-25T16:23:11Z</time>
      </trkpt>
      <trkpt lat="44.96277" lon="5.41366">
        <ele>884</ele>
        <time>2020-06-25T16:23:28Z</time>
      </trkpt>
      <trkpt lat="44.96324" lon="5.41403">
        <ele>886</ele>
        <time>2020-06-25T16:23:43Z</time>
      </trkpt>
      <trkpt lat="44.96341" lon="5.41418">
        <ele>886</ele>
        <time>2020-06-25T16:23:48Z</time>
      </trkpt>
      <trkpt lat="44.96347" lon="5.41433">
        <ele>886</ele>
        <time>2020-06-25T16:23:51Z</time>
      </trkpt>
      <trkpt lat="44.96347" lon="5.41438">
        <ele>886</ele>
        <time>2020-06-25T16:23:52Z</time>
      </trkpt>
      <trkpt lat="44.96339" lon="5.41491">
        <ele>886</ele>
        <time>2020-06-25T16:24:04Z</time>
      </trkpt>
      <trkpt lat="44.96322" lon="5.41558">
        <ele>886</ele>
        <time>2020-06-25T16:24:19Z</time>
      </trkpt>
      <trkpt lat="44.96339" lon="5.41594">
        <ele>887</ele>
        <time>2020-06-25T16:24:29Z</time>
      </trkpt>
      <trkpt lat="44.96376" lon="5.41639">
        <ele>888</ele>
        <time>2020-06-25T16:24:46Z</time>
      </trkpt>
      <trkpt lat="44.96389" lon="5.41631">
        <ele>888</ele>
        <time>2020-06-25T16:24:50Z</time>
      </trkpt>
      <trkpt lat="44.9644" lon="5.41609">
        <ele>889</ele>
        <time>2020-06-25T16:25:04Z</time>
      </trkpt>
      <trkpt lat="44.96444" lon="5.41613">
        <ele>889</ele>
        <time>2020-06-25T16:25:05Z</time>
      </trkpt>
      <trkpt lat="44.96467" lon="5.4166">
        <ele>888</ele>
        <time>2020-06-25T16:25:16Z</time>
      </trkpt>
      <trkpt lat="44.96486" lon="5.41705">
        <ele>887</ele>
        <time>2020-06-25T16:25:29Z</time>
      </trkpt>
      <trkpt lat="44.96518" lon="5.41744">
        <ele>886</ele>
        <time>2020-06-25T16:25:41Z</time>
      </trkpt>
      <trkpt lat="44.96573" lon="5.41753">
        <ele>888</ele>
        <time>2020-06-25T16:25:56Z</time>
      </trkpt>
      <trkpt lat="44.96611" lon="5.41742">
        <ele>888</ele>
        <time>2020-06-25T16:26:09Z</time>
      </trkpt>
      <trkpt lat="44.96638" lon="5.41737">
        <ele>888</ele>
        <time>2020-06-25T16:26:18Z</time>
      </trkpt>
      <trkpt lat="44.96643" lon="5.41735">
        <ele>888</ele>
        <time>2020-06-25T16:26:19Z</time>
      </trkpt>
      <trkpt lat="44.96648" lon="5.41731">
        <ele>888</ele>
        <time>2020-06-25T16:26:20Z</time>
      </trkpt>
      <trkpt lat="44.96655" lon="5.41727">
        <ele>888</ele>
        <time>2020-06-25T16:26:21Z</time>
      </trkpt>
      <trkpt lat="44.96662" lon="5.41725">
        <ele>888</ele>
        <time>2020-06-25T16:26:22Z</time>
      </trkpt>
      <trkpt lat="44.96667" lon="5.41725">
        <ele>889</ele>
        <time>2020-06-25T16:26:23Z</time>
      </trkpt>
      <trkpt lat="44.96674" lon="5.41726">
        <ele>889</ele>
        <time>2020-06-25T16:26:24Z</time>
      </trkpt>
      <trkpt lat="44.9668" lon="5.41727">
        <ele>889</ele>
        <time>2020-06-25T16:26:25Z</time>
      </trkpt>
      <trkpt lat="44.96684" lon="5.41729">
        <ele>889</ele>
        <time>2020-06-25T16:26:26Z</time>
      </trkpt>
      <trkpt lat="44.96688" lon="5.41731">
        <ele>890</ele>
        <time>2020-06-25T16:26:27Z</time>
      </trkpt>
      <trkpt lat="44.96692" lon="5.41735">
        <ele>890</ele>
        <time>2020-06-25T16:26:29Z</time>
      </trkpt>
      <trkpt lat="44.96693" lon="5.41739">
        <ele>891</ele>
        <time>2020-06-25T16:26:30Z</time>
      </trkpt>
      <trkpt lat="44.96693" lon="5.41742">
        <ele>891</ele>
        <time>2020-06-25T16:26:31Z</time>
      </trkpt>
      <trkpt lat="44.96692" lon="5.41745">
        <ele>891</ele>
        <time>2020-06-25T16:26:32Z</time>
      </trkpt>
      <trkpt lat="44.96691" lon="5.41747">
        <ele>891</ele>
        <time>2020-06-25T16:26:33Z</time>
      </trkpt>
      <trkpt lat="44.9669" lon="5.4175">
        <ele>891</ele>
        <time>2020-06-25T16:26:34Z</time>
      </trkpt>
      <trkpt lat="44.9669" lon="5.41752">
        <ele>891</ele>
        <time>2020-06-25T16:26:35Z</time>
      </trkpt>
      <trkpt lat="44.96689" lon="5.41755">
        <ele>891</ele>
        <time>2020-06-25T16:26:36Z</time>
      </trkpt>
      <trkpt lat="44.96689" lon="5.41758">
        <ele>892</ele>
        <time>2020-06-25T16:26:37Z</time>
      </trkpt>
      <trkpt lat="44.96688" lon="5.41762">
        <ele>892</ele>
        <time>2020-06-25T16:26:38Z</time>
      </trkpt>
      <trkpt lat="44.96677" lon="5.41806">
        <ele>892</ele>
        <time>2020-06-25T16:26:49Z</time>
      </trkpt>
      <trkpt lat="44.96653" lon="5.41869">
        <ele>894</ele>
        <time>2020-06-25T16:27:04Z</time>
      </trkpt>
      <trkpt lat="44.96629" lon="5.41918">
        <ele>894</ele>
        <time>2020-06-25T16:27:18Z</time>
      </trkpt>
      <trkpt lat="44.96611" lon="5.41952">
        <ele>896</ele>
        <time>2020-06-25T16:27:31Z</time>
      </trkpt>
      <trkpt lat="44.966" lon="5.41982">
        <ele>898</ele>
        <time>2020-06-25T16:27:42Z</time>
      </trkpt>
      <trkpt lat="44.96599" lon="5.41987">
        <ele>898</ele>
        <time>2020-06-25T16:27:44Z</time>
      </trkpt>
      <trkpt lat="44.96597" lon="5.41989">
        <ele>898</ele>
        <time>2020-06-25T16:27:45Z</time>
      </trkpt>
      <trkpt lat="44.96595" lon="5.41991">
        <ele>898</ele>
        <time>2020-06-25T16:27:47Z</time>
      </trkpt>
      <trkpt lat="44.96595" lon="5.41996">
        <ele>898</ele>
        <time>2020-06-25T16:27:50Z</time>
      </trkpt>
      <trkpt lat="44.96594" lon="5.41998">
        <ele>899</ele>
        <time>2020-06-25T16:27:51Z</time>
      </trkpt>
      <trkpt lat="44.96593" lon="5.42">
        <ele>899</ele>
        <time>2020-06-25T16:27:52Z</time>
      </trkpt>
      <trkpt lat="44.96584" lon="5.42017">
        <ele>899</ele>
        <time>2020-06-25T16:27:59Z</time>
      </trkpt>
      <trkpt lat="44.96584" lon="5.4202">
        <ele>900</ele>
        <time>2020-06-25T16:28:00Z</time>
      </trkpt>
      <trkpt lat="44.96583" lon="5.42023">
        <ele>900</ele>
        <time>2020-06-25T16:28:01Z</time>
      </trkpt>
      <trkpt lat="44.96581" lon="5.42025">
        <ele>900</ele>
        <time>2020-06-25T16:28:02Z</time>
      </trkpt>
      <trkpt lat="44.96579" lon="5.42027">
        <ele>901</ele>
        <time>2020-06-25T16:28:03Z</time>
      </trkpt>
      <trkpt lat="44.96578" lon="5.4203">
        <ele>902</ele>
        <time>2020-06-25T16:28:04Z</time>
      </trkpt>
      <trkpt lat="44.96577" lon="5.42033">
        <ele>902</ele>
        <time>2020-06-25T16:28:05Z</time>
      </trkpt>
      <trkpt lat="44.96576" lon="5.42036">
        <ele>902</ele>
        <time>2020-06-25T16:28:06Z</time>
      </trkpt>
      <trkpt lat="44.96565" lon="5.42064">
        <ele>906</ele>
        <time>2020-06-25T16:28:18Z</time>
      </trkpt>
      <trkpt lat="44.96564" lon="5.42066">
        <ele>906</ele>
        <time>2020-06-25T16:28:19Z</time>
      </trkpt>
      <trkpt lat="44.96563" lon="5.42068">
        <ele>907</ele>
        <time>2020-06-25T16:28:20Z</time>
      </trkpt>
      <trkpt lat="44.96562" lon="5.4207">
        <ele>907</ele>
        <time>2020-06-25T16:28:21Z</time>
      </trkpt>
      <trkpt lat="44.96561" lon="5.42073">
        <ele>907</ele>
        <time>2020-06-25T16:28:22Z</time>
      </trkpt>
      <trkpt lat="44.9656" lon="5.42075">
        <ele>908</ele>
        <time>2020-06-25T16:28:23Z</time>
      </trkpt>
      <trkpt lat="44.96556" lon="5.42084">
        <ele>909</ele>
        <time>2020-06-25T16:28:27Z</time>
      </trkpt>
      <trkpt lat="44.96555" lon="5.42086">
        <ele>909</ele>
        <time>2020-06-25T16:28:28Z</time>
      </trkpt>
      <trkpt lat="44.96554" lon="5.42088">
        <ele>909</ele>
        <time>2020-06-25T16:28:29Z</time>
      </trkpt>
      <trkpt lat="44.96542" lon="5.4213">
        <ele>909</ele>
        <time>2020-06-25T16:28:44Z</time>
      </trkpt>
      <trkpt lat="44.96536" lon="5.42181">
        <ele>903</ele>
        <time>2020-06-25T16:28:57Z</time>
      </trkpt>
      <trkpt lat="44.96531" lon="5.42201">
        <ele>901</ele>
        <time>2020-06-25T16:29:01Z</time>
      </trkpt>
      <trkpt lat="44.96528" lon="5.42207">
        <ele>900</ele>
        <time>2020-06-25T16:29:02Z</time>
      </trkpt>
      <trkpt lat="44.96524" lon="5.42213">
        <ele>900</ele>
        <time>2020-06-25T16:29:03Z</time>
      </trkpt>
      <trkpt lat="44.96518" lon="5.42218">
        <ele>899</ele>
        <time>2020-06-25T16:29:04Z</time>
      </trkpt>
      <trkpt lat="44.96512" lon="5.42222">
        <ele>899</ele>
        <time>2020-06-25T16:29:05Z</time>
      </trkpt>
      <trkpt lat="44.96504" lon="5.42225">
        <ele>898</ele>
        <time>2020-06-25T16:29:06Z</time>
      </trkpt>
      <trkpt lat="44.96496" lon="5.42226">
        <ele>898</ele>
        <time>2020-06-25T16:29:07Z</time>
      </trkpt>
      <trkpt lat="44.96489" lon="5.42225">
        <ele>898</ele>
        <time>2020-06-25T16:29:08Z</time>
      </trkpt>
      <trkpt lat="44.96444" lon="5.42223">
        <ele>895</ele>
        <time>2020-06-25T16:29:13Z</time>
      </trkpt>
      <trkpt lat="44.96437" lon="5.42229">
        <ele>894</ele>
        <time>2020-06-25T16:29:14Z</time>
      </trkpt>
      <trkpt lat="44.96431" lon="5.42239">
        <ele>893</ele>
        <time>2020-06-25T16:29:15Z</time>
      </trkpt>
      <trkpt lat="44.96429" lon="5.42252">
        <ele>891</ele>
        <time>2020-06-25T16:29:16Z</time>
      </trkpt>
      <trkpt lat="44.96431" lon="5.42265">
        <ele>890</ele>
        <time>2020-06-25T16:29:17Z</time>
      </trkpt>
      <trkpt lat="44.96437" lon="5.42276">
        <ele>889</ele>
        <time>2020-06-25T16:29:18Z</time>
      </trkpt>
      <trkpt lat="44.96445" lon="5.42284">
        <ele>888</ele>
        <time>2020-06-25T16:29:19Z</time>
      </trkpt>
      <trkpt lat="44.96453" lon="5.42293">
        <ele>888</ele>
        <time>2020-06-25T16:29:20Z</time>
      </trkpt>
      <trkpt lat="44.9649" lon="5.42328">
        <ele>886</ele>
        <time>2020-06-25T16:29:24Z</time>
      </trkpt>
      <trkpt lat="44.96528" lon="5.42365">
        <ele>881</ele>
        <time>2020-06-25T16:29:28Z</time>
      </trkpt>
      <trkpt lat="44.96537" lon="5.42377">
        <ele>880</ele>
        <time>2020-06-25T16:29:29Z</time>
      </trkpt>
      <trkpt lat="44.96544" lon="5.4239">
        <ele>878</ele>
        <time>2020-06-25T16:29:30Z</time>
      </trkpt>
      <trkpt lat="44.96548" lon="5.42406">
        <ele>877</ele>
        <time>2020-06-25T16:29:31Z</time>
      </trkpt>
      <trkpt lat="44.96552" lon="5.42422">
        <ele>876</ele>
        <time>2020-06-25T16:29:32Z</time>
      </trkpt>
      <trkpt lat="44.96555" lon="5.42439">
        <ele>875</ele>
        <time>2020-06-25T16:29:33Z</time>
      </trkpt>
      <trkpt lat="44.9656" lon="5.42456">
        <ele>874</ele>
        <time>2020-06-25T16:29:34Z</time>
      </trkpt>
      <trkpt lat="44.96566" lon="5.42471">
        <ele>874</ele>
        <time>2020-06-25T16:29:35Z</time>
      </trkpt>
      <trkpt lat="44.96593" lon="5.42528">
        <ele>873</ele>
        <time>2020-06-25T16:29:39Z</time>
      </trkpt>
      <trkpt lat="44.966" lon="5.42541">
        <ele>873</ele>
        <time>2020-06-25T16:29:40Z</time>
      </trkpt>
      <trkpt lat="44.96608" lon="5.42553">
        <ele>873</ele>
        <time>2020-06-25T16:29:41Z</time>
      </trkpt>
      <trkpt lat="44.96617" lon="5.42564">
        <ele>873</ele>
        <time>2020-06-25T16:29:42Z</time>
      </trkpt>
      <trkpt lat="44.96625" lon="5.42573">
        <ele>873</ele>
        <time>2020-06-25T16:29:43Z</time>
      </trkpt>
      <trkpt lat="44.96634" lon="5.42582">
        <ele>873</ele>
        <time>2020-06-25T16:29:44Z</time>
      </trkpt>
      <trkpt lat="44.96657" lon="5.42608">
        <ele>874</ele>
        <time>2020-06-25T16:29:47Z</time>
      </trkpt>
      <trkpt lat="44.96663" lon="5.42619">
        <ele>873</ele>
        <time>2020-06-25T16:29:48Z</time>
      </trkpt>
      <trkpt lat="44.96701" lon="5.42691">
        <ele>872</ele>
        <time>2020-06-25T16:29:56Z</time>
      </trkpt>
      <trkpt lat="44.96707" lon="5.42698">
        <ele>872</ele>
        <time>2020-06-25T16:29:57Z</time>
      </trkpt>
      <trkpt lat="44.96713" lon="5.42703">
        <ele>872</ele>
        <time>2020-06-25T16:29:58Z</time>
      </trkpt>
      <trkpt lat="44.9672" lon="5.42708">
        <ele>872</ele>
        <time>2020-06-25T16:29:59Z</time>
      </trkpt>
      <trkpt lat="44.96726" lon="5.42711">
        <ele>873</ele>
        <time>2020-06-25T16:30:00Z</time>
      </trkpt>
      <trkpt lat="44.96732" lon="5.42714">
        <ele>873</ele>
        <time>2020-06-25T16:30:01Z</time>
      </trkpt>
      <trkpt lat="44.96804" lon="5.42764">
        <ele>872</ele>
        <time>2020-06-25T16:30:15Z</time>
      </trkpt>
      <trkpt lat="44.96811" lon="5.42779">
        <ele>873</ele>
        <time>2020-06-25T16:30:18Z</time>
      </trkpt>
      <trkpt lat="44.96834" lon="5.42832">
        <ele>873</ele>
        <time>2020-06-25T16:30:32Z</time>
      </trkpt>
      <trkpt lat="44.96852" lon="5.42874">
        <ele>873</ele>
        <time>2020-06-25T16:30:47Z</time>
      </trkpt>
      <trkpt lat="44.96852" lon="5.4288">
        <ele>873</ele>
        <time>2020-06-25T16:30:49Z</time>
      </trkpt>
      <trkpt lat="44.96852" lon="5.42882">
        <ele>873</ele>
        <time>2020-06-25T16:30:50Z</time>
      </trkpt>
      <trkpt lat="44.96851" lon="5.42883">
        <ele>873</ele>
        <time>2020-06-25T16:30:51Z</time>
      </trkpt>
      <trkpt lat="44.96849" lon="5.42885">
        <ele>873</ele>
        <time>2020-06-25T16:30:52Z</time>
      </trkpt>
      <trkpt lat="44.96848" lon="5.42886">
        <ele>873</ele>
        <time>2020-06-25T16:30:53Z</time>
      </trkpt>
      <trkpt lat="44.96813" lon="5.42897">
        <ele>872</ele>
        <time>2020-06-25T16:31:06Z</time>
      </trkpt>
      <trkpt lat="44.96808" lon="5.42935">
        <ele>871</ele>
        <time>2020-06-25T16:31:14Z</time>
      </trkpt>
      <trkpt lat="44.96808" lon="5.42942">
        <ele>871</ele>
        <time>2020-06-25T16:31:15Z</time>
      </trkpt>
      <trkpt lat="44.96811" lon="5.43001">
        <ele>871</ele>
        <time>2020-06-25T16:31:23Z</time>
      </trkpt>
      <trkpt lat="44.96813" lon="5.43006">
        <ele>871</ele>
        <time>2020-06-25T16:31:24Z</time>
      </trkpt>
      <trkpt lat="44.96818" lon="5.43011">
        <ele>871</ele>
        <time>2020-06-25T16:31:25Z</time>
      </trkpt>
      <trkpt lat="44.96823" lon="5.43013">
        <ele>871</ele>
        <time>2020-06-25T16:31:26Z</time>
      </trkpt>
      <trkpt lat="44.96825" lon="5.43013">
        <ele>871</ele>
        <time>2020-06-25T16:31:27Z</time>
      </trkpt>
      <trkpt lat="44.96828" lon="5.43012">
        <ele>871</ele>
        <time>2020-06-25T16:31:28Z</time>
      </trkpt>
      <trkpt lat="44.9683" lon="5.43008">
        <ele>871</ele>
        <time>2020-06-25T16:31:29Z</time>
      </trkpt>
      <trkpt lat="44.96832" lon="5.43003">
        <ele>871</ele>
        <time>2020-06-25T16:31:30Z</time>
      </trkpt>
      <trkpt lat="44.96832" lon="5.43001">
        <ele>871</ele>
        <time>2020-06-25T16:31:31Z</time>
      </trkpt>
      <trkpt lat="44.96831" lon="5.42997">
        <ele>871</ele>
        <time>2020-06-25T16:31:32Z</time>
      </trkpt>
      <trkpt lat="44.96831" lon="5.42993">
        <ele>871</ele>
        <time>2020-06-25T16:31:33Z</time>
      </trkpt>
      <trkpt lat="44.9683" lon="5.42988">
        <ele>871</ele>
        <time>2020-06-25T16:31:34Z</time>
      </trkpt>
      <trkpt lat="44.9683" lon="5.42961">
        <ele>871</ele>
        <time>2020-06-25T16:31:43Z</time>
      </trkpt>
      <trkpt lat="44.9683" lon="5.42914">
        <ele>872</ele>
        <time>2020-06-25T16:31:57Z</time>
      </trkpt>
      <trkpt lat="44.96825" lon="5.42911">
        <ele>872</ele>
        <time>2020-06-25T16:32:07Z</time>
      </trkpt>
      <trkpt lat="44.96823" lon="5.4291">
        <ele>872</ele>
        <time>2020-06-25T16:32:09Z</time>
      </trkpt>
      <trkpt lat="44.9682" lon="5.42911">
        <ele>872</ele>
        <time>2020-06-25T16:32:12Z</time>
      </trkpt>
      <trkpt lat="44.96819" lon="5.42912">
        <ele>872</ele>
        <time>2020-06-25T16:32:27Z</time>
      </trkpt>
    </trkseg>
  </trk>
</gpx>